<?xml version='1.0' encoding='UTF-8'?><gpx version="1.1" creator="JPX - https://github.com/jenetics/jpx" xmlns="http://www.topografix.com/GPX/1/1"><trk><trkseg><trkpt lat="41.759643372305604" lon="12.643972347744725"><ele>311.0</ele><time>2026-05-02T10:44:07.023Z</time></trkpt><trkpt lat="41.759543316345656" lon="12.643843679131981"><ele>311.0</ele><time>2026-05-02T10:44:08.023Z</time></trkpt><trkpt lat="41.75943544910687" lon="12.643751952916622"><ele>311.0</ele><time>2026-05-02T10:44:09.023Z</time></trkpt><trkpt lat="41.75937360366377" lon="12.643629558787937"><ele>311.0</ele><time>2026-05-02T10:44:10.023Z</time></trkpt><trkpt lat="41.759321968394026" lon="12.643519447554977"><ele>311.6</ele><time>2026-05-02T10:44:11.023Z</time></trkpt><trkpt lat="41.75928888589977" lon="12.643388489815676"><ele>312.20000000000005</ele><time>2026-05-02T10:44:12.023Z</time></trkpt><trkpt lat="41.75926014248971" lon="12.643274608562018"><ele>312.79999999999995</ele><time>2026-05-02T10:44:13.023Z</time></trkpt><trkpt lat="41.75922877292328" lon="12.643160562964509"><ele>313.4</ele><time>2026-05-02T10:44:14.023Z</time></trkpt><trkpt lat="41.759187292414836" lon="12.643043543539735"><ele>314.0</ele><time>2026-05-02T10:44:15.023Z</time></trkpt><trkpt lat="41.7591416536238" lon="12.64292030242332"><ele>314.0</ele><time>2026-05-02T10:44:16.023Z</time></trkpt><trkpt lat="41.759099194166176" lon="12.642808488155705"><ele>314.0</ele><time>2026-05-02T10:44:17.023Z</time></trkpt><trkpt lat="41.75904899253777" lon="12.642687731905648"><ele>314.0</ele><time>2026-05-02T10:44:18.023Z</time></trkpt><trkpt lat="41.759003599969425" lon="12.642564535229742"><ele>314.0</ele><time>2026-05-02T10:44:19.023Z</time></trkpt><trkpt lat="41.75894464294546" lon="12.642444493915919"><ele>314.0</ele><time>2026-05-02T10:44:20.023Z</time></trkpt><trkpt lat="41.75888962196598" lon="12.642350345411014"><ele>312.83333333333337</ele><time>2026-05-02T10:44:21Z</time></trkpt><trkpt lat="41.75884233266002" lon="12.64227434875957"><ele>311.6666666666667</ele><time>2026-05-02T10:44:22Z</time></trkpt><trkpt lat="41.75877407761144" lon="12.642165933764122"><ele>310.5</ele><time>2026-05-02T10:44:24Z</time></trkpt><trkpt lat="41.7587102363605" lon="12.642136872408186"><ele>309.3333333333333</ele><time>2026-05-02T10:44:59Z</time></trkpt><trkpt lat="41.75862131158822" lon="12.642028453047754"><ele>308.16666666666663</ele><time>2026-05-02T10:45:01Z</time></trkpt><trkpt lat="41.758571872478996" lon="12.641965404388838"><ele>307.0</ele><time>2026-05-02T10:45:02Z</time></trkpt><trkpt lat="41.75851148760962" lon="12.641892886870556"><ele>306.6</ele><time>2026-05-02T10:45:03Z</time></trkpt><trkpt lat="41.758441445338256" lon="12.641815152837415"><ele>306.2</ele><time>2026-05-02T10:45:04Z</time></trkpt><trkpt lat="41.758367646534985" lon="12.641738567852416"><ele>305.8</ele><time>2026-05-02T10:45:05Z</time></trkpt><trkpt lat="41.75828607156403" lon="12.641650823052759"><ele>305.4</ele><time>2026-05-02T10:45:06Z</time></trkpt><trkpt lat="41.75819720658959" lon="12.64155498990363"><ele>305.0</ele><time>2026-05-02T10:45:07Z</time></trkpt><trkpt lat="41.7581017171949" lon="12.641450194330746"><ele>305.0</ele><time>2026-05-02T10:45:08Z</time></trkpt><trkpt lat="41.75800077059686" lon="12.641339915325654"><ele>305.0</ele><time>2026-05-02T10:45:09Z</time></trkpt><trkpt lat="41.757900910380904" lon="12.641230764569553"><ele>305.0</ele><time>2026-05-02T10:45:10Z</time></trkpt><trkpt lat="41.75780068979018" lon="12.64111093379718"><ele>305.0</ele><time>2026-05-02T10:45:11Z</time></trkpt><trkpt lat="41.757688897547155" lon="12.640991209476674"><ele>304.2</ele><time>2026-05-02T10:45:12Z</time></trkpt><trkpt lat="41.75757982378631" lon="12.64086830678387"><ele>303.4</ele><time>2026-05-02T10:45:13Z</time></trkpt><trkpt lat="41.75748494492587" lon="12.640758368559943"><ele>302.6</ele><time>2026-05-02T10:45:14Z</time></trkpt><trkpt lat="41.7573980080212" lon="12.640684830490935"><ele>301.8</ele><time>2026-05-02T10:45:15Z</time></trkpt><trkpt lat="41.75734304398249" lon="12.640624993128869"><ele>301.0</ele><time>2026-05-02T10:45:16Z</time></trkpt><trkpt lat="41.75727727184005" lon="12.640569880961307"><ele>301.0</ele><time>2026-05-02T10:45:17Z</time></trkpt><trkpt lat="41.757207246547914" lon="12.64050109597849"><ele>301.0</ele><time>2026-05-02T10:45:18Z</time></trkpt><trkpt lat="41.757160182777994" lon="12.640436176730319"><ele>301.0</ele><time>2026-05-02T10:45:19Z</time></trkpt><trkpt lat="41.75710273209054" lon="12.640358413820016"><ele>301.0</ele><time>2026-05-02T10:45:20Z</time></trkpt><trkpt lat="41.757046184889674" lon="12.640295369360903"><ele>301.0</ele><time>2026-05-02T10:45:21Z</time></trkpt><trkpt lat="41.75697934620054" lon="12.640232007404036"><ele>301.0</ele><time>2026-05-02T10:45:22Z</time></trkpt><trkpt lat="41.75690415513421" lon="12.640129823793341"><ele>300.25</ele><time>2026-05-02T10:45:23Z</time></trkpt><trkpt lat="41.75681443473677" lon="12.640038581334855"><ele>299.5</ele><time>2026-05-02T10:45:24Z</time></trkpt><trkpt lat="41.756735089739834" lon="12.639940863351816"><ele>298.75</ele><time>2026-05-02T10:45:24.999Z</time></trkpt><trkpt lat="41.756652615103995" lon="12.639828753803432"><ele>298.0</ele><time>2026-05-02T10:45:25.999Z</time></trkpt><trkpt lat="41.75655713940584" lon="12.639720030007773"><ele>298.0</ele><time>2026-05-02T10:45:26.999Z</time></trkpt><trkpt lat="41.75645748453387" lon="12.63960184612557"><ele>298.0</ele><time>2026-05-02T10:45:27.999Z</time></trkpt><trkpt lat="41.756347918124376" lon="12.63948529772943"><ele>298.0</ele><time>2026-05-02T10:45:28.999Z</time></trkpt><trkpt lat="41.75623802451966" lon="12.639365928997961"><ele>298.0</ele><time>2026-05-02T10:45:29.999Z</time></trkpt><trkpt lat="41.75611865957176" lon="12.639240773724723"><ele>297.66666666666663</ele><time>2026-05-02T10:45:30.999Z</time></trkpt><trkpt lat="41.755999911070056" lon="12.639106106125752"><ele>297.3333333333333</ele><time>2026-05-02T10:45:31.999Z</time></trkpt><trkpt lat="41.755884045277654" lon="12.638981340989702"><ele>297.0</ele><time>2026-05-02T10:45:32.999Z</time></trkpt><trkpt lat="41.75576413923784" lon="12.638845201164644"><ele>297.0</ele><time>2026-05-02T10:45:33.999Z</time></trkpt><trkpt lat="41.755639796620954" lon="12.63870871469064"><ele>297.0</ele><time>2026-05-02T10:45:34.999Z</time></trkpt><trkpt lat="41.75551155505556" lon="12.638566827374369"><ele>297.0</ele><time>2026-05-02T10:45:35.999Z</time></trkpt><trkpt lat="41.75538101585404" lon="12.638425448909297"><ele>295.3333333333333</ele><time>2026-05-02T10:45:36.999Z</time></trkpt><trkpt lat="41.75525202073997" lon="12.638284083039215"><ele>293.66666666666663</ele><time>2026-05-02T10:45:37.999Z</time></trkpt><trkpt lat="41.75512505278818" lon="12.638145921202476"><ele>292.0</ele><time>2026-05-02T10:45:38.999Z</time></trkpt><trkpt lat="41.75500034248507" lon="12.638005361946027"><ele>292.0</ele><time>2026-05-02T10:45:39.999Z</time></trkpt><trkpt lat="41.75487052454539" lon="12.637866189588555"><ele>292.0</ele><time>2026-05-02T10:45:40.999Z</time></trkpt><trkpt lat="41.75473912355549" lon="12.637723314101954"><ele>292.0</ele><time>2026-05-02T10:45:41.999Z</time></trkpt><trkpt lat="41.75460995226226" lon="12.637575510146334"><ele>290.3333333333333</ele><time>2026-05-02T10:45:42.999Z</time></trkpt><trkpt lat="41.754481185795754" lon="12.637429028685153"><ele>288.6666666666667</ele><time>2026-05-02T10:45:43.999Z</time></trkpt><trkpt lat="41.75435091583569" lon="12.637285870953079"><ele>287.0</ele><time>2026-05-02T10:45:44.999Z</time></trkpt><trkpt lat="41.75422249343216" lon="12.637144554655826"><ele>287.0</ele><time>2026-05-02T10:45:45.999Z</time></trkpt><trkpt lat="41.754095625523284" lon="12.637005982876742"><ele>287.0</ele><time>2026-05-02T10:45:46.999Z</time></trkpt><trkpt lat="41.753964230953976" lon="12.636872050444655"><ele>287.0</ele><time>2026-05-02T10:45:47.999Z</time></trkpt><trkpt lat="41.75382960564002" lon="12.636743638137885"><ele>286.0</ele><time>2026-05-02T10:45:48.999Z</time></trkpt><trkpt lat="41.75369413950895" lon="12.63662138829046"><ele>285.0</ele><time>2026-05-02T10:45:49.999Z</time></trkpt><trkpt lat="41.75355314240795" lon="12.63651091107043"><ele>284.0</ele><time>2026-05-02T10:45:50.999Z</time></trkpt><trkpt lat="41.75340856096846" lon="12.636404078563022"><ele>284.0</ele><time>2026-05-02T10:45:51.999Z</time></trkpt><trkpt lat="41.7532652334659" lon="12.636300585122475"><ele>284.0</ele><time>2026-05-02T10:45:52.999Z</time></trkpt><trkpt lat="41.75312828232041" lon="12.636213080872878"><ele>284.0</ele><time>2026-05-02T10:45:53.999Z</time></trkpt><trkpt lat="41.75298427342926" lon="12.636135067441474"><ele>284.0</ele><time>2026-05-02T10:45:54.999Z</time></trkpt><trkpt lat="41.752837009654726" lon="12.636114936117924"><ele>284.0</ele><time>2026-05-02T10:45:55.999Z</time></trkpt><trkpt lat="41.75269607882302" lon="12.636109313573286"><ele>284.0</ele><time>2026-05-02T10:45:56.999Z</time></trkpt><trkpt lat="41.75256336965666" lon="12.636146151037707"><ele>284.0</ele><time>2026-05-02T10:45:57.999Z</time></trkpt><trkpt lat="41.752434545955495" lon="12.636255745586968"><ele>284.0</ele><time>2026-05-02T10:45:58.999Z</time></trkpt><trkpt lat="41.752332428263216" lon="12.63636234416189"><ele>284.0</ele><time>2026-05-02T10:45:59.999Z</time></trkpt><trkpt lat="41.752234133733104" lon="12.636504840796714"><ele>284.0</ele><time>2026-05-02T10:46:00.999Z</time></trkpt><trkpt lat="41.75218776232811" lon="12.636635271994418"><ele>284.0</ele><time>2026-05-02T10:46:01.999Z</time></trkpt><trkpt lat="41.75214219274513" lon="12.636805894779075"><ele>285.75</ele><time>2026-05-02T10:46:02.999Z</time></trkpt><trkpt lat="41.75211669833115" lon="12.636988417528976"><ele>287.5</ele><time>2026-05-02T10:46:03.999Z</time></trkpt><trkpt lat="41.752112506820296" lon="12.637177537639074"><ele>289.25</ele><time>2026-05-02T10:46:04.999Z</time></trkpt><trkpt lat="41.75210648687247" lon="12.637352991880302"><ele>291.0</ele><time>2026-05-02T10:46:05.999Z</time></trkpt><trkpt lat="41.752085346182476" lon="12.637537884095629"><ele>291.0</ele><time>2026-05-02T10:46:06.999Z</time></trkpt><trkpt lat="41.75207086501669" lon="12.637696774555954"><ele>291.0</ele><time>2026-05-02T10:46:07.999Z</time></trkpt><trkpt lat="41.75203120126322" lon="12.637847007803135"><ele>291.0</ele><time>2026-05-02T10:46:08.999Z</time></trkpt><trkpt lat="41.7519765479688" lon="12.63798162781542"><ele>291.0</ele><time>2026-05-02T10:46:09.999Z</time></trkpt><trkpt lat="41.75193032942977" lon="12.638090644685022"><ele>291.0</ele><time>2026-05-02T10:46:10.999Z</time></trkpt><trkpt lat="41.75187856071628" lon="12.638157365283057"><ele>293.1666666666667</ele><time>2026-05-02T10:46:11.999Z</time></trkpt><trkpt lat="41.75183142493234" lon="12.638214620542954"><ele>295.3333333333333</ele><time>2026-05-02T10:46:12.999Z</time></trkpt><trkpt lat="41.75180268696926" lon="12.63830300966263"><ele>297.5</ele><time>2026-05-02T10:46:13.999Z</time></trkpt><trkpt lat="41.75170922937799" lon="12.638260121431442"><ele>299.66666666666663</ele><time>2026-05-02T10:46:14.999Z</time></trkpt><trkpt lat="41.75164426920868" lon="12.6382889551487"><ele>301.8333333333333</ele><time>2026-05-02T10:46:15.999Z</time></trkpt><trkpt lat="41.75158385249" lon="12.63831577223116"><ele>304.0</ele><time>2026-05-02T10:46:16.999Z</time></trkpt><trkpt lat="41.751491385428814" lon="12.638356040148457"><ele>304.0</ele><time>2026-05-02T10:46:17.999Z</time></trkpt><trkpt lat="41.75141061650904" lon="12.638394090512453"><ele>304.0</ele><time>2026-05-02T10:46:19Z</time></trkpt><trkpt lat="41.75131985080671" lon="12.638435962804872"><ele>304.0</ele><time>2026-05-02T10:46:20Z</time></trkpt><trkpt lat="41.751218171415125" lon="12.638483702176972"><ele>304.0</ele><time>2026-05-02T10:46:21Z</time></trkpt><trkpt lat="41.75112516665469" lon="12.63852736874674"><ele>304.0</ele><time>2026-05-02T10:46:22Z</time></trkpt><trkpt lat="41.751040296560454" lon="12.638567215983375"><ele>305.0</ele><time>2026-05-02T10:46:23Z</time></trkpt><trkpt lat="41.75095561270105" lon="12.638607101821249"><ele>306.0</ele><time>2026-05-02T10:46:24Z</time></trkpt><trkpt lat="41.75086206626535" lon="12.638651205007841"><ele>307.0</ele><time>2026-05-02T10:46:25Z</time></trkpt><trkpt lat="41.75074854944024" lon="12.638714120341891"><ele>308.0</ele><time>2026-05-02T10:46:26Z</time></trkpt><trkpt lat="41.750668977480075" lon="12.63876096496171"><ele>309.0</ele><time>2026-05-02T10:46:27Z</time></trkpt><trkpt lat="41.75057652136084" lon="12.638801092567292"><ele>309.8</ele><time>2026-05-02T10:46:28Z</time></trkpt><trkpt lat="41.75048542115839" lon="12.638839800365234"><ele>310.59999999999997</ele><time>2026-05-02T10:46:29Z</time></trkpt><trkpt lat="41.750389254799906" lon="12.638892053413649"><ele>311.4</ele><time>2026-05-02T10:46:30Z</time></trkpt><trkpt lat="41.75028816898919" lon="12.63891144020975"><ele>312.2</ele><time>2026-05-02T10:46:31Z</time></trkpt><trkpt lat="41.7501803346557" lon="12.638952523790069"><ele>313.0</ele><time>2026-05-02T10:46:32Z</time></trkpt><trkpt lat="41.750075793806694" lon="12.639008338261595"><ele>313.0</ele><time>2026-05-02T10:46:33Z</time></trkpt><trkpt lat="41.74997389691896" lon="12.63905191620349"><ele>313.0</ele><time>2026-05-02T10:46:34Z</time></trkpt><trkpt lat="41.74986935918601" lon="12.63910402874418"><ele>313.0</ele><time>2026-05-02T10:46:35Z</time></trkpt><trkpt lat="41.74976025957923" lon="12.639147640393045"><ele>313.0</ele><time>2026-05-02T10:46:36Z</time></trkpt><trkpt lat="41.74966440988299" lon="12.639196513066109"><ele>313.0</ele><time>2026-05-02T10:46:37Z</time></trkpt><trkpt lat="41.74955392101508" lon="12.639247377777604"><ele>313.0</ele><time>2026-05-02T10:46:38Z</time></trkpt><trkpt lat="41.74943861862198" lon="12.639296666517792"><ele>313.0</ele><time>2026-05-02T10:46:39Z</time></trkpt><trkpt lat="41.74932804405294" lon="12.639351900682598"><ele>313.0</ele><time>2026-05-02T10:46:40Z</time></trkpt><trkpt lat="41.74921536652093" lon="12.639403213634226"><ele>313.0</ele><time>2026-05-02T10:46:41Z</time></trkpt><trkpt lat="41.74910398859733" lon="12.639457300098206"><ele>313.5</ele><time>2026-05-02T10:46:42Z</time></trkpt><trkpt lat="41.748990267625544" lon="12.639515542020787"><ele>314.0</ele><time>2026-05-02T10:46:43Z</time></trkpt><trkpt lat="41.74887820588223" lon="12.639566726433552"><ele>314.5</ele><time>2026-05-02T10:46:44Z</time></trkpt><trkpt lat="41.748762502986175" lon="12.639626138512405"><ele>315.0</ele><time>2026-05-02T10:46:45Z</time></trkpt><trkpt lat="41.74864875407427" lon="12.639680070209506"><ele>315.75</ele><time>2026-05-02T10:46:46Z</time></trkpt><trkpt lat="41.74853062431243" lon="12.63973263241598"><ele>316.5</ele><time>2026-05-02T10:46:47Z</time></trkpt><trkpt lat="41.74841102165936" lon="12.639785948119384"><ele>317.25</ele><time>2026-05-02T10:46:48Z</time></trkpt><trkpt lat="41.748292566394184" lon="12.639840746752453"><ele>318.0</ele><time>2026-05-02T10:46:49Z</time></trkpt><trkpt lat="41.74817053502571" lon="12.639899552877342"><ele>318.0</ele><time>2026-05-02T10:46:50Z</time></trkpt><trkpt lat="41.748052142569804" lon="12.639970513612212"><ele>318.0</ele><time>2026-05-02T10:46:51Z</time></trkpt><trkpt lat="41.747937862431606" lon="12.640042332575351"><ele>318.0</ele><time>2026-05-02T10:46:52Z</time></trkpt><trkpt lat="41.747817879294274" lon="12.640123837271844"><ele>318.0</ele><time>2026-05-02T10:46:53Z</time></trkpt><trkpt lat="41.747723013092084" lon="12.640262452088837"><ele>319.75</ele><time>2026-05-02T10:46:54Z</time></trkpt><trkpt lat="41.747616419345874" lon="12.640422039044386"><ele>321.5</ele><time>2026-05-02T10:46:55Z</time></trkpt><trkpt lat="41.74753862834772" lon="12.640565497811727"><ele>323.25</ele><time>2026-05-02T10:46:56Z</time></trkpt><trkpt lat="41.74749022305778" lon="12.64072520949129"><ele>325.0</ele><time>2026-05-02T10:46:57Z</time></trkpt><trkpt lat="41.747442909364324" lon="12.640882105708918"><ele>325.0</ele><time>2026-05-02T10:46:58Z</time></trkpt><trkpt lat="41.7474408532592" lon="12.641077317029076"><ele>325.0</ele><time>2026-05-02T10:46:59Z</time></trkpt><trkpt lat="41.74744801548466" lon="12.641238739520183"><ele>325.0</ele><time>2026-05-02T10:47:00Z</time></trkpt><trkpt lat="41.7474693563677" lon="12.64137195110294"><ele>325.0</ele><time>2026-05-02T10:47:01Z</time></trkpt><trkpt lat="41.74750735693452" lon="12.641530786926516"><ele>326.0</ele><time>2026-05-02T10:47:02Z</time></trkpt><trkpt lat="41.74756493478124" lon="12.641730941015842"><ele>327.0</ele><time>2026-05-02T10:47:03Z</time></trkpt><trkpt lat="41.74767383274494" lon="12.641881267117984"><ele>328.0</ele><time>2026-05-02T10:47:04Z</time></trkpt><trkpt lat="41.747762289661615" lon="12.64197502649057"><ele>329.0</ele><time>2026-05-02T10:47:05Z</time></trkpt><trkpt lat="41.74784624910549" lon="12.642089491698032"><ele>331.0</ele><time>2026-05-02T10:47:06Z</time></trkpt><trkpt lat="41.74795544461736" lon="12.642177277997122"><ele>333.0</ele><time>2026-05-02T10:47:07Z</time></trkpt><trkpt lat="41.748078911958494" lon="12.64224550968044"><ele>335.0</ele><time>2026-05-02T10:47:07.999Z</time></trkpt><trkpt lat="41.74818502728194" lon="12.642288176809867"><ele>337.0</ele><time>2026-05-02T10:47:08.999Z</time></trkpt><trkpt lat="41.748304666427664" lon="12.64233023934374"><ele>337.0</ele><time>2026-05-02T10:47:09.999Z</time></trkpt><trkpt lat="41.74852763678375" lon="12.642441656126113"><ele>337.0</ele><time>2026-05-02T10:47:10.999Z</time></trkpt><trkpt lat="41.74868077979528" lon="12.642456586055983"><ele>337.0</ele><time>2026-05-02T10:47:11.999Z</time></trkpt><trkpt lat="41.748837362236685" lon="12.64249116139152"><ele>336.66666666666663</ele><time>2026-05-02T10:47:12.999Z</time></trkpt><trkpt lat="41.74899546847506" lon="12.64256170903151"><ele>336.3333333333333</ele><time>2026-05-02T10:47:13.999Z</time></trkpt><trkpt lat="41.74913935662241" lon="12.642600466463461"><ele>336.0</ele><time>2026-05-02T10:47:14.999Z</time></trkpt><trkpt lat="41.7492876814551" lon="12.642659850573308"><ele>336.6666666666667</ele><time>2026-05-02T10:47:15.999Z</time></trkpt><trkpt lat="41.749448355074406" lon="12.64271462951859"><ele>337.33333333333337</ele><time>2026-05-02T10:47:16.999Z</time></trkpt><trkpt lat="41.74960931495049" lon="12.642769506093153"><ele>338.0</ele><time>2026-05-02T10:47:17.999Z</time></trkpt><trkpt lat="41.7497667641189" lon="12.642823185783113"><ele>342.33333333333337</ele><time>2026-05-02T10:47:18.999Z</time></trkpt><trkpt lat="41.749924029606696" lon="12.642876802796165"><ele>346.6666666666667</ele><time>2026-05-02T10:47:19.999Z</time></trkpt><trkpt lat="41.75009630026421" lon="12.642934347354663"><ele>351.0</ele><time>2026-05-02T10:47:20.999Z</time></trkpt><trkpt lat="41.7502655512589" lon="12.642991473883436"><ele>351.0</ele><time>2026-05-02T10:47:21.999Z</time></trkpt><trkpt lat="41.75042349557009" lon="12.643044177599116"><ele>351.0</ele><time>2026-05-02T10:47:22.999Z</time></trkpt><trkpt lat="41.7505816173212" lon="12.643097900686348"><ele>351.0</ele><time>2026-05-02T10:47:23.999Z</time></trkpt><trkpt lat="41.750763729652476" lon="12.64315976840364"><ele>351.0</ele><time>2026-05-02T10:47:24.999Z</time></trkpt><trkpt lat="41.75093629007848" lon="12.64321732374759"><ele>351.0</ele><time>2026-05-02T10:47:25.999Z</time></trkpt><trkpt lat="41.75108897453953" lon="12.643268680173136"><ele>351.0</ele><time>2026-05-02T10:47:26.999Z</time></trkpt><trkpt lat="41.751252697626185" lon="12.643324442562996"><ele>350.3333333333333</ele><time>2026-05-02T10:47:27.999Z</time></trkpt><trkpt lat="41.751412669653334" lon="12.643378898720114"><ele>349.66666666666663</ele><time>2026-05-02T10:47:28.999Z</time></trkpt><trkpt lat="41.75157407376579" lon="12.643433335650961"><ele>349.0</ele><time>2026-05-02T10:47:29.999Z</time></trkpt><trkpt lat="41.75174053456421" lon="12.643489754981433"><ele>347.66666666666663</ele><time>2026-05-02T10:47:30.999Z</time></trkpt><trkpt lat="41.75189850770491" lon="12.643542644931696"><ele>346.3333333333333</ele><time>2026-05-02T10:47:31.999Z</time></trkpt><trkpt lat="41.75206422197659" lon="12.6435981266239"><ele>345.0</ele><time>2026-05-02T10:47:32.999Z</time></trkpt><trkpt lat="41.75222414290684" lon="12.643651668683585"><ele>347.6666666666667</ele><time>2026-05-02T10:47:33.999Z</time></trkpt><trkpt lat="41.75238076653796" lon="12.643704106826279"><ele>350.33333333333337</ele><time>2026-05-02T10:47:34.999Z</time></trkpt><trkpt lat="41.752540795991194" lon="12.643757685214927"><ele>353.0</ele><time>2026-05-02T10:47:35.999Z</time></trkpt><trkpt lat="41.7527020064132" lon="12.643811659031082"><ele>355.0</ele><time>2026-05-02T10:47:36.999Z</time></trkpt><trkpt lat="41.752867490627075" lon="12.643852496139324"><ele>357.0</ele><time>2026-05-02T10:47:37.999Z</time></trkpt><trkpt lat="41.75302480493863" lon="12.643911385634956"><ele>359.0</ele><time>2026-05-02T10:47:38.999Z</time></trkpt><trkpt lat="41.75317536276269" lon="12.64395731697566"><ele>359.0</ele><time>2026-05-02T10:47:39.999Z</time></trkpt><trkpt lat="41.75331837730859" lon="12.644023029707492"><ele>359.0</ele><time>2026-05-02T10:47:40.999Z</time></trkpt><trkpt lat="41.75346145327205" lon="12.644072295201212"><ele>359.0</ele><time>2026-05-02T10:47:41.999Z</time></trkpt><trkpt lat="41.75361067568727" lon="12.644123677113399"><ele>358.6666666666667</ele><time>2026-05-02T10:47:42.999Z</time></trkpt><trkpt lat="41.7537572920925" lon="12.644172442248683"><ele>358.3333333333333</ele><time>2026-05-02T10:47:43.999Z</time></trkpt><trkpt lat="41.753910905846645" lon="12.644223319473962"><ele>358.0</ele><time>2026-05-02T10:47:44.999Z</time></trkpt><trkpt lat="41.75406875857039" lon="12.644275408254103"><ele>358.0</ele><time>2026-05-02T10:47:45.999Z</time></trkpt><trkpt lat="41.75421678744474" lon="12.644324145655192"><ele>358.0</ele><time>2026-05-02T10:47:46.999Z</time></trkpt><trkpt lat="41.75437041247196" lon="12.644362587690232"><ele>358.0</ele><time>2026-05-02T10:47:47.999Z</time></trkpt><trkpt lat="41.75451488575944" lon="12.644411549434219"><ele>357.75</ele><time>2026-05-02T10:47:48.999Z</time></trkpt><trkpt lat="41.75465930885645" lon="12.644457224134948"><ele>357.5</ele><time>2026-05-02T10:47:49.999Z</time></trkpt><trkpt lat="41.754803726798635" lon="12.64450552618373"><ele>357.25</ele><time>2026-05-02T10:47:50.999Z</time></trkpt><trkpt lat="41.754948642381386" lon="12.644549569662034"><ele>357.0</ele><time>2026-05-02T10:47:51.999Z</time></trkpt><trkpt lat="41.75508767424429" lon="12.644618496587206"><ele>356.5</ele><time>2026-05-02T10:47:52.999Z</time></trkpt><trkpt lat="41.755215773392194" lon="12.644656287475431"><ele>356.0</ele><time>2026-05-02T10:47:53.999Z</time></trkpt><trkpt lat="41.75532616348974" lon="12.644734984731878"><ele>355.5</ele><time>2026-05-02T10:47:54.999Z</time></trkpt><trkpt lat="41.7554459831856" lon="12.644879626614363"><ele>355.0</ele><time>2026-05-02T10:47:55.999Z</time></trkpt><trkpt lat="41.75554453093232" lon="12.645019584240229"><ele>355.0</ele><time>2026-05-02T10:47:56.999Z</time></trkpt><trkpt lat="41.7556210045743" lon="12.645177203552366"><ele>355.0</ele><time>2026-05-02T10:47:57.999Z</time></trkpt><trkpt lat="41.755679340029324" lon="12.645351080455168"><ele>355.0</ele><time>2026-05-02T10:47:58.999Z</time></trkpt><trkpt lat="41.75571266164743" lon="12.645525531337974"><ele>355.0</ele><time>2026-05-02T10:47:59.999Z</time></trkpt><trkpt lat="41.75572970963807" lon="12.645702841859949"><ele>358.25</ele><time>2026-05-02T10:48:00.999Z</time></trkpt><trkpt lat="41.75572388434242" lon="12.645868686361467"><ele>361.5</ele><time>2026-05-02T10:48:01.999Z</time></trkpt><trkpt lat="41.755700334498115" lon="12.646026544530983"><ele>364.75</ele><time>2026-05-02T10:48:02.999Z</time></trkpt><trkpt lat="41.755655817993166" lon="12.646185120904216"><ele>368.0</ele><time>2026-05-02T10:48:03.999Z</time></trkpt><trkpt lat="41.755600297779345" lon="12.646324396878223"><ele>370.0</ele><time>2026-05-02T10:48:04.999Z</time></trkpt><trkpt lat="41.75553228432788" lon="12.646454861344335"><ele>372.0</ele><time>2026-05-02T10:48:05.999Z</time></trkpt><trkpt lat="41.75545260088975" lon="12.646563267049899"><ele>374.0</ele><time>2026-05-02T10:48:06.999Z</time></trkpt><trkpt lat="41.75535770630933" lon="12.646653172175412"><ele>376.0</ele><time>2026-05-02T10:48:07.999Z</time></trkpt><trkpt lat="41.755253297808224" lon="12.646734495741127"><ele>375.75</ele><time>2026-05-02T10:48:08.999Z</time></trkpt><trkpt lat="41.755138262304456" lon="12.646789849562765"><ele>375.5</ele><time>2026-05-02T10:48:09.999Z</time></trkpt><trkpt lat="41.755009334002175" lon="12.64682970647025"><ele>375.25</ele><time>2026-05-02T10:48:10.999Z</time></trkpt><trkpt lat="41.75485412432743" lon="12.646880422495432"><ele>375.0</ele><time>2026-05-02T10:48:11.999Z</time></trkpt><trkpt lat="41.75472010498704" lon="12.646907600478418"><ele>375.0</ele><time>2026-05-02T10:48:12.999Z</time></trkpt><trkpt lat="41.754579576940856" lon="12.646938776027364"><ele>375.0</ele><time>2026-05-02T10:48:13.999Z</time></trkpt><trkpt lat="41.754431906252584" lon="12.646950371570501"><ele>375.0</ele><time>2026-05-02T10:48:14.999Z</time></trkpt><trkpt lat="41.75429200793088" lon="12.646964293909397"><ele>375.0</ele><time>2026-05-02T10:48:15.999Z</time></trkpt><trkpt lat="41.75415299979199" lon="12.64698408213516"><ele>380.75</ele><time>2026-05-02T10:48:16.999Z</time></trkpt><trkpt lat="41.75401588518818" lon="12.6470137946177"><ele>386.5</ele><time>2026-05-02T10:48:17.999Z</time></trkpt><trkpt lat="41.75387598361814" lon="12.64703813200825"><ele>392.25</ele><time>2026-05-02T10:48:18.999Z</time></trkpt><trkpt lat="41.75374254731983" lon="12.647094212213624"><ele>398.0</ele><time>2026-05-02T10:48:19.999Z</time></trkpt><trkpt lat="41.75359913882924" lon="12.647116796332625"><ele>397.0</ele><time>2026-05-02T10:48:20.999Z</time></trkpt><trkpt lat="41.753459168032954" lon="12.64714680973741"><ele>396.0</ele><time>2026-05-02T10:48:21.999Z</time></trkpt><trkpt lat="41.753319704462776" lon="12.647177766688587"><ele>395.0</ele><time>2026-05-02T10:48:22.999Z</time></trkpt><trkpt lat="41.753182480052686" lon="12.647227666505879"><ele>394.0</ele><time>2026-05-02T10:48:23.999Z</time></trkpt><trkpt lat="41.75304070076165" lon="12.647235829816205"><ele>394.0</ele><time>2026-05-02T10:48:25Z</time></trkpt><trkpt lat="41.75289784320507" lon="12.647266112268696"><ele>394.0</ele><time>2026-05-02T10:48:26Z</time></trkpt><trkpt lat="41.75275587428516" lon="12.647290033535745"><ele>394.0</ele><time>2026-05-02T10:48:27Z</time></trkpt><trkpt lat="41.75261565677358" lon="12.647320020062233"><ele>394.0</ele><time>2026-05-02T10:48:28Z</time></trkpt><trkpt lat="41.752475652546934" lon="12.647346733818727"><ele>395.0</ele><time>2026-05-02T10:48:29Z</time></trkpt><trkpt lat="41.75233509846714" lon="12.647376703966055"><ele>396.0</ele><time>2026-05-02T10:48:30Z</time></trkpt><trkpt lat="41.75219261850362" lon="12.647400264733637"><ele>397.0</ele><time>2026-05-02T10:48:31Z</time></trkpt><trkpt lat="41.752054852529156" lon="12.647431818296763"><ele>398.0</ele><time>2026-05-02T10:48:32Z</time></trkpt><trkpt lat="41.75191964453911" lon="12.647459204959777"><ele>398.5</ele><time>2026-05-02T10:48:33Z</time></trkpt><trkpt lat="41.751783505740285" lon="12.647489223056631"><ele>399.0</ele><time>2026-05-02T10:48:34Z</time></trkpt><trkpt lat="41.75164888025079" lon="12.64751472764082"><ele>399.5</ele><time>2026-05-02T10:48:35Z</time></trkpt><trkpt lat="41.751514436078025" lon="12.6475495542928"><ele>400.0</ele><time>2026-05-02T10:48:36Z</time></trkpt><trkpt lat="41.751379002964114" lon="12.647582841133387"><ele>400.0</ele><time>2026-05-02T10:48:37Z</time></trkpt><trkpt lat="41.75124421067481" lon="12.647615218795616"><ele>400.0</ele><time>2026-05-02T10:48:38Z</time></trkpt><trkpt lat="41.75110307659591" lon="12.647638043838576"><ele>400.0</ele><time>2026-05-02T10:48:39Z</time></trkpt><trkpt lat="41.75096709708657" lon="12.647673044833011"><ele>400.0</ele><time>2026-05-02T10:48:40Z</time></trkpt><trkpt lat="41.75083077241035" lon="12.647717319977007"><ele>400.0</ele><time>2026-05-02T10:48:41Z</time></trkpt><trkpt lat="41.750700769527235" lon="12.647775648952834"><ele>400.0</ele><time>2026-05-02T10:48:42Z</time></trkpt><trkpt lat="41.75057648689523" lon="12.64784711516614"><ele>400.0</ele><time>2026-05-02T10:48:43Z</time></trkpt><trkpt lat="41.750453256864986" lon="12.647926484997523"><ele>400.0</ele><time>2026-05-02T10:48:44Z</time></trkpt><trkpt lat="41.75034228366272" lon="12.648006051916747"><ele>400.0</ele><time>2026-05-02T10:48:45Z</time></trkpt><trkpt lat="41.750238248767594" lon="12.648073847435775"><ele>400.0</ele><time>2026-05-02T10:48:46Z</time></trkpt><trkpt lat="41.75014321211759" lon="12.648130438321928"><ele>400.0</ele><time>2026-05-02T10:48:47Z</time></trkpt><trkpt lat="41.75007040723784" lon="12.648175008478056"><ele>400.0</ele><time>2026-05-02T10:48:48Z</time></trkpt><trkpt lat="41.75000057547319" lon="12.648248350363497"><ele>400.0</ele><time>2026-05-02T10:48:50Z</time></trkpt><trkpt lat="41.749933040265255" lon="12.648293830541308"><ele>399.8</ele><time>2026-05-02T10:48:52Z</time></trkpt><trkpt lat="41.74985478341092" lon="12.648353761981454"><ele>399.6</ele><time>2026-05-02T10:48:54Z</time></trkpt><trkpt lat="41.749789618019676" lon="12.648421338739054"><ele>399.4</ele><time>2026-05-02T10:48:56Z</time></trkpt><trkpt lat="41.749744906626006" lon="12.648481461696745"><ele>399.2</ele><time>2026-05-02T10:49:01Z</time></trkpt><trkpt lat="41.749835644249785" lon="12.648551531596704"><ele>399.0</ele><time>2026-05-02T10:49:20Z</time></trkpt><trkpt lat="41.74994115266306" lon="12.648514475597917"><ele>399.0</ele><time>2026-05-02T10:49:22Z</time></trkpt><trkpt lat="41.750027224722565" lon="12.648503860581497"><ele>399.0</ele><time>2026-05-02T10:49:23.999Z</time></trkpt><trkpt lat="41.750095969038256" lon="12.64848837546446"><ele>399.0</ele><time>2026-05-02T10:49:25.999Z</time></trkpt><trkpt lat="41.7501820888345" lon="12.648467457541162"><ele>399.0</ele><time>2026-05-02T10:49:27.999Z</time></trkpt><trkpt lat="41.750284996348064" lon="12.648443953251977"><ele>399.0</ele><time>2026-05-02T10:49:29.999Z</time></trkpt><trkpt lat="41.75039000569504" lon="12.648427315138845"><ele>399.2</ele><time>2026-05-02T10:49:31.999Z</time></trkpt><trkpt lat="41.75051897975234" lon="12.648393593041172"><ele>399.4</ele><time>2026-05-02T10:49:33.999Z</time></trkpt><trkpt lat="41.750595871465535" lon="12.648381627306076"><ele>399.6</ele><time>2026-05-02T10:49:34.999Z</time></trkpt><trkpt lat="41.750674757575716" lon="12.648365823595979"><ele>399.8</ele><time>2026-05-02T10:49:35.999Z</time></trkpt><trkpt lat="41.750758888120224" lon="12.648347201672038"><ele>400.0</ele><time>2026-05-02T10:49:36.999Z</time></trkpt><trkpt lat="41.75084515536474" lon="12.648325953307017"><ele>400.00000000000006</ele><time>2026-05-02T10:49:37.999Z</time></trkpt><trkpt lat="41.75092701411671" lon="12.648308032316455"><ele>400.0</ele><time>2026-05-02T10:49:38.999Z</time></trkpt><trkpt lat="41.75100479402507" lon="12.648297800467041"><ele>400.0</ele><time>2026-05-02T10:49:39.999Z</time></trkpt><trkpt lat="41.75108154988309" lon="12.648286759547169"><ele>400.0</ele><time>2026-05-02T10:49:40.999Z</time></trkpt><trkpt lat="41.75116207966428" lon="12.648263294140104"><ele>400.00000000000006</ele><time>2026-05-02T10:49:41.999Z</time></trkpt><trkpt lat="41.751240869369006" lon="12.648239720188908"><ele>400.0</ele><time>2026-05-02T10:49:42.999Z</time></trkpt><trkpt lat="41.75132076999853" lon="12.648220984893321"><ele>399.83333333333337</ele><time>2026-05-02T10:49:43.999Z</time></trkpt><trkpt lat="41.75139870632276" lon="12.64820288317662"><ele>399.6666666666667</ele><time>2026-05-02T10:49:44.999Z</time></trkpt><trkpt lat="41.751478099583196" lon="12.648187717708314"><ele>399.5</ele><time>2026-05-02T10:49:45.999Z</time></trkpt><trkpt lat="41.75156146995063" lon="12.64816353964312"><ele>399.33333333333337</ele><time>2026-05-02T10:49:46.999Z</time></trkpt><trkpt lat="41.751649958824046" lon="12.64814431542777"><ele>399.1666666666667</ele><time>2026-05-02T10:49:47.999Z</time></trkpt><trkpt lat="41.75174021690611" lon="12.64812577785776"><ele>399.0</ele><time>2026-05-02T10:49:48.999Z</time></trkpt><trkpt lat="41.75183027770245" lon="12.648105238156102"><ele>398.1666666666667</ele><time>2026-05-02T10:49:49.999Z</time></trkpt><trkpt lat="41.751917048233835" lon="12.648090890154908"><ele>397.33333333333337</ele><time>2026-05-02T10:49:50.999Z</time></trkpt><trkpt lat="41.7520038395115" lon="12.648085611299983"><ele>396.5</ele><time>2026-05-02T10:49:51.999Z</time></trkpt><trkpt lat="41.752091637546236" lon="12.648066452534104"><ele>395.6666666666667</ele><time>2026-05-02T10:49:52.999Z</time></trkpt><trkpt lat="41.752172277031654" lon="12.648048828152767"><ele>394.83333333333337</ele><time>2026-05-02T10:49:53.999Z</time></trkpt><trkpt lat="41.75225380677945" lon="12.648008818773299"><ele>394.0</ele><time>2026-05-02T10:49:54.999Z</time></trkpt><trkpt lat="41.752338914636994" lon="12.64799867186402"><ele>394.00000000000006</ele><time>2026-05-02T10:49:55.999Z</time></trkpt><trkpt lat="41.752422856113654" lon="12.64798173019317"><ele>394.0</ele><time>2026-05-02T10:49:56.999Z</time></trkpt><trkpt lat="41.75250770137858" lon="12.647961787402775"><ele>394.0</ele><time>2026-05-02T10:49:57.999Z</time></trkpt><trkpt lat="41.75259028778464" lon="12.64794147283077"><ele>394.0</ele><time>2026-05-02T10:49:58.999Z</time></trkpt><trkpt lat="41.75267257264069" lon="12.64792283066017"><ele>394.00000000000006</ele><time>2026-05-02T10:49:59.999Z</time></trkpt><trkpt lat="41.75275416960204" lon="12.64790320021277"><ele>394.0</ele><time>2026-05-02T10:50:00.999Z</time></trkpt><trkpt lat="41.752833375576074" lon="12.647885022129628"><ele>391.79999999999995</ele><time>2026-05-02T10:50:01.999Z</time></trkpt><trkpt lat="41.752916447778716" lon="12.647874448603442"><ele>389.59999999999997</ele><time>2026-05-02T10:50:02.999Z</time></trkpt><trkpt lat="41.753001872868445" lon="12.647866347015682"><ele>387.4</ele><time>2026-05-02T10:50:03.999Z</time></trkpt><trkpt lat="41.753094225353095" lon="12.64784740086201"><ele>385.2</ele><time>2026-05-02T10:50:04.999Z</time></trkpt><trkpt lat="41.75319078583214" lon="12.6478248501145"><ele>383.0</ele><time>2026-05-02T10:50:05.999Z</time></trkpt><trkpt lat="41.75329286106759" lon="12.647796782831174"><ele>385.2</ele><time>2026-05-02T10:50:06.999Z</time></trkpt><trkpt lat="41.75339881441906" lon="12.647772082148368"><ele>387.4</ele><time>2026-05-02T10:50:07.999Z</time></trkpt><trkpt lat="41.75350485709053" lon="12.647747578214776"><ele>389.59999999999997</ele><time>2026-05-02T10:50:08.999Z</time></trkpt><trkpt lat="41.75361076471289" lon="12.64772438068094"><ele>391.79999999999995</ele><time>2026-05-02T10:50:09.999Z</time></trkpt><trkpt lat="41.7537173530391" lon="12.647707556140535"><ele>394.0</ele><time>2026-05-02T10:50:10.999Z</time></trkpt><trkpt lat="41.75381976622861" lon="12.64768977331879"><ele>394.79999999999995</ele><time>2026-05-02T10:50:11.999Z</time></trkpt><trkpt lat="41.753919386782464" lon="12.647664034284698"><ele>395.59999999999997</ele><time>2026-05-02T10:50:12.999Z</time></trkpt><trkpt lat="41.75402248770976" lon="12.647642454605926"><ele>396.4</ele><time>2026-05-02T10:50:13.999Z</time></trkpt><trkpt lat="41.75413261089318" lon="12.647620313698155"><ele>397.2</ele><time>2026-05-02T10:50:14.999Z</time></trkpt><trkpt lat="41.75424209449318" lon="12.64759397241661"><ele>398.0</ele><time>2026-05-02T10:50:15.999Z</time></trkpt><trkpt lat="41.75435705578655" lon="12.647567583404145"><ele>397.0</ele><time>2026-05-02T10:50:16.999Z</time></trkpt><trkpt lat="41.75446957086601" lon="12.647539369578547"><ele>396.0</ele><time>2026-05-02T10:50:17.999Z</time></trkpt><trkpt lat="41.75458691703187" lon="12.647518297048903"><ele>395.0</ele><time>2026-05-02T10:50:18.999Z</time></trkpt><trkpt lat="41.75469636336624" lon="12.647495408582941"><ele>394.0</ele><time>2026-05-02T10:50:19.999Z</time></trkpt><trkpt lat="41.754802820843935" lon="12.647477030974825"><ele>394.00000000000006</ele><time>2026-05-02T10:50:20.999Z</time></trkpt><trkpt lat="41.75490395485577" lon="12.647467666338395"><ele>394.0</ele><time>2026-05-02T10:50:21.999Z</time></trkpt><trkpt lat="41.75499300510876" lon="12.64746357315053"><ele>394.0</ele><time>2026-05-02T10:50:22.999Z</time></trkpt><trkpt lat="41.75508071836285" lon="12.647477551305316"><ele>394.0</ele><time>2026-05-02T10:50:23.999Z</time></trkpt><trkpt lat="41.75516899182586" lon="12.647498427615407"><ele>394.00000000000006</ele><time>2026-05-02T10:50:24.999Z</time></trkpt><trkpt lat="41.75522770885335" lon="12.64752980488535"><ele>394.0</ele><time>2026-05-02T10:50:25.999Z</time></trkpt><trkpt lat="41.7552951612299" lon="12.647558219880452"><ele>391.33333333333337</ele><time>2026-05-02T10:50:26.999Z</time></trkpt><trkpt lat="41.755359550522776" lon="12.647581532552856"><ele>388.6666666666667</ele><time>2026-05-02T10:50:27.999Z</time></trkpt><trkpt lat="41.75544611683419" lon="12.64762548341822"><ele>386.0</ele><time>2026-05-02T10:50:29.999Z</time></trkpt><trkpt lat="41.755525673156264" lon="12.64766285481617"><ele>383.33333333333337</ele><time>2026-05-02T10:50:32Z</time></trkpt><trkpt lat="41.75560247350487" lon="12.647702460543057"><ele>380.6666666666667</ele><time>2026-05-02T10:50:39Z</time></trkpt><trkpt lat="41.75570999880373" lon="12.647741807320667"><ele>378.0</ele><time>2026-05-02T10:50:41Z</time></trkpt><trkpt lat="41.75577690026145" lon="12.647767854815529"><ele>378.0</ele><time>2026-05-02T10:50:42Z</time></trkpt><trkpt lat="41.75585455986192" lon="12.647791488614725"><ele>378.0</ele><time>2026-05-02T10:50:43Z</time></trkpt><trkpt lat="41.75593860429276" lon="12.64782381994994"><ele>378.0</ele><time>2026-05-02T10:50:44Z</time></trkpt><trkpt lat="41.75603261361882" lon="12.647860192629187"><ele>378.0</ele><time>2026-05-02T10:50:45Z</time></trkpt><trkpt lat="41.75613006287747" lon="12.647897107022583"><ele>378.0</ele><time>2026-05-02T10:50:46Z</time></trkpt><trkpt lat="41.756232446344725" lon="12.647941008231133"><ele>375.25</ele><time>2026-05-02T10:50:47Z</time></trkpt><trkpt lat="41.756339118664584" lon="12.647987965799222"><ele>372.5</ele><time>2026-05-02T10:50:48Z</time></trkpt><trkpt lat="41.7564463054681" lon="12.648035746627038"><ele>369.75</ele><time>2026-05-02T10:50:49Z</time></trkpt><trkpt lat="41.75655394410175" lon="12.648077543450896"><ele>367.0</ele><time>2026-05-02T10:50:50Z</time></trkpt><trkpt lat="41.756668878015994" lon="12.648120701133927"><ele>367.0</ele><time>2026-05-02T10:50:51Z</time></trkpt><trkpt lat="41.75678563924049" lon="12.648171303429146"><ele>367.0</ele><time>2026-05-02T10:50:52Z</time></trkpt><trkpt lat="41.75690354115039" lon="12.6482265143558"><ele>367.0</ele><time>2026-05-02T10:50:53Z</time></trkpt><trkpt lat="41.75702625488849" lon="12.648280164250536"><ele>367.0</ele><time>2026-05-02T10:50:54Z</time></trkpt><trkpt lat="41.75714254421668" lon="12.648350463539266"><ele>367.5</ele><time>2026-05-02T10:50:55Z</time></trkpt><trkpt lat="41.75728087523188" lon="12.648389684763554"><ele>368.0</ele><time>2026-05-02T10:50:56Z</time></trkpt><trkpt lat="41.75741104967686" lon="12.648443342208523"><ele>368.5</ele><time>2026-05-02T10:50:57Z</time></trkpt><trkpt lat="41.757539144756464" lon="12.64849564179222"><ele>369.0</ele><time>2026-05-02T10:50:58Z</time></trkpt><trkpt lat="41.757673561206694" lon="12.648555979207627"><ele>368.5</ele><time>2026-05-02T10:50:59Z</time></trkpt><trkpt lat="41.75781010958217" lon="12.648609026907696"><ele>368.0</ele><time>2026-05-02T10:51:00Z</time></trkpt><trkpt lat="41.75794615868597" lon="12.648664912485202"><ele>367.5</ele><time>2026-05-02T10:51:01Z</time></trkpt><trkpt lat="41.75807833150026" lon="12.648719209961941"><ele>367.0</ele><time>2026-05-02T10:51:02Z</time></trkpt><trkpt lat="41.7582108846695" lon="12.648771743012386"><ele>367.0</ele><time>2026-05-02T10:51:03Z</time></trkpt><trkpt lat="41.75834428916546" lon="12.648828826370726"><ele>367.0</ele><time>2026-05-02T10:51:04Z</time></trkpt><trkpt lat="41.75848194158492" lon="12.648889464532928"><ele>367.0</ele><time>2026-05-02T10:51:05Z</time></trkpt><trkpt lat="41.75862735051519" lon="12.648939561808188"><ele>367.0</ele><time>2026-05-02T10:51:06Z</time></trkpt><trkpt lat="41.758762711242795" lon="12.648998998269679"><ele>368.0</ele><time>2026-05-02T10:51:07Z</time></trkpt><trkpt lat="41.7589111781023" lon="12.649045040705031"><ele>369.0</ele><time>2026-05-02T10:51:08Z</time></trkpt><trkpt lat="41.759055182613224" lon="12.649064259112947"><ele>370.0</ele><time>2026-05-02T10:51:09Z</time></trkpt><trkpt lat="41.7591992885238" lon="12.649076119743345"><ele>371.0</ele><time>2026-05-02T10:51:10Z</time></trkpt><trkpt lat="41.75933853198541" lon="12.649091604253307"><ele>371.5</ele><time>2026-05-02T10:51:11Z</time></trkpt><trkpt lat="41.759473718126216" lon="12.649116877566676"><ele>372.0</ele><time>2026-05-02T10:51:12Z</time></trkpt><trkpt lat="41.759604004124824" lon="12.64915128047487"><ele>372.5</ele><time>2026-05-02T10:51:13Z</time></trkpt><trkpt lat="41.759731784288185" lon="12.64918579450885"><ele>373.0</ele><time>2026-05-02T10:51:14Z</time></trkpt><trkpt lat="41.75985758060005" lon="12.649224098281497"><ele>373.0</ele><time>2026-05-02T10:51:15Z</time></trkpt><trkpt lat="41.75998356052561" lon="12.649268012621596"><ele>373.0</ele><time>2026-05-02T10:51:16Z</time></trkpt><trkpt lat="41.7601045099557" lon="12.64931298694122"><ele>373.0</ele><time>2026-05-02T10:51:17Z</time></trkpt><trkpt lat="41.76022430966385" lon="12.649361574270385"><ele>373.0</ele><time>2026-05-02T10:51:18Z</time></trkpt><trkpt lat="41.760342534883975" lon="12.649418491197336"><ele>373.0</ele><time>2026-05-02T10:51:19Z</time></trkpt><trkpt lat="41.76045494217407" lon="12.64949261223693"><ele>373.0</ele><time>2026-05-02T10:51:20Z</time></trkpt><trkpt lat="41.76055653576813" lon="12.649587960041888"><ele>373.0</ele><time>2026-05-02T10:51:21Z</time></trkpt><trkpt lat="41.76064650302682" lon="12.64970330731452"><ele>373.0</ele><time>2026-05-02T10:51:22Z</time></trkpt><trkpt lat="41.76071794840326" lon="12.649838502065503"><ele>373.0</ele><time>2026-05-02T10:51:23Z</time></trkpt><trkpt lat="41.76077253270444" lon="12.649984527658548"><ele>373.0</ele><time>2026-05-02T10:51:24Z</time></trkpt><trkpt lat="41.760808561411594" lon="12.650131275726462"><ele>373.0</ele><time>2026-05-02T10:51:25Z</time></trkpt><trkpt lat="41.76083632063437" lon="12.650272577069032"><ele>373.0</ele><time>2026-05-02T10:51:26Z</time></trkpt><trkpt lat="41.760856972625035" lon="12.650407635094805"><ele>373.0</ele><time>2026-05-02T10:51:27Z</time></trkpt><trkpt lat="41.76087481372622" lon="12.650532930127488"><ele>372.8333333333333</ele><time>2026-05-02T10:51:28Z</time></trkpt><trkpt lat="41.76089272096015" lon="12.650645923091757"><ele>372.66666666666663</ele><time>2026-05-02T10:51:29Z</time></trkpt><trkpt lat="41.76091665798104" lon="12.650749700012343"><ele>372.5</ele><time>2026-05-02T10:51:30Z</time></trkpt><trkpt lat="41.76095248961481" lon="12.650848430837254"><ele>372.3333333333333</ele><time>2026-05-02T10:51:31Z</time></trkpt><trkpt lat="41.76100606056147" lon="12.650944185023548"><ele>372.1666666666667</ele><time>2026-05-02T10:51:32Z</time></trkpt><trkpt lat="41.761072024587946" lon="12.651037418410944"><ele>372.0</ele><time>2026-05-02T10:51:33Z</time></trkpt><trkpt lat="41.7611416956879" lon="12.65112949407995"><ele>371.8</ele><time>2026-05-02T10:51:34Z</time></trkpt><trkpt lat="41.761218123331005" lon="12.651215032974779"><ele>371.6</ele><time>2026-05-02T10:51:35Z</time></trkpt><trkpt lat="41.76129555848387" lon="12.651300511110867"><ele>371.40000000000003</ele><time>2026-05-02T10:51:36Z</time></trkpt><trkpt lat="41.761373950288416" lon="12.65138719216034"><ele>371.20000000000005</ele><time>2026-05-02T10:51:37Z</time></trkpt><trkpt lat="41.76145997202156" lon="12.651469953790128"><ele>371.0</ele><time>2026-05-02T10:51:38Z</time></trkpt><trkpt lat="41.76154996169774" lon="12.651549714636065"><ele>371.0</ele><time>2026-05-02T10:51:39Z</time></trkpt><trkpt lat="41.761636073631486" lon="12.651642724654586"><ele>371.0</ele><time>2026-05-02T10:51:40Z</time></trkpt><trkpt lat="41.76171731012542" lon="12.651740458126122"><ele>371.0</ele><time>2026-05-02T10:51:41Z</time></trkpt><trkpt lat="41.76179406222932" lon="12.651834163633705"><ele>371.0</ele><time>2026-05-02T10:51:42Z</time></trkpt><trkpt lat="41.761871152790036" lon="12.651924683882509"><ele>371.0</ele><time>2026-05-02T10:51:43Z</time></trkpt><trkpt lat="41.761946213745155" lon="12.652020816110635"><ele>370.8</ele><time>2026-05-02T10:51:44Z</time></trkpt><trkpt lat="41.76201666216551" lon="12.652116312183892"><ele>370.6</ele><time>2026-05-02T10:51:45Z</time></trkpt><trkpt lat="41.76208687379428" lon="12.652213090534689"><ele>370.4</ele><time>2026-05-02T10:51:46Z</time></trkpt><trkpt lat="41.76216143267063" lon="12.652315549562585"><ele>370.2</ele><time>2026-05-02T10:51:47Z</time></trkpt><trkpt lat="41.76223989766969" lon="12.652422523000523"><ele>370.0</ele><time>2026-05-02T10:51:48Z</time></trkpt><trkpt lat="41.76230661850019" lon="12.652549777898207"><ele>370.0</ele><time>2026-05-02T10:51:49Z</time></trkpt><trkpt lat="41.762381014193664" lon="12.652662732535633"><ele>370.0</ele><time>2026-05-02T10:51:50Z</time></trkpt><trkpt lat="41.76244911882106" lon="12.652776766162535"><ele>370.0</ele><time>2026-05-02T10:51:51Z</time></trkpt><trkpt lat="41.7625116804173" lon="12.652888940590334"><ele>370.0</ele><time>2026-05-02T10:51:52Z</time></trkpt><trkpt lat="41.76257119861525" lon="12.652998231491168"><ele>370.0</ele><time>2026-05-02T10:51:53Z</time></trkpt><trkpt lat="41.7626293842603" lon="12.653105397497097"><ele>370.0</ele><time>2026-05-02T10:51:53.999Z</time></trkpt><trkpt lat="41.76270106722068" lon="12.653193612770485"><ele>370.0</ele><time>2026-05-02T10:51:54.999Z</time></trkpt><trkpt lat="41.762752089045414" lon="12.653295676063566"><ele>370.0</ele><time>2026-05-02T10:51:55.999Z</time></trkpt><trkpt lat="41.76279936565374" lon="12.65339591861515"><ele>370.0</ele><time>2026-05-02T10:51:56.999Z</time></trkpt><trkpt lat="41.76284617300982" lon="12.65349377047182"><ele>370.0</ele><time>2026-05-02T10:51:57.999Z</time></trkpt><trkpt lat="41.76289729329757" lon="12.653585925001149"><ele>369.3333333333333</ele><time>2026-05-02T10:51:58.999Z</time></trkpt><trkpt lat="41.762948327913115" lon="12.653668625038367"><ele>368.66666666666663</ele><time>2026-05-02T10:51:59.999Z</time></trkpt><trkpt lat="41.76300125990432" lon="12.653746657721207"><ele>368.0</ele><time>2026-05-02T10:52:00.999Z</time></trkpt><trkpt lat="41.763053443576936" lon="12.653835504293374"><ele>367.3333333333333</ele><time>2026-05-02T10:52:01.999Z</time></trkpt><trkpt lat="41.76312321795603" lon="12.653907900492031"><ele>366.6666666666667</ele><time>2026-05-02T10:52:02.999Z</time></trkpt><trkpt lat="41.76320254000053" lon="12.653980235037338"><ele>366.0</ele><time>2026-05-02T10:52:03.999Z</time></trkpt><trkpt lat="41.76328837382594" lon="12.654044933694275"><ele>366.0</ele><time>2026-05-02T10:52:04.999Z</time></trkpt><trkpt lat="41.763375295391015" lon="12.65410734798537"><ele>366.0</ele><time>2026-05-02T10:52:05.999Z</time></trkpt><trkpt lat="41.763461204454245" lon="12.65417223013673"><ele>366.0</ele><time>2026-05-02T10:52:06.999Z</time></trkpt><trkpt lat="41.76354011019411" lon="12.654233544930838"><ele>366.0</ele><time>2026-05-02T10:52:07.999Z</time></trkpt><trkpt lat="41.763622383434004" lon="12.65428641658632"><ele>366.0</ele><time>2026-05-02T10:52:08.999Z</time></trkpt><trkpt lat="41.763692349266684" lon="12.65436533415356"><ele>365.6</ele><time>2026-05-02T10:52:09.999Z</time></trkpt><trkpt lat="41.763761512268985" lon="12.65444302774115"><ele>365.20000000000005</ele><time>2026-05-02T10:52:10.999Z</time></trkpt><trkpt lat="41.76382954734703" lon="12.654521047581213"><ele>364.79999999999995</ele><time>2026-05-02T10:52:11.999Z</time></trkpt><trkpt lat="41.76389990072862" lon="12.654606798608574"><ele>364.4</ele><time>2026-05-02T10:52:12.999Z</time></trkpt><trkpt lat="41.76397553812331" lon="12.654692584111787"><ele>364.0</ele><time>2026-05-02T10:52:13.999Z</time></trkpt><trkpt lat="41.76405436210887" lon="12.654777814365715"><ele>364.6</ele><time>2026-05-02T10:52:14.999Z</time></trkpt><trkpt lat="41.76413050647598" lon="12.65485920167922"><ele>365.2</ele><time>2026-05-02T10:52:15.999Z</time></trkpt><trkpt lat="41.7642056229063" lon="12.654941161768594"><ele>365.8</ele><time>2026-05-02T10:52:16.999Z</time></trkpt><trkpt lat="41.76427894151742" lon="12.655020205194253"><ele>366.40000000000003</ele><time>2026-05-02T10:52:17.999Z</time></trkpt><trkpt lat="41.76435090517163" lon="12.655101273811162"><ele>367.0</ele><time>2026-05-02T10:52:18.999Z</time></trkpt><trkpt lat="41.76442406757959" lon="12.65517739079152"><ele>367.0</ele><time>2026-05-02T10:52:19.999Z</time></trkpt><trkpt lat="41.76448488649963" lon="12.655267742036676"><ele>367.0</ele><time>2026-05-02T10:52:20.999Z</time></trkpt><trkpt lat="41.76455086509996" lon="12.655343096837294"><ele>367.0</ele><time>2026-05-02T10:52:21.999Z</time></trkpt><trkpt lat="41.76462359591747" lon="12.655401958057753"><ele>367.0</ele><time>2026-05-02T10:52:22.999Z</time></trkpt><trkpt lat="41.764680037254585" lon="12.65548454467161"><ele>367.0</ele><time>2026-05-02T10:52:23.999Z</time></trkpt><trkpt lat="41.76473348972486" lon="12.655564952678763"><ele>367.0</ele><time>2026-05-02T10:52:24.999Z</time></trkpt><trkpt lat="41.76478876794882" lon="12.655650325621934"><ele>367.5</ele><time>2026-05-02T10:52:25.999Z</time></trkpt><trkpt lat="41.7648408474243" lon="12.655740863524727"><ele>368.0</ele><time>2026-05-02T10:52:26.999Z</time></trkpt><trkpt lat="41.764886046528886" lon="12.655826740736636"><ele>368.5</ele><time>2026-05-02T10:52:27.999Z</time></trkpt><trkpt lat="41.7649223293061" lon="12.655905453719521"><ele>369.0</ele><time>2026-05-02T10:52:28.999Z</time></trkpt><trkpt lat="41.76498063411538" lon="12.65604070768254"><ele>369.5</ele><time>2026-05-02T10:52:30.999Z</time></trkpt><trkpt lat="41.76501449780944" lon="12.656136679072887"><ele>370.0</ele><time>2026-05-02T10:52:32.999Z</time></trkpt><trkpt lat="41.76504364876288" lon="12.656219317102323"><ele>370.5</ele><time>2026-05-02T10:53:16.999Z</time></trkpt><trkpt lat="41.765101071222254" lon="12.656329208297755"><ele>371.0</ele><time>2026-05-02T10:53:18.999Z</time></trkpt><trkpt lat="41.76513401557269" lon="12.65641541922847"><ele>371.5</ele><time>2026-05-02T10:53:19.999Z</time></trkpt><trkpt lat="41.76516959212147" lon="12.656511596392333"><ele>372.0</ele><time>2026-05-02T10:53:20.999Z</time></trkpt><trkpt lat="41.76521268871069" lon="12.65661727883982"><ele>372.5</ele><time>2026-05-02T10:53:21.999Z</time></trkpt><trkpt lat="41.7652622474845" lon="12.656719707873746"><ele>373.0</ele><time>2026-05-02T10:53:22.999Z</time></trkpt><trkpt lat="41.76531503148052" lon="12.656837361359878"><ele>370.59999999999997</ele><time>2026-05-02T10:53:23.999Z</time></trkpt><trkpt lat="41.765365042402614" lon="12.656965506940157"><ele>368.2</ele><time>2026-05-02T10:53:24.999Z</time></trkpt><trkpt lat="41.765415315543585" lon="12.657099412667085"><ele>365.8</ele><time>2026-05-02T10:53:25.999Z</time></trkpt><trkpt lat="41.765465077183514" lon="12.657229188321752"><ele>363.4</ele><time>2026-05-02T10:53:26.999Z</time></trkpt><trkpt lat="41.76551294023128" lon="12.657364740100402"><ele>361.0</ele><time>2026-05-02T10:53:27.999Z</time></trkpt><trkpt lat="41.76555391296036" lon="12.657508276328807"><ele>361.0</ele><time>2026-05-02T10:53:28.999Z</time></trkpt><trkpt lat="41.76556419885399" lon="12.657671045942891"><ele>361.0</ele><time>2026-05-02T10:53:29.999Z</time></trkpt><trkpt lat="41.76558075315083" lon="12.657844041698574"><ele>361.0</ele><time>2026-05-02T10:53:30.999Z</time></trkpt><trkpt lat="41.76560422676253" lon="12.658024391057845"><ele>361.0</ele><time>2026-05-02T10:53:31.999Z</time></trkpt><trkpt lat="41.76560454577305" lon="12.658214739778233"><ele>360.3333333333333</ele><time>2026-05-02T10:53:32.999Z</time></trkpt><trkpt lat="41.765603871652374" lon="12.658411245324059"><ele>359.6666666666667</ele><time>2026-05-02T10:53:33.999Z</time></trkpt><trkpt lat="41.76560485612516" lon="12.658614364319753"><ele>359.0</ele><time>2026-05-02T10:53:34.999Z</time></trkpt><trkpt lat="41.76560751366983" lon="12.658821866481427"><ele>358.0</ele><time>2026-05-02T10:53:35.999Z</time></trkpt><trkpt lat="41.765611357521806" lon="12.659031491352813"><ele>357.0</ele><time>2026-05-02T10:53:36.999Z</time></trkpt><trkpt lat="41.765596646719" lon="12.659242175942502"><ele>356.0</ele><time>2026-05-02T10:53:37.999Z</time></trkpt><trkpt lat="41.76559723431327" lon="12.659455003789754"><ele>355.0</ele><time>2026-05-02T10:53:38.999Z</time></trkpt><trkpt lat="41.765597839420586" lon="12.659668425503588"><ele>354.0</ele><time>2026-05-02T10:53:39.999Z</time></trkpt><trkpt lat="41.76560131682439" lon="12.65987914249056"><ele>353.0</ele><time>2026-05-02T10:53:40.999Z</time></trkpt><trkpt lat="41.76560994777951" lon="12.66008372968031"><ele>353.0</ele><time>2026-05-02T10:53:41.999Z</time></trkpt><trkpt lat="41.7656298138865" lon="12.660279988917402"><ele>353.0</ele><time>2026-05-02T10:53:42.999Z</time></trkpt><trkpt lat="41.765685073122036" lon="12.660459678962553"><ele>353.0</ele><time>2026-05-02T10:53:43.999Z</time></trkpt><trkpt lat="41.765733246876486" lon="12.660626316133115"><ele>353.0</ele><time>2026-05-02T10:53:44.999Z</time></trkpt><trkpt lat="41.76578644734855" lon="12.660775784451495"><ele>352.79999999999995</ele><time>2026-05-02T10:53:45.999Z</time></trkpt><trkpt lat="41.76584552191093" lon="12.66091120319503"><ele>352.6</ele><time>2026-05-02T10:53:46.999Z</time></trkpt><trkpt lat="41.76591196160791" lon="12.66103484284023"><ele>352.4</ele><time>2026-05-02T10:53:47.999Z</time></trkpt><trkpt lat="41.76598364039969" lon="12.661145619927446"><ele>352.20000000000005</ele><time>2026-05-02T10:53:48.999Z</time></trkpt><trkpt lat="41.76605294774513" lon="12.661252340252599"><ele>352.0</ele><time>2026-05-02T10:53:49.999Z</time></trkpt><trkpt lat="41.766118344640745" lon="12.661359004611963"><ele>347.6</ele><time>2026-05-02T10:53:50.999Z</time></trkpt><trkpt lat="41.76617984685703" lon="12.661464599001249"><ele>343.20000000000005</ele><time>2026-05-02T10:53:51.999Z</time></trkpt><trkpt lat="41.76624090761873" lon="12.661573897611447"><ele>338.8</ele><time>2026-05-02T10:53:52.999Z</time></trkpt><trkpt lat="41.76630312519504" lon="12.661684962045094"><ele>334.4</ele><time>2026-05-02T10:53:53.999Z</time></trkpt><trkpt lat="41.76636339933016" lon="12.66179647093141"><ele>330.0</ele><time>2026-05-02T10:53:54.999Z</time></trkpt><trkpt lat="41.76641771577126" lon="12.661923618307581"><ele>331.4</ele><time>2026-05-02T10:53:55.999Z</time></trkpt><trkpt lat="41.76645955963608" lon="12.662065116963557"><ele>332.8</ele><time>2026-05-02T10:53:56.999Z</time></trkpt><trkpt lat="41.76649134952052" lon="12.662210397310599"><ele>334.20000000000005</ele><time>2026-05-02T10:53:57.999Z</time></trkpt><trkpt lat="41.76651765716203" lon="12.662353137488127"><ele>335.6</ele><time>2026-05-02T10:53:58.999Z</time></trkpt><trkpt lat="41.766539924864745" lon="12.662492276944644"><ele>337.0</ele><time>2026-05-02T10:53:59.999Z</time></trkpt><trkpt lat="41.7665633385571" lon="12.662631061067819"><ele>337.0</ele><time>2026-05-02T10:54:00.999Z</time></trkpt><trkpt lat="41.766592236328684" lon="12.66276511763317"><ele>337.0</ele><time>2026-05-02T10:54:01.999Z</time></trkpt><trkpt lat="41.766627683205556" lon="12.662899799274664"><ele>337.0</ele><time>2026-05-02T10:54:02.999Z</time></trkpt><trkpt lat="41.76666118404871" lon="12.663022787966048"><ele>337.0</ele><time>2026-05-02T10:54:03.999Z</time></trkpt><trkpt lat="41.7666884281651" lon="12.663143050058881"><ele>337.0</ele><time>2026-05-02T10:54:04.999Z</time></trkpt><trkpt lat="41.766711978395804" lon="12.66325477171419"><ele>338.6</ele><time>2026-05-02T10:54:05.999Z</time></trkpt><trkpt lat="41.76674672328116" lon="12.66335582227229"><ele>340.20000000000005</ele><time>2026-05-02T10:54:06.999Z</time></trkpt><trkpt lat="41.76680678975321" lon="12.663454398592975"><ele>341.8</ele><time>2026-05-02T10:54:07.999Z</time></trkpt><trkpt lat="41.76685858362212" lon="12.663578201885912"><ele>343.4</ele><time>2026-05-02T10:54:08.999Z</time></trkpt><trkpt lat="41.76691645716175" lon="12.663704559204705"><ele>345.0</ele><time>2026-05-02T10:54:09.999Z</time></trkpt><trkpt lat="41.766978042748825" lon="12.663832348514376"><ele>345.75</ele><time>2026-05-02T10:54:10.999Z</time></trkpt><trkpt lat="41.767053302802225" lon="12.663948009451826"><ele>346.5</ele><time>2026-05-02T10:54:11.999Z</time></trkpt><trkpt lat="41.767120806561344" lon="12.664073144678921"><ele>347.25</ele><time>2026-05-02T10:54:12.999Z</time></trkpt><trkpt lat="41.76719409244398" lon="12.664193698844043"><ele>348.0</ele><time>2026-05-02T10:54:13.999Z</time></trkpt><trkpt lat="41.76726832730606" lon="12.664307460803716"><ele>348.0</ele><time>2026-05-02T10:54:14.999Z</time></trkpt><trkpt lat="41.76732578583085" lon="12.664431380826583"><ele>348.0</ele><time>2026-05-02T10:54:15.999Z</time></trkpt><trkpt lat="41.767399305995724" lon="12.664511905125579"><ele>348.0</ele><time>2026-05-02T10:54:16.999Z</time></trkpt><trkpt lat="41.767452691196574" lon="12.66459525277394"><ele>348.0</ele><time>2026-05-02T10:54:17.999Z</time></trkpt><trkpt lat="41.767513671892154" lon="12.66468275465533"><ele>348.0</ele><time>2026-05-02T10:54:18.999Z</time></trkpt><trkpt lat="41.76758137190876" lon="12.664776301564302"><ele>349.2</ele><time>2026-05-02T10:54:19.999Z</time></trkpt><trkpt lat="41.76765376918351" lon="12.664867267453008"><ele>350.4</ele><time>2026-05-02T10:54:20.999Z</time></trkpt><trkpt lat="41.767728355430876" lon="12.66495309469855"><ele>351.59999999999997</ele><time>2026-05-02T10:54:21.999Z</time></trkpt><trkpt lat="41.76780990308196" lon="12.665013473235229"><ele>352.79999999999995</ele><time>2026-05-02T10:54:22.999Z</time></trkpt><trkpt lat="41.76790461843184" lon="12.665041221746836"><ele>354.0</ele><time>2026-05-02T10:54:23.999Z</time></trkpt><trkpt lat="41.768002593399814" lon="12.66506284092696"><ele>356.2</ele><time>2026-05-02T10:54:24.999Z</time></trkpt><trkpt lat="41.768098782849876" lon="12.665085078232632"><ele>358.4</ele><time>2026-05-02T10:54:25.999Z</time></trkpt><trkpt lat="41.7681936041475" lon="12.665097151634741"><ele>360.6</ele><time>2026-05-02T10:54:26.999Z</time></trkpt><trkpt lat="41.76828702701442" lon="12.665091905283466"><ele>362.8</ele><time>2026-05-02T10:54:27.999Z</time></trkpt><trkpt lat="41.76837589230956" lon="12.665058295983487"><ele>365.0</ele><time>2026-05-02T10:54:28.999Z</time></trkpt><trkpt lat="41.768452874503296" lon="12.664991406775533"><ele>365.0</ele><time>2026-05-02T10:54:29.999Z</time></trkpt><trkpt lat="41.76851078731069" lon="12.66489441650727"><ele>365.0</ele><time>2026-05-02T10:54:30.999Z</time></trkpt><trkpt lat="41.768545182538844" lon="12.664772258813764"><ele>365.0</ele><time>2026-05-02T10:54:31.999Z</time></trkpt><trkpt lat="41.768561811957674" lon="12.66464085535813"><ele>365.0</ele><time>2026-05-02T10:54:32.999Z</time></trkpt><trkpt lat="41.768575098278205" lon="12.664508667064773"><ele>365.0</ele><time>2026-05-02T10:54:33.999Z</time></trkpt><trkpt lat="41.76857462229665" lon="12.664371899296064"><ele>365.0</ele><time>2026-05-02T10:54:34.999Z</time></trkpt><trkpt lat="41.768564627613095" lon="12.664242151529416"><ele>365.0</ele><time>2026-05-02T10:54:35.999Z</time></trkpt><trkpt lat="41.76853647968278" lon="12.664130071987731"><ele>365.0</ele><time>2026-05-02T10:54:36.999Z</time></trkpt><trkpt lat="41.76850288270766" lon="12.664031046098703"><ele>365.0</ele><time>2026-05-02T10:54:37.999Z</time></trkpt><trkpt lat="41.768471816004386" lon="12.66394029976832"><ele>365.0</ele><time>2026-05-02T10:54:38.999Z</time></trkpt><trkpt lat="41.76844248351917" lon="12.663855447699152"><ele>365.0</ele><time>2026-05-02T10:54:39.999Z</time></trkpt><trkpt lat="41.76841804111917" lon="12.663775179876442"><ele>365.0</ele><time>2026-05-02T10:54:40.999Z</time></trkpt><trkpt lat="41.76837185013194" lon="12.663634630416523"><ele>365.0</ele><time>2026-05-02T10:54:43Z</time></trkpt><trkpt lat="41.76832724640053" lon="12.663507871707811"><ele>365.0</ele><time>2026-05-02T10:54:45Z</time></trkpt><trkpt lat="41.768277786116606" lon="12.663359812937276"><ele>365.0</ele><time>2026-05-02T10:54:47Z</time></trkpt><trkpt lat="41.768259686807454" lon="12.663275794510099"><ele>365.0</ele><time>2026-05-02T10:54:48Z</time></trkpt><trkpt lat="41.76824887871388" lon="12.663187475743118"><ele>365.4</ele><time>2026-05-02T10:54:48.999Z</time></trkpt><trkpt lat="41.76823691208849" lon="12.663030383671135"><ele>365.8</ele><time>2026-05-02T10:54:50.999Z</time></trkpt><trkpt lat="41.7682218887109" lon="12.662903382941279"><ele>366.20000000000005</ele><time>2026-05-02T10:54:52.999Z</time></trkpt><trkpt lat="41.768195112702614" lon="12.66276328454236"><ele>366.6</ele><time>2026-05-02T10:54:54.999Z</time></trkpt><trkpt lat="41.76816803856152" lon="12.662653273884198"><ele>367.0</ele><time>2026-05-02T10:54:56.999Z</time></trkpt><trkpt lat="41.76812100813019" lon="12.662555203652031"><ele>367.8333333333333</ele><time>2026-05-02T10:54:58.999Z</time></trkpt><trkpt lat="41.7680732501564" lon="12.662465785830813"><ele>368.66666666666663</ele><time>2026-05-02T10:55:00.999Z</time></trkpt><trkpt lat="41.7680265706472" lon="12.6623921328965"><ele>369.5</ele><time>2026-05-02T10:55:02.999Z</time></trkpt><trkpt lat="41.7679657758267" lon="12.662302504116466"><ele>370.3333333333333</ele><time>2026-05-02T10:55:04.999Z</time></trkpt><trkpt lat="41.76791496584353" lon="12.662236549519934"><ele>371.1666666666667</ele><time>2026-05-02T10:55:06.999Z</time></trkpt><trkpt lat="41.76787723964824" lon="12.662137405140129"><ele>372.0</ele><time>2026-05-02T10:55:08.999Z</time></trkpt><trkpt lat="41.767923926266434" lon="12.662042775628162"><ele>372.0</ele><time>2026-05-02T10:55:10.999Z</time></trkpt><trkpt lat="41.76802123231004" lon="12.662085838700166"><ele>372.0</ele><time>2026-05-02T10:55:12.999Z</time></trkpt><trkpt lat="41.76809625799405" lon="12.66219526744263"><ele>372.0</ele><time>2026-05-02T10:55:14.999Z</time></trkpt><trkpt lat="41.76819010401227" lon="12.662282482170585"><ele>372.0</ele><time>2026-05-02T10:55:16.999Z</time></trkpt><trkpt lat="41.768281298755134" lon="12.662333190268194"><ele>372.0</ele><time>2026-05-02T10:55:18.999Z</time></trkpt><trkpt lat="41.76834815560653" lon="12.662370189818201"><ele>372.0</ele><time>2026-05-02T10:55:20.999Z</time></trkpt><trkpt lat="41.768420161635824" lon="12.662411738538696"><ele>372.0</ele><time>2026-05-02T10:55:22.999Z</time></trkpt><trkpt lat="41.768506010543526" lon="12.66245165819693"><ele>372.0</ele><time>2026-05-02T10:55:24.999Z</time></trkpt><trkpt lat="41.76856564039686" lon="12.662485551624588"><ele>372.0</ele><time>2026-05-02T10:55:26.999Z</time></trkpt><trkpt lat="41.768638210834126" lon="12.66248951682647"><ele>372.0</ele><time>2026-05-02T10:55:28.999Z</time></trkpt><trkpt lat="41.76871242693214" lon="12.662449294849875"><ele>372.0</ele><time>2026-05-02T10:55:30.999Z</time></trkpt><trkpt lat="41.768791668054426" lon="12.662410317275832"><ele>372.6</ele><time>2026-05-02T10:55:33.999Z</time></trkpt><trkpt lat="41.76885986006984" lon="12.662336441563447"><ele>373.20000000000005</ele><time>2026-05-02T10:55:35.999Z</time></trkpt><trkpt lat="41.7689079168423" lon="12.662210508355502"><ele>373.8</ele><time>2026-05-02T10:55:37.999Z</time></trkpt><trkpt lat="41.768937250879276" lon="12.662089879520389"><ele>374.4</ele><time>2026-05-02T10:55:39.999Z</time></trkpt><trkpt lat="41.768976425727274" lon="12.661965289592489"><ele>375.0</ele><time>2026-05-02T10:55:41.999Z</time></trkpt><trkpt lat="41.769018463456206" lon="12.661852832482834"><ele>375.0</ele><time>2026-05-02T10:55:43.999Z</time></trkpt><trkpt lat="41.76906671902985" lon="12.661760466750211"><ele>375.0</ele><time>2026-05-02T10:55:45.999Z</time></trkpt><trkpt lat="41.7690967533837" lon="12.661641762180643"><ele>375.0</ele><time>2026-05-02T10:55:47.999Z</time></trkpt><trkpt lat="41.769150912025346" lon="12.661508991656108"><ele>375.0</ele><time>2026-05-02T10:55:49.999Z</time></trkpt><trkpt lat="41.769195974010266" lon="12.66137031695644"><ele>375.0</ele><time>2026-05-02T10:55:51.999Z</time></trkpt><trkpt lat="41.769246676496195" lon="12.661223909757904"><ele>375.0</ele><time>2026-05-02T10:55:53.999Z</time></trkpt><trkpt lat="41.76927790172149" lon="12.661147029324205"><ele>375.0</ele><time>2026-05-02T10:55:54.999Z</time></trkpt><trkpt lat="41.76930619918929" lon="12.661062612975932"><ele>375.0</ele><time>2026-05-02T10:55:55.999Z</time></trkpt><trkpt lat="41.769337149089125" lon="12.660974591344651"><ele>375.0</ele><time>2026-05-02T10:55:56.999Z</time></trkpt><trkpt lat="41.76936894525805" lon="12.660883844415013"><ele>375.0</ele><time>2026-05-02T10:55:57.999Z</time></trkpt><trkpt lat="41.76940299816972" lon="12.660796164322447"><ele>375.0</ele><time>2026-05-02T10:55:58.999Z</time></trkpt><trkpt lat="41.769438106754585" lon="12.660703937925815"><ele>375.0</ele><time>2026-05-02T10:55:59.999Z</time></trkpt><trkpt lat="41.769472040476124" lon="12.660607381993056"><ele>372.8571428571429</ele><time>2026-05-02T10:56:00.999Z</time></trkpt><trkpt lat="41.76950420028668" lon="12.660513892726026"><ele>370.71428571428567</ele><time>2026-05-02T10:56:01.999Z</time></trkpt><trkpt lat="41.769534415077366" lon="12.660426899495098"><ele>368.57142857142856</ele><time>2026-05-02T10:56:02.999Z</time></trkpt><trkpt lat="41.76957008740299" lon="12.660339390049742"><ele>366.42857142857144</ele><time>2026-05-02T10:56:03.999Z</time></trkpt><trkpt lat="41.769599960118654" lon="12.660253069541485"><ele>364.28571428571433</ele><time>2026-05-02T10:56:04.999Z</time></trkpt><trkpt lat="41.769631202527414" lon="12.660166786999994"><ele>362.1428571428571</ele><time>2026-05-02T10:56:05.999Z</time></trkpt><trkpt lat="41.769657102959094" lon="12.660078417850363"><ele>360.0</ele><time>2026-05-02T10:56:06.999Z</time></trkpt><trkpt lat="41.76968331905389" lon="12.659990951459122"><ele>360.0</ele><time>2026-05-02T10:56:07.999Z</time></trkpt><trkpt lat="41.769715499200046" lon="12.659911545829305"><ele>360.0</ele><time>2026-05-02T10:56:08.999Z</time></trkpt><trkpt lat="41.76976694035139" lon="12.659767966512574"><ele>360.0</ele><time>2026-05-02T10:56:10.999Z</time></trkpt><trkpt lat="41.76982477782824" lon="12.659631442754181"><ele>360.0</ele><time>2026-05-02T10:56:12.999Z</time></trkpt><trkpt lat="41.76986616460856" lon="12.659501021994659"><ele>360.0</ele><time>2026-05-02T10:56:14.999Z</time></trkpt><trkpt lat="41.769896281887675" lon="12.65938720125576"><ele>360.0</ele><time>2026-05-02T10:56:16.999Z</time></trkpt><trkpt lat="41.7699100214355" lon="12.659276450486995"><ele>360.0</ele><time>2026-05-02T10:56:18.999Z</time></trkpt><trkpt lat="41.76993508937997" lon="12.659172567043173"><ele>360.0</ele><time>2026-05-02T10:56:20.999Z</time></trkpt><trkpt lat="41.76995634863739" lon="12.659079844937542"><ele>360.0</ele><time>2026-05-02T10:56:22.999Z</time></trkpt><trkpt lat="41.76997846413689" lon="12.658967906545277"><ele>360.0</ele><time>2026-05-02T10:56:25.999Z</time></trkpt><trkpt lat="41.76997483981009" lon="12.658853996482662"><ele>360.0</ele><time>2026-05-02T10:56:28.999Z</time></trkpt><trkpt lat="41.76987983393996" lon="12.658843763977199"><ele>360.0</ele><time>2026-05-02T10:57:22Z</time></trkpt><trkpt lat="41.769939207884285" lon="12.658791610323073"><ele>360.0</ele><time>2026-05-02T10:59:39Z</time></trkpt><trkpt lat="41.76983666387295" lon="12.658725588336813"><ele>360.0</ele><time>2026-05-02T12:51:01.986Z</time></trkpt><trkpt lat="41.769914144788274" lon="12.658762873753309"><ele>360.0</ele><time>2026-05-02T12:51:39.999Z</time></trkpt><trkpt lat="41.769932884380495" lon="12.658844636086592"><ele>360.0</ele><time>2026-05-02T12:53:41Z</time></trkpt><trkpt lat="41.769890280043434" lon="12.65890735221638"><ele>360.0</ele><time>2026-05-02T12:54:30Z</time></trkpt><trkpt lat="41.76984296517954" lon="12.658977244940088"><ele>360.0</ele><time>2026-05-02T12:54:37Z</time></trkpt><trkpt lat="41.76977852309122" lon="12.658993188492762"><ele>360.0</ele><time>2026-05-02T12:54:48Z</time></trkpt><trkpt lat="41.76985480169911" lon="12.65895800789765"><ele>360.0</ele><time>2026-05-02T12:55:46Z</time></trkpt><trkpt lat="41.76989373971713" lon="12.658890769572059"><ele>360.0</ele><time>2026-05-02T12:55:57Z</time></trkpt><trkpt lat="41.76992962006511" lon="12.65881125793588"><ele>360.0</ele><time>2026-05-02T12:56:15Z</time></trkpt><trkpt lat="41.76995838676919" lon="12.658732803513821"><ele>360.0</ele><time>2026-05-02T12:56:24Z</time></trkpt><trkpt lat="41.769965573111605" lon="12.658646303279204"><ele>360.0</ele><time>2026-05-02T12:56:30Z</time></trkpt><trkpt lat="41.7700085482806" lon="12.658552498510756"><ele>360.0</ele><time>2026-05-02T12:56:54Z</time></trkpt><trkpt lat="41.76996378884397" lon="12.658490559213384"><ele>360.0</ele><time>2026-05-02T12:57:02Z</time></trkpt><trkpt lat="41.76995015755797" lon="12.658403785399411"><ele>360.0</ele><time>2026-05-02T12:57:13.999Z</time></trkpt><trkpt lat="41.76994180064958" lon="12.658312420753719"><ele>360.0</ele><time>2026-05-02T12:57:26.999Z</time></trkpt><trkpt lat="41.769882312872745" lon="12.658267431942688"><ele>360.0</ele><time>2026-05-02T12:57:56Z</time></trkpt><trkpt lat="41.76981598880227" lon="12.658242211933166"><ele>360.0</ele><time>2026-05-02T12:58:06Z</time></trkpt><trkpt lat="41.76975219779246" lon="12.658193675610564"><ele>360.0</ele><time>2026-05-02T12:58:15Z</time></trkpt><trkpt lat="41.76968031126034" lon="12.658212830877114"><ele>360.0</ele><time>2026-05-02T12:58:25Z</time></trkpt><trkpt lat="41.769615349365445" lon="12.658218356227179"><ele>360.0</ele><time>2026-05-02T12:58:35Z</time></trkpt><trkpt lat="41.76950695529135" lon="12.65831958849009"><ele>360.0</ele><time>2026-05-02T12:59:00Z</time></trkpt><trkpt lat="41.769444138130375" lon="12.658295825706816"><ele>360.0</ele><time>2026-05-02T12:59:10Z</time></trkpt><trkpt lat="41.76939886232672" lon="12.658217681976579"><ele>360.0</ele><time>2026-05-02T12:59:19.999Z</time></trkpt><trkpt lat="41.76934074335072" lon="12.658172275784166"><ele>360.0</ele><time>2026-05-02T12:59:32.999Z</time></trkpt><trkpt lat="41.76931577250216" lon="12.658091584752933"><ele>358.1428571428571</ele><time>2026-05-02T12:59:42Z</time></trkpt><trkpt lat="41.769305852871994" lon="12.65800649864229"><ele>356.28571428571433</ele><time>2026-05-02T13:00:01Z</time></trkpt><trkpt lat="41.76924252061651" lon="12.657966230576566"><ele>354.42857142857144</ele><time>2026-05-02T13:00:12Z</time></trkpt><trkpt lat="41.769185130817846" lon="12.658006537563928"><ele>352.57142857142856</ele><time>2026-05-02T13:01:26.998Z</time></trkpt><trkpt lat="41.76916148893482" lon="12.658097563630259"><ele>350.71428571428567</ele><time>2026-05-02T13:01:35.998Z</time></trkpt><trkpt lat="41.76909667675806" lon="12.658111447099966"><ele>348.8571428571429</ele><time>2026-05-02T13:01:46.999Z</time></trkpt><trkpt lat="41.76916212409355" lon="12.658075435121251"><ele>347.0</ele><time>2026-05-02T13:04:45.999Z</time></trkpt><trkpt lat="41.76923000041979" lon="12.658125809667135"><ele>347.0</ele><time>2026-05-02T13:05:05Z</time></trkpt><trkpt lat="41.76928850698332" lon="12.658164959894485"><ele>347.0</ele><time>2026-05-02T13:05:22Z</time></trkpt><trkpt lat="41.76945735100389" lon="12.658172088667303"><ele>347.0</ele><time>2026-05-02T13:07:03.001Z</time></trkpt><trkpt lat="41.76951319833116" lon="12.658219949084357"><ele>347.0</ele><time>2026-05-02T13:07:25.002Z</time></trkpt><trkpt lat="41.769496322336224" lon="12.658314271232067"><ele>347.0</ele><time>2026-05-02T13:07:33.002Z</time></trkpt><trkpt lat="41.76944444204024" lon="12.658373554891723"><ele>347.0</ele><time>2026-05-02T13:07:48.001Z</time></trkpt><trkpt lat="41.769373416652876" lon="12.658444033313753"><ele>347.0</ele><time>2026-05-02T13:08:05.001Z</time></trkpt><trkpt lat="41.76935879490865" lon="12.658532050532552"><ele>347.0</ele><time>2026-05-02T13:09:00.002Z</time></trkpt><trkpt lat="41.769367478760714" lon="12.658624568590692"><ele>347.0</ele><time>2026-05-02T13:09:06.002Z</time></trkpt><trkpt lat="41.76937534400123" lon="12.658714796523357"><ele>347.0</ele><time>2026-05-02T13:09:15.003Z</time></trkpt><trkpt lat="41.769322703589204" lon="12.658778045435286"><ele>347.0</ele><time>2026-05-02T13:09:31.003Z</time></trkpt><trkpt lat="41.76927589608381" lon="12.658858229439033"><ele>347.0</ele><time>2026-05-02T13:09:44.004Z</time></trkpt><trkpt lat="41.769252861223606" lon="12.658943924891101"><ele>347.0</ele><time>2026-05-02T13:10:20.003Z</time></trkpt><trkpt lat="41.76929417030494" lon="12.659024599246168"><ele>348.8571428571429</ele><time>2026-05-02T13:10:42.003Z</time></trkpt><trkpt lat="41.76935195269297" lon="12.659071085005632"><ele>350.71428571428567</ele><time>2026-05-02T13:10:50.003Z</time></trkpt><trkpt lat="41.769389855207145" lon="12.659141009523232"><ele>352.57142857142856</ele><time>2026-05-02T13:11:00.003Z</time></trkpt><trkpt lat="41.769435774540945" lon="12.659231193747193"><ele>354.42857142857144</ele><time>2026-05-02T13:11:09.004Z</time></trkpt><trkpt lat="41.76950393243744" lon="12.659231515126239"><ele>356.28571428571433</ele><time>2026-05-02T13:11:24.004Z</time></trkpt><trkpt lat="41.76957512696234" lon="12.659233054275111"><ele>358.1428571428571</ele><time>2026-05-02T13:11:40.004Z</time></trkpt><trkpt lat="41.76964475914029" lon="12.659203925233728"><ele>360.0</ele><time>2026-05-02T13:11:50.004Z</time></trkpt><trkpt lat="41.76969396628663" lon="12.659139424734338"><ele>360.0</ele><time>2026-05-02T13:12:34.003Z</time></trkpt><trkpt lat="41.76970520893529" lon="12.659047164760349"><ele>360.0</ele><time>2026-05-02T13:12:44.003Z</time></trkpt><trkpt lat="41.769759092189844" lon="12.658984806915035"><ele>360.0</ele><time>2026-05-02T13:13:03.003Z</time></trkpt><trkpt lat="41.76982921557899" lon="12.658977505335743"><ele>360.0</ele><time>2026-05-02T13:13:28.003Z</time></trkpt><trkpt lat="41.7698872977678" lon="12.658912328180207"><ele>360.0</ele><time>2026-05-02T13:13:38.003Z</time></trkpt><trkpt lat="41.76999750851375" lon="12.6589296762271"><ele>360.0</ele><time>2026-05-02T13:20:10.002Z</time></trkpt><trkpt lat="41.76995534598768" lon="12.658997595587548"><ele>360.0</ele><time>2026-05-02T13:20:15.002Z</time></trkpt><trkpt lat="41.769894888585775" lon="12.659063411466324"><ele>360.0</ele><time>2026-05-02T13:20:17.002Z</time></trkpt><trkpt lat="41.76980861932796" lon="12.65909004176312"><ele>360.0</ele><time>2026-05-02T13:20:19.002Z</time></trkpt><trkpt lat="41.76971274406951" lon="12.659113471114189"><ele>360.0</ele><time>2026-05-02T13:20:21.002Z</time></trkpt><trkpt lat="41.769643853732674" lon="12.659175961063799"><ele>360.0</ele><time>2026-05-02T13:20:23.002Z</time></trkpt><trkpt lat="41.76959474025735" lon="12.659269722970576"><ele>360.0</ele><time>2026-05-02T13:20:25.002Z</time></trkpt><trkpt lat="41.76952528102522" lon="12.659343050969678"><ele>360.0</ele><time>2026-05-02T13:20:27.002Z</time></trkpt><trkpt lat="41.76947010972869" lon="12.659419946449548"><ele>360.0</ele><time>2026-05-02T13:20:29.002Z</time></trkpt><trkpt lat="41.76943571895716" lon="12.659537752489125"><ele>360.0</ele><time>2026-05-02T13:20:31.002Z</time></trkpt><trkpt lat="41.76939822399862" lon="12.65965946695091"><ele>360.0</ele><time>2026-05-02T13:20:33.002Z</time></trkpt><trkpt lat="41.76943641826811" lon="12.659775372626688"><ele>360.0</ele><time>2026-05-02T13:20:35.002Z</time></trkpt><trkpt lat="41.76942324398044" lon="12.659878165858274"><ele>360.0</ele><time>2026-05-02T13:20:37.002Z</time></trkpt><trkpt lat="41.7693234088659" lon="12.659934355456462"><ele>361.5</ele><time>2026-05-02T13:20:39.002Z</time></trkpt><trkpt lat="41.769353519950194" lon="12.660065080374144"><ele>363.0</ele><time>2026-05-02T13:20:41.001Z</time></trkpt><trkpt lat="41.76933987523675" lon="12.660185401586471"><ele>364.5</ele><time>2026-05-02T13:20:43.001Z</time></trkpt><trkpt lat="41.769269280934004" lon="12.660201708390169"><ele>366.0</ele><time>2026-05-02T13:20:45.001Z</time></trkpt><trkpt lat="41.76927939595809" lon="12.660331172572667"><ele>367.5</ele><time>2026-05-02T13:20:48.001Z</time></trkpt><trkpt lat="41.7692678891731" lon="12.660429780330658"><ele>369.0</ele><time>2026-05-02T13:20:50.001Z</time></trkpt><trkpt lat="41.769206966145276" lon="12.660525421098413"><ele>369.79999999999995</ele><time>2026-05-02T13:20:52.001Z</time></trkpt><trkpt lat="41.769162772275116" lon="12.66063763423528"><ele>370.59999999999997</ele><time>2026-05-02T13:20:54.001Z</time></trkpt><trkpt lat="41.76911751847902" lon="12.660746329468655"><ele>371.4</ele><time>2026-05-02T13:20:56.001Z</time></trkpt><trkpt lat="41.76909448886657" lon="12.660876430692545"><ele>372.2</ele><time>2026-05-02T13:20:58.001Z</time></trkpt><trkpt lat="41.76909216972483" lon="12.66102177565905"><ele>373.0</ele><time>2026-05-02T13:21:00.001Z</time></trkpt><trkpt lat="41.769046085389306" lon="12.661123758264015"><ele>373.4</ele><time>2026-05-02T13:21:02.001Z</time></trkpt><trkpt lat="41.769077799788064" lon="12.661282030226655"><ele>373.79999999999995</ele><time>2026-05-02T13:21:04.001Z</time></trkpt><trkpt lat="41.76900466103976" lon="12.661371497350483"><ele>374.2</ele><time>2026-05-02T13:21:06.001Z</time></trkpt><trkpt lat="41.76896127958708" lon="12.661507499251844"><ele>374.6</ele><time>2026-05-02T13:21:08.001Z</time></trkpt><trkpt lat="41.768916730217065" lon="12.661639079285354"><ele>375.0</ele><time>2026-05-02T13:21:10.001Z</time></trkpt><trkpt lat="41.76884792404933" lon="12.661736617582052"><ele>375.0</ele><time>2026-05-02T13:21:12.001Z</time></trkpt><trkpt lat="41.76880033184197" lon="12.661810125888403"><ele>375.0</ele><time>2026-05-02T13:21:14.001Z</time></trkpt><trkpt lat="41.768719620811254" lon="12.66186376750739"><ele>375.0</ele><time>2026-05-02T13:21:16.001Z</time></trkpt><trkpt lat="41.76865876178261" lon="12.661925469124759"><ele>375.0</ele><time>2026-05-02T13:21:18.001Z</time></trkpt><trkpt lat="41.768616555947084" lon="12.661990806141784"><ele>375.0</ele><time>2026-05-02T13:21:21.001Z</time></trkpt><trkpt lat="41.768550572312456" lon="12.662070666182744"><ele>375.0</ele><time>2026-05-02T13:21:24.001Z</time></trkpt><trkpt lat="41.76848040937234" lon="12.66203813956138"><ele>374.5</ele><time>2026-05-02T13:21:26.001Z</time></trkpt><trkpt lat="41.76842128184708" lon="12.661930352821878"><ele>374.0</ele><time>2026-05-02T13:21:28.001Z</time></trkpt><trkpt lat="41.76835143218901" lon="12.661871122121632"><ele>373.5</ele><time>2026-05-02T13:21:30.001Z</time></trkpt><trkpt lat="41.76828670044339" lon="12.661829118308706"><ele>373.0</ele><time>2026-05-02T13:21:32.001Z</time></trkpt><trkpt lat="41.76821441799752" lon="12.661799641728756"><ele>372.5</ele><time>2026-05-02T13:21:34.001Z</time></trkpt><trkpt lat="41.76814294484091" lon="12.661781395724676"><ele>372.0</ele><time>2026-05-02T13:21:36.001Z</time></trkpt><trkpt lat="41.768077441603594" lon="12.661734767534698"><ele>372.0</ele><time>2026-05-02T13:21:38.001Z</time></trkpt><trkpt lat="41.76801475943428" lon="12.661765359713995"><ele>372.0</ele><time>2026-05-02T13:21:40.001Z</time></trkpt><trkpt lat="41.76796312209542" lon="12.661898748189767"><ele>372.0</ele><time>2026-05-02T13:21:42.001Z</time></trkpt><trkpt lat="41.76799257945835" lon="12.661989599170763"><ele>372.0</ele><time>2026-05-02T13:21:44.001Z</time></trkpt><trkpt lat="41.768125806151694" lon="12.66211634005868"><ele>372.0</ele><time>2026-05-02T13:21:46.001Z</time></trkpt><trkpt lat="41.76818127161218" lon="12.662159398514701"><ele>372.0</ele><time>2026-05-02T13:21:47.001Z</time></trkpt><trkpt lat="41.768239768850286" lon="12.662201146401138"><ele>372.0</ele><time>2026-05-02T13:21:48.001Z</time></trkpt><trkpt lat="41.768274564095925" lon="12.662303697815542"><ele>372.0</ele><time>2026-05-02T13:21:49.001Z</time></trkpt><trkpt lat="41.76833794104021" lon="12.662345300550715"><ele>372.0</ele><time>2026-05-02T13:21:50.001Z</time></trkpt><trkpt lat="41.76840949846401" lon="12.662390686236012"><ele>372.0</ele><time>2026-05-02T13:21:51.001Z</time></trkpt><trkpt lat="41.76848177434814" lon="12.66242943321977"><ele>372.0</ele><time>2026-05-02T13:21:52.001Z</time></trkpt><trkpt lat="41.768549004771344" lon="12.662463277490529"><ele>372.6</ele><time>2026-05-02T13:21:53.001Z</time></trkpt><trkpt lat="41.76860901094431" lon="12.662503751848435"><ele>373.20000000000005</ele><time>2026-05-02T13:21:54.001Z</time></trkpt><trkpt lat="41.768670442233585" lon="12.662546141405919"><ele>373.8</ele><time>2026-05-02T13:21:55.001Z</time></trkpt><trkpt lat="41.7686767911352" lon="12.662739599655016"><ele>374.4</ele><time>2026-05-02T13:21:56.001Z</time></trkpt><trkpt lat="41.768721562771496" lon="12.662850765945864"><ele>375.0</ele><time>2026-05-02T13:21:57.001Z</time></trkpt><trkpt lat="41.76876391229509" lon="12.662944795148041"><ele>375.6</ele><time>2026-05-02T13:21:58.001Z</time></trkpt><trkpt lat="41.76880140807687" lon="12.663027398987667"><ele>376.2</ele><time>2026-05-02T13:21:59.001Z</time></trkpt><trkpt lat="41.76884717962951" lon="12.663127264210058"><ele>376.79999999999995</ele><time>2026-05-02T13:22:00.001Z</time></trkpt><trkpt lat="41.76889623980192" lon="12.66323430471827"><ele>377.4</ele><time>2026-05-02T13:22:01.001Z</time></trkpt><trkpt lat="41.76894889479226" lon="12.66334701449521"><ele>378.0</ele><time>2026-05-02T13:22:02.001Z</time></trkpt><trkpt lat="41.76900196654625" lon="12.663460897723782"><ele>378.0</ele><time>2026-05-02T13:22:03.001Z</time></trkpt><trkpt lat="41.76905655831517" lon="12.663577109545308"><ele>378.0</ele><time>2026-05-02T13:22:04.001Z</time></trkpt><trkpt lat="41.769113454334615" lon="12.663694719065417"><ele>378.0</ele><time>2026-05-02T13:22:05.001Z</time></trkpt><trkpt lat="41.76917324806901" lon="12.663808252963573"><ele>378.0</ele><time>2026-05-02T13:22:06.001Z</time></trkpt><trkpt lat="41.76922431833969" lon="12.663932988832782"><ele>378.0</ele><time>2026-05-02T13:22:07.001Z</time></trkpt><trkpt lat="41.7692906650417" lon="12.664052476519839"><ele>378.2</ele><time>2026-05-02T13:22:08.001Z</time></trkpt><trkpt lat="41.76935231261384" lon="12.664177028242202"><ele>378.4</ele><time>2026-05-02T13:22:09.001Z</time></trkpt><trkpt lat="41.76941253977159" lon="12.664296905206296"><ele>378.59999999999997</ele><time>2026-05-02T13:22:10.001Z</time></trkpt><trkpt lat="41.769458042111644" lon="12.6644268612945"><ele>378.79999999999995</ele><time>2026-05-02T13:22:11.001Z</time></trkpt><trkpt lat="41.769516304246096" lon="12.664548363398628"><ele>379.0</ele><time>2026-05-02T13:22:12.001Z</time></trkpt><trkpt lat="41.76957339319654" lon="12.664665060936377"><ele>380.6</ele><time>2026-05-02T13:22:13.001Z</time></trkpt><trkpt lat="41.76962492925427" lon="12.664786377679697"><ele>382.2</ele><time>2026-05-02T13:22:14.001Z</time></trkpt><trkpt lat="41.76967373297964" lon="12.66490392918587"><ele>383.8</ele><time>2026-05-02T13:22:15.001Z</time></trkpt><trkpt lat="41.76972632156932" lon="12.665010024573553"><ele>385.40000000000003</ele><time>2026-05-02T13:22:16.001Z</time></trkpt><trkpt lat="41.76977243725405" lon="12.665122518595235"><ele>387.0</ele><time>2026-05-02T13:22:17.002Z</time></trkpt><trkpt lat="41.769822579947686" lon="12.665228858905909"><ele>387.57142857142856</ele><time>2026-05-02T13:22:18.002Z</time></trkpt><trkpt lat="41.76986953240431" lon="12.665326340842876"><ele>388.14285714285717</ele><time>2026-05-02T13:22:19.002Z</time></trkpt><trkpt lat="41.76991354523596" lon="12.665415897972364"><ele>388.71428571428567</ele><time>2026-05-02T13:22:20.002Z</time></trkpt><trkpt lat="41.769953934096876" lon="12.665498618126787"><ele>389.2857142857143</ele><time>2026-05-02T13:22:21.002Z</time></trkpt><trkpt lat="41.76999176641927" lon="12.665569838991258"><ele>389.85714285714283</ele><time>2026-05-02T13:22:22.002Z</time></trkpt><trkpt lat="41.77003342987054" lon="12.665643387059001"><ele>390.4285714285714</ele><time>2026-05-02T13:22:23.002Z</time></trkpt><trkpt lat="41.77007636025206" lon="12.665722749556462"><ele>391.0</ele><time>2026-05-02T13:22:24.002Z</time></trkpt><trkpt lat="41.77012224368356" lon="12.665805107748564"><ele>391.00000000000006</ele><time>2026-05-02T13:22:25.002Z</time></trkpt><trkpt lat="41.77014616236658" lon="12.665913088166727"><ele>391.0</ele><time>2026-05-02T13:22:26.002Z</time></trkpt><trkpt lat="41.77018205206678" lon="12.666002680800865"><ele>391.0</ele><time>2026-05-02T13:22:27.002Z</time></trkpt><trkpt lat="41.770214090602664" lon="12.666098276329926"><ele>391.0</ele><time>2026-05-02T13:22:28.002Z</time></trkpt><trkpt lat="41.770244075493906" lon="12.66619349481843"><ele>391.00000000000006</ele><time>2026-05-02T13:22:29.001Z</time></trkpt><trkpt lat="41.770269518853155" lon="12.666294240194286"><ele>391.0</ele><time>2026-05-02T13:22:30.001Z</time></trkpt><trkpt lat="41.77029132737718" lon="12.666400753968219"><ele>391.50000000000006</ele><time>2026-05-02T13:22:31.001Z</time></trkpt><trkpt lat="41.77030911455351" lon="12.666500986238598"><ele>392.0</ele><time>2026-05-02T13:22:32.001Z</time></trkpt><trkpt lat="41.77034619317047" lon="12.666617024494009"><ele>392.5</ele><time>2026-05-02T13:22:33.001Z</time></trkpt><trkpt lat="41.7703789499214" lon="12.666728244918337"><ele>393.0</ele><time>2026-05-02T13:22:34.001Z</time></trkpt><trkpt lat="41.77041489593678" lon="12.666841474149733"><ele>393.50000000000006</ele><time>2026-05-02T13:22:35.001Z</time></trkpt><trkpt lat="41.77044308540488" lon="12.666952456876444"><ele>394.0</ele><time>2026-05-02T13:22:36.001Z</time></trkpt><trkpt lat="41.77045637352163" lon="12.667056499317145"><ele>394.2</ele><time>2026-05-02T13:22:37.001Z</time></trkpt><trkpt lat="41.770469739159175" lon="12.667175096364101"><ele>394.4</ele><time>2026-05-02T13:22:38.001Z</time></trkpt><trkpt lat="41.77049053290708" lon="12.66730018850976"><ele>394.6</ele><time>2026-05-02T13:22:39.001Z</time></trkpt><trkpt lat="41.770511015922544" lon="12.66742708089025"><ele>394.8</ele><time>2026-05-02T13:22:40.001Z</time></trkpt><trkpt lat="41.7705317633385" lon="12.66755376484798"><ele>395.0</ele><time>2026-05-02T13:22:41.001Z</time></trkpt><trkpt lat="41.77056411206388" lon="12.667694875375613"><ele>396.2</ele><time>2026-05-02T13:22:42.001Z</time></trkpt><trkpt lat="41.770594981133065" lon="12.667835760554224"><ele>397.4</ele><time>2026-05-02T13:22:43.001Z</time></trkpt><trkpt lat="41.7706231167327" lon="12.667977244239012"><ele>398.6</ele><time>2026-05-02T13:22:44.001Z</time></trkpt><trkpt lat="41.770646884760595" lon="12.668113484930101"><ele>399.8</ele><time>2026-05-02T13:22:45.001Z</time></trkpt><trkpt lat="41.770662408865654" lon="12.668239491119529"><ele>401.0</ele><time>2026-05-02T13:22:46.001Z</time></trkpt><trkpt lat="41.77068328060534" lon="12.668373288349795"><ele>401.0</ele><time>2026-05-02T13:22:47.001Z</time></trkpt><trkpt lat="41.77070816405191" lon="12.668494900026703"><ele>401.0</ele><time>2026-05-02T13:22:48.001Z</time></trkpt><trkpt lat="41.77073398181271" lon="12.668615571410353"><ele>401.0</ele><time>2026-05-02T13:22:49.001Z</time></trkpt><trkpt lat="41.77076105001424" lon="12.668733389798707"><ele>401.0</ele><time>2026-05-02T13:22:50.001Z</time></trkpt><trkpt lat="41.770791313572374" lon="12.668843919626728"><ele>401.0</ele><time>2026-05-02T13:22:51.001Z</time></trkpt><trkpt lat="41.77081405036221" lon="12.668962575666308"><ele>401.49999999999994</ele><time>2026-05-02T13:22:52.001Z</time></trkpt><trkpt lat="41.77083315834742" lon="12.669085115968652"><ele>402.0</ele><time>2026-05-02T13:22:53.001Z</time></trkpt><trkpt lat="41.77086264211955" lon="12.669202661310841"><ele>402.5</ele><time>2026-05-02T13:22:54.001Z</time></trkpt><trkpt lat="41.77089317455948" lon="12.669318335390287"><ele>403.0</ele><time>2026-05-02T13:22:55.001Z</time></trkpt><trkpt lat="41.770921156173785" lon="12.669416095849009"><ele>403.49999999999994</ele><time>2026-05-02T13:22:56.001Z</time></trkpt><trkpt lat="41.77094574534193" lon="12.6695317413513"><ele>404.0</ele><time>2026-05-02T13:22:57.001Z</time></trkpt><trkpt lat="41.77096717536633" lon="12.66965137342349"><ele>404.6</ele><time>2026-05-02T13:22:58.001Z</time></trkpt><trkpt lat="41.77098917845959" lon="12.669773072738503"><ele>405.2</ele><time>2026-05-02T13:22:59.001Z</time></trkpt><trkpt lat="41.771011064793164" lon="12.669889846053952"><ele>405.8</ele><time>2026-05-02T13:23:00.001Z</time></trkpt><trkpt lat="41.771038782315266" lon="12.670005636391013"><ele>406.40000000000003</ele><time>2026-05-02T13:23:01.001Z</time></trkpt><trkpt lat="41.77106892192099" lon="12.670123525527837"><ele>407.0</ele><time>2026-05-02T13:23:02.001Z</time></trkpt><trkpt lat="41.771092195316115" lon="12.670246654839213"><ele>406.40000000000003</ele><time>2026-05-02T13:23:03.001Z</time></trkpt><trkpt lat="41.77111303369477" lon="12.670374071038669"><ele>405.8</ele><time>2026-05-02T13:23:04.001Z</time></trkpt><trkpt lat="41.77112917158634" lon="12.670506257626585"><ele>405.2</ele><time>2026-05-02T13:23:05.001Z</time></trkpt><trkpt lat="41.77114254738376" lon="12.67064875446098"><ele>404.6</ele><time>2026-05-02T13:23:06.001Z</time></trkpt><trkpt lat="41.771151186709666" lon="12.670795691641587"><ele>404.0</ele><time>2026-05-02T13:23:07.001Z</time></trkpt><trkpt lat="41.771155646386354" lon="12.67094523973553"><ele>404.0</ele><time>2026-05-02T13:23:08.001Z</time></trkpt><trkpt lat="41.77116553405625" lon="12.671093028171828"><ele>404.0</ele><time>2026-05-02T13:23:09.001Z</time></trkpt><trkpt lat="41.77117607020445" lon="12.671243929658282"><ele>404.0</ele><time>2026-05-02T13:23:10.001Z</time></trkpt><trkpt lat="41.77117405565211" lon="12.671396845329857"><ele>404.0</ele><time>2026-05-02T13:23:11.001Z</time></trkpt><trkpt lat="41.77118118111045" lon="12.67155188503235"><ele>403.0</ele><time>2026-05-02T13:23:12.001Z</time></trkpt><trkpt lat="41.771182117180324" lon="12.671711265518786"><ele>402.0</ele><time>2026-05-02T13:23:13.001Z</time></trkpt><trkpt lat="41.77117266836172" lon="12.671863030437597"><ele>401.0</ele><time>2026-05-02T13:23:14.001Z</time></trkpt><trkpt lat="41.771186094574894" lon="12.672016126956386"><ele>400.0</ele><time>2026-05-02T13:23:15.001Z</time></trkpt><trkpt lat="41.77120803526641" lon="12.672176096509896"><ele>400.0</ele><time>2026-05-02T13:23:16.001Z</time></trkpt><trkpt lat="41.77124631824712" lon="12.672342659214458"><ele>400.0</ele><time>2026-05-02T13:23:17.001Z</time></trkpt><trkpt lat="41.771298048949156" lon="12.672488551391476"><ele>400.0</ele><time>2026-05-02T13:23:18.001Z</time></trkpt><trkpt lat="41.77135435151867" lon="12.67262682049403"><ele>400.0</ele><time>2026-05-02T13:23:19.001Z</time></trkpt><trkpt lat="41.771411574914396" lon="12.672781030302755"><ele>400.25</ele><time>2026-05-02T13:23:20.001Z</time></trkpt><trkpt lat="41.771465729780665" lon="12.6729277361966"><ele>400.5</ele><time>2026-05-02T13:23:21.001Z</time></trkpt><trkpt lat="41.771529491771204" lon="12.673066581798752"><ele>400.75</ele><time>2026-05-02T13:23:22.001Z</time></trkpt><trkpt lat="41.77159913234211" lon="12.673199997361241"><ele>401.0</ele><time>2026-05-02T13:23:23.001Z</time></trkpt><trkpt lat="41.77168473515364" lon="12.673337519151291"><ele>401.0</ele><time>2026-05-02T13:23:24.001Z</time></trkpt><trkpt lat="41.77178131920139" lon="12.673462138608082"><ele>401.0</ele><time>2026-05-02T13:23:25.001Z</time></trkpt><trkpt lat="41.771903729416955" lon="12.673613472218832"><ele>401.0</ele><time>2026-05-02T13:23:26.001Z</time></trkpt><trkpt lat="41.771995070676496" lon="12.673759353690041"><ele>401.0</ele><time>2026-05-02T13:23:27.001Z</time></trkpt><trkpt lat="41.77208842029967" lon="12.673896305746196"><ele>401.25</ele><time>2026-05-02T13:23:28.001Z</time></trkpt><trkpt lat="41.77217535133413" lon="12.67402838224483"><ele>401.5</ele><time>2026-05-02T13:23:29.001Z</time></trkpt><trkpt lat="41.77226772750621" lon="12.6741669990617"><ele>401.75</ele><time>2026-05-02T13:23:30.001Z</time></trkpt><trkpt lat="41.7723560906624" lon="12.674296499244576"><ele>402.0</ele><time>2026-05-02T13:23:31.001Z</time></trkpt><trkpt lat="41.77244800707547" lon="12.674423361980734"><ele>401.5</ele><time>2026-05-02T13:23:32.001Z</time></trkpt><trkpt lat="41.77254106474473" lon="12.674547625679716"><ele>401.0</ele><time>2026-05-02T13:23:33.001Z</time></trkpt><trkpt lat="41.772637886095424" lon="12.674677494681971"><ele>400.5</ele><time>2026-05-02T13:23:34.001Z</time></trkpt><trkpt lat="41.772733849405604" lon="12.674807937766962"><ele>400.0</ele><time>2026-05-02T13:23:35.001Z</time></trkpt><trkpt lat="41.77283056380499" lon="12.674940471803957"><ele>400.0</ele><time>2026-05-02T13:23:36.001Z</time></trkpt><trkpt lat="41.772928099803224" lon="12.675075149535465"><ele>400.0</ele><time>2026-05-02T13:23:37.001Z</time></trkpt><trkpt lat="41.77302730745406" lon="12.675209206918607"><ele>400.0</ele><time>2026-05-02T13:23:38.001Z</time></trkpt><trkpt lat="41.77312511046313" lon="12.675344589549557"><ele>400.0</ele><time>2026-05-02T13:23:39.001Z</time></trkpt><trkpt lat="41.77322346168038" lon="12.675480204876408"><ele>400.75</ele><time>2026-05-02T13:23:40.001Z</time></trkpt><trkpt lat="41.77332185403174" lon="12.675615813901546"><ele>401.5</ele><time>2026-05-02T13:23:41.001Z</time></trkpt><trkpt lat="41.77341857451527" lon="12.675752240192113"><ele>402.25</ele><time>2026-05-02T13:23:42.001Z</time></trkpt><trkpt lat="41.773510571571336" lon="12.675889087619609"><ele>403.0</ele><time>2026-05-02T13:23:43.001Z</time></trkpt><trkpt lat="41.77360388357958" lon="12.676027521482446"><ele>404.25</ele><time>2026-05-02T13:23:44.001Z</time></trkpt><trkpt lat="41.77370075534923" lon="12.676165909022913"><ele>405.5</ele><time>2026-05-02T13:23:45.001Z</time></trkpt><trkpt lat="41.77379571103594" lon="12.676297610114503"><ele>406.75</ele><time>2026-05-02T13:23:46.001Z</time></trkpt><trkpt lat="41.773897044570916" lon="12.676425534993236"><ele>408.0</ele><time>2026-05-02T13:23:47.001Z</time></trkpt><trkpt lat="41.774005124919135" lon="12.676563145744026"><ele>408.0</ele><time>2026-05-02T13:23:48.001Z</time></trkpt><trkpt lat="41.774102290732316" lon="12.67669664747848"><ele>408.0</ele><time>2026-05-02T13:23:49.001Z</time></trkpt><trkpt lat="41.77419567714608" lon="12.676829990574365"><ele>408.0</ele><time>2026-05-02T13:23:50.001Z</time></trkpt><trkpt lat="41.7742802339456" lon="12.676966280458185"><ele>408.0</ele><time>2026-05-02T13:23:51.001Z</time></trkpt><trkpt lat="41.77436593804379" lon="12.67710236969415"><ele>406.75</ele><time>2026-05-02T13:23:52.001Z</time></trkpt><trkpt lat="41.774451640974256" lon="12.6772396948202"><ele>405.5</ele><time>2026-05-02T13:23:53.001Z</time></trkpt><trkpt lat="41.774541229795354" lon="12.677379597455376"><ele>404.25</ele><time>2026-05-02T13:23:54.001Z</time></trkpt><trkpt lat="41.77462906641493" lon="12.677520047892862"><ele>403.0</ele><time>2026-05-02T13:23:55.001Z</time></trkpt><trkpt lat="41.77471258108714" lon="12.677669147690382"><ele>403.25</ele><time>2026-05-02T13:23:56.001Z</time></trkpt><trkpt lat="41.7748027286512" lon="12.677817271739283"><ele>403.5</ele><time>2026-05-02T13:23:57.001Z</time></trkpt><trkpt lat="41.77488651416922" lon="12.677964467630815"><ele>403.75</ele><time>2026-05-02T13:23:58.001Z</time></trkpt><trkpt lat="41.77497315851609" lon="12.678109036071966"><ele>404.0</ele><time>2026-05-02T13:23:59.001Z</time></trkpt><trkpt lat="41.7750585157826" lon="12.678254841437852"><ele>404.0</ele><time>2026-05-02T13:24:00Z</time></trkpt><trkpt lat="41.775141529958226" lon="12.678396440033923"><ele>404.0</ele><time>2026-05-02T13:24:01Z</time></trkpt><trkpt lat="41.77522357457754" lon="12.678536304195458"><ele>404.0</ele><time>2026-05-02T13:24:02Z</time></trkpt><trkpt lat="41.775303201114845" lon="12.67867209562656"><ele>404.0</ele><time>2026-05-02T13:24:03Z</time></trkpt><trkpt lat="41.775381854825476" lon="12.67881032548084"><ele>404.75</ele><time>2026-05-02T13:24:04Z</time></trkpt><trkpt lat="41.77546212743409" lon="12.67894721873012"><ele>405.5</ele><time>2026-05-02T13:24:05Z</time></trkpt><trkpt lat="41.77554131333019" lon="12.67908106899324"><ele>406.25</ele><time>2026-05-02T13:24:06Z</time></trkpt><trkpt lat="41.77561962334173" lon="12.67920500356786"><ele>407.0</ele><time>2026-05-02T13:24:07Z</time></trkpt><trkpt lat="41.77569397797617" lon="12.6793232297199"><ele>407.3333333333333</ele><time>2026-05-02T13:24:08Z</time></trkpt><trkpt lat="41.7757633814869" lon="12.679437155485072"><ele>407.66666666666663</ele><time>2026-05-02T13:24:09Z</time></trkpt><trkpt lat="41.77582770019246" lon="12.679536943029825"><ele>408.0</ele><time>2026-05-02T13:24:10Z</time></trkpt><trkpt lat="41.77588196160357" lon="12.679627152488207"><ele>408.33333333333337</ele><time>2026-05-02T13:24:11Z</time></trkpt><trkpt lat="41.7759295631769" lon="12.679710817678984"><ele>408.6666666666667</ele><time>2026-05-02T13:24:11.999Z</time></trkpt><trkpt lat="41.77596422978419" lon="12.679787086395276"><ele>409.0</ele><time>2026-05-02T13:24:12.999Z</time></trkpt><trkpt lat="41.776021824766744" lon="12.679882782044551"><ele>408.2</ele><time>2026-05-02T13:24:14.999Z</time></trkpt><trkpt lat="41.77607702939005" lon="12.679951393892505"><ele>407.4</ele><time>2026-05-02T13:24:17.999Z</time></trkpt><trkpt lat="41.7761003810393" lon="12.680032001247872"><ele>406.6</ele><time>2026-05-02T13:24:45Z</time></trkpt><trkpt lat="41.776146839284664" lon="12.680107409807226"><ele>405.8</ele><time>2026-05-02T13:24:47Z</time></trkpt><trkpt lat="41.776208708238464" lon="12.680208220014983"><ele>405.0</ele><time>2026-05-02T13:24:49Z</time></trkpt><trkpt lat="41.776294561227616" lon="12.680385876529375"><ele>404.6</ele><time>2026-05-02T13:24:51Z</time></trkpt><trkpt lat="41.77633763098681" lon="12.680470620051892"><ele>404.2</ele><time>2026-05-02T13:24:52Z</time></trkpt><trkpt lat="41.776395935036206" lon="12.680581243138638"><ele>403.79999999999995</ele><time>2026-05-02T13:24:53Z</time></trkpt><trkpt lat="41.77645027185363" lon="12.680684895138967"><ele>403.4</ele><time>2026-05-02T13:24:54Z</time></trkpt><trkpt lat="41.7765013778788" lon="12.680788558217182"><ele>403.0</ele><time>2026-05-02T13:24:55Z</time></trkpt><trkpt lat="41.77655476679188" lon="12.680891152653755"><ele>403.0</ele><time>2026-05-02T13:24:56Z</time></trkpt><trkpt lat="41.77661101009614" lon="12.680990799948644"><ele>403.0</ele><time>2026-05-02T13:24:57Z</time></trkpt><trkpt lat="41.77666828200518" lon="12.681091550326766"><ele>403.0</ele><time>2026-05-02T13:24:58Z</time></trkpt><trkpt lat="41.77672814885111" lon="12.681199136874612"><ele>403.0</ele><time>2026-05-02T13:24:59Z</time></trkpt><trkpt lat="41.776786486715096" lon="12.681309229757538"><ele>403.0</ele><time>2026-05-02T13:25:00Z</time></trkpt><trkpt lat="41.776849247010645" lon="12.681417943059026"><ele>402.2</ele><time>2026-05-02T13:25:01Z</time></trkpt><trkpt lat="41.776911260197984" lon="12.681522082172267"><ele>401.4</ele><time>2026-05-02T13:25:02Z</time></trkpt><trkpt lat="41.776977269564036" lon="12.681627864253022"><ele>400.59999999999997</ele><time>2026-05-02T13:25:03Z</time></trkpt><trkpt lat="41.777046677468974" lon="12.681745073119837"><ele>399.79999999999995</ele><time>2026-05-02T13:25:04Z</time></trkpt><trkpt lat="41.77711752468642" lon="12.681861158469985"><ele>399.0</ele><time>2026-05-02T13:25:05Z</time></trkpt><trkpt lat="41.77719175511794" lon="12.681978903176804"><ele>399.0</ele><time>2026-05-02T13:25:06Z</time></trkpt><trkpt lat="41.77726575839938" lon="12.682088638252685"><ele>399.0</ele><time>2026-05-02T13:25:07Z</time></trkpt><trkpt lat="41.77733936847701" lon="12.682202477441782"><ele>399.0</ele><time>2026-05-02T13:25:08Z</time></trkpt><trkpt lat="41.77740813847609" lon="12.682316989131458"><ele>399.0</ele><time>2026-05-02T13:25:09Z</time></trkpt><trkpt lat="41.77748837266556" lon="12.682430471846098"><ele>399.0</ele><time>2026-05-02T13:25:10Z</time></trkpt><trkpt lat="41.77756878529906" lon="12.68255076630904"><ele>399.0</ele><time>2026-05-02T13:25:11Z</time></trkpt><trkpt lat="41.77763917553325" lon="12.682670555237461"><ele>399.0</ele><time>2026-05-02T13:25:12Z</time></trkpt><trkpt lat="41.77772652709523" lon="12.68280545120263"><ele>399.0</ele><time>2026-05-02T13:25:13Z</time></trkpt><trkpt lat="41.77781576810298" lon="12.682926436457524"><ele>399.0</ele><time>2026-05-02T13:25:14Z</time></trkpt><trkpt lat="41.777899741205054" lon="12.683040463702879"><ele>397.5</ele><time>2026-05-02T13:25:15Z</time></trkpt><trkpt lat="41.777982791754894" lon="12.683154718045328"><ele>396.0</ele><time>2026-05-02T13:25:16Z</time></trkpt><trkpt lat="41.77807033868198" lon="12.68326326011334"><ele>394.5</ele><time>2026-05-02T13:25:17Z</time></trkpt><trkpt lat="41.77815873798104" lon="12.683366531950528"><ele>393.0</ele><time>2026-05-02T13:25:18Z</time></trkpt><trkpt lat="41.77824442169396" lon="12.68346059894546"><ele>393.0</ele><time>2026-05-02T13:25:19Z</time></trkpt><trkpt lat="41.77833380528358" lon="12.683542382548495"><ele>393.0</ele><time>2026-05-02T13:25:20Z</time></trkpt><trkpt lat="41.77842967221052" lon="12.683607499463731"><ele>393.0</ele><time>2026-05-02T13:25:21Z</time></trkpt><trkpt lat="41.778523290992936" lon="12.683660754024439"><ele>393.0</ele><time>2026-05-02T13:25:22Z</time></trkpt><trkpt lat="41.77862386985851" lon="12.683717489233603"><ele>393.0</ele><time>2026-05-02T13:25:23Z</time></trkpt><trkpt lat="41.77871439398151" lon="12.683758195461012"><ele>392.2</ele><time>2026-05-02T13:25:24Z</time></trkpt><trkpt lat="41.77881217405101" lon="12.683785202561669"><ele>391.4</ele><time>2026-05-02T13:25:25Z</time></trkpt><trkpt lat="41.77890337395193" lon="12.683793344832562"><ele>390.59999999999997</ele><time>2026-05-02T13:25:26Z</time></trkpt><trkpt lat="41.77900593685804" lon="12.68380595313366"><ele>389.79999999999995</ele><time>2026-05-02T13:25:27Z</time></trkpt><trkpt lat="41.77911963985464" lon="12.683763411346927"><ele>389.0</ele><time>2026-05-02T13:25:28Z</time></trkpt><trkpt lat="41.779199615703654" lon="12.683668350948407"><ele>388.3333333333333</ele><time>2026-05-02T13:25:29Z</time></trkpt><trkpt lat="41.77927953936881" lon="12.68358875130988"><ele>387.66666666666663</ele><time>2026-05-02T13:25:30Z</time></trkpt><trkpt lat="41.77934611295857" lon="12.683515809226783"><ele>387.0</ele><time>2026-05-02T13:25:31Z</time></trkpt><trkpt lat="41.779411006276" lon="12.683440435849304"><ele>386.33333333333337</ele><time>2026-05-02T13:25:32Z</time></trkpt><trkpt lat="41.77946676841217" lon="12.683355613234562"><ele>385.6666666666667</ele><time>2026-05-02T13:25:33Z</time></trkpt><trkpt lat="41.77951436858534" lon="12.683272161112589"><ele>385.0</ele><time>2026-05-02T13:25:34Z</time></trkpt><trkpt lat="41.779555033235155" lon="12.683198002955884"><ele>384.8</ele><time>2026-05-02T13:25:35Z</time></trkpt><trkpt lat="41.77959552631493" lon="12.683115481533989"><ele>384.6</ele><time>2026-05-02T13:25:35.999Z</time></trkpt><trkpt lat="41.77963867578955" lon="12.683043008274991"><ele>384.4</ele><time>2026-05-02T13:25:36.999Z</time></trkpt><trkpt lat="41.779711514643054" lon="12.682913695048136"><ele>384.2</ele><time>2026-05-02T13:25:38.999Z</time></trkpt><trkpt lat="41.779748053194574" lon="12.68284352420297"><ele>384.0</ele><time>2026-05-02T13:25:39.999Z</time></trkpt><trkpt lat="41.779821775292696" lon="12.68271170380308"><ele>383.57142857142856</ele><time>2026-05-02T13:25:41.999Z</time></trkpt><trkpt lat="41.77987391521222" lon="12.682646355731192"><ele>383.1428571428571</ele><time>2026-05-02T13:25:42.999Z</time></trkpt><trkpt lat="41.779919681506875" lon="12.68257701861981"><ele>382.71428571428567</ele><time>2026-05-02T13:25:43.999Z</time></trkpt><trkpt lat="41.77996491563437" lon="12.682503006604442"><ele>382.2857142857143</ele><time>2026-05-02T13:25:44.999Z</time></trkpt><trkpt lat="41.78001123834776" lon="12.68242412244842"><ele>381.8571428571429</ele><time>2026-05-02T13:25:45.999Z</time></trkpt><trkpt lat="41.78005648715878" lon="12.682354557067496"><ele>381.4285714285714</ele><time>2026-05-02T13:25:46.999Z</time></trkpt><trkpt lat="41.78009687577625" lon="12.682280636720128"><ele>381.0</ele><time>2026-05-02T13:25:47.999Z</time></trkpt><trkpt lat="41.78013402217524" lon="12.68220723370449"><ele>381.0</ele><time>2026-05-02T13:25:48.999Z</time></trkpt><trkpt lat="41.78017745618527" lon="12.682136559653019"><ele>381.0</ele><time>2026-05-02T13:25:49.999Z</time></trkpt><trkpt lat="41.78026223621138" lon="12.682009671846203"><ele>381.0</ele><time>2026-05-02T13:25:51.999Z</time></trkpt><trkpt lat="41.780304525785446" lon="12.681938741700794"><ele>381.0</ele><time>2026-05-02T13:25:52.999Z</time></trkpt><trkpt lat="41.78034783361429" lon="12.681867253193332"><ele>381.0</ele><time>2026-05-02T13:25:53.999Z</time></trkpt><trkpt lat="41.78040632749876" lon="12.68179007273612"><ele>381.0</ele><time>2026-05-02T13:25:54.999Z</time></trkpt><trkpt lat="41.78046204796226" lon="12.681731693500028"><ele>380.0</ele><time>2026-05-02T13:25:55.999Z</time></trkpt><trkpt lat="41.78052148102814" lon="12.681687354124158"><ele>379.0</ele><time>2026-05-02T13:25:56.999Z</time></trkpt><trkpt lat="41.78062221806372" lon="12.681623270358882"><ele>378.0</ele><time>2026-05-02T13:25:58.999Z</time></trkpt><trkpt lat="41.78069360314396" lon="12.681603489620729"><ele>377.0</ele><time>2026-05-02T13:25:59.999Z</time></trkpt><trkpt lat="41.78076752939789" lon="12.681593272130991"><ele>376.0</ele><time>2026-05-02T13:26:00.999Z</time></trkpt><trkpt lat="41.780833737921206" lon="12.681584375122444"><ele>375.0</ele><time>2026-05-02T13:26:01.999Z</time></trkpt><trkpt lat="41.780902048202826" lon="12.68160420191845"><ele>375.0</ele><time>2026-05-02T13:26:02.999Z</time></trkpt><trkpt lat="41.78097239149768" lon="12.681630482616738"><ele>375.0</ele><time>2026-05-02T13:26:03.999Z</time></trkpt><trkpt lat="41.78105308489591" lon="12.681691352018266"><ele>375.0</ele><time>2026-05-02T13:26:04.999Z</time></trkpt><trkpt lat="41.781139187031116" lon="12.681766116353138"><ele>375.0</ele><time>2026-05-02T13:26:05.999Z</time></trkpt><trkpt lat="41.781217859956726" lon="12.681848416686966"><ele>375.0</ele><time>2026-05-02T13:26:06.999Z</time></trkpt><trkpt lat="41.781299269379964" lon="12.681943384209408"><ele>373.4</ele><time>2026-05-02T13:26:07.999Z</time></trkpt><trkpt lat="41.78139345501331" lon="12.682041041044501"><ele>371.8</ele><time>2026-05-02T13:26:08.999Z</time></trkpt><trkpt lat="41.781470845147744" lon="12.682159127676881"><ele>370.20000000000005</ele><time>2026-05-02T13:26:09.999Z</time></trkpt><trkpt lat="41.78154990791947" lon="12.682238419230918"><ele>368.6</ele><time>2026-05-02T13:26:10.999Z</time></trkpt><trkpt lat="41.78163291690657" lon="12.682319951258297"><ele>367.0</ele><time>2026-05-02T13:26:11.999Z</time></trkpt><trkpt lat="41.78169685358671" lon="12.682420028395232"><ele>367.0</ele><time>2026-05-02T13:26:12.999Z</time></trkpt><trkpt lat="41.781765267206026" lon="12.682489877187715"><ele>367.0</ele><time>2026-05-02T13:26:13.999Z</time></trkpt><trkpt lat="41.78182433394713" lon="12.68255634574535"><ele>367.0</ele><time>2026-05-02T13:26:14.999Z</time></trkpt><trkpt lat="41.78187171955057" lon="12.682620092469705"><ele>367.0</ele><time>2026-05-02T13:26:15.999Z</time></trkpt><trkpt lat="41.78192548768477" lon="12.682683267397284"><ele>367.0</ele><time>2026-05-02T13:26:16.999Z</time></trkpt><trkpt lat="41.781997377325744" lon="12.682775734224276"><ele>367.0</ele><time>2026-05-02T13:26:18.999Z</time></trkpt><trkpt lat="41.78204591184911" lon="12.682863060521866"><ele>367.16666666666663</ele><time>2026-05-02T13:26:20.999Z</time></trkpt><trkpt lat="41.782101999341094" lon="12.682959447964354"><ele>367.3333333333333</ele><time>2026-05-02T13:26:22.999Z</time></trkpt><trkpt lat="41.782177205154255" lon="12.682984242748795"><ele>367.5</ele><time>2026-05-02T13:26:24.999Z</time></trkpt><trkpt lat="41.7822477409125" lon="12.682964048381297"><ele>367.6666666666667</ele><time>2026-05-02T13:26:26.999Z</time></trkpt><trkpt lat="41.78227845130367" lon="12.682871335425155"><ele>367.83333333333337</ele><time>2026-05-02T13:26:31Z</time></trkpt><trkpt lat="41.782348712196814" lon="12.682812058041591"><ele>368.0</ele><time>2026-05-02T13:26:33Z</time></trkpt><trkpt lat="41.78244881140221" lon="12.68274321298639"><ele>367.6666666666667</ele><time>2026-05-02T13:26:35Z</time></trkpt><trkpt lat="41.78255800742136" lon="12.682681697217562"><ele>367.33333333333337</ele><time>2026-05-02T13:26:37Z</time></trkpt><trkpt lat="41.78261696337563" lon="12.68263596341505"><ele>367.0</ele><time>2026-05-02T13:26:38Z</time></trkpt><trkpt lat="41.78267990451575" lon="12.682588545871416"><ele>366.6666666666667</ele><time>2026-05-02T13:26:39Z</time></trkpt><trkpt lat="41.78274291884398" lon="12.682541741446473"><ele>366.3333333333333</ele><time>2026-05-02T13:26:40Z</time></trkpt><trkpt lat="41.782801922146945" lon="12.682505058060105"><ele>366.0</ele><time>2026-05-02T13:26:41Z</time></trkpt><trkpt lat="41.782911581795744" lon="12.68241884751858"><ele>367.57142857142856</ele><time>2026-05-02T13:26:43Z</time></trkpt><trkpt lat="41.7829524975178" lon="12.682346608778888"><ele>369.14285714285717</ele><time>2026-05-02T13:26:44Z</time></trkpt><trkpt lat="41.782975904473865" lon="12.682256759197422"><ele>370.71428571428567</ele><time>2026-05-02T13:26:45Z</time></trkpt><trkpt lat="41.782972078175696" lon="12.682155761235428"><ele>372.2857142857143</ele><time>2026-05-02T13:26:46Z</time></trkpt><trkpt lat="41.78294474414582" lon="12.682071314137842"><ele>373.85714285714283</ele><time>2026-05-02T13:26:47Z</time></trkpt><trkpt lat="41.782926352116974" lon="12.681968278596287"><ele>375.4285714285714</ele><time>2026-05-02T13:26:48Z</time></trkpt><trkpt lat="41.78291087631521" lon="12.681862560291599"><ele>377.0</ele><time>2026-05-02T13:26:49Z</time></trkpt><trkpt lat="41.782901287568805" lon="12.681762024548412"><ele>377.33333333333337</ele><time>2026-05-02T13:26:50Z</time></trkpt><trkpt lat="41.782902216608754" lon="12.681659662850022"><ele>377.6666666666667</ele><time>2026-05-02T13:26:51Z</time></trkpt><trkpt lat="41.78289922167898" lon="12.681562069009079"><ele>378.0</ele><time>2026-05-02T13:26:52Z</time></trkpt><trkpt lat="41.782912757325505" lon="12.681465196986121"><ele>378.3333333333333</ele><time>2026-05-02T13:26:53Z</time></trkpt><trkpt lat="41.78292273200445" lon="12.681353833659024"><ele>378.66666666666663</ele><time>2026-05-02T13:26:54Z</time></trkpt><trkpt lat="41.78293446281297" lon="12.681242600673475"><ele>379.0</ele><time>2026-05-02T13:26:55Z</time></trkpt><trkpt lat="41.78294773941477" lon="12.681131402828818"><ele>379.3333333333333</ele><time>2026-05-02T13:26:56Z</time></trkpt><trkpt lat="41.782981907274035" lon="12.68101694333743"><ele>379.66666666666663</ele><time>2026-05-02T13:26:57Z</time></trkpt><trkpt lat="41.78301882937559" lon="12.680912040003475"><ele>380.0</ele><time>2026-05-02T13:26:58Z</time></trkpt><trkpt lat="41.783063072356505" lon="12.680806866878644"><ele>380.3333333333333</ele><time>2026-05-02T13:26:59Z</time></trkpt><trkpt lat="41.78311503757201" lon="12.68070576356152"><ele>380.6666666666667</ele><time>2026-05-02T13:27:00Z</time></trkpt><trkpt lat="41.7831690699821" lon="12.680623656679384"><ele>381.0</ele><time>2026-05-02T13:27:01Z</time></trkpt><trkpt lat="41.783232247419946" lon="12.680546313732592"><ele>381.0</ele><time>2026-05-02T13:27:02Z</time></trkpt><trkpt lat="41.78331357610852" lon="12.680478400835344"><ele>381.0</ele><time>2026-05-02T13:27:03Z</time></trkpt><trkpt lat="41.78339413344071" lon="12.68043121648221"><ele>381.0</ele><time>2026-05-02T13:27:04Z</time></trkpt><trkpt lat="41.78347788942464" lon="12.68039714508701"><ele>381.0</ele><time>2026-05-02T13:27:05Z</time></trkpt><trkpt lat="41.7835573146002" lon="12.680381717124206"><ele>381.0</ele><time>2026-05-02T13:27:06Z</time></trkpt><trkpt lat="41.78364388766329" lon="12.680391761365032"><ele>381.0</ele><time>2026-05-02T13:27:07Z</time></trkpt><trkpt lat="41.7837201662899" lon="12.680428312425644"><ele>382.0</ele><time>2026-05-02T13:27:08Z</time></trkpt><trkpt lat="41.78379053021382" lon="12.68047347071845"><ele>383.0</ele><time>2026-05-02T13:27:09Z</time></trkpt><trkpt lat="41.78388276565284" lon="12.680531027801859"><ele>384.0</ele><time>2026-05-02T13:27:10Z</time></trkpt><trkpt lat="41.78396057081652" lon="12.680578435606721"><ele>385.0</ele><time>2026-05-02T13:27:11Z</time></trkpt><trkpt lat="41.784040046471254" lon="12.680639350869766"><ele>386.0</ele><time>2026-05-02T13:27:12Z</time></trkpt><trkpt lat="41.78412153499357" lon="12.680685121787272"><ele>387.0</ele><time>2026-05-02T13:27:13Z</time></trkpt><trkpt lat="41.78419548010656" lon="12.680736817100506"><ele>387.0</ele><time>2026-05-02T13:27:14Z</time></trkpt><trkpt lat="41.78426811921393" lon="12.680792984295005"><ele>387.0</ele><time>2026-05-02T13:27:15Z</time></trkpt><trkpt lat="41.784343068581876" lon="12.680837211526796"><ele>387.0</ele><time>2026-05-02T13:27:16Z</time></trkpt><trkpt lat="41.78441236418579" lon="12.680893389761675"><ele>387.0</ele><time>2026-05-02T13:27:17Z</time></trkpt><trkpt lat="41.78448800336926" lon="12.680938903760923"><ele>387.0</ele><time>2026-05-02T13:27:18Z</time></trkpt><trkpt lat="41.78456179474608" lon="12.680988704595023"><ele>387.0</ele><time>2026-05-02T13:27:19Z</time></trkpt><trkpt lat="41.78463892419512" lon="12.6810390384896"><ele>387.6666666666667</ele><time>2026-05-02T13:27:20Z</time></trkpt><trkpt lat="41.784726575269616" lon="12.681084089106164"><ele>388.33333333333337</ele><time>2026-05-02T13:27:21Z</time></trkpt><trkpt lat="41.78481246259994" lon="12.681117034652875"><ele>389.0</ele><time>2026-05-02T13:27:22Z</time></trkpt><trkpt lat="41.78489547728867" lon="12.681148443522108"><ele>389.6666666666667</ele><time>2026-05-02T13:27:23Z</time></trkpt><trkpt lat="41.78496885044526" lon="12.681179762613489"><ele>390.33333333333337</ele><time>2026-05-02T13:27:24Z</time></trkpt><trkpt lat="41.7850659714458" lon="12.681206731591306"><ele>391.0</ele><time>2026-05-02T13:27:26Z</time></trkpt><trkpt lat="41.78506619472449" lon="12.681003641848353"><ele>391.00000000000006</ele><time>2026-05-02T13:27:28Z</time></trkpt><trkpt lat="41.784923663005074" lon="12.68108145795598"><ele>391.0</ele><time>2026-05-02T13:27:32.999Z</time></trkpt><trkpt lat="41.78484686923281" lon="12.681104096846767"><ele>391.0</ele><time>2026-05-02T13:27:34.999Z</time></trkpt><trkpt lat="41.784785617034736" lon="12.681073677104"><ele>391.0</ele><time>2026-05-02T13:27:35.999Z</time></trkpt><trkpt lat="41.784719445146045" lon="12.681042077690162"><ele>391.00000000000006</ele><time>2026-05-02T13:27:36.999Z</time></trkpt><trkpt lat="41.784645347631155" lon="12.681011487539273"><ele>391.0</ele><time>2026-05-02T13:27:37.999Z</time></trkpt><trkpt lat="41.784570910404234" lon="12.680969020502125"><ele>391.00000000000006</ele><time>2026-05-02T13:27:38.999Z</time></trkpt><trkpt lat="41.784498064239806" lon="12.680917657075373"><ele>391.0</ele><time>2026-05-02T13:27:39.999Z</time></trkpt><trkpt lat="41.78442697992783" lon="12.680860380403947"><ele>391.0</ele><time>2026-05-02T13:27:40.999Z</time></trkpt><trkpt lat="41.7843541528905" lon="12.680803790339022"><ele>391.0</ele><time>2026-05-02T13:27:41.999Z</time></trkpt><trkpt lat="41.78427748868438" lon="12.68075508546195"><ele>391.00000000000006</ele><time>2026-05-02T13:27:42.999Z</time></trkpt><trkpt lat="41.784197093366075" lon="12.680701638620715"><ele>391.0</ele><time>2026-05-02T13:27:43.999Z</time></trkpt><trkpt lat="41.78411378528531" lon="12.68063991915338"><ele>390.20000000000005</ele><time>2026-05-02T13:27:44.999Z</time></trkpt><trkpt lat="41.78403053061248" lon="12.680580537688646"><ele>389.40000000000003</ele><time>2026-05-02T13:27:45.999Z</time></trkpt><trkpt lat="41.7839446653302" lon="12.680525208704484"><ele>388.6</ele><time>2026-05-02T13:27:46.999Z</time></trkpt><trkpt lat="41.78385819584515" lon="12.680468902694608"><ele>387.8</ele><time>2026-05-02T13:27:47.999Z</time></trkpt><trkpt lat="41.783766711387585" lon="12.680424606775706"><ele>387.0</ele><time>2026-05-02T13:27:48.999Z</time></trkpt><trkpt lat="41.783674740746015" lon="12.68038305515522"><ele>387.0</ele><time>2026-05-02T13:27:49.999Z</time></trkpt><trkpt lat="41.78357877597712" lon="12.680354550179176"><ele>387.0</ele><time>2026-05-02T13:27:50.999Z</time></trkpt><trkpt lat="41.78348838534187" lon="12.680353646709312"><ele>387.0</ele><time>2026-05-02T13:27:51.999Z</time></trkpt><trkpt lat="41.78339849468693" lon="12.680370473150735"><ele>387.0</ele><time>2026-05-02T13:27:52.999Z</time></trkpt><trkpt lat="41.783313903833246" lon="12.680412672703003"><ele>387.0</ele><time>2026-05-02T13:27:53.999Z</time></trkpt><trkpt lat="41.783228608285874" lon="12.680453100104526"><ele>385.8</ele><time>2026-05-02T13:27:54.999Z</time></trkpt><trkpt lat="41.78315218966757" lon="12.680536280515662"><ele>384.6</ele><time>2026-05-02T13:27:55.999Z</time></trkpt><trkpt lat="41.78309457008655" lon="12.680652701937335"><ele>383.40000000000003</ele><time>2026-05-02T13:27:56.999Z</time></trkpt><trkpt lat="41.78303660287461" lon="12.680757116403363"><ele>382.20000000000005</ele><time>2026-05-02T13:27:57.999Z</time></trkpt><trkpt lat="41.78298127548681" lon="12.68087077009727"><ele>381.0</ele><time>2026-05-02T13:27:58.999Z</time></trkpt><trkpt lat="41.78293945510453" lon="12.68099683170012"><ele>380.6</ele><time>2026-05-02T13:27:59.999Z</time></trkpt><trkpt lat="41.78291616202205" lon="12.681132481205728"><ele>380.20000000000005</ele><time>2026-05-02T13:28:00.999Z</time></trkpt><trkpt lat="41.78288762853577" lon="12.681264815511318"><ele>379.79999999999995</ele><time>2026-05-02T13:28:01.999Z</time></trkpt><trkpt lat="41.78287630288222" lon="12.681396213409679"><ele>379.4</ele><time>2026-05-02T13:28:02.999Z</time></trkpt><trkpt lat="41.78287710816703" lon="12.681540650853224"><ele>379.0</ele><time>2026-05-02T13:28:03.999Z</time></trkpt><trkpt lat="41.78287032061201" lon="12.681676860168396"><ele>379.0</ele><time>2026-05-02T13:28:04.999Z</time></trkpt><trkpt lat="41.78287687605949" lon="12.681811326875021"><ele>379.0</ele><time>2026-05-02T13:28:05.999Z</time></trkpt><trkpt lat="41.782897707791754" lon="12.681939441287087"><ele>379.0</ele><time>2026-05-02T13:28:06.999Z</time></trkpt><trkpt lat="41.782922592388616" lon="12.68205126146738"><ele>379.0</ele><time>2026-05-02T13:28:07.999Z</time></trkpt><trkpt lat="41.78294140659393" lon="12.682154133116164"><ele>379.0</ele><time>2026-05-02T13:28:08.999Z</time></trkpt><trkpt lat="41.78293767430772" lon="12.682248223588974"><ele>379.0</ele><time>2026-05-02T13:28:09.999Z</time></trkpt><trkpt lat="41.7829178083439" lon="12.682331901775594"><ele>378.66666666666663</ele><time>2026-05-02T13:28:10.999Z</time></trkpt><trkpt lat="41.78284921956527" lon="12.682445220100636"><ele>378.3333333333333</ele><time>2026-05-02T13:28:12.999Z</time></trkpt><trkpt lat="41.78276525426773" lon="12.682492845467745"><ele>378.0</ele><time>2026-05-02T13:28:14.999Z</time></trkpt><trkpt lat="41.782706842342364" lon="12.6825506494503"><ele>377.6666666666667</ele><time>2026-05-02T13:28:16.999Z</time></trkpt><trkpt lat="41.78262765880751" lon="12.682589189832377"><ele>377.33333333333337</ele><time>2026-05-02T13:28:19.999Z</time></trkpt><trkpt lat="41.78257292432701" lon="12.682635810990776"><ele>377.0</ele><time>2026-05-02T13:28:22.999Z</time></trkpt><trkpt lat="41.78250214153708" lon="12.682684970621864"><ele>375.5</ele><time>2026-05-02T13:28:25.999Z</time></trkpt><trkpt lat="41.782433898519756" lon="12.682716817707574"><ele>374.0</ele><time>2026-05-02T13:28:27.999Z</time></trkpt><trkpt lat="41.782378824612906" lon="12.682766235362681"><ele>372.5</ele><time>2026-05-02T13:28:31.999Z</time></trkpt><trkpt lat="41.782388502477815" lon="12.682662852561938"><ele>371.0</ele><time>2026-05-02T13:28:36Z</time></trkpt><trkpt lat="41.78246163010896" lon="12.682635946031693"><ele>369.5</ele><time>2026-05-02T13:28:38Z</time></trkpt><trkpt lat="41.782514401195115" lon="12.682588129270384"><ele>368.0</ele><time>2026-05-02T13:28:39Z</time></trkpt><trkpt lat="41.782520553988775" lon="12.682417692707228"><ele>367.7142857142857</ele><time>2026-05-02T13:28:40Z</time></trkpt><trkpt lat="41.78254208399516" lon="12.68233755673366"><ele>367.4285714285714</ele><time>2026-05-02T13:28:41Z</time></trkpt><trkpt lat="41.78255459620476" lon="12.682254449253799"><ele>367.1428571428571</ele><time>2026-05-02T13:28:42Z</time></trkpt><trkpt lat="41.78256657139416" lon="12.682167559119872"><ele>366.8571428571429</ele><time>2026-05-02T13:28:43Z</time></trkpt><trkpt lat="41.782578272758585" lon="12.68207894927275"><ele>366.57142857142856</ele><time>2026-05-02T13:28:44Z</time></trkpt><trkpt lat="41.78258694184195" lon="12.681987601891931"><ele>366.2857142857143</ele><time>2026-05-02T13:28:45Z</time></trkpt><trkpt lat="41.782594447939985" lon="12.681884922777783"><ele>366.0</ele><time>2026-05-02T13:28:46Z</time></trkpt><trkpt lat="41.78260455679" lon="12.681783388310908"><ele>365.57142857142856</ele><time>2026-05-02T13:28:47Z</time></trkpt><trkpt lat="41.782613921152745" lon="12.681673559461679"><ele>365.14285714285717</ele><time>2026-05-02T13:28:48Z</time></trkpt><trkpt lat="41.782621116061065" lon="12.681572446823557"><ele>364.71428571428567</ele><time>2026-05-02T13:28:49Z</time></trkpt><trkpt lat="41.78262799333667" lon="12.681485013085034"><ele>364.2857142857143</ele><time>2026-05-02T13:28:50Z</time></trkpt><trkpt lat="41.782635649648185" lon="12.681396761500487"><ele>363.85714285714283</ele><time>2026-05-02T13:28:51Z</time></trkpt><trkpt lat="41.78264669980637" lon="12.681305064768324"><ele>363.4285714285714</ele><time>2026-05-02T13:28:52Z</time></trkpt><trkpt lat="41.78265528197122" lon="12.681219631557228"><ele>363.0</ele><time>2026-05-02T13:28:53Z</time></trkpt><trkpt lat="41.78266039332764" lon="12.681119237537613"><ele>362.8333333333333</ele><time>2026-05-02T13:28:54Z</time></trkpt><trkpt lat="41.78266762976353" lon="12.68101236308058"><ele>362.6666666666667</ele><time>2026-05-02T13:28:55Z</time></trkpt><trkpt lat="41.7826812880523" lon="12.680900484816231"><ele>362.5</ele><time>2026-05-02T13:28:56Z</time></trkpt><trkpt lat="41.78269130561004" lon="12.680783026022537"><ele>362.33333333333337</ele><time>2026-05-02T13:28:57Z</time></trkpt><trkpt lat="41.78270352304627" lon="12.680665334373778"><ele>362.1666666666667</ele><time>2026-05-02T13:28:58Z</time></trkpt><trkpt lat="41.78271484634164" lon="12.680542188899587"><ele>362.0</ele><time>2026-05-02T13:28:59Z</time></trkpt><trkpt lat="41.78272455064695" lon="12.680415849079992"><ele>364.6</ele><time>2026-05-02T13:29:00Z</time></trkpt><trkpt lat="41.78273474719181" lon="12.680287582034708"><ele>367.20000000000005</ele><time>2026-05-02T13:29:01Z</time></trkpt><trkpt lat="41.78274598808145" lon="12.680159689126954"><ele>369.8</ele><time>2026-05-02T13:29:02Z</time></trkpt><trkpt lat="41.78275500039946" lon="12.68003275797878"><ele>372.4</ele><time>2026-05-02T13:29:03Z</time></trkpt><trkpt lat="41.782760495383215" lon="12.679906163315925"><ele>375.0</ele><time>2026-05-02T13:29:04Z</time></trkpt><trkpt lat="41.78277315114764" lon="12.679783748204121"><ele>375.0</ele><time>2026-05-02T13:29:05Z</time></trkpt><trkpt lat="41.78278111605093" lon="12.679655603713117"><ele>375.0</ele><time>2026-05-02T13:29:06Z</time></trkpt><trkpt lat="41.782797271792376" lon="12.679529919086164"><ele>375.0</ele><time>2026-05-02T13:29:07Z</time></trkpt><trkpt lat="41.78283046060123" lon="12.679406726729713"><ele>375.0</ele><time>2026-05-02T13:29:08Z</time></trkpt><trkpt lat="41.78287552356087" lon="12.679295377480278"><ele>375.0</ele><time>2026-05-02T13:29:09Z</time></trkpt><trkpt lat="41.78293039566678" lon="12.679197855592545"><ele>373.6</ele><time>2026-05-02T13:29:10Z</time></trkpt><trkpt lat="41.782999530185045" lon="12.679102824911245"><ele>372.2</ele><time>2026-05-02T13:29:11Z</time></trkpt><trkpt lat="41.78306741038118" lon="12.67902419262235"><ele>370.79999999999995</ele><time>2026-05-02T13:29:12Z</time></trkpt><trkpt lat="41.78312874079059" lon="12.678916863131844"><ele>369.4</ele><time>2026-05-02T13:29:13Z</time></trkpt><trkpt lat="41.783189214521144" lon="12.678823434410308"><ele>368.0</ele><time>2026-05-02T13:29:14Z</time></trkpt><trkpt lat="41.78326513011226" lon="12.678739088458125"><ele>368.0</ele><time>2026-05-02T13:29:15Z</time></trkpt><trkpt lat="41.783321230417684" lon="12.678650553042624"><ele>368.0</ele><time>2026-05-02T13:29:16Z</time></trkpt><trkpt lat="41.7833893147937" lon="12.678563913170581"><ele>368.0</ele><time>2026-05-02T13:29:17Z</time></trkpt><trkpt lat="41.783456515267275" lon="12.678477489440615"><ele>368.0</ele><time>2026-05-02T13:29:18Z</time></trkpt><trkpt lat="41.78352507295501" lon="12.678402746581822"><ele>368.0</ele><time>2026-05-02T13:29:19Z</time></trkpt><trkpt lat="41.78358454805731" lon="12.678328244646744"><ele>368.0</ele><time>2026-05-02T13:29:20Z</time></trkpt><trkpt lat="41.783645114203516" lon="12.67822857122371"><ele>368.0</ele><time>2026-05-02T13:29:21Z</time></trkpt><trkpt lat="41.78369891447006" lon="12.678151887902882"><ele>368.0</ele><time>2026-05-02T13:29:22Z</time></trkpt><trkpt lat="41.78374736450159" lon="12.678078560528643"><ele>368.0</ele><time>2026-05-02T13:29:23Z</time></trkpt><trkpt lat="41.783789933454244" lon="12.678013412209788"><ele>368.0</ele><time>2026-05-02T13:29:24Z</time></trkpt><trkpt lat="41.78381997050367" lon="12.67793477350359"><ele>368.0</ele><time>2026-05-02T13:29:25Z</time></trkpt><trkpt lat="41.78386098890858" lon="12.677865979027368"><ele>368.0</ele><time>2026-05-02T13:29:25.999Z</time></trkpt><trkpt lat="41.783934833918174" lon="12.677728873263696"><ele>368.0</ele><time>2026-05-02T13:29:27.999Z</time></trkpt><trkpt lat="41.78395910627988" lon="12.67764863536026"><ele>368.0</ele><time>2026-05-02T13:29:28.999Z</time></trkpt><trkpt lat="41.78397986251686" lon="12.677556883909045"><ele>368.0</ele><time>2026-05-02T13:29:29.999Z</time></trkpt><trkpt lat="41.783999314045424" lon="12.677453184295787"><ele>368.0</ele><time>2026-05-02T13:29:30.999Z</time></trkpt><trkpt lat="41.78401352221576" lon="12.677353781461388"><ele>368.0</ele><time>2026-05-02T13:29:31.999Z</time></trkpt><trkpt lat="41.784024476770384" lon="12.677246520675169"><ele>368.0</ele><time>2026-05-02T13:29:32.999Z</time></trkpt><trkpt lat="41.784045338948246" lon="12.677142378104302"><ele>368.0</ele><time>2026-05-02T13:29:33.999Z</time></trkpt><trkpt lat="41.7840754173616" lon="12.677044379913697"><ele>368.0</ele><time>2026-05-02T13:29:34.999Z</time></trkpt><trkpt lat="41.78410190255685" lon="12.676939577993227"><ele>368.0</ele><time>2026-05-02T13:29:35.999Z</time></trkpt><trkpt lat="41.7841319297629" lon="12.676828484372516"><ele>368.0</ele><time>2026-05-02T13:29:36.999Z</time></trkpt><trkpt lat="41.784158764535825" lon="12.676718566780925"><ele>368.0</ele><time>2026-05-02T13:29:37.999Z</time></trkpt><trkpt lat="41.784181246131034" lon="12.676610914771027"><ele>368.0</ele><time>2026-05-02T13:29:38.999Z</time></trkpt><trkpt lat="41.784211240428704" lon="12.67651075449009"><ele>367.6666666666667</ele><time>2026-05-02T13:29:39.999Z</time></trkpt><trkpt lat="41.78424530407612" lon="12.676422176849067"><ele>367.33333333333337</ele><time>2026-05-02T13:29:40.999Z</time></trkpt><trkpt lat="41.78428033696078" lon="12.676327163793722"><ele>367.0</ele><time>2026-05-02T13:29:41.999Z</time></trkpt><trkpt lat="41.784318960250374" lon="12.676233692811564"><ele>366.6666666666667</ele><time>2026-05-02T13:29:42.999Z</time></trkpt><trkpt lat="41.784366787076344" lon="12.676147686002055"><ele>366.3333333333333</ele><time>2026-05-02T13:29:43.999Z</time></trkpt><trkpt lat="41.78441768340813" lon="12.676063314965962"><ele>366.0</ele><time>2026-05-02T13:29:44.999Z</time></trkpt><trkpt lat="41.784476728458664" lon="12.675980492730053"><ele>367.0</ele><time>2026-05-02T13:29:45.999Z</time></trkpt><trkpt lat="41.78454267147738" lon="12.675895332315287"><ele>368.0</ele><time>2026-05-02T13:29:46.999Z</time></trkpt><trkpt lat="41.7846138553885" lon="12.67581001239085"><ele>369.0</ele><time>2026-05-02T13:29:47.999Z</time></trkpt><trkpt lat="41.78468663638998" lon="12.675724743091443"><ele>370.0</ele><time>2026-05-02T13:29:48.999Z</time></trkpt><trkpt lat="41.78475630667518" lon="12.675629985071613"><ele>371.0</ele><time>2026-05-02T13:29:49.999Z</time></trkpt><trkpt lat="41.78483208364109" lon="12.675539754366842"><ele>371.0</ele><time>2026-05-02T13:29:50.999Z</time></trkpt><trkpt lat="41.78491267873096" lon="12.675446891964754"><ele>371.0</ele><time>2026-05-02T13:29:51.999Z</time></trkpt><trkpt lat="41.784992912127805" lon="12.675350540126807"><ele>371.0</ele><time>2026-05-02T13:29:52.999Z</time></trkpt><trkpt lat="41.78507431914052" lon="12.675259729376016"><ele>371.0</ele><time>2026-05-02T13:29:53.999Z</time></trkpt><trkpt lat="41.78515807776061" lon="12.675164712116935"><ele>371.0</ele><time>2026-05-02T13:29:54.999Z</time></trkpt><trkpt lat="41.78524370588227" lon="12.675077905874838"><ele>370.20000000000005</ele><time>2026-05-02T13:29:55.999Z</time></trkpt><trkpt lat="41.78533522823642" lon="12.674988781423583"><ele>369.40000000000003</ele><time>2026-05-02T13:29:56.999Z</time></trkpt><trkpt lat="41.78542896138604" lon="12.674902899497734"><ele>368.6</ele><time>2026-05-02T13:29:57.999Z</time></trkpt><trkpt lat="41.78552039211261" lon="12.67482285068054"><ele>367.8</ele><time>2026-05-02T13:29:58.999Z</time></trkpt><trkpt lat="41.785617551005764" lon="12.674763747160673"><ele>367.0</ele><time>2026-05-02T13:29:59.999Z</time></trkpt><trkpt lat="41.78571283389456" lon="12.674684050805833"><ele>367.0</ele><time>2026-05-02T13:30:00.999Z</time></trkpt><trkpt lat="41.78582100538927" lon="12.674634462718092"><ele>367.0</ele><time>2026-05-02T13:30:01.999Z</time></trkpt><trkpt lat="41.7859193600182" lon="12.674556416602265"><ele>367.0</ele><time>2026-05-02T13:30:02.999Z</time></trkpt><trkpt lat="41.78602925804547" lon="12.674501950188427"><ele>367.0</ele><time>2026-05-02T13:30:03.999Z</time></trkpt><trkpt lat="41.78612231725682" lon="12.674409359684304"><ele>364.75</ele><time>2026-05-02T13:30:04.999Z</time></trkpt><trkpt lat="41.78621342792066" lon="12.674299579649931"><ele>362.5</ele><time>2026-05-02T13:30:05.999Z</time></trkpt><trkpt lat="41.786287906809335" lon="12.674199724585009"><ele>360.25</ele><time>2026-05-02T13:30:06.999Z</time></trkpt><trkpt lat="41.78635617773791" lon="12.674060433075915"><ele>358.0</ele><time>2026-05-02T13:30:07.999Z</time></trkpt><trkpt lat="41.7864091815133" lon="12.673915414578358"><ele>358.0</ele><time>2026-05-02T13:30:08.999Z</time></trkpt><trkpt lat="41.78643989109" lon="12.673745826653633"><ele>358.0</ele><time>2026-05-02T13:30:09.999Z</time></trkpt><trkpt lat="41.78648522378423" lon="12.673602116121085"><ele>358.0</ele><time>2026-05-02T13:30:10.999Z</time></trkpt><trkpt lat="41.78652706171405" lon="12.67346973283863"><ele>358.0</ele><time>2026-05-02T13:30:11.999Z</time></trkpt><trkpt lat="41.78656784781959" lon="12.673345594029314"><ele>357.59999999999997</ele><time>2026-05-02T13:30:12.999Z</time></trkpt><trkpt lat="41.786607322862174" lon="12.67323251659975"><ele>357.2</ele><time>2026-05-02T13:30:13.999Z</time></trkpt><trkpt lat="41.78671007099354" lon="12.673166400227545"><ele>356.8</ele><time>2026-05-02T13:30:14.999Z</time></trkpt><trkpt lat="41.786705909233326" lon="12.673010674960398"><ele>356.4</ele><time>2026-05-02T13:30:15.999Z</time></trkpt><trkpt lat="41.78676844249459" lon="12.672907009862728"><ele>356.0</ele><time>2026-05-02T13:30:16.999Z</time></trkpt><trkpt lat="41.78682825906106" lon="12.672807770221317"><ele>355.0</ele><time>2026-05-02T13:30:17.999Z</time></trkpt><trkpt lat="41.786886535471616" lon="12.672721194523852"><ele>354.0</ele><time>2026-05-02T13:30:18.999Z</time></trkpt><trkpt lat="41.786945091450924" lon="12.67264182990514"><ele>353.0</ele><time>2026-05-02T13:30:19.999Z</time></trkpt><trkpt lat="41.78700022762021" lon="12.672573513488953"><ele>352.0</ele><time>2026-05-02T13:30:20.999Z</time></trkpt><trkpt lat="41.78708161015284" lon="12.67246503926101"><ele>351.0</ele><time>2026-05-02T13:30:22.999Z</time></trkpt><trkpt lat="41.78714293966271" lon="12.672392943981588"><ele>350.0</ele><time>2026-05-02T13:30:24.999Z</time></trkpt><trkpt lat="41.787201217432795" lon="12.672329754768436"><ele>350.0</ele><time>2026-05-02T13:30:41Z</time></trkpt><trkpt lat="41.78724364485865" lon="12.672260529067344"><ele>350.0</ele><time>2026-05-02T13:30:43Z</time></trkpt><trkpt lat="41.787311650749935" lon="12.6721786315893"><ele>350.0</ele><time>2026-05-02T13:30:45Z</time></trkpt><trkpt lat="41.78739027697727" lon="12.672056948692752"><ele>350.0</ele><time>2026-05-02T13:30:47Z</time></trkpt><trkpt lat="41.78743801735246" lon="12.671994382445822"><ele>350.0</ele><time>2026-05-02T13:30:48Z</time></trkpt><trkpt lat="41.7874884066765" lon="12.671932457132192"><ele>350.0</ele><time>2026-05-02T13:30:49Z</time></trkpt><trkpt lat="41.78754092151048" lon="12.67187059187134"><ele>350.1666666666667</ele><time>2026-05-02T13:30:50Z</time></trkpt><trkpt lat="41.78759860801534" lon="12.671803423277495"><ele>350.33333333333337</ele><time>2026-05-02T13:30:51Z</time></trkpt><trkpt lat="41.787653711631016" lon="12.671728528915423"><ele>350.5</ele><time>2026-05-02T13:30:52Z</time></trkpt><trkpt lat="41.78771108190613" lon="12.671646945966186"><ele>350.6666666666667</ele><time>2026-05-02T13:30:53Z</time></trkpt><trkpt lat="41.787768546253766" lon="12.671565981584838"><ele>350.8333333333333</ele><time>2026-05-02T13:30:54Z</time></trkpt><trkpt lat="41.78782865079023" lon="12.67147998213306"><ele>351.0</ele><time>2026-05-02T13:30:55Z</time></trkpt><trkpt lat="41.78788845953199" lon="12.671397529283963"><ele>350.4</ele><time>2026-05-02T13:30:56Z</time></trkpt><trkpt lat="41.787946842518366" lon="12.671296415473051"><ele>349.8</ele><time>2026-05-02T13:30:57Z</time></trkpt><trkpt lat="41.788009305981916" lon="12.671209305986867"><ele>349.2</ele><time>2026-05-02T13:30:58Z</time></trkpt><trkpt lat="41.788072161980246" lon="12.671118267703125"><ele>348.59999999999997</ele><time>2026-05-02T13:30:59Z</time></trkpt><trkpt lat="41.78814278705764" lon="12.671027030137896"><ele>348.0</ele><time>2026-05-02T13:31:00Z</time></trkpt><trkpt lat="41.788214806201594" lon="12.67093418148794"><ele>348.0</ele><time>2026-05-02T13:31:01Z</time></trkpt><trkpt lat="41.78828275332748" lon="12.67083900311179"><ele>348.0</ele><time>2026-05-02T13:31:02Z</time></trkpt><trkpt lat="41.7883529180563" lon="12.670745156152115"><ele>348.0</ele><time>2026-05-02T13:31:03Z</time></trkpt><trkpt lat="41.788419366659156" lon="12.670648273746137"><ele>348.0</ele><time>2026-05-02T13:31:04Z</time></trkpt><trkpt lat="41.78848789604114" lon="12.670562045951133"><ele>348.0</ele><time>2026-05-02T13:31:05Z</time></trkpt><trkpt lat="41.788547913094085" lon="12.670469692715992"><ele>346.6666666666667</ele><time>2026-05-02T13:31:06Z</time></trkpt><trkpt lat="41.78861539168936" lon="12.670387170385736"><ele>345.3333333333333</ele><time>2026-05-02T13:31:07Z</time></trkpt><trkpt lat="41.78867957537533" lon="12.670304588764182"><ele>344.0</ele><time>2026-05-02T13:31:08Z</time></trkpt><trkpt lat="41.7887403946829" lon="12.67023082371412"><ele>342.66666666666663</ele><time>2026-05-02T13:31:09Z</time></trkpt><trkpt lat="41.7887975794934" lon="12.670157327269349"><ele>341.3333333333333</ele><time>2026-05-02T13:31:10Z</time></trkpt><trkpt lat="41.788852205917074" lon="12.670087144793998"><ele>340.0</ele><time>2026-05-02T13:31:11Z</time></trkpt><trkpt lat="41.7888907346605" lon="12.670014647002407"><ele>339.8333333333333</ele><time>2026-05-02T13:31:12Z</time></trkpt><trkpt lat="41.788965433644904" lon="12.669905147020026"><ele>339.66666666666663</ele><time>2026-05-02T13:31:14Z</time></trkpt><trkpt lat="41.789021216322716" lon="12.669835633863789"><ele>339.5</ele><time>2026-05-02T13:31:16Z</time></trkpt><trkpt lat="41.78907171057864" lon="12.669770491558936"><ele>339.3333333333333</ele><time>2026-05-02T13:31:18Z</time></trkpt><trkpt lat="41.789055427970034" lon="12.669662758532215"><ele>339.1666666666667</ele><time>2026-05-02T13:31:20.999Z</time></trkpt><trkpt lat="41.7890078278982" lon="12.669592564009003"><ele>339.0</ele><time>2026-05-02T13:31:22.999Z</time></trkpt><trkpt lat="41.78894384345977" lon="12.669529797612512"><ele>339.0</ele><time>2026-05-02T13:31:24.999Z</time></trkpt><trkpt lat="41.78888067295491" lon="12.669465355101527"><ele>339.0</ele><time>2026-05-02T13:31:26.999Z</time></trkpt><trkpt lat="41.788828356177106" lon="12.66939716404939"><ele>339.0</ele><time>2026-05-02T13:31:28.999Z</time></trkpt><trkpt lat="41.78876926994203" lon="12.669351297737489"><ele>339.0</ele><time>2026-05-02T13:31:30.999Z</time></trkpt><trkpt lat="41.788704647035146" lon="12.669314789317376"><ele>339.0</ele><time>2026-05-02T13:31:32.999Z</time></trkpt><trkpt lat="41.78863422684718" lon="12.669279906828198"><ele>339.0</ele><time>2026-05-02T13:31:34.999Z</time></trkpt><trkpt lat="41.788597222556675" lon="12.669205013082662"><ele>339.0</ele><time>2026-05-02T13:31:38.999Z</time></trkpt><trkpt lat="41.788542500439526" lon="12.669162266394752"><ele>339.4285714285714</ele><time>2026-05-02T13:31:42.999Z</time></trkpt><trkpt lat="41.7884983895502" lon="12.669096852565685"><ele>339.8571428571429</ele><time>2026-05-02T13:31:45.999Z</time></trkpt><trkpt lat="41.788444761279905" lon="12.669038011628967"><ele>340.2857142857143</ele><time>2026-05-02T13:31:47.999Z</time></trkpt><trkpt lat="41.788388863771225" lon="12.668972895853026"><ele>340.71428571428567</ele><time>2026-05-02T13:31:49.999Z</time></trkpt><trkpt lat="41.78834207899476" lon="12.668893951257505"><ele>341.1428571428571</ele><time>2026-05-02T13:31:51.999Z</time></trkpt><trkpt lat="41.78828559936662" lon="12.66882720882695"><ele>341.57142857142856</ele><time>2026-05-02T13:31:53.999Z</time></trkpt><trkpt lat="41.788229164307076" lon="12.6687622360813"><ele>342.0</ele><time>2026-05-02T13:31:55.999Z</time></trkpt><trkpt lat="41.78817275601806" lon="12.668700157643222"><ele>341.99999999999994</ele><time>2026-05-02T13:31:57.999Z</time></trkpt><trkpt lat="41.78811970559874" lon="12.668627205474682"><ele>342.0</ele><time>2026-05-02T13:32:00.999Z</time></trkpt><trkpt lat="41.78805454063605" lon="12.66855821902647"><ele>342.0</ele><time>2026-05-02T13:32:03.999Z</time></trkpt><trkpt lat="41.788007803936466" lon="12.668476761258981"><ele>342.0</ele><time>2026-05-02T13:32:06.999Z</time></trkpt><trkpt lat="41.78795480110195" lon="12.668424808973962"><ele>342.0</ele><time>2026-05-02T13:32:08.999Z</time></trkpt><trkpt lat="41.78789723214156" lon="12.668365286853296"><ele>341.99999999999994</ele><time>2026-05-02T13:32:10.999Z</time></trkpt><trkpt lat="41.78785329898295" lon="12.668304262675907"><ele>342.0</ele><time>2026-05-02T13:32:12.999Z</time></trkpt><trkpt lat="41.78780259713203" lon="12.668249632523533"><ele>341.3333333333333</ele><time>2026-05-02T13:32:14.999Z</time></trkpt><trkpt lat="41.78774577871943" lon="12.668198525650853"><ele>340.6666666666667</ele><time>2026-05-02T13:32:16.999Z</time></trkpt><trkpt lat="41.78769747197411" lon="12.668116752776417"><ele>340.0</ele><time>2026-05-02T13:32:18.999Z</time></trkpt><trkpt lat="41.7876380540679" lon="12.668047125026023"><ele>339.33333333333337</ele><time>2026-05-02T13:32:20.999Z</time></trkpt><trkpt lat="41.78757714417456" lon="12.66797687698292"><ele>338.6666666666667</ele><time>2026-05-02T13:32:22.999Z</time></trkpt><trkpt lat="41.7875200051803" lon="12.66788559405398"><ele>338.0</ele><time>2026-05-02T13:32:24.999Z</time></trkpt><trkpt lat="41.787454837148076" lon="12.667807917675612"><ele>337.0</ele><time>2026-05-02T13:32:26.999Z</time></trkpt><trkpt lat="41.78736920166838" lon="12.667755500587374"><ele>336.0</ele><time>2026-05-02T13:32:28.999Z</time></trkpt><trkpt lat="41.78729218673005" lon="12.667689924652528"><ele>335.0</ele><time>2026-05-02T13:32:30.999Z</time></trkpt><trkpt lat="41.78723328481268" lon="12.667574945291252"><ele>334.0</ele><time>2026-05-02T13:32:32.999Z</time></trkpt><trkpt lat="41.78716328205871" lon="12.667476300138393"><ele>333.0</ele><time>2026-05-02T13:32:34.999Z</time></trkpt><trkpt lat="41.78708138199547" lon="12.667373360897649"><ele>333.0</ele><time>2026-05-02T13:32:36.999Z</time></trkpt><trkpt lat="41.786993149446445" lon="12.667285450843453"><ele>333.0</ele><time>2026-05-02T13:32:38.999Z</time></trkpt><trkpt lat="41.78691544238216" lon="12.667185693382098"><ele>333.0</ele><time>2026-05-02T13:32:40.999Z</time></trkpt><trkpt lat="41.78685331080962" lon="12.667109993831811"><ele>333.0</ele><time>2026-05-02T13:32:42.999Z</time></trkpt><trkpt lat="41.78680061243453" lon="12.667044107550119"><ele>333.0</ele><time>2026-05-02T13:32:45Z</time></trkpt><trkpt lat="41.786745023711845" lon="12.666968923659146"><ele>332.42857142857144</ele><time>2026-05-02T13:32:48Z</time></trkpt><trkpt lat="41.78669554515197" lon="12.666897340553836"><ele>331.85714285714283</ele><time>2026-05-02T13:32:51Z</time></trkpt><trkpt lat="41.78664671545318" lon="12.666827770641314"><ele>331.2857142857143</ele><time>2026-05-02T13:32:53Z</time></trkpt><trkpt lat="41.78659405092455" lon="12.666743009715839"><ele>330.7142857142857</ele><time>2026-05-02T13:32:55Z</time></trkpt><trkpt lat="41.78654625412156" lon="12.666680592276343"><ele>330.1428571428571</ele><time>2026-05-02T13:32:57Z</time></trkpt><trkpt lat="41.786508210636825" lon="12.666606313624769"><ele>329.57142857142856</ele><time>2026-05-02T13:33:01Z</time></trkpt><trkpt lat="41.78645694441998" lon="12.666543291538087"><ele>329.0</ele><time>2026-05-02T13:33:21.999Z</time></trkpt><trkpt lat="41.78640487007518" lon="12.666494697395738"><ele>329.0</ele><time>2026-05-02T13:33:28.999Z</time></trkpt><trkpt lat="41.78646965118775" lon="12.666578115848889"><ele>329.0</ele><time>2026-05-02T13:33:35.999Z</time></trkpt><trkpt lat="41.78651413904887" lon="12.66665869283698"><ele>329.0</ele><time>2026-05-02T13:33:37.999Z</time></trkpt><trkpt lat="41.7865750613807" lon="12.666720728229768"><ele>329.0</ele><time>2026-05-02T13:33:39.999Z</time></trkpt><trkpt lat="41.786628633884995" lon="12.666800740399166"><ele>329.0</ele><time>2026-05-02T13:33:41.999Z</time></trkpt><trkpt lat="41.786682531158796" lon="12.666881306394354"><ele>329.0</ele><time>2026-05-02T13:33:46.999Z</time></trkpt><trkpt lat="41.78678141790867" lon="12.666791471159318"><ele>329.0</ele><time>2026-05-02T13:36:02.999Z</time></trkpt><trkpt lat="41.786770559744596" lon="12.666701099189144"><ele>329.0</ele><time>2026-05-02T13:36:42.999Z</time></trkpt><trkpt lat="41.786841306587164" lon="12.66666176175"><ele>329.0</ele><time>2026-05-02T13:36:44.999Z</time></trkpt><trkpt lat="41.78693202227128" lon="12.66664524673865"><ele>329.0</ele><time>2026-05-02T13:36:46.999Z</time></trkpt><trkpt lat="41.78699410367314" lon="12.666621660683424"><ele>329.0</ele><time>2026-05-02T13:36:47.999Z</time></trkpt><trkpt lat="41.78708578908026" lon="12.666584770236387"><ele>329.0</ele><time>2026-05-02T13:36:49.999Z</time></trkpt><trkpt lat="41.78717963362893" lon="12.666606586364736"><ele>328.57142857142856</ele><time>2026-05-02T13:36:51.999Z</time></trkpt><trkpt lat="41.78726357544585" lon="12.666571725822033"><ele>328.1428571428571</ele><time>2026-05-02T13:36:53.999Z</time></trkpt><trkpt lat="41.78733029259269" lon="12.666542821608445"><ele>327.7142857142857</ele><time>2026-05-02T13:36:54.999Z</time></trkpt><trkpt lat="41.787396614115906" lon="12.666498615874815"><ele>327.2857142857143</ele><time>2026-05-02T13:36:55.999Z</time></trkpt><trkpt lat="41.78746479818626" lon="12.666492854966368"><ele>326.85714285714283</ele><time>2026-05-02T13:36:56.999Z</time></trkpt><trkpt lat="41.787527232845406" lon="12.666465298892863"><ele>326.42857142857144</ele><time>2026-05-02T13:36:57.999Z</time></trkpt><trkpt lat="41.787586973903046" lon="12.66643489125986"><ele>326.0</ele><time>2026-05-02T13:36:58.999Z</time></trkpt><trkpt lat="41.7876481294919" lon="12.666391035117835"><ele>325.5</ele><time>2026-05-02T13:36:59.999Z</time></trkpt><trkpt lat="41.78779798161161" lon="12.666340717907525"><ele>325.0</ele><time>2026-05-02T13:37:01.999Z</time></trkpt><trkpt lat="41.787906708323355" lon="12.666294607022307"><ele>324.5</ele><time>2026-05-02T13:37:02.999Z</time></trkpt><trkpt lat="41.787993734808666" lon="12.666246237135697"><ele>324.0</ele><time>2026-05-02T13:37:03.999Z</time></trkpt><trkpt lat="41.78812222236466" lon="12.666169345524883"><ele>324.0</ele><time>2026-05-02T13:37:05.999Z</time></trkpt><trkpt lat="41.78819854064152" lon="12.666123278193387"><ele>324.0</ele><time>2026-05-02T13:37:06.999Z</time></trkpt><trkpt lat="41.78826531940562" lon="12.666084038271329"><ele>324.0</ele><time>2026-05-02T13:37:07.999Z</time></trkpt><trkpt lat="41.7883459270874" lon="12.66604357961327"><ele>324.0</ele><time>2026-05-02T13:37:08.999Z</time></trkpt><trkpt lat="41.78841818165174" lon="12.666014703914403"><ele>324.0</ele><time>2026-05-02T13:37:09.999Z</time></trkpt><trkpt lat="41.78849302669296" lon="12.66598136160782"><ele>324.0</ele><time>2026-05-02T13:37:10.999Z</time></trkpt><trkpt lat="41.788567153680575" lon="12.665984969273113"><ele>323.42857142857144</ele><time>2026-05-02T13:37:11.999Z</time></trkpt><trkpt lat="41.788629826815196" lon="12.665956222395037"><ele>322.85714285714283</ele><time>2026-05-02T13:37:12.999Z</time></trkpt><trkpt lat="41.78869212098698" lon="12.665940000928769"><ele>322.2857142857143</ele><time>2026-05-02T13:37:13.999Z</time></trkpt><trkpt lat="41.78876095162008" lon="12.665939564358865"><ele>321.7142857142857</ele><time>2026-05-02T13:37:14.999Z</time></trkpt><trkpt lat="41.788824344832996" lon="12.665908483228975"><ele>321.14285714285717</ele><time>2026-05-02T13:37:15.999Z</time></trkpt><trkpt lat="41.788893755815444" lon="12.66585908733517"><ele>320.57142857142856</ele><time>2026-05-02T13:37:16.999Z</time></trkpt><trkpt lat="41.788966534689536" lon="12.665826780419733"><ele>320.0</ele><time>2026-05-02T13:37:17.999Z</time></trkpt><trkpt lat="41.78902834632009" lon="12.665802592664349"><ele>320.0</ele><time>2026-05-02T13:37:18.999Z</time></trkpt><trkpt lat="41.78910110372486" lon="12.665785832724485"><ele>320.0</ele><time>2026-05-02T13:37:19.999Z</time></trkpt><trkpt lat="41.78918991163777" lon="12.665747274622364"><ele>320.0</ele><time>2026-05-02T13:37:20.999Z</time></trkpt><trkpt lat="41.789390422241055" lon="12.665700783879796"><ele>320.0</ele><time>2026-05-02T13:37:24.999Z</time></trkpt><trkpt lat="41.78948854724264" lon="12.66564903114823"><ele>319.8</ele><time>2026-05-02T13:37:26.999Z</time></trkpt><trkpt lat="41.78956967237429" lon="12.665616959213542"><ele>319.6</ele><time>2026-05-02T13:37:27.999Z</time></trkpt><trkpt lat="41.78964555670854" lon="12.665619163492893"><ele>319.4</ele><time>2026-05-02T13:37:28.999Z</time></trkpt><trkpt lat="41.78973203390806" lon="12.665720469845342"><ele>319.2</ele><time>2026-05-02T13:37:30.999Z</time></trkpt><trkpt lat="41.789815423399745" lon="12.665733429472429"><ele>319.0</ele><time>2026-05-02T13:37:32.999Z</time></trkpt><trkpt lat="41.78991753546683" lon="12.665791946335377"><ele>319.0</ele><time>2026-05-02T13:37:34.999Z</time></trkpt><trkpt lat="41.79004647060222" lon="12.66582636177402"><ele>319.0</ele><time>2026-05-02T13:37:36.999Z</time></trkpt><trkpt lat="41.79011732899477" lon="12.665847070259924"><ele>319.0</ele><time>2026-05-02T13:37:37.999Z</time></trkpt><trkpt lat="41.79018700376387" lon="12.665879176435839"><ele>319.0</ele><time>2026-05-02T13:37:38.999Z</time></trkpt><trkpt lat="41.79024773861707" lon="12.665919971709913"><ele>319.0</ele><time>2026-05-02T13:37:39.999Z</time></trkpt><trkpt lat="41.79034141358264" lon="12.665929815148068"><ele>319.0</ele><time>2026-05-02T13:37:40.999Z</time></trkpt><trkpt lat="41.790483968348106" lon="12.666015056057828"><ele>318.59999999999997</ele><time>2026-05-02T13:37:42.999Z</time></trkpt><trkpt lat="41.79056665837706" lon="12.666087421311776"><ele>318.2</ele><time>2026-05-02T13:37:43.999Z</time></trkpt><trkpt lat="41.79067831881355" lon="12.666154675545126"><ele>317.79999999999995</ele><time>2026-05-02T13:37:44.999Z</time></trkpt><trkpt lat="41.790768219328974" lon="12.666208823542343"><ele>317.4</ele><time>2026-05-02T13:37:45.999Z</time></trkpt><trkpt lat="41.79086030677766" lon="12.666263983865768"><ele>317.0</ele><time>2026-05-02T13:37:46.999Z</time></trkpt><trkpt lat="41.79094983363142" lon="12.666317418741798"><ele>317.8</ele><time>2026-05-02T13:37:47.999Z</time></trkpt><trkpt lat="41.79103169745494" lon="12.666365902941324"><ele>318.6</ele><time>2026-05-02T13:37:48.999Z</time></trkpt><trkpt lat="41.79110750774157" lon="12.666410362503338"><ele>319.40000000000003</ele><time>2026-05-02T13:37:49.999Z</time></trkpt><trkpt lat="41.79120420845771" lon="12.666467897041201"><ele>320.2</ele><time>2026-05-02T13:37:51.999Z</time></trkpt><trkpt lat="41.791287009453725" lon="12.666520483901103"><ele>321.0</ele><time>2026-05-02T13:37:54.999Z</time></trkpt><trkpt lat="41.79135225146611" lon="12.666596803433032"><ele>321.0</ele><time>2026-05-02T13:37:57.999Z</time></trkpt><trkpt lat="41.79144990425552" lon="12.666644759781814"><ele>321.0</ele><time>2026-05-02T13:37:59.999Z</time></trkpt><trkpt lat="41.79157718090094" lon="12.666701726421405"><ele>321.0</ele><time>2026-05-02T13:38:01.999Z</time></trkpt><trkpt lat="41.79165099018146" lon="12.666733092195457"><ele>321.0</ele><time>2026-05-02T13:38:02.999Z</time></trkpt><trkpt lat="41.79172276072295" lon="12.666791085179494"><ele>321.0</ele><time>2026-05-02T13:38:03.999Z</time></trkpt><trkpt lat="41.791793317878025" lon="12.666833139031727"><ele>321.6666666666667</ele><time>2026-05-02T13:38:04.999Z</time></trkpt><trkpt lat="41.79185779601242" lon="12.666870860160412"><ele>322.3333333333333</ele><time>2026-05-02T13:38:05.999Z</time></trkpt><trkpt lat="41.79192469226398" lon="12.666909995958141"><ele>323.0</ele><time>2026-05-02T13:38:06.999Z</time></trkpt><trkpt lat="41.79199618542817" lon="12.666951821017388"><ele>323.66666666666663</ele><time>2026-05-02T13:38:07.999Z</time></trkpt><trkpt lat="41.79206849696806" lon="12.666994124858563"><ele>324.3333333333333</ele><time>2026-05-02T13:38:08.999Z</time></trkpt><trkpt lat="41.792137285203516" lon="12.667034367487013"><ele>325.0</ele><time>2026-05-02T13:38:09.999Z</time></trkpt><trkpt lat="41.7922106690889" lon="12.667077325943952"><ele>325.0</ele><time>2026-05-02T13:38:10.999Z</time></trkpt><trkpt lat="41.79228712560817" lon="12.667122457554335"><ele>325.0</ele><time>2026-05-02T13:38:11.999Z</time></trkpt><trkpt lat="41.79236784052598" lon="12.667170102855675"><ele>325.0</ele><time>2026-05-02T13:38:12.999Z</time></trkpt><trkpt lat="41.79243697408779" lon="12.667210911790729"><ele>325.0</ele><time>2026-05-02T13:38:13.999Z</time></trkpt><trkpt lat="41.79250390667886" lon="12.667250421525635"><ele>325.0</ele><time>2026-05-02T13:38:14.999Z</time></trkpt><trkpt lat="41.79259438384569" lon="12.667304431822505"><ele>325.0</ele><time>2026-05-02T13:38:15.999Z</time></trkpt><trkpt lat="41.79268412376725" lon="12.667358080693939"><ele>325.8333333333333</ele><time>2026-05-02T13:38:16.999Z</time></trkpt><trkpt lat="41.79276292265253" lon="12.667405328996448"><ele>326.66666666666663</ele><time>2026-05-02T13:38:17.999Z</time></trkpt><trkpt lat="41.792831721521964" lon="12.667446608318548"><ele>327.5</ele><time>2026-05-02T13:38:18.999Z</time></trkpt><trkpt lat="41.79289414837644" lon="12.667484064435584"><ele>328.3333333333333</ele><time>2026-05-02T13:38:19.999Z</time></trkpt><trkpt lat="41.79299527557772" lon="12.667544740744756"><ele>329.1666666666667</ele><time>2026-05-02T13:38:21.999Z</time></trkpt><trkpt lat="41.79309426142636" lon="12.667578243077983"><ele>330.0</ele><time>2026-05-02T13:38:23.999Z</time></trkpt><trkpt lat="41.793161787149614" lon="12.667625669573448"><ele>330.0</ele><time>2026-05-02T13:38:25.999Z</time></trkpt><trkpt lat="41.79322989690812" lon="12.667683243497455"><ele>330.0</ele><time>2026-05-02T13:38:27.999Z</time></trkpt><trkpt lat="41.79333400081547" lon="12.667753066089984"><ele>330.0</ele><time>2026-05-02T13:38:56.999Z</time></trkpt><trkpt lat="41.79335351725747" lon="12.667892159649375"><ele>330.0</ele><time>2026-05-02T13:38:58.999Z</time></trkpt><trkpt lat="41.79333269472572" lon="12.667971864735746"><ele>330.0</ele><time>2026-05-02T13:38:59.999Z</time></trkpt><trkpt lat="41.7932824644311" lon="12.668078980054515"><ele>330.3333333333333</ele><time>2026-05-02T13:39:00.999Z</time></trkpt><trkpt lat="41.793233038278636" lon="12.668164624469375"><ele>330.6666666666667</ele><time>2026-05-02T13:39:01.999Z</time></trkpt><trkpt lat="41.793183290981176" lon="12.668255267127172"><ele>331.0</ele><time>2026-05-02T13:39:02.999Z</time></trkpt><trkpt lat="41.7931320956603" lon="12.668349421092142"><ele>331.33333333333337</ele><time>2026-05-02T13:39:03.999Z</time></trkpt><trkpt lat="41.79310505493547" lon="12.668468054694314"><ele>331.6666666666667</ele><time>2026-05-02T13:39:04.999Z</time></trkpt><trkpt lat="41.79307059051641" lon="12.668588964498891"><ele>332.0</ele><time>2026-05-02T13:39:05.999Z</time></trkpt><trkpt lat="41.7930535740807" lon="12.668715923658032"><ele>333.0</ele><time>2026-05-02T13:39:06.999Z</time></trkpt><trkpt lat="41.79302213732395" lon="12.668835021930542"><ele>334.0</ele><time>2026-05-02T13:39:07.999Z</time></trkpt><trkpt lat="41.79301944322708" lon="12.668929893479012"><ele>335.0</ele><time>2026-05-02T13:39:08.999Z</time></trkpt><trkpt lat="41.792990051085056" lon="12.669046687727738"><ele>336.0</ele><time>2026-05-02T13:39:10.999Z</time></trkpt><trkpt lat="41.79315193473015" lon="12.669210771222794"><ele>336.0</ele><time>2026-05-02T13:39:14Z</time></trkpt><trkpt lat="41.7932162557106" lon="12.669070937545793"><ele>336.0</ele><time>2026-05-02T13:39:15Z</time></trkpt><trkpt lat="41.793283024032355" lon="12.66900863321713"><ele>336.0</ele><time>2026-05-02T13:39:16Z</time></trkpt><trkpt lat="41.79333302819168" lon="12.668927433741006"><ele>336.0</ele><time>2026-05-02T13:39:17Z</time></trkpt><trkpt lat="41.79337596417958" lon="12.66883207900755"><ele>336.0</ele><time>2026-05-02T13:39:19Z</time></trkpt><trkpt lat="41.793463817712386" lon="12.668715145240116"><ele>335.75</ele><time>2026-05-02T13:39:21Z</time></trkpt><trkpt lat="41.79352350413648" lon="12.668635940291509"><ele>335.5</ele><time>2026-05-02T13:39:22Z</time></trkpt><trkpt lat="41.79365396690001" lon="12.66846663103086"><ele>335.25</ele><time>2026-05-02T13:39:23Z</time></trkpt><trkpt lat="41.79372197378221" lon="12.66837411862339"><ele>335.0</ele><time>2026-05-02T13:39:24Z</time></trkpt><trkpt lat="41.79379710626182" lon="12.668278270609136"><ele>335.0</ele><time>2026-05-02T13:39:25Z</time></trkpt><trkpt lat="41.7938380293233" lon="12.668203098091578"><ele>335.0</ele><time>2026-05-02T13:39:26Z</time></trkpt><trkpt lat="41.79395019212702" lon="12.668065106170006"><ele>335.0</ele><time>2026-05-02T13:39:27Z</time></trkpt><trkpt lat="41.794048256364505" lon="12.667964851402528"><ele>335.0</ele><time>2026-05-02T13:39:27.999Z</time></trkpt><trkpt lat="41.7941199514643" lon="12.667913833769285"><ele>335.0</ele><time>2026-05-02T13:39:28.999Z</time></trkpt><trkpt lat="41.79420262478181" lon="12.667828337544446"><ele>334.75</ele><time>2026-05-02T13:39:29.999Z</time></trkpt><trkpt lat="41.7942985646782" lon="12.667712401160239"><ele>334.5</ele><time>2026-05-02T13:39:30.999Z</time></trkpt><trkpt lat="41.79439472032332" lon="12.667612827922687"><ele>334.25</ele><time>2026-05-02T13:39:31.999Z</time></trkpt><trkpt lat="41.794487449505624" lon="12.667516752373281"><ele>334.0</ele><time>2026-05-02T13:39:32.999Z</time></trkpt><trkpt lat="41.794577097806915" lon="12.667415502094853"><ele>334.0</ele><time>2026-05-02T13:39:33.999Z</time></trkpt><trkpt lat="41.79467047220931" lon="12.667322543402989"><ele>334.0</ele><time>2026-05-02T13:39:34.999Z</time></trkpt><trkpt lat="41.794793111771575" lon="12.667227986295233"><ele>334.0</ele><time>2026-05-02T13:39:35.999Z</time></trkpt><trkpt lat="41.794946316372176" lon="12.667168369045779"><ele>334.0</ele><time>2026-05-02T13:39:37.999Z</time></trkpt><trkpt lat="41.79508559240472" lon="12.667123000837755"><ele>333.0</ele><time>2026-05-02T13:39:38.999Z</time></trkpt><trkpt lat="41.795237939063476" lon="12.667090634305906"><ele>332.0</ele><time>2026-05-02T13:39:39.999Z</time></trkpt><trkpt lat="41.79537902624962" lon="12.667085556384864"><ele>331.0</ele><time>2026-05-02T13:39:40.999Z</time></trkpt><trkpt lat="41.795472541635654" lon="12.667074644446117"><ele>330.0</ele><time>2026-05-02T13:39:41.999Z</time></trkpt><trkpt lat="41.795610496898384" lon="12.667117714568532"><ele>330.0</ele><time>2026-05-02T13:39:42.999Z</time></trkpt><trkpt lat="41.795745026676116" lon="12.66714468946764"><ele>330.0</ele><time>2026-05-02T13:39:43.999Z</time></trkpt><trkpt lat="41.7958695678364" lon="12.667192742943842"><ele>330.0</ele><time>2026-05-02T13:39:44.999Z</time></trkpt><trkpt lat="41.79600346607642" lon="12.667262156035385"><ele>330.0</ele><time>2026-05-02T13:39:45.999Z</time></trkpt><trkpt lat="41.79611764225807" lon="12.66735015685182"><ele>329.25</ele><time>2026-05-02T13:39:46.999Z</time></trkpt><trkpt lat="41.796234301099105" lon="12.667446185038488"><ele>328.5</ele><time>2026-05-02T13:39:47.999Z</time></trkpt><trkpt lat="41.79634158555176" lon="12.667552738030585"><ele>327.75</ele><time>2026-05-02T13:39:48.999Z</time></trkpt><trkpt lat="41.7964480042735" lon="12.667664477036324"><ele>327.0</ele><time>2026-05-02T13:39:49.999Z</time></trkpt><trkpt lat="41.796546745722644" lon="12.667771823685248"><ele>326.5</ele><time>2026-05-02T13:39:50.999Z</time></trkpt><trkpt lat="41.796635276545544" lon="12.667906038831212"><ele>326.0</ele><time>2026-05-02T13:39:51.999Z</time></trkpt><trkpt lat="41.79670287448804" lon="12.66805662923646"><ele>325.5</ele><time>2026-05-02T13:39:52.999Z</time></trkpt><trkpt lat="41.79676693718038" lon="12.668204977148209"><ele>325.0</ele><time>2026-05-02T13:39:53.999Z</time></trkpt><trkpt lat="41.79682435121186" lon="12.668356289790701"><ele>323.0</ele><time>2026-05-02T13:39:54.999Z</time></trkpt><trkpt lat="41.796876264103005" lon="12.66851498503925"><ele>321.0</ele><time>2026-05-02T13:39:55.999Z</time></trkpt><trkpt lat="41.796925667208946" lon="12.66866496934414"><ele>319.0</ele><time>2026-05-02T13:39:56.999Z</time></trkpt><trkpt lat="41.79697719834054" lon="12.668821414150381"><ele>317.0</ele><time>2026-05-02T13:39:57.999Z</time></trkpt><trkpt lat="41.79704432956515" lon="12.66898550312139"><ele>317.0</ele><time>2026-05-02T13:39:58.999Z</time></trkpt><trkpt lat="41.79709542356985" lon="12.66915056710288"><ele>317.0</ele><time>2026-05-02T13:39:59.999Z</time></trkpt><trkpt lat="41.79715161972456" lon="12.669305940075128"><ele>317.0</ele><time>2026-05-02T13:40:00.999Z</time></trkpt><trkpt lat="41.797205499640114" lon="12.669457172053056"><ele>317.0</ele><time>2026-05-02T13:40:01.999Z</time></trkpt><trkpt lat="41.79724979335638" lon="12.669593589558048"><ele>318.0</ele><time>2026-05-02T13:40:02.999Z</time></trkpt><trkpt lat="41.797286587470865" lon="12.669707937722752"><ele>319.0</ele><time>2026-05-02T13:40:03.999Z</time></trkpt><trkpt lat="41.79732352384651" lon="12.669819226757099"><ele>320.0</ele><time>2026-05-02T13:40:04.999Z</time></trkpt><trkpt lat="41.79735448581669" lon="12.669947888992768"><ele>321.0</ele><time>2026-05-02T13:40:05.999Z</time></trkpt><trkpt lat="41.79739980760634" lon="12.670080711073112"><ele>322.0</ele><time>2026-05-02T13:40:06.999Z</time></trkpt><trkpt lat="41.7974591100367" lon="12.670216168501497"><ele>321.25</ele><time>2026-05-02T13:40:07.999Z</time></trkpt><trkpt lat="41.797518717262165" lon="12.67034331970824"><ele>320.5</ele><time>2026-05-02T13:40:08.999Z</time></trkpt><trkpt lat="41.797579112491036" lon="12.67048803342694"><ele>319.75</ele><time>2026-05-02T13:40:09.999Z</time></trkpt><trkpt lat="41.79765745660286" lon="12.670607819176062"><ele>319.0</ele><time>2026-05-02T13:40:10.999Z</time></trkpt><trkpt lat="41.797749763188314" lon="12.670718765350689"><ele>319.0</ele><time>2026-05-02T13:40:11.999Z</time></trkpt><trkpt lat="41.797830458943785" lon="12.670869081323643"><ele>319.0</ele><time>2026-05-02T13:40:12.999Z</time></trkpt><trkpt lat="41.79794235701637" lon="12.670986955474067"><ele>319.0</ele><time>2026-05-02T13:40:13.999Z</time></trkpt><trkpt lat="41.79805570839186" lon="12.671101883737828"><ele>319.0</ele><time>2026-05-02T13:40:14.999Z</time></trkpt><trkpt lat="41.79816142939938" lon="12.67121132170344"><ele>319.25</ele><time>2026-05-02T13:40:15.999Z</time></trkpt><trkpt lat="41.79825487494154" lon="12.671308408626281"><ele>319.5</ele><time>2026-05-02T13:40:16.999Z</time></trkpt><trkpt lat="41.79836323606069" lon="12.671411446561061"><ele>319.75</ele><time>2026-05-02T13:40:17.999Z</time></trkpt><trkpt lat="41.798443882511336" lon="12.671531115425719"><ele>320.0</ele><time>2026-05-02T13:40:18.999Z</time></trkpt><trkpt lat="41.79852840611307" lon="12.671639407769588"><ele>320.0</ele><time>2026-05-02T13:40:19.999Z</time></trkpt><trkpt lat="41.798622097364834" lon="12.67174394487015"><ele>320.0</ele><time>2026-05-02T13:40:20.999Z</time></trkpt><trkpt lat="41.7987319139589" lon="12.67181501892024"><ele>320.0</ele><time>2026-05-02T13:40:21.999Z</time></trkpt><trkpt lat="41.79885424669651" lon="12.6718787348211"><ele>320.0</ele><time>2026-05-02T13:40:22.999Z</time></trkpt><trkpt lat="41.79897431045888" lon="12.671893993090372"><ele>320.0</ele><time>2026-05-02T13:40:23.999Z</time></trkpt><trkpt lat="41.79908741463603" lon="12.671895550890207"><ele>320.0</ele><time>2026-05-02T13:40:24.999Z</time></trkpt><trkpt lat="41.799202117077805" lon="12.671882131161235"><ele>320.0</ele><time>2026-05-02T13:40:25.999Z</time></trkpt><trkpt lat="41.79932352875168" lon="12.671859885609548"><ele>320.0</ele><time>2026-05-02T13:40:26.999Z</time></trkpt><trkpt lat="41.7994454378492" lon="12.67180883525724"><ele>320.75</ele><time>2026-05-02T13:40:27.999Z</time></trkpt><trkpt lat="41.79955318553378" lon="12.671694332304249"><ele>321.5</ele><time>2026-05-02T13:40:28.999Z</time></trkpt><trkpt lat="41.79963483463268" lon="12.671598423232677"><ele>322.25</ele><time>2026-05-02T13:40:29.999Z</time></trkpt><trkpt lat="41.79974715756651" lon="12.67144303291101"><ele>323.0</ele><time>2026-05-02T13:40:30.999Z</time></trkpt><trkpt lat="41.79984522745862" lon="12.671266411350327"><ele>321.33333333333337</ele><time>2026-05-02T13:40:31.999Z</time></trkpt><trkpt lat="41.79993064116202" lon="12.671097039912487"><ele>319.6666666666667</ele><time>2026-05-02T13:40:32.999Z</time></trkpt><trkpt lat="41.800009048538236" lon="12.670921930442201"><ele>318.0</ele><time>2026-05-02T13:40:33.999Z</time></trkpt><trkpt lat="41.80009144175865" lon="12.670738675425188"><ele>318.0</ele><time>2026-05-02T13:40:34.999Z</time></trkpt><trkpt lat="41.80016074474521" lon="12.670566225525091"><ele>318.0</ele><time>2026-05-02T13:40:35.999Z</time></trkpt><trkpt lat="41.80022103005515" lon="12.670416802034666"><ele>318.0</ele><time>2026-05-02T13:40:36.999Z</time></trkpt><trkpt lat="41.80029464839116" lon="12.670283152292278"><ele>318.0</ele><time>2026-05-02T13:40:37.999Z</time></trkpt><trkpt lat="41.80035682758432" lon="12.670148503852799"><ele>317.8333333333333</ele><time>2026-05-02T13:40:38.999Z</time></trkpt><trkpt lat="41.80039825660994" lon="12.6700459130478"><ele>317.6666666666667</ele><time>2026-05-02T13:40:39.999Z</time></trkpt><trkpt lat="41.80045984431578" lon="12.669963419925983"><ele>317.5</ele><time>2026-05-02T13:40:40.999Z</time></trkpt><trkpt lat="41.8004821473472" lon="12.669882055156005"><ele>317.33333333333337</ele><time>2026-05-02T13:40:41.999Z</time></trkpt><trkpt lat="41.800523472160066" lon="12.66979177958953"><ele>317.1666666666667</ele><time>2026-05-02T13:40:42.999Z</time></trkpt><trkpt lat="41.80056210273274" lon="12.669697996195941"><ele>317.0</ele><time>2026-05-02T13:40:43.999Z</time></trkpt><trkpt lat="41.80060251260082" lon="12.669597570262939"><ele>317.0</ele><time>2026-05-02T13:40:44.999Z</time></trkpt><trkpt lat="41.800644014280664" lon="12.669491139548649"><ele>317.0</ele><time>2026-05-02T13:40:45.999Z</time></trkpt><trkpt lat="41.80069696880399" lon="12.669393981645003"><ele>317.0</ele><time>2026-05-02T13:40:46.999Z</time></trkpt><trkpt lat="41.80075043107152" lon="12.669280647572934"><ele>317.0</ele><time>2026-05-02T13:40:47.999Z</time></trkpt><trkpt lat="41.80081533907688" lon="12.66917996947014"><ele>317.0</ele><time>2026-05-02T13:40:48.999Z</time></trkpt><trkpt lat="41.80088421808755" lon="12.669080965072464"><ele>314.8</ele><time>2026-05-02T13:40:49.999Z</time></trkpt><trkpt lat="41.80096546097687" lon="12.668996421654361"><ele>312.6</ele><time>2026-05-02T13:40:50.999Z</time></trkpt><trkpt lat="41.80105618307304" lon="12.668944095934194"><ele>310.40000000000003</ele><time>2026-05-02T13:40:51.999Z</time></trkpt><trkpt lat="41.801157036105636" lon="12.668903668093705"><ele>308.2</ele><time>2026-05-02T13:40:52.999Z</time></trkpt><trkpt lat="41.80125528585575" lon="12.668885483552078"><ele>306.0</ele><time>2026-05-02T13:40:53.999Z</time></trkpt><trkpt lat="41.80134974356895" lon="12.668885165957843"><ele>305.6</ele><time>2026-05-02T13:40:54.999Z</time></trkpt><trkpt lat="41.80143856712266" lon="12.668901578865238"><ele>305.20000000000005</ele><time>2026-05-02T13:40:55.999Z</time></trkpt><trkpt lat="41.801526362145204" lon="12.668938140442457"><ele>304.79999999999995</ele><time>2026-05-02T13:40:56.999Z</time></trkpt><trkpt lat="41.80161177981824" lon="12.668980044001719"><ele>304.4</ele><time>2026-05-02T13:40:57.999Z</time></trkpt><trkpt lat="41.80169636437933" lon="12.669035987952086"><ele>304.0</ele><time>2026-05-02T13:40:58.999Z</time></trkpt><trkpt lat="41.80177751262594" lon="12.66913832737267"><ele>303.25</ele><time>2026-05-02T13:40:59.999Z</time></trkpt><trkpt lat="41.80185728597787" lon="12.669261956999355"><ele>302.5</ele><time>2026-05-02T13:41:00.999Z</time></trkpt><trkpt lat="41.80192941822782" lon="12.66938517671764"><ele>301.75</ele><time>2026-05-02T13:41:01.999Z</time></trkpt><trkpt lat="41.801996057669" lon="12.66950539097327"><ele>301.0</ele><time>2026-05-02T13:41:02.999Z</time></trkpt><trkpt lat="41.80204982600663" lon="12.669649180513803"><ele>301.0</ele><time>2026-05-02T13:41:03.999Z</time></trkpt><trkpt lat="41.80211727574848" lon="12.669781398551324"><ele>301.0</ele><time>2026-05-02T13:41:04.999Z</time></trkpt><trkpt lat="41.80218999772906" lon="12.669910979501548"><ele>301.0</ele><time>2026-05-02T13:41:05.999Z</time></trkpt><trkpt lat="41.802269011099945" lon="12.670040495071659"><ele>301.0</ele><time>2026-05-02T13:41:07Z</time></trkpt><trkpt lat="41.802319968920166" lon="12.670207446214643"><ele>303.5</ele><time>2026-05-02T13:41:08Z</time></trkpt><trkpt lat="41.80239006261132" lon="12.670346865574523"><ele>306.0</ele><time>2026-05-02T13:41:09Z</time></trkpt><trkpt lat="41.802465048645765" lon="12.670487305966304"><ele>308.5</ele><time>2026-05-02T13:41:10Z</time></trkpt><trkpt lat="41.80254081820743" lon="12.670630394015063"><ele>311.0</ele><time>2026-05-02T13:41:11Z</time></trkpt><trkpt lat="41.80261004525501" lon="12.67077728892933"><ele>306.25</ele><time>2026-05-02T13:41:12Z</time></trkpt><trkpt lat="41.80267106664265" lon="12.670929726828447"><ele>301.5</ele><time>2026-05-02T13:41:13Z</time></trkpt><trkpt lat="41.8026972474735" lon="12.67109684946398"><ele>296.75</ele><time>2026-05-02T13:41:14Z</time></trkpt><trkpt lat="41.8027165820584" lon="12.671269022871707"><ele>292.0</ele><time>2026-05-02T13:41:15Z</time></trkpt><trkpt lat="41.80272184384349" lon="12.671435307883069"><ele>290.0</ele><time>2026-05-02T13:41:16Z</time></trkpt><trkpt lat="41.802718572931525" lon="12.671594496081664"><ele>288.0</ele><time>2026-05-02T13:41:17Z</time></trkpt><trkpt lat="41.8027156527717" lon="12.671736925012244"><ele>286.0</ele><time>2026-05-02T13:41:18Z</time></trkpt><trkpt lat="41.80270444869603" lon="12.671879808130312"><ele>284.0</ele><time>2026-05-02T13:41:19Z</time></trkpt><trkpt lat="41.80267916173254" lon="12.672042930571498"><ele>283.25</ele><time>2026-05-02T13:41:20Z</time></trkpt><trkpt lat="41.80267168493269" lon="12.67218656024923"><ele>282.5</ele><time>2026-05-02T13:41:21Z</time></trkpt><trkpt lat="41.80265243155668" lon="12.672339280165742"><ele>281.75</ele><time>2026-05-02T13:41:22Z</time></trkpt><trkpt lat="41.8025958077192" lon="12.672513829770484"><ele>281.0</ele><time>2026-05-02T13:41:23Z</time></trkpt><trkpt lat="41.80256837549407" lon="12.672697589365663"><ele>288.75</ele><time>2026-05-02T13:41:24Z</time></trkpt><trkpt lat="41.802552446749665" lon="12.672880556805758"><ele>296.5</ele><time>2026-05-02T13:41:25Z</time></trkpt><trkpt lat="41.80255658497868" lon="12.673057528950766"><ele>304.25</ele><time>2026-05-02T13:41:26Z</time></trkpt><trkpt lat="41.802557008069066" lon="12.673211365140245"><ele>312.0</ele><time>2026-05-02T13:41:27Z</time></trkpt><trkpt lat="41.80256485666307" lon="12.673372921094355"><ele>312.0</ele><time>2026-05-02T13:41:28Z</time></trkpt><trkpt lat="41.80258702073058" lon="12.673548530636587"><ele>312.0</ele><time>2026-05-02T13:41:29Z</time></trkpt><trkpt lat="41.80262030585755" lon="12.673708373877012"><ele>312.0</ele><time>2026-05-02T13:41:30Z</time></trkpt><trkpt lat="41.80266150073431" lon="12.673853719427024"><ele>312.0</ele><time>2026-05-02T13:41:31Z</time></trkpt><trkpt lat="41.802710306595245" lon="12.67398714270649"><ele>312.75</ele><time>2026-05-02T13:41:32Z</time></trkpt><trkpt lat="41.802737282114734" lon="12.674170222785017"><ele>313.5</ele><time>2026-05-02T13:41:34Z</time></trkpt><trkpt lat="41.80280329509928" lon="12.674314925217736"><ele>314.25</ele><time>2026-05-02T13:41:35Z</time></trkpt><trkpt lat="41.80285986259848" lon="12.67444261491377"><ele>315.0</ele><time>2026-05-02T13:41:36Z</time></trkpt><trkpt lat="41.80291660052214" lon="12.674526666026656"><ele>315.0</ele><time>2026-05-02T13:41:37Z</time></trkpt><trkpt lat="41.80296825952423" lon="12.674620741696268"><ele>315.0</ele><time>2026-05-02T13:41:38Z</time></trkpt><trkpt lat="41.80301019214879" lon="12.67469995191958"><ele>315.0</ele><time>2026-05-02T13:41:39Z</time></trkpt><trkpt lat="41.80304400636714" lon="12.674773272150764"><ele>315.0</ele><time>2026-05-02T13:41:40Z</time></trkpt><trkpt lat="41.803116599472105" lon="12.674884492254492"><ele>315.0</ele><time>2026-05-02T13:41:42Z</time></trkpt><trkpt lat="41.80318898944694" lon="12.674995245365414"><ele>315.0</ele><time>2026-05-02T13:41:44Z</time></trkpt><trkpt lat="41.803274237427814" lon="12.675102547753719"><ele>315.0</ele><time>2026-05-02T13:41:46Z</time></trkpt><trkpt lat="41.80331584726959" lon="12.675181423441002"><ele>315.0</ele><time>2026-05-02T13:41:47Z</time></trkpt><trkpt lat="41.80337152305822" lon="12.675257506494312"><ele>315.0</ele><time>2026-05-02T13:41:48Z</time></trkpt><trkpt lat="41.80342930111448" lon="12.675341209805502"><ele>315.0</ele><time>2026-05-02T13:41:49Z</time></trkpt><trkpt lat="41.8034734247108" lon="12.675428805889158"><ele>315.0</ele><time>2026-05-02T13:41:50Z</time></trkpt><trkpt lat="41.80351772426604" lon="12.675508679741146"><ele>315.0</ele><time>2026-05-02T13:41:51Z</time></trkpt><trkpt lat="41.80356874385254" lon="12.675590393372154"><ele>314.5</ele><time>2026-05-02T13:41:52Z</time></trkpt><trkpt lat="41.803617842485316" lon="12.675680246642173"><ele>314.0</ele><time>2026-05-02T13:41:53Z</time></trkpt><trkpt lat="41.80366706100969" lon="12.675770230257465"><ele>313.5</ele><time>2026-05-02T13:41:54Z</time></trkpt><trkpt lat="41.80371940976007" lon="12.675860614430885"><ele>313.0</ele><time>2026-05-02T13:41:55Z</time></trkpt><trkpt lat="41.80377552332872" lon="12.675941209567606"><ele>312.5</ele><time>2026-05-02T13:41:56Z</time></trkpt><trkpt lat="41.80383136799478" lon="12.676000880696595"><ele>312.0</ele><time>2026-05-02T13:41:57Z</time></trkpt><trkpt lat="41.80389863277529" lon="12.676032363026236"><ele>312.0</ele><time>2026-05-02T13:41:58Z</time></trkpt><trkpt lat="41.8039779901645" lon="12.67610140454173"><ele>312.0</ele><time>2026-05-02T13:42:00Z</time></trkpt><trkpt lat="41.80406783198518" lon="12.676119852171201"><ele>312.0</ele><time>2026-05-02T13:42:02Z</time></trkpt><trkpt lat="41.80419396862114" lon="12.676163910647391"><ele>312.0</ele><time>2026-05-02T13:42:04Z</time></trkpt><trkpt lat="41.80427433721697" lon="12.676176898922966"><ele>312.0</ele><time>2026-05-02T13:42:05Z</time></trkpt><trkpt lat="41.80435165990076" lon="12.676190849359157"><ele>313.5</ele><time>2026-05-02T13:42:06Z</time></trkpt><trkpt lat="41.80442903339584" lon="12.676220624426522"><ele>315.0</ele><time>2026-05-02T13:42:07Z</time></trkpt><trkpt lat="41.80450909629746" lon="12.676252051651204"><ele>316.5</ele><time>2026-05-02T13:42:08Z</time></trkpt><trkpt lat="41.80458284858662" lon="12.676297340904908"><ele>318.0</ele><time>2026-05-02T13:42:09Z</time></trkpt><trkpt lat="41.80465135244936" lon="12.67634510243963"><ele>319.5</ele><time>2026-05-02T13:42:10Z</time></trkpt><trkpt lat="41.80470838557505" lon="12.67639549911854"><ele>321.0</ele><time>2026-05-02T13:42:11Z</time></trkpt><trkpt lat="41.804795923804164" lon="12.676498986946047"><ele>321.0</ele><time>2026-05-02T13:42:13Z</time></trkpt><trkpt lat="41.804851442077464" lon="12.676625023538518"><ele>321.0</ele><time>2026-05-02T13:42:15Z</time></trkpt><trkpt lat="41.80490216765102" lon="12.676729257758296"><ele>321.0</ele><time>2026-05-02T13:42:17Z</time></trkpt><trkpt lat="41.80503160773584" lon="12.676689959279008"><ele>321.0</ele><time>2026-05-02T13:42:19Z</time></trkpt><trkpt lat="41.805094636950884" lon="12.676567545055338"><ele>321.0</ele><time>2026-05-02T13:42:21Z</time></trkpt><trkpt lat="41.805131888431" lon="12.676489904018142"><ele>320.3333333333333</ele><time>2026-05-02T13:42:22Z</time></trkpt><trkpt lat="41.805174303082424" lon="12.676409176242167"><ele>319.6666666666667</ele><time>2026-05-02T13:42:23Z</time></trkpt><trkpt lat="41.80523168768995" lon="12.676337139395782"><ele>319.0</ele><time>2026-05-02T13:42:24Z</time></trkpt><trkpt lat="41.80529006114416" lon="12.676263728035915"><ele>318.33333333333337</ele><time>2026-05-02T13:42:25Z</time></trkpt><trkpt lat="41.80535010736272" lon="12.676183876615495"><ele>317.6666666666667</ele><time>2026-05-02T13:42:26Z</time></trkpt><trkpt lat="41.80541042942481" lon="12.676101183190895"><ele>317.0</ele><time>2026-05-02T13:42:27Z</time></trkpt><trkpt lat="41.80547084895204" lon="12.676030748475833"><ele>315.83333333333337</ele><time>2026-05-02T13:42:28Z</time></trkpt><trkpt lat="41.80553221958471" lon="12.67595767678165"><ele>314.6666666666667</ele><time>2026-05-02T13:42:29Z</time></trkpt><trkpt lat="41.80559602921967" lon="12.67588264339109"><ele>313.5</ele><time>2026-05-02T13:42:30Z</time></trkpt><trkpt lat="41.80565790324751" lon="12.675823363878578"><ele>312.3333333333333</ele><time>2026-05-02T13:42:30.999Z</time></trkpt><trkpt lat="41.805722098829875" lon="12.675760958962664"><ele>311.16666666666663</ele><time>2026-05-02T13:42:31.999Z</time></trkpt><trkpt lat="41.80579533555983" lon="12.675702699308298"><ele>310.0</ele><time>2026-05-02T13:42:32.999Z</time></trkpt><trkpt lat="41.80587629097972" lon="12.67567088684549"><ele>310.0</ele><time>2026-05-02T13:42:33.999Z</time></trkpt><trkpt lat="41.80596223094583" lon="12.675656781481678"><ele>310.0</ele><time>2026-05-02T13:42:34.999Z</time></trkpt><trkpt lat="41.806055379919236" lon="12.675645379428191"><ele>310.0</ele><time>2026-05-02T13:42:35.999Z</time></trkpt><trkpt lat="41.80615037211212" lon="12.675639643973032"><ele>310.0</ele><time>2026-05-02T13:42:36.999Z</time></trkpt><trkpt lat="41.80624460733164" lon="12.675653841553155"><ele>310.0</ele><time>2026-05-02T13:42:37.999Z</time></trkpt><trkpt lat="41.80633893702376" lon="12.675666399513892"><ele>308.5</ele><time>2026-05-02T13:42:38.999Z</time></trkpt><trkpt lat="41.80643144501329" lon="12.67567155426892"><ele>307.0</ele><time>2026-05-02T13:42:39.999Z</time></trkpt><trkpt lat="41.806514055496585" lon="12.675687805862564"><ele>305.5</ele><time>2026-05-02T13:42:40.999Z</time></trkpt><trkpt lat="41.80659859616115" lon="12.675703867462724"><ele>304.0</ele><time>2026-05-02T13:42:41.999Z</time></trkpt><trkpt lat="41.80668696722383" lon="12.675729578125091"><ele>302.5</ele><time>2026-05-02T13:42:42.999Z</time></trkpt><trkpt lat="41.806775141377855" lon="12.67577898580944"><ele>301.0</ele><time>2026-05-02T13:42:43.999Z</time></trkpt><trkpt lat="41.806854120325745" lon="12.675809713218694"><ele>299.0</ele><time>2026-05-02T13:42:44.999Z</time></trkpt><trkpt lat="41.80693735340391" lon="12.675825425397928"><ele>297.0</ele><time>2026-05-02T13:42:45.999Z</time></trkpt><trkpt lat="41.80701696459126" lon="12.67583973575223"><ele>295.0</ele><time>2026-05-02T13:42:46.999Z</time></trkpt><trkpt lat="41.80709578497059" lon="12.675855063117677"><ele>293.0</ele><time>2026-05-02T13:42:47.999Z</time></trkpt><trkpt lat="41.80717449810393" lon="12.675886332433079"><ele>291.0</ele><time>2026-05-02T13:42:48.999Z</time></trkpt><trkpt lat="41.80725261820348" lon="12.675909078498721"><ele>289.0</ele><time>2026-05-02T13:42:49.999Z</time></trkpt><trkpt lat="41.80733551334206" lon="12.675931346718231"><ele>289.0</ele><time>2026-05-02T13:42:50.999Z</time></trkpt><trkpt lat="41.80741241825952" lon="12.675950879743933"><ele>289.0</ele><time>2026-05-02T13:42:51.999Z</time></trkpt><trkpt lat="41.80748357921133" lon="12.67595784443415"><ele>289.0</ele><time>2026-05-02T13:42:52.999Z</time></trkpt><trkpt lat="41.80755195544199" lon="12.675956198658142"><ele>289.0</ele><time>2026-05-02T13:42:53.999Z</time></trkpt><trkpt lat="41.8076225724928" lon="12.675971514384589"><ele>289.0</ele><time>2026-05-02T13:42:54.999Z</time></trkpt><trkpt lat="41.80769433072907" lon="12.675986723960772"><ele>289.0</ele><time>2026-05-02T13:42:55.999Z</time></trkpt><trkpt lat="41.80776697063813" lon="12.675995739031213"><ele>289.0</ele><time>2026-05-02T13:42:56.999Z</time></trkpt><trkpt lat="41.80783948284773" lon="12.676005777599228"><ele>289.5</ele><time>2026-05-02T13:42:57.999Z</time></trkpt><trkpt lat="41.80790842672579" lon="12.676009767352795"><ele>290.0</ele><time>2026-05-02T13:42:58.999Z</time></trkpt><trkpt lat="41.80797411330613" lon="12.676017201913222"><ele>290.5</ele><time>2026-05-02T13:42:59.999Z</time></trkpt><trkpt lat="41.80808793705714" lon="12.676020007080709"><ele>291.0</ele><time>2026-05-02T13:43:01.999Z</time></trkpt><trkpt lat="41.80818540939985" lon="12.676013518589198"><ele>291.5</ele><time>2026-05-02T13:43:03.999Z</time></trkpt><trkpt lat="41.80825924594103" lon="12.67602066059518"><ele>292.0</ele><time>2026-05-02T13:43:05.999Z</time></trkpt><trkpt lat="41.808326532430904" lon="12.676033140297744"><ele>292.0</ele><time>2026-05-02T13:43:07.999Z</time></trkpt><trkpt lat="41.80840724847389" lon="12.676047335068386"><ele>292.0</ele><time>2026-05-02T13:43:13.001Z</time></trkpt><trkpt lat="41.808479965268205" lon="12.676083204592402"><ele>292.0</ele><time>2026-05-02T13:43:15.001Z</time></trkpt><trkpt lat="41.80855830997924" lon="12.676046568463137"><ele>292.0</ele><time>2026-05-02T13:43:18.001Z</time></trkpt><trkpt lat="41.80856658935325" lon="12.675948994742521"><ele>292.0</ele><time>2026-05-02T13:43:20.001Z</time></trkpt><trkpt lat="41.80858373446998" lon="12.675816787130758"><ele>292.0</ele><time>2026-05-02T13:43:22.001Z</time></trkpt><trkpt lat="41.80861916436326" lon="12.675673680074672"><ele>291.5</ele><time>2026-05-02T13:43:24.001Z</time></trkpt><trkpt lat="41.80866327530205" lon="12.675520794915307"><ele>291.0</ele><time>2026-05-02T13:43:26.001Z</time></trkpt><trkpt lat="41.80869267390277" lon="12.675356870685448"><ele>290.5</ele><time>2026-05-02T13:43:28Z</time></trkpt><trkpt lat="41.80873411421229" lon="12.675207261584184"><ele>290.0</ele><time>2026-05-02T13:43:30Z</time></trkpt><trkpt lat="41.80877073288875" lon="12.675053514965889"><ele>290.0</ele><time>2026-05-02T13:43:32Z</time></trkpt><trkpt lat="41.808793920579966" lon="12.674967932934605"><ele>290.0</ele><time>2026-05-02T13:43:33Z</time></trkpt><trkpt lat="41.80881929053442" lon="12.674874549578997"><ele>290.0</ele><time>2026-05-02T13:43:34Z</time></trkpt><trkpt lat="41.808838899408805" lon="12.674766645841276"><ele>290.0</ele><time>2026-05-02T13:43:35Z</time></trkpt><trkpt lat="41.8088572159932" lon="12.674653912765336"><ele>290.0</ele><time>2026-05-02T13:43:36Z</time></trkpt><trkpt lat="41.80887839073253" lon="12.67453715130965"><ele>290.0</ele><time>2026-05-02T13:43:37Z</time></trkpt><trkpt lat="41.808898756071095" lon="12.67441486959966"><ele>288.6</ele><time>2026-05-02T13:43:38Z</time></trkpt><trkpt lat="41.80891882840558" lon="12.674282544040775"><ele>287.2</ele><time>2026-05-02T13:43:39Z</time></trkpt><trkpt lat="41.808948673002774" lon="12.674152590633316"><ele>285.8</ele><time>2026-05-02T13:43:40Z</time></trkpt><trkpt lat="41.808978741664724" lon="12.674020917018119"><ele>284.4</ele><time>2026-05-02T13:43:41Z</time></trkpt><trkpt lat="41.80900527688788" lon="12.673890957788137"><ele>283.0</ele><time>2026-05-02T13:43:42Z</time></trkpt><trkpt lat="41.80903752697283" lon="12.673763768247609"><ele>283.0</ele><time>2026-05-02T13:43:43Z</time></trkpt><trkpt lat="41.809078566045024" lon="12.67364092070661"><ele>283.0</ele><time>2026-05-02T13:43:44Z</time></trkpt><trkpt lat="41.809127734090175" lon="12.673519105346227"><ele>283.0</ele><time>2026-05-02T13:43:45Z</time></trkpt><trkpt lat="41.80918180361257" lon="12.67338681197494"><ele>283.0</ele><time>2026-05-02T13:43:46Z</time></trkpt><trkpt lat="41.80923936847488" lon="12.673254275588448"><ele>283.0</ele><time>2026-05-02T13:43:47Z</time></trkpt><trkpt lat="41.80930453875801" lon="12.673130721266599"><ele>279.4</ele><time>2026-05-02T13:43:48Z</time></trkpt><trkpt lat="41.809371806553955" lon="12.673010430398712"><ele>275.8</ele><time>2026-05-02T13:43:49Z</time></trkpt><trkpt lat="41.809427885152715" lon="12.672896785485232"><ele>272.2</ele><time>2026-05-02T13:43:50Z</time></trkpt><trkpt lat="41.80948256186044" lon="12.672793507578984"><ele>268.6</ele><time>2026-05-02T13:43:51Z</time></trkpt><trkpt lat="41.809536427903126" lon="12.672697525411179"><ele>265.0</ele><time>2026-05-02T13:43:52Z</time></trkpt><trkpt lat="41.80958651422666" lon="12.672609804381324"><ele>264.8333333333333</ele><time>2026-05-02T13:43:53Z</time></trkpt><trkpt lat="41.80963309686006" lon="12.672523393654355"><ele>264.66666666666663</ele><time>2026-05-02T13:43:54Z</time></trkpt><trkpt lat="41.809678444552084" lon="12.672437522547696"><ele>264.5</ele><time>2026-05-02T13:43:55Z</time></trkpt><trkpt lat="41.809724203457634" lon="12.672353528478878"><ele>264.3333333333333</ele><time>2026-05-02T13:43:56Z</time></trkpt><trkpt lat="41.80977104910553" lon="12.67226606723808"><ele>264.1666666666667</ele><time>2026-05-02T13:43:57Z</time></trkpt><trkpt lat="41.809821160166855" lon="12.672175451861923"><ele>264.0</ele><time>2026-05-02T13:43:58Z</time></trkpt><trkpt lat="41.80987196136296" lon="12.672082719190287"><ele>264.0</ele><time>2026-05-02T13:43:59Z</time></trkpt><trkpt lat="41.80992549554884" lon="12.671984677328679"><ele>264.0</ele><time>2026-05-02T13:44:00Z</time></trkpt><trkpt lat="41.809978782974426" lon="12.671884824248366"><ele>264.0</ele><time>2026-05-02T13:44:01Z</time></trkpt><trkpt lat="41.81003159190056" lon="12.67178127227704"><ele>264.0</ele><time>2026-05-02T13:44:02Z</time></trkpt><trkpt lat="41.81008173305385" lon="12.671682998571717"><ele>264.0</ele><time>2026-05-02T13:44:03Z</time></trkpt><trkpt lat="41.81012925865936" lon="12.671586583603565"><ele>262.5</ele><time>2026-05-02T13:44:04Z</time></trkpt><trkpt lat="41.81017571288582" lon="12.671493472852505"><ele>261.0</ele><time>2026-05-02T13:44:05Z</time></trkpt><trkpt lat="41.810224567957434" lon="12.671400272195074"><ele>259.5</ele><time>2026-05-02T13:44:06Z</time></trkpt><trkpt lat="41.810271963625524" lon="12.671310685636048"><ele>258.0</ele><time>2026-05-02T13:44:07Z</time></trkpt><trkpt lat="41.810320858179026" lon="12.671231609379214"><ele>256.5</ele><time>2026-05-02T13:44:08Z</time></trkpt><trkpt lat="41.81037354771649" lon="12.671157738825007"><ele>255.0</ele><time>2026-05-02T13:44:09Z</time></trkpt><trkpt lat="41.81041934390693" lon="12.671076848315884"><ele>255.0</ele><time>2026-05-02T13:44:10Z</time></trkpt><trkpt lat="41.81046375543645" lon="12.670997501777139"><ele>255.0</ele><time>2026-05-02T13:44:11Z</time></trkpt><trkpt lat="41.81050576337132" lon="12.670920699649407"><ele>255.0</ele><time>2026-05-02T13:44:12Z</time></trkpt><trkpt lat="41.8105850154966" lon="12.670818435549021"><ele>255.0</ele><time>2026-05-02T13:44:14Z</time></trkpt><trkpt lat="41.810647948549146" lon="12.670791716551276"><ele>255.0</ele><time>2026-05-02T13:44:16Z</time></trkpt><trkpt lat="41.81069496276693" lon="12.670729100587794"><ele>255.0</ele><time>2026-05-02T13:45:03.999Z</time></trkpt><trkpt lat="41.81077403990903" lon="12.670733535998764"><ele>255.0</ele><time>2026-05-02T13:48:02.999Z</time></trkpt><trkpt lat="41.81082200153395" lon="12.670567808643092"><ele>255.0</ele><time>2026-05-02T13:48:06.999Z</time></trkpt><trkpt lat="41.81075424597254" lon="12.670531995840955"><ele>255.0</ele><time>2026-05-02T13:48:09.999Z</time></trkpt><trkpt lat="41.81070866620187" lon="12.670598083800362"><ele>255.0</ele><time>2026-05-02T13:48:10.999Z</time></trkpt><trkpt lat="41.810603183678815" lon="12.670606352415417"><ele>255.0</ele><time>2026-05-02T13:48:11.999Z</time></trkpt><trkpt lat="41.81054697473003" lon="12.670708892413485"><ele>255.0</ele><time>2026-05-02T13:48:12.999Z</time></trkpt><trkpt lat="41.81049947191193" lon="12.670797468399387"><ele>255.0</ele><time>2026-05-02T13:48:13.999Z</time></trkpt><trkpt lat="41.81045236033988" lon="12.67088548332131"><ele>255.0</ele><time>2026-05-02T13:48:14.999Z</time></trkpt><trkpt lat="41.810414083820895" lon="12.670956649923959"><ele>255.0</ele><time>2026-05-02T13:48:15.999Z</time></trkpt><trkpt lat="41.81035904347517" lon="12.671057409906787"><ele>255.0</ele><time>2026-05-02T13:48:16.999Z</time></trkpt><trkpt lat="41.8102980933917" lon="12.671168988587562"><ele>255.0</ele><time>2026-05-02T13:48:17.999Z</time></trkpt><trkpt lat="41.810246304693536" lon="12.67130361912952"><ele>254.8</ele><time>2026-05-02T13:48:18.999Z</time></trkpt><trkpt lat="41.81018017644975" lon="12.671428374305256"><ele>254.6</ele><time>2026-05-02T13:48:19.999Z</time></trkpt><trkpt lat="41.810109093875106" lon="12.671513275675071"><ele>254.39999999999998</ele><time>2026-05-02T13:48:20.999Z</time></trkpt><trkpt lat="41.81005201211113" lon="12.671610675899958"><ele>254.2</ele><time>2026-05-02T13:48:21.999Z</time></trkpt><trkpt lat="41.810039159297" lon="12.671703930348842"><ele>254.0</ele><time>2026-05-02T13:48:22.999Z</time></trkpt><trkpt lat="41.81008668059482" lon="12.671589423479238"><ele>254.0</ele><time>2026-05-02T13:48:23.999Z</time></trkpt><trkpt lat="41.81014651158045" lon="12.67153077621176"><ele>253.99999999999997</ele><time>2026-05-02T13:48:24.999Z</time></trkpt><trkpt lat="41.81022175108539" lon="12.671400745856573"><ele>253.99999999999997</ele><time>2026-05-02T13:48:25.999Z</time></trkpt><trkpt lat="41.810175400659745" lon="12.671539744353243"><ele>254.0</ele><time>2026-05-02T13:48:27.999Z</time></trkpt><trkpt lat="41.810109226010816" lon="12.671642944641786"><ele>254.0</ele><time>2026-05-02T13:48:28.999Z</time></trkpt><trkpt lat="41.81005087453401" lon="12.67177775675287"><ele>256.0</ele><time>2026-05-02T13:48:30.999Z</time></trkpt><trkpt lat="41.81000393001058" lon="12.67188173569454"><ele>258.0</ele><time>2026-05-02T13:48:31.999Z</time></trkpt><trkpt lat="41.80996126349959" lon="12.671988132488108"><ele>260.0</ele><time>2026-05-02T13:48:32.999Z</time></trkpt><trkpt lat="41.80989413211108" lon="12.672089741014888"><ele>262.0</ele><time>2026-05-02T13:48:33.999Z</time></trkpt><trkpt lat="41.809820276538" lon="12.672180530798519"><ele>264.0</ele><time>2026-05-02T13:48:34.999Z</time></trkpt><trkpt lat="41.809730904613836" lon="12.672237002841765"><ele>264.0</ele><time>2026-05-02T13:48:35.999Z</time></trkpt><trkpt lat="41.809673893362834" lon="12.67233582222425"><ele>264.0</ele><time>2026-05-02T13:48:36.999Z</time></trkpt><trkpt lat="41.80961778899547" lon="12.672433068422729"><ele>264.0</ele><time>2026-05-02T13:48:37.999Z</time></trkpt><trkpt lat="41.80955907821913" lon="12.672533114680448"><ele>264.0</ele><time>2026-05-02T13:48:38.999Z</time></trkpt><trkpt lat="41.80950048404257" lon="12.67262942895904"><ele>264.0</ele><time>2026-05-02T13:48:39.999Z</time></trkpt><trkpt lat="41.80944379193056" lon="12.672721538819967"><ele>264.2</ele><time>2026-05-02T13:48:40.999Z</time></trkpt><trkpt lat="41.8093865909467" lon="12.672825721947106"><ele>264.4</ele><time>2026-05-02T13:48:41.999Z</time></trkpt><trkpt lat="41.80933326466547" lon="12.67292215291439"><ele>264.6</ele><time>2026-05-02T13:48:42.999Z</time></trkpt><trkpt lat="41.8092776296694" lon="12.673022758772198"><ele>264.8</ele><time>2026-05-02T13:48:43.999Z</time></trkpt><trkpt lat="41.80922475669488" lon="12.673121004733025"><ele>265.0</ele><time>2026-05-02T13:48:44.999Z</time></trkpt><trkpt lat="41.809176463061746" lon="12.673212220589589"><ele>266.8</ele><time>2026-05-02T13:48:45.999Z</time></trkpt><trkpt lat="41.80912277811902" lon="12.673316516748507"><ele>268.6</ele><time>2026-05-02T13:48:46.999Z</time></trkpt><trkpt lat="41.80906382369451" lon="12.673444996636876"><ele>270.4</ele><time>2026-05-02T13:48:47.999Z</time></trkpt><trkpt lat="41.80901144661189" lon="12.673584483122108"><ele>272.2</ele><time>2026-05-02T13:48:48.999Z</time></trkpt><trkpt lat="41.80896386697222" lon="12.673729003632918"><ele>274.0</ele><time>2026-05-02T13:48:49.999Z</time></trkpt><trkpt lat="41.808922361551495" lon="12.673875152236157"><ele>276.25</ele><time>2026-05-02T13:48:50.999Z</time></trkpt><trkpt lat="41.80885938539347" lon="12.67402618540577"><ele>278.5</ele><time>2026-05-02T13:48:51.999Z</time></trkpt><trkpt lat="41.80884982101599" lon="12.67418347861437"><ele>280.75</ele><time>2026-05-02T13:48:52.999Z</time></trkpt><trkpt lat="41.808839303886884" lon="12.674331063450232"><ele>283.0</ele><time>2026-05-02T13:48:53.999Z</time></trkpt><trkpt lat="41.8088116850955" lon="12.674478507318806"><ele>284.4</ele><time>2026-05-02T13:48:54.999Z</time></trkpt><trkpt lat="41.80878933230545" lon="12.674630097195072"><ele>285.8</ele><time>2026-05-02T13:48:55.999Z</time></trkpt><trkpt lat="41.80875240580646" lon="12.674777352444458"><ele>287.2</ele><time>2026-05-02T13:48:56.999Z</time></trkpt><trkpt lat="41.80873250964304" lon="12.674907352466418"><ele>288.6</ele><time>2026-05-02T13:48:57.999Z</time></trkpt><trkpt lat="41.80870986479502" lon="12.675032791540083"><ele>290.0</ele><time>2026-05-02T13:48:58.999Z</time></trkpt><trkpt lat="41.80867330082461" lon="12.67517018117015"><ele>291.6</ele><time>2026-05-02T13:48:59.999Z</time></trkpt><trkpt lat="41.80864450948716" lon="12.675297774003223"><ele>293.2</ele><time>2026-05-02T13:49:00.999Z</time></trkpt><trkpt lat="41.80860957056364" lon="12.675421192099238"><ele>294.8</ele><time>2026-05-02T13:49:01.999Z</time></trkpt><trkpt lat="41.80856865850124" lon="12.675549800333137"><ele>296.4</ele><time>2026-05-02T13:49:02.999Z</time></trkpt><trkpt lat="41.80853735020674" lon="12.675668545508588"><ele>298.0</ele><time>2026-05-02T13:49:03.999Z</time></trkpt><trkpt lat="41.80850314385542" lon="12.675769452412345"><ele>298.2</ele><time>2026-05-02T13:49:04.999Z</time></trkpt><trkpt lat="41.808420251269624" lon="12.675902569715632"><ele>298.4</ele><time>2026-05-02T13:49:06.999Z</time></trkpt><trkpt lat="41.80839033257506" lon="12.676030476602504"><ele>298.59999999999997</ele><time>2026-05-02T13:49:08.999Z</time></trkpt><trkpt lat="41.808403234010775" lon="12.676141596112569"><ele>298.8</ele><time>2026-05-02T13:49:11.999Z</time></trkpt><trkpt lat="41.80840155637704" lon="12.676239220265495"><ele>299.0</ele><time>2026-05-02T13:49:12.999Z</time></trkpt><trkpt lat="41.80848472440356" lon="12.67632391768844"><ele>299.2</ele><time>2026-05-02T13:49:14.999Z</time></trkpt><trkpt lat="41.80852104539846" lon="12.67643004278191"><ele>299.4</ele><time>2026-05-02T13:49:16.999Z</time></trkpt><trkpt lat="41.80858159612881" lon="12.676528694529173"><ele>299.6</ele><time>2026-05-02T13:49:22.999Z</time></trkpt><trkpt lat="41.80866181011841" lon="12.67664539588498"><ele>299.8</ele><time>2026-05-02T13:49:24.999Z</time></trkpt><trkpt lat="41.80872128565178" lon="12.676712155724642"><ele>300.0</ele><time>2026-05-02T13:49:25.999Z</time></trkpt><trkpt lat="41.80879224465107" lon="12.676787202603402"><ele>300.0</ele><time>2026-05-02T13:49:26.999Z</time></trkpt><trkpt lat="41.8088581864883" lon="12.676867311367156"><ele>300.0</ele><time>2026-05-02T13:49:27.999Z</time></trkpt><trkpt lat="41.80897979262854" lon="12.677035054009428"><ele>300.0</ele><time>2026-05-02T13:49:28.999Z</time></trkpt><trkpt lat="41.80909961932152" lon="12.677128159118238"><ele>300.0</ele><time>2026-05-02T13:49:29.999Z</time></trkpt><trkpt lat="41.80920986990141" lon="12.677190555441454"><ele>300.8</ele><time>2026-05-02T13:49:31.064Z</time></trkpt><trkpt lat="41.809306979557114" lon="12.677276739569702"><ele>301.6</ele><time>2026-05-02T13:49:32.034Z</time></trkpt><trkpt lat="41.80940798972661" lon="12.677370145128824"><ele>302.4</ele><time>2026-05-02T13:49:32.999Z</time></trkpt><trkpt lat="41.80948866570724" lon="12.677440361292948"><ele>303.2</ele><time>2026-05-02T13:49:33.999Z</time></trkpt><trkpt lat="41.80955816787207" lon="12.677501972919726"><ele>304.0</ele><time>2026-05-02T13:49:34.999Z</time></trkpt><trkpt lat="41.809363641476004" lon="12.6772126352399"><ele>304.0</ele><time>2026-05-02T13:49:37.063Z</time></trkpt><trkpt lat="41.80991324224108" lon="12.677663193137706"><ele>304.0</ele><time>2026-05-02T13:49:42.065Z</time></trkpt><trkpt lat="41.80997721132799" lon="12.677731389850132"><ele>304.0</ele><time>2026-05-02T13:49:44.051Z</time></trkpt><trkpt lat="41.810046135656656" lon="12.677811185940953"><ele>304.0</ele><time>2026-05-02T13:49:46.034Z</time></trkpt><trkpt lat="41.81020120642731" lon="12.677949543167008"><ele>304.0</ele><time>2026-05-02T13:49:49.029Z</time></trkpt><trkpt lat="41.81022309188051" lon="12.678065682529773"><ele>304.0</ele><time>2026-05-02T13:49:51.029Z</time></trkpt><trkpt lat="41.810122140681784" lon="12.67797276411505"><ele>304.0</ele><time>2026-05-02T13:49:52.028Z</time></trkpt><trkpt lat="41.809973643404454" lon="12.677836084834183"><ele>304.0</ele><time>2026-05-02T13:49:53.025Z</time></trkpt><trkpt lat="41.80976561713456" lon="12.677654769940546"><ele>304.0</ele><time>2026-05-02T13:49:54.025Z</time></trkpt><trkpt lat="41.80970042108823" lon="12.677593892809881"><ele>304.0</ele><time>2026-05-02T13:49:55.023Z</time></trkpt><trkpt lat="41.80977312546122" lon="12.677599714950777"><ele>304.0</ele><time>2026-05-02T13:49:59.022Z</time></trkpt><trkpt lat="41.81008242353" lon="12.677829499322257"><ele>304.0</ele><time>2026-05-02T13:50:00.021Z</time></trkpt><trkpt lat="41.810140295091585" lon="12.677869987823454"><ele>307.0</ele><time>2026-05-02T13:50:03.02Z</time></trkpt><trkpt lat="41.80903226828438" lon="12.67772637991286"><ele>318.0</ele><time>2026-05-02T13:50:16.246Z</time></trkpt><trkpt lat="41.80803750958926" lon="12.677867633223388"><ele>323.0</ele><time>2026-05-02T13:50:20.685Z</time></trkpt><trkpt lat="41.806693510564024" lon="12.679192823938793"><ele>323.0</ele><time>2026-05-02T13:50:35.094Z</time></trkpt><trkpt lat="41.80664035315658" lon="12.679257902927809"><ele>323.0</ele><time>2026-05-02T13:50:42.086Z</time></trkpt><trkpt lat="41.804988289586106" lon="12.676613635450765"><ele>323.5</ele><time>2026-05-02T13:51:40.086Z</time></trkpt><trkpt lat="41.805020774928295" lon="12.677102179983901"><ele>324.0</ele><time>2026-05-02T13:51:51.248Z</time></trkpt><trkpt lat="41.80604922304631" lon="12.679461249634542"><ele>323.5</ele><time>2026-05-02T13:52:11.431Z</time></trkpt><trkpt lat="41.80617786310333" lon="12.67975079879782"><ele>323.0</ele><time>2026-05-02T13:52:13.932Z</time></trkpt><trkpt lat="41.8066400565623" lon="12.679240998627469"><ele>329.0</ele><time>2026-05-02T13:52:18.419Z</time></trkpt><trkpt lat="41.805795701918036" lon="12.680183958770664"><ele>332.0</ele><time>2026-05-02T13:52:35.979Z</time></trkpt><trkpt lat="41.80608799587783" lon="12.68004417285473"><ele>335.0</ele><time>2026-05-02T13:52:59.984Z</time></trkpt><trkpt lat="41.80626889778137" lon="12.679978397848402"><ele>335.0</ele><time>2026-05-02T13:53:06.992Z</time></trkpt><trkpt lat="41.80634259371903" lon="12.679986005869418"><ele>335.0</ele><time>2026-05-02T13:53:30.395Z</time></trkpt><trkpt lat="41.80689720664648" lon="12.680128235068022"><ele>335.0</ele><time>2026-05-02T13:53:35.731Z</time></trkpt><trkpt lat="41.80654549067616" lon="12.67989763269291"><ele>335.0</ele><time>2026-05-02T13:53:47.913Z</time></trkpt><trkpt lat="41.806378669637596" lon="12.679921432056522"><ele>335.0</ele><time>2026-05-02T13:53:54.939Z</time></trkpt><trkpt lat="41.806258285829706" lon="12.679942757922031"><ele>335.0</ele><time>2026-05-02T13:53:57.149Z</time></trkpt><trkpt lat="41.80683587009848" lon="12.679650446653087"><ele>335.99999999999994</ele><time>2026-05-02T13:54:06.998Z</time></trkpt><trkpt lat="41.80690471146767" lon="12.67963457852596"><ele>337.0</ele><time>2026-05-02T13:54:43Z</time></trkpt><trkpt lat="41.80684008918153" lon="12.679637966632239"><ele>338.0</ele><time>2026-05-02T13:58:37.001Z</time></trkpt><trkpt lat="41.80686991841034" lon="12.679714838029291"><ele>339.0</ele><time>2026-05-02T13:58:47Z</time></trkpt><trkpt lat="41.80694182864229" lon="12.679785133374983"><ele>340.0</ele><time>2026-05-02T14:00:07Z</time></trkpt><trkpt lat="41.80698540432979" lon="12.679846562415078"><ele>340.99999999999994</ele><time>2026-05-02T14:00:18.999Z</time></trkpt><trkpt lat="41.807025368740014" lon="12.679925041906689"><ele>342.0</ele><time>2026-05-02T14:00:27.999Z</time></trkpt><trkpt lat="41.807102757155846" lon="12.680014682541156"><ele>341.99999999999994</ele><time>2026-05-02T14:00:41Z</time></trkpt><trkpt lat="41.80714766109463" lon="12.680084553173824"><ele>342.0</ele><time>2026-05-02T14:00:50Z</time></trkpt><trkpt lat="41.807194409314896" lon="12.68014960181185"><ele>342.0</ele><time>2026-05-02T14:01:04Z</time></trkpt><trkpt lat="41.8072450980756" lon="12.680216300088691"><ele>342.0</ele><time>2026-05-02T14:01:13Z</time></trkpt><trkpt lat="41.807306200804554" lon="12.680248752055427"><ele>342.0</ele><time>2026-05-02T14:01:26Z</time></trkpt><trkpt lat="41.80736948230175" lon="12.680301742420689"><ele>341.99999999999994</ele><time>2026-05-02T14:01:35Z</time></trkpt><trkpt lat="41.807415182689496" lon="12.680362621075542"><ele>342.0</ele><time>2026-05-02T14:01:46Z</time></trkpt><trkpt lat="41.80746308382217" lon="12.680430274669877"><ele>342.1428571428571</ele><time>2026-05-02T14:01:55.999Z</time></trkpt><trkpt lat="41.80752466784202" lon="12.68046449227517"><ele>342.2857142857143</ele><time>2026-05-02T14:02:05.999Z</time></trkpt><trkpt lat="41.80757730664358" lon="12.68052367894327"><ele>342.42857142857144</ele><time>2026-05-02T14:02:14.999Z</time></trkpt><trkpt lat="41.8076460524734" lon="12.68053411459098"><ele>342.57142857142856</ele><time>2026-05-02T14:02:27.999Z</time></trkpt><trkpt lat="41.807707559847195" lon="12.68057305510348"><ele>342.7142857142857</ele><time>2026-05-02T14:02:59Z</time></trkpt><trkpt lat="41.807754777064396" lon="12.6806332318246"><ele>342.85714285714283</ele><time>2026-05-02T14:03:15Z</time></trkpt><trkpt lat="41.807808756946045" lon="12.680678485817438"><ele>343.0</ele><time>2026-05-02T14:03:27Z</time></trkpt><trkpt lat="41.80787149372124" lon="12.68071444423072"><ele>343.0</ele><time>2026-05-02T14:03:36.999Z</time></trkpt><trkpt lat="41.807926339319" lon="12.680772759081004"><ele>343.0</ele><time>2026-05-02T14:03:55.999Z</time></trkpt><trkpt lat="41.807978856026246" lon="12.680830235389275"><ele>343.0</ele><time>2026-05-02T14:04:04.999Z</time></trkpt><trkpt lat="41.80804172800836" lon="12.680873185857005"><ele>343.0</ele><time>2026-05-02T14:04:16.999Z</time></trkpt><trkpt lat="41.8081038293499" lon="12.680907640175821"><ele>343.0</ele><time>2026-05-02T14:04:30.999Z</time></trkpt><trkpt lat="41.808146817358065" lon="12.680842524986813"><ele>343.0</ele><time>2026-05-02T14:04:46.998Z</time></trkpt><trkpt lat="41.80826906184932" lon="12.680735342352206"><ele>343.0</ele><time>2026-05-02T14:05:03.998Z</time></trkpt><trkpt lat="41.80832861170656" lon="12.680678422972566"><ele>343.0</ele><time>2026-05-02T14:05:53.999Z</time></trkpt><trkpt lat="41.80837434699093" lon="12.680619632269961"><ele>343.0</ele><time>2026-05-02T14:06:02.999Z</time></trkpt><trkpt lat="41.80839062125054" lon="12.680535605880776"><ele>343.0</ele><time>2026-05-02T14:06:13.998Z</time></trkpt><trkpt lat="41.808370503567026" lon="12.680439394029543"><ele>343.0</ele><time>2026-05-02T14:06:45.998Z</time></trkpt><trkpt lat="41.80831619095782" lon="12.680391130290959"><ele>343.0</ele><time>2026-05-02T14:06:57.996Z</time></trkpt><trkpt lat="41.808242254766604" lon="12.680380756630477"><ele>343.0</ele><time>2026-05-02T14:07:14.997Z</time></trkpt><trkpt lat="41.80822881369656" lon="12.680289510527471"><ele>342.4</ele><time>2026-05-02T14:07:31.998Z</time></trkpt><trkpt lat="41.808175466693534" lon="12.680241055409954"><ele>341.79999999999995</ele><time>2026-05-02T14:07:38.998Z</time></trkpt><trkpt lat="41.80815344353782" lon="12.680161577915715"><ele>341.2</ele><time>2026-05-02T14:08:29.998Z</time></trkpt><trkpt lat="41.80819090634797" lon="12.680089957780003"><ele>340.6</ele><time>2026-05-02T14:08:39.998Z</time></trkpt><trkpt lat="41.8081889793409" lon="12.679999428455863"><ele>340.0</ele><time>2026-05-02T14:08:51.998Z</time></trkpt><trkpt lat="41.80834271301741" lon="12.679770431573571"><ele>340.0</ele><time>2026-05-02T14:09:16.998Z</time></trkpt><trkpt lat="41.80837448514836" lon="12.679622915638168"><ele>340.0</ele><time>2026-05-02T14:09:48.999Z</time></trkpt><trkpt lat="41.808405629467536" lon="12.679540823358224"><ele>340.0</ele><time>2026-05-02T14:09:56.999Z</time></trkpt><trkpt lat="41.80843509497395" lon="12.679459823525901"><ele>340.0</ele><time>2026-05-02T14:10:02.999Z</time></trkpt><trkpt lat="41.808485963592354" lon="12.679405575595691"><ele>340.0</ele><time>2026-05-02T14:10:12.999Z</time></trkpt><trkpt lat="41.80848833230672" lon="12.679491096564698"><ele>340.0</ele><time>2026-05-02T14:11:18.999Z</time></trkpt><trkpt lat="41.808463104165554" lon="12.679571723381429"><ele>340.0</ele><time>2026-05-02T14:11:26.999Z</time></trkpt><trkpt lat="41.80850691028804" lon="12.679635486474211"><ele>339.42857142857144</ele><time>2026-05-02T14:11:40.999Z</time></trkpt><trkpt lat="41.80856204558423" lon="12.67970339856353"><ele>338.85714285714283</ele><time>2026-05-02T14:11:51Z</time></trkpt><trkpt lat="41.80861387816677" lon="12.679766121805747"><ele>338.2857142857143</ele><time>2026-05-02T14:12:02Z</time></trkpt><trkpt lat="41.80867866582215" lon="12.67977144429871"><ele>337.7142857142857</ele><time>2026-05-02T14:12:09Z</time></trkpt><trkpt lat="41.80872414918398" lon="12.679838933022056"><ele>337.1428571428571</ele><time>2026-05-02T14:12:20Z</time></trkpt><trkpt lat="41.808773670295636" lon="12.679897368435283"><ele>336.57142857142856</ele><time>2026-05-02T14:12:27Z</time></trkpt><trkpt lat="41.80883221861072" lon="12.679945316034516"><ele>336.0</ele><time>2026-05-02T14:12:36Z</time></trkpt><trkpt lat="41.80885264204238" lon="12.680033657527245"><ele>336.0</ele><time>2026-05-02T14:12:44.001Z</time></trkpt><trkpt lat="41.80890857122476" lon="12.680075599111483"><ele>336.0</ele><time>2026-05-02T14:12:53.001Z</time></trkpt><trkpt lat="41.808971394550866" lon="12.680063844724009"><ele>336.0</ele><time>2026-05-02T14:13:03.001Z</time></trkpt><trkpt lat="41.80904666005831" lon="12.679967326625597"><ele>336.0</ele><time>2026-05-02T14:13:24.999Z</time></trkpt><trkpt lat="41.809073188888995" lon="12.679880411847845"><ele>336.0</ele><time>2026-05-02T14:13:35Z</time></trkpt><trkpt lat="41.809099532324346" lon="12.679801385220989"><ele>336.0</ele><time>2026-05-02T14:13:43Z</time></trkpt><trkpt lat="41.80913448083052" lon="12.679728197752503"><ele>336.0</ele><time>2026-05-02T14:13:53Z</time></trkpt><trkpt lat="41.80922810444416" lon="12.679711956643088"><ele>336.0</ele><time>2026-05-02T14:14:21.001Z</time></trkpt><trkpt lat="41.809295488969845" lon="12.67972928884756"><ele>336.0</ele><time>2026-05-02T14:14:29.001Z</time></trkpt><trkpt lat="41.80934880054421" lon="12.679790618393124"><ele>336.0</ele><time>2026-05-02T14:14:50.001Z</time></trkpt><trkpt lat="41.80941120602013" lon="12.67984125308442"><ele>336.0</ele><time>2026-05-02T14:15:02.002Z</time></trkpt><trkpt lat="41.80946841433608" lon="12.679890803669887"><ele>336.0</ele><time>2026-05-02T14:15:12Z</time></trkpt><trkpt lat="41.80953300247307" lon="12.679936305916408"><ele>336.0</ele><time>2026-05-02T14:15:27Z</time></trkpt><trkpt lat="41.80957912227897" lon="12.68000989858884"><ele>336.0</ele><time>2026-05-02T14:15:57.001Z</time></trkpt><trkpt lat="41.80962209369637" lon="12.680091233181232"><ele>334.42857142857144</ele><time>2026-05-02T14:16:02.001Z</time></trkpt><trkpt lat="41.809680408666395" lon="12.680137914149196"><ele>332.8571428571429</ele><time>2026-05-02T14:16:08.001Z</time></trkpt><trkpt lat="41.809755903033384" lon="12.680119732057761"><ele>331.2857142857143</ele><time>2026-05-02T14:17:19.999Z</time></trkpt><trkpt lat="41.809778684091775" lon="12.680033951964255"><ele>329.7142857142857</ele><time>2026-05-02T14:18:37.001Z</time></trkpt><trkpt lat="41.80980944027315" lon="12.679958766062668"><ele>328.14285714285717</ele><time>2026-05-02T14:18:48.001Z</time></trkpt><trkpt lat="41.80982972345811" lon="12.679873772474858"><ele>326.57142857142856</ele><time>2026-05-02T14:18:57.001Z</time></trkpt><trkpt lat="41.809821398590245" lon="12.67978151439068"><ele>325.0</ele><time>2026-05-02T14:19:48Z</time></trkpt><trkpt lat="41.80980497483761" lon="12.679685532879834"><ele>325.0</ele><time>2026-05-02T14:20:02.001Z</time></trkpt><trkpt lat="41.80977241760361" lon="12.679613216520655"><ele>325.0</ele><time>2026-05-02T14:20:09.001Z</time></trkpt><trkpt lat="41.80974462314968" lon="12.679531323517507"><ele>325.0</ele><time>2026-05-02T14:20:41.001Z</time></trkpt><trkpt lat="41.80969389385108" lon="12.67947313178239"><ele>325.0</ele><time>2026-05-02T14:20:54.002Z</time></trkpt><trkpt lat="41.80966413878677" lon="12.679398665737025"><ele>325.0</ele><time>2026-05-02T14:21:02.002Z</time></trkpt><trkpt lat="41.80960135069191" lon="12.679378695740548"><ele>325.0</ele><time>2026-05-02T14:24:26.002Z</time></trkpt><trkpt lat="41.80958184408618" lon="12.679287142195077"><ele>325.0</ele><time>2026-05-02T14:24:33.002Z</time></trkpt><trkpt lat="41.80951084509927" lon="12.679278120922072"><ele>325.0</ele><time>2026-05-02T14:24:46.002Z</time></trkpt><trkpt lat="41.80944477281474" lon="12.679283308093414"><ele>325.0</ele><time>2026-05-02T14:24:54.002Z</time></trkpt><trkpt lat="41.80939247593258" lon="12.679331161562036"><ele>325.0</ele><time>2026-05-02T14:25:01.002Z</time></trkpt><trkpt lat="41.80938083666509" lon="12.679414962812967"><ele>325.0</ele><time>2026-05-02T14:25:17.002Z</time></trkpt><trkpt lat="41.80935377953192" lon="12.67950474686815"><ele>325.0</ele><time>2026-05-02T14:25:40.004Z</time></trkpt><trkpt lat="41.80932055890537" lon="12.679622118290297"><ele>325.0</ele><time>2026-05-02T14:26:01.003Z</time></trkpt><trkpt lat="41.80928192719495" lon="12.679696641927999"><ele>325.0</ele><time>2026-05-02T14:26:12.002Z</time></trkpt><trkpt lat="41.809287467620514" lon="12.679786525632734"><ele>325.0</ele><time>2026-05-02T14:27:04.002Z</time></trkpt><trkpt lat="41.80936369513477" lon="12.679819886248124"><ele>325.0</ele><time>2026-05-02T14:27:10.002Z</time></trkpt><trkpt lat="41.809481698578566" lon="12.679866776862626"><ele>325.0</ele><time>2026-05-02T14:27:20.002Z</time></trkpt><trkpt lat="41.80952042046597" lon="12.679946601639895"><ele>325.0</ele><time>2026-05-02T14:27:27.002Z</time></trkpt><trkpt lat="41.8095749300009" lon="12.679994643432183"><ele>325.0</ele><time>2026-05-02T14:27:34.002Z</time></trkpt><trkpt lat="41.80961379107763" lon="12.680063254705432"><ele>325.0</ele><time>2026-05-02T14:27:39.003Z</time></trkpt><trkpt lat="41.80968002735277" lon="12.680091402513574"><ele>325.0</ele><time>2026-05-02T14:27:46.004Z</time></trkpt><trkpt lat="41.809616775041995" lon="12.680055699681686"><ele>325.0</ele><time>2026-05-02T14:28:15.002Z</time></trkpt><trkpt lat="41.80955207734015" lon="12.680042982668185"><ele>325.0</ele><time>2026-05-02T14:28:22.002Z</time></trkpt><trkpt lat="41.80951414110459" lon="12.67996994411041"><ele>325.0</ele><time>2026-05-02T14:28:28.002Z</time></trkpt><trkpt lat="41.8094718543995" lon="12.679903398382368"><ele>325.0</ele><time>2026-05-02T14:28:34.002Z</time></trkpt><trkpt lat="41.809414594594955" lon="12.679843730803343"><ele>325.0</ele><time>2026-05-02T14:28:41.002Z</time></trkpt><trkpt lat="41.809355136118704" lon="12.679802586063099"><ele>325.0</ele><time>2026-05-02T14:28:51.002Z</time></trkpt><trkpt lat="41.80929376489495" lon="12.679771831396087"><ele>326.57142857142856</ele><time>2026-05-02T14:28:57.002Z</time></trkpt><trkpt lat="41.809226437638955" lon="12.67975273258167"><ele>328.14285714285717</ele><time>2026-05-02T14:29:04.002Z</time></trkpt><trkpt lat="41.8091614123336" lon="12.67972522240352"><ele>329.7142857142857</ele><time>2026-05-02T14:29:14.002Z</time></trkpt><trkpt lat="41.80912027628066" lon="12.679792922974459"><ele>331.2857142857143</ele><time>2026-05-02T14:29:35.002Z</time></trkpt><trkpt lat="41.80907978442217" lon="12.679866466860505"><ele>332.8571428571429</ele><time>2026-05-02T14:29:45.002Z</time></trkpt><trkpt lat="41.80903504230575" lon="12.679947105332133"><ele>334.42857142857144</ele><time>2026-05-02T14:29:56.003Z</time></trkpt><trkpt lat="41.80900584021522" lon="12.680023688350008"><ele>336.0</ele><time>2026-05-02T14:30:03.003Z</time></trkpt><trkpt lat="41.80899723433625" lon="12.680122687457146"><ele>336.0</ele><time>2026-05-02T14:30:14.002Z</time></trkpt><trkpt lat="41.8089625953293" lon="12.680198494934578"><ele>336.0</ele><time>2026-05-02T14:30:27.002Z</time></trkpt><trkpt lat="41.80892146288378" lon="12.680272083627777"><ele>336.0</ele><time>2026-05-02T14:30:33.001Z</time></trkpt><trkpt lat="41.808880285131885" lon="12.680338687318098"><ele>336.0</ele><time>2026-05-02T14:30:38.001Z</time></trkpt><trkpt lat="41.80884488946553" lon="12.680419921171643"><ele>336.0</ele><time>2026-05-02T14:30:43.001Z</time></trkpt><trkpt lat="41.80881882394538" lon="12.680497832987712"><ele>336.0</ele><time>2026-05-02T14:30:50.001Z</time></trkpt><trkpt lat="41.80876957272325" lon="12.68056395916509"><ele>336.0</ele><time>2026-05-02T14:30:58.001Z</time></trkpt><trkpt lat="41.808704527965176" lon="12.680648174541878"><ele>336.2857142857143</ele><time>2026-05-02T14:31:23.001Z</time></trkpt><trkpt lat="41.808668733717155" lon="12.680730591234942"><ele>336.57142857142856</ele><time>2026-05-02T14:31:31.001Z</time></trkpt><trkpt lat="41.80860496056678" lon="12.680713902370226"><ele>336.8571428571429</ele><time>2026-05-02T14:31:46.001Z</time></trkpt><trkpt lat="41.8085557890315" lon="12.680657858112507"><ele>337.1428571428571</ele><time>2026-05-02T14:31:52.001Z</time></trkpt><trkpt lat="41.80850126588101" lon="12.680612922679378"><ele>337.42857142857144</ele><time>2026-05-02T14:31:57.001Z</time></trkpt><trkpt lat="41.80845095441432" lon="12.680554275966447"><ele>337.7142857142857</ele><time>2026-05-02T14:32:06.002Z</time></trkpt><trkpt lat="41.80838829045584" lon="12.680544336600166"><ele>338.0</ele><time>2026-05-02T14:32:22.001Z</time></trkpt><trkpt lat="41.80832930165669" lon="12.680576773839"><ele>338.7142857142857</ele><time>2026-05-02T14:32:39.001Z</time></trkpt><trkpt lat="41.80828993819021" lon="12.680647065239668"><ele>339.42857142857144</ele><time>2026-05-02T14:32:46.001Z</time></trkpt><trkpt lat="41.808234754984966" lon="12.680699006799095"><ele>340.1428571428571</ele><time>2026-05-02T14:32:57.001Z</time></trkpt><trkpt lat="41.80817898102638" lon="12.680758407688577"><ele>340.8571428571429</ele><time>2026-05-02T14:33:06Z</time></trkpt><trkpt lat="41.8081273767663" lon="12.680822140018172"><ele>341.57142857142856</ele><time>2026-05-02T14:33:13Z</time></trkpt><trkpt lat="41.80806974130963" lon="12.680864620651214"><ele>342.2857142857143</ele><time>2026-05-02T14:33:23Z</time></trkpt><trkpt lat="41.80799397277412" lon="12.68086672179716"><ele>343.0</ele><time>2026-05-02T14:33:29Z</time></trkpt><trkpt lat="41.8079280988159" lon="12.680854335166478"><ele>343.0</ele><time>2026-05-02T14:33:37Z</time></trkpt><trkpt lat="41.80787810248009" lon="12.680786940322873"><ele>343.0</ele><time>2026-05-02T14:33:51Z</time></trkpt><trkpt lat="41.80786630504367" lon="12.68069700915666"><ele>343.0</ele><time>2026-05-02T14:34:00Z</time></trkpt><trkpt lat="41.807828317535765" lon="12.68061069046767"><ele>343.0</ele><time>2026-05-02T14:34:09.002Z</time></trkpt><trkpt lat="41.80779283422698" lon="12.680528194548762"><ele>343.0</ele><time>2026-05-02T14:34:24.001Z</time></trkpt><trkpt lat="41.807721917193255" lon="12.680535939120693"><ele>343.0</ele><time>2026-05-02T14:34:32.001Z</time></trkpt><trkpt lat="41.80765978696977" lon="12.680554485369402"><ele>343.0</ele><time>2026-05-02T14:34:40Z</time></trkpt><trkpt lat="41.807627108838076" lon="12.680479707848896"><ele>342.85714285714283</ele><time>2026-05-02T14:34:50Z</time></trkpt><trkpt lat="41.807560325409696" lon="12.680453563816844"><ele>342.7142857142857</ele><time>2026-05-02T14:34:59Z</time></trkpt><trkpt lat="41.80746837869553" lon="12.680414439899064"><ele>342.57142857142856</ele><time>2026-05-02T14:35:10Z</time></trkpt><trkpt lat="41.8074210696139" lon="12.680353949691948"><ele>342.42857142857144</ele><time>2026-05-02T14:35:21Z</time></trkpt><trkpt lat="41.80738099131026" lon="12.680282151921027"><ele>342.2857142857143</ele><time>2026-05-02T14:35:27Z</time></trkpt><trkpt lat="41.8073128099456" lon="12.680233924672843"><ele>342.1428571428571</ele><time>2026-05-02T14:35:42Z</time></trkpt><trkpt lat="41.807243988541565" lon="12.68020201915793"><ele>342.0</ele><time>2026-05-02T14:35:48.999Z</time></trkpt><trkpt lat="41.807187945881196" lon="12.680158183862504"><ele>341.99999999999994</ele><time>2026-05-02T14:35:54.999Z</time></trkpt><trkpt lat="41.80713033726018" lon="12.680116742394151"><ele>342.0</ele><time>2026-05-02T14:35:59.999Z</time></trkpt><trkpt lat="41.80709036760571" lon="12.680049602148456"><ele>342.0</ele><time>2026-05-02T14:36:06.999Z</time></trkpt><trkpt lat="41.80703856375807" lon="12.679983642531415"><ele>342.0</ele><time>2026-05-02T14:36:40Z</time></trkpt><trkpt lat="41.80699979223802" lon="12.679904670407208"><ele>342.0</ele><time>2026-05-02T14:36:51Z</time></trkpt><trkpt lat="41.806952657954604" lon="12.679843247373801"><ele>341.99999999999994</ele><time>2026-05-02T14:37:03Z</time></trkpt><trkpt lat="41.80689294486959" lon="12.67979844948619"><ele>342.0</ele><time>2026-05-02T14:37:13Z</time></trkpt><trkpt lat="41.80684766873708" lon="12.67973522781473"><ele>342.0</ele><time>2026-05-02T14:37:23.999Z</time></trkpt><trkpt lat="41.80683441248598" lon="12.679649482586779"><ele>342.0</ele><time>2026-05-02T14:37:43.999Z</time></trkpt><trkpt lat="41.8067782059462" lon="12.67961140884489"><ele>342.0</ele><time>2026-05-02T14:37:51.999Z</time></trkpt><trkpt lat="41.806706945122" lon="12.679608937680655"><ele>342.0</ele><time>2026-05-02T14:38:04.999Z</time></trkpt><trkpt lat="41.80664121479633" lon="12.679600094011219"><ele>342.0</ele><time>2026-05-02T14:38:09.999Z</time></trkpt><trkpt lat="41.80658802921849" lon="12.679554454606247"><ele>342.0</ele><time>2026-05-02T14:38:34Z</time></trkpt><trkpt lat="41.80671067779343" lon="12.679542009781084"><ele>341.99999999999994</ele><time>2026-05-02T14:41:38.999Z</time></trkpt><trkpt lat="41.806770903888285" lon="12.679569359896238"><ele>342.0</ele><time>2026-05-02T14:41:43.998Z</time></trkpt><trkpt lat="41.80685552633708" lon="12.679574933850175"><ele>342.0</ele><time>2026-05-02T14:41:56.998Z</time></trkpt><trkpt lat="41.80690206039463" lon="12.679633217581397"><ele>342.0</ele><time>2026-05-02T14:42:04.998Z</time></trkpt><trkpt lat="41.806842151507894" lon="12.679659818459005"><ele>342.0</ele><time>2026-05-02T14:46:30.998Z</time></trkpt><trkpt lat="41.806780511537816" lon="12.679707830687693"><ele>341.99999999999994</ele><time>2026-05-02T14:47:03.998Z</time></trkpt><trkpt lat="41.80670702440231" lon="12.679747068511558"><ele>342.0</ele><time>2026-05-02T14:47:07.998Z</time></trkpt><trkpt lat="41.80665050157383" lon="12.679673460608155"><ele>340.8333333333333</ele><time>2026-05-02T14:47:09.998Z</time></trkpt><trkpt lat="41.80659452984816" lon="12.679620272887279"><ele>339.6666666666667</ele><time>2026-05-02T14:47:11.999Z</time></trkpt><trkpt lat="41.80652964916355" lon="12.679585947133084"><ele>338.5</ele><time>2026-05-02T14:47:13.999Z</time></trkpt><trkpt lat="41.80642015085774" lon="12.679494250183936"><ele>337.33333333333337</ele><time>2026-05-02T14:47:15.999Z</time></trkpt><trkpt lat="41.80635394293179" lon="12.679426144261233"><ele>336.1666666666667</ele><time>2026-05-02T14:47:16.999Z</time></trkpt><trkpt lat="41.80628610824528" lon="12.679370024261482"><ele>335.0</ele><time>2026-05-02T14:47:17.999Z</time></trkpt><trkpt lat="41.80618248797117" lon="12.679251288799398"><ele>333.8</ele><time>2026-05-02T14:47:19.999Z</time></trkpt><trkpt lat="41.80604905527598" lon="12.679408400102753"><ele>332.6</ele><time>2026-05-02T14:47:22.999Z</time></trkpt><trkpt lat="41.80598685868256" lon="12.679434480582733"><ele>331.4</ele><time>2026-05-02T14:47:23.999Z</time></trkpt><trkpt lat="41.80591355111415" lon="12.679549256780009"><ele>330.2</ele><time>2026-05-02T14:47:24.999Z</time></trkpt><trkpt lat="41.805839131030815" lon="12.679603696905186"><ele>329.0</ele><time>2026-05-02T14:47:26.999Z</time></trkpt><trkpt lat="41.80575519231842" lon="12.679684241805226"><ele>329.0</ele><time>2026-05-02T14:47:28.999Z</time></trkpt><trkpt lat="41.80570411066067" lon="12.679761317084886"><ele>329.0</ele><time>2026-05-02T14:47:30.999Z</time></trkpt><trkpt lat="41.80561729225705" lon="12.679857315828224"><ele>329.0</ele><time>2026-05-02T14:47:32.999Z</time></trkpt><trkpt lat="41.80551604005559" lon="12.679984776519667"><ele>329.0</ele><time>2026-05-02T14:47:34.999Z</time></trkpt><trkpt lat="41.8054659764004" lon="12.680083315615228"><ele>329.0</ele><time>2026-05-02T14:47:35.999Z</time></trkpt><trkpt lat="41.80541681968425" lon="12.680164926945789"><ele>329.0</ele><time>2026-05-02T14:47:36.999Z</time></trkpt><trkpt lat="41.805368875824364" lon="12.680237729691545"><ele>329.0</ele><time>2026-05-02T14:47:38.999Z</time></trkpt><trkpt lat="41.805278476185116" lon="12.680294893824554"><ele>329.0</ele><time>2026-05-02T14:47:40.999Z</time></trkpt><trkpt lat="41.80522926417906" lon="12.680385791740076"><ele>329.0</ele><time>2026-05-02T14:47:42.999Z</time></trkpt><trkpt lat="41.80535883796953" lon="12.680521127692376"><ele>329.0</ele><time>2026-05-02T14:47:46.999Z</time></trkpt><trkpt lat="41.80541532015895" lon="12.680582666502614"><ele>330.6</ele><time>2026-05-02T14:47:54.999Z</time></trkpt><trkpt lat="41.80545120222329" lon="12.680658274249451"><ele>332.2</ele><time>2026-05-02T14:50:30.999Z</time></trkpt><trkpt lat="41.80553459144724" lon="12.680696313150001"><ele>333.8</ele><time>2026-05-02T14:50:34.999Z</time></trkpt><trkpt lat="41.80559427207917" lon="12.680730847886855"><ele>335.40000000000003</ele><time>2026-05-02T14:50:37Z</time></trkpt><trkpt lat="41.80580196000466" lon="12.680613024158074"><ele>337.0</ele><time>2026-05-02T14:50:43Z</time></trkpt><trkpt lat="41.805892690840075" lon="12.680506267071369"><ele>337.0</ele><time>2026-05-02T14:50:45Z</time></trkpt><trkpt lat="41.80597230117965" lon="12.68040438235543"><ele>337.0</ele><time>2026-05-02T14:50:47Z</time></trkpt><trkpt lat="41.8060156806702" lon="12.680310194283095"><ele>337.0</ele><time>2026-05-02T14:50:51Z</time></trkpt><trkpt lat="41.80608891812144" lon="12.680240177860608"><ele>337.0</ele><time>2026-05-02T14:50:54Z</time></trkpt><trkpt lat="41.806151868165664" lon="12.680167738337433"><ele>337.0</ele><time>2026-05-02T14:50:57Z</time></trkpt><trkpt lat="41.80621789570304" lon="12.680093784925367"><ele>336.6</ele><time>2026-05-02T14:50:59Z</time></trkpt><trkpt lat="41.8063016255227" lon="12.680001158763513"><ele>336.20000000000005</ele><time>2026-05-02T14:51:01Z</time></trkpt><trkpt lat="41.8063832353912" lon="12.679909788566865"><ele>335.8</ele><time>2026-05-02T14:51:03Z</time></trkpt><trkpt lat="41.80646710380645" lon="12.679815214950324"><ele>335.4</ele><time>2026-05-02T14:51:05Z</time></trkpt><trkpt lat="41.80654290354821" lon="12.679717163506798"><ele>335.0</ele><time>2026-05-02T14:51:07Z</time></trkpt><trkpt lat="41.806444101942866" lon="12.679479177588577"><ele>332.0</ele><time>2026-05-02T14:51:09Z</time></trkpt><trkpt lat="41.80633188663788" lon="12.67940323145123"><ele>329.0</ele><time>2026-05-02T14:51:11Z</time></trkpt><trkpt lat="41.80624019754483" lon="12.679300869282393"><ele>326.0</ele><time>2026-05-02T14:51:13Z</time></trkpt><trkpt lat="41.80614296568492" lon="12.679217334058853"><ele>323.0</ele><time>2026-05-02T14:51:15Z</time></trkpt><trkpt lat="41.8060413060623" lon="12.67938517271605"><ele>324.5</ele><time>2026-05-02T14:51:16Z</time></trkpt><trkpt lat="41.805946767075014" lon="12.679491665691778"><ele>326.0</ele><time>2026-05-02T14:51:18Z</time></trkpt><trkpt lat="41.80585283693953" lon="12.67960352314379"><ele>327.5</ele><time>2026-05-02T14:51:20Z</time></trkpt><trkpt lat="41.80577651843766" lon="12.67970770551122"><ele>329.0</ele><time>2026-05-02T14:51:22Z</time></trkpt><trkpt lat="41.8057051677642" lon="12.679792682901105"><ele>329.0</ele><time>2026-05-02T14:51:24Z</time></trkpt><trkpt lat="41.805608866160085" lon="12.679888903610088"><ele>329.0</ele><time>2026-05-02T14:51:26Z</time></trkpt><trkpt lat="41.80555981706816" lon="12.67994880126436"><ele>329.0</ele><time>2026-05-02T14:51:27Z</time></trkpt><trkpt lat="41.80550939328914" lon="12.680003073136813"><ele>329.0</ele><time>2026-05-02T14:51:28Z</time></trkpt><trkpt lat="41.80546112954214" lon="12.68006920204782"><ele>329.0</ele><time>2026-05-02T14:51:29Z</time></trkpt><trkpt lat="41.80541013733995" lon="12.680130943038124"><ele>329.0</ele><time>2026-05-02T14:51:30Z</time></trkpt><trkpt lat="41.805362978154925" lon="12.680208705352893"><ele>330.33333333333337</ele><time>2026-05-02T14:51:31Z</time></trkpt><trkpt lat="41.8052995931744" lon="12.680272916176751"><ele>331.6666666666667</ele><time>2026-05-02T14:51:32Z</time></trkpt><trkpt lat="41.80524786898003" lon="12.680336289383394"><ele>333.0</ele><time>2026-05-02T14:51:33Z</time></trkpt><trkpt lat="41.80518565440526" lon="12.680386025029668"><ele>334.3333333333333</ele><time>2026-05-02T14:51:34Z</time></trkpt><trkpt lat="41.805111344796664" lon="12.680433953133251"><ele>335.66666666666663</ele><time>2026-05-02T14:51:35Z</time></trkpt><trkpt lat="41.80503332827642" lon="12.680437908201707"><ele>337.0</ele><time>2026-05-02T14:51:36Z</time></trkpt><trkpt lat="41.804952686631445" lon="12.680468367900653"><ele>337.66666666666663</ele><time>2026-05-02T14:51:37Z</time></trkpt><trkpt lat="41.80487518260709" lon="12.680498484625781"><ele>338.3333333333333</ele><time>2026-05-02T14:51:38Z</time></trkpt><trkpt lat="41.804793555390134" lon="12.680545038788697"><ele>339.0</ele><time>2026-05-02T14:51:39Z</time></trkpt><trkpt lat="41.80470194280893" lon="12.68056580255962"><ele>339.6666666666667</ele><time>2026-05-02T14:51:40Z</time></trkpt><trkpt lat="41.80461661082896" lon="12.68060978912294"><ele>340.33333333333337</ele><time>2026-05-02T14:51:41Z</time></trkpt><trkpt lat="41.80453017905509" lon="12.680646817354873"><ele>341.0</ele><time>2026-05-02T14:51:42Z</time></trkpt><trkpt lat="41.80444119666121" lon="12.680685215065726"><ele>341.0</ele><time>2026-05-02T14:51:43Z</time></trkpt><trkpt lat="41.80434791647343" lon="12.680702712684761"><ele>341.0</ele><time>2026-05-02T14:51:44Z</time></trkpt><trkpt lat="41.804270484999876" lon="12.68075506256163"><ele>341.0</ele><time>2026-05-02T14:51:45Z</time></trkpt><trkpt lat="41.80418254423554" lon="12.680776352544582"><ele>341.0</ele><time>2026-05-02T14:51:46Z</time></trkpt><trkpt lat="41.804100707269036" lon="12.680815699535023"><ele>341.0</ele><time>2026-05-02T14:51:47Z</time></trkpt><trkpt lat="41.80400834900108" lon="12.68083762109952"><ele>343.6</ele><time>2026-05-02T14:51:48Z</time></trkpt><trkpt lat="41.803917022815774" lon="12.680865051800703"><ele>346.20000000000005</ele><time>2026-05-02T14:51:49Z</time></trkpt><trkpt lat="41.80382382741719" lon="12.680878749983243"><ele>348.79999999999995</ele><time>2026-05-02T14:51:50Z</time></trkpt><trkpt lat="41.80372604172861" lon="12.680878762919505"><ele>351.4</ele><time>2026-05-02T14:51:51Z</time></trkpt><trkpt lat="41.80362538425415" lon="12.680876574425442"><ele>354.0</ele><time>2026-05-02T14:51:52Z</time></trkpt><trkpt lat="41.80352711665552" lon="12.680851883226122"><ele>355.6</ele><time>2026-05-02T14:51:53Z</time></trkpt><trkpt lat="41.803425982345736" lon="12.680840362024435"><ele>357.2</ele><time>2026-05-02T14:51:54Z</time></trkpt><trkpt lat="41.8033259899216" lon="12.680834465226138"><ele>358.8</ele><time>2026-05-02T14:51:55Z</time></trkpt><trkpt lat="41.80321999415967" lon="12.680815566650608"><ele>360.40000000000003</ele><time>2026-05-02T14:51:56Z</time></trkpt><trkpt lat="41.803101280809074" lon="12.680796399444374"><ele>362.0</ele><time>2026-05-02T14:51:57Z</time></trkpt><trkpt lat="41.802978985169055" lon="12.680772926070855"><ele>362.0</ele><time>2026-05-02T14:51:58Z</time></trkpt><trkpt lat="41.802865941082835" lon="12.680772171710748"><ele>362.0</ele><time>2026-05-02T14:51:59Z</time></trkpt><trkpt lat="41.802749032326574" lon="12.680768720715651"><ele>362.0</ele><time>2026-05-02T14:52:00Z</time></trkpt><trkpt lat="41.80261444593247" lon="12.680736771537902"><ele>362.0</ele><time>2026-05-02T14:52:01Z</time></trkpt><trkpt lat="41.80247142167932" lon="12.680729410421305"><ele>363.0</ele><time>2026-05-02T14:52:02Z</time></trkpt><trkpt lat="41.80234164135304" lon="12.680726645495218"><ele>364.0</ele><time>2026-05-02T14:52:03Z</time></trkpt><trkpt lat="41.802209348878826" lon="12.680731380706213"><ele>365.0</ele><time>2026-05-02T14:52:04Z</time></trkpt><trkpt lat="41.80207096437707" lon="12.68073518503436"><ele>366.0</ele><time>2026-05-02T14:52:05Z</time></trkpt><trkpt lat="41.801946470943086" lon="12.680753299701296"><ele>366.20000000000005</ele><time>2026-05-02T14:52:06Z</time></trkpt><trkpt lat="41.80182205780705" lon="12.680770037528962"><ele>366.40000000000003</ele><time>2026-05-02T14:52:07Z</time></trkpt><trkpt lat="41.801711542350446" lon="12.680793227165768"><ele>366.6</ele><time>2026-05-02T14:52:08Z</time></trkpt><trkpt lat="41.80160350031321" lon="12.680799169582656"><ele>366.8</ele><time>2026-05-02T14:52:09Z</time></trkpt><trkpt lat="41.80150001951142" lon="12.680798938118562"><ele>367.0</ele><time>2026-05-02T14:52:10Z</time></trkpt><trkpt lat="41.80139210701649" lon="12.680790695449266"><ele>367.0</ele><time>2026-05-02T14:52:11Z</time></trkpt><trkpt lat="41.80128503710064" lon="12.680761750111632"><ele>367.0</ele><time>2026-05-02T14:52:12Z</time></trkpt><trkpt lat="41.80118745812305" lon="12.680743921814825"><ele>367.0</ele><time>2026-05-02T14:52:13Z</time></trkpt><trkpt lat="41.80108847350902" lon="12.680716736146277"><ele>367.0</ele><time>2026-05-02T14:52:14Z</time></trkpt><trkpt lat="41.80098843483503" lon="12.680762710399827"><ele>367.0</ele><time>2026-05-02T14:52:15Z</time></trkpt><trkpt lat="41.800900859395846" lon="12.68074141985047"><ele>368.40000000000003</ele><time>2026-05-02T14:52:16Z</time></trkpt><trkpt lat="41.800821273312195" lon="12.680700534230336"><ele>369.8</ele><time>2026-05-02T14:52:17Z</time></trkpt><trkpt lat="41.80073830337282" lon="12.680708242977934"><ele>371.2</ele><time>2026-05-02T14:52:18Z</time></trkpt><trkpt lat="41.80063739240164" lon="12.680707147375093"><ele>372.6</ele><time>2026-05-02T14:52:19Z</time></trkpt><trkpt lat="41.800527658247866" lon="12.680726600183993"><ele>374.0</ele><time>2026-05-02T14:52:20Z</time></trkpt><trkpt lat="41.80046075419417" lon="12.680752025619364"><ele>374.0</ele><time>2026-05-02T14:52:21Z</time></trkpt><trkpt lat="41.800380371096274" lon="12.680791070359863"><ele>374.0</ele><time>2026-05-02T14:52:22Z</time></trkpt><trkpt lat="41.80029031683285" lon="12.680849755192389"><ele>374.0</ele><time>2026-05-02T14:52:23Z</time></trkpt><trkpt lat="41.80018594102522" lon="12.680925396911286"><ele>374.0</ele><time>2026-05-02T14:52:24Z</time></trkpt><trkpt lat="41.80008049530801" lon="12.681024480371432"><ele>374.0</ele><time>2026-05-02T14:52:25Z</time></trkpt><trkpt lat="41.79996391902179" lon="12.68108827645432"><ele>377.0</ele><time>2026-05-02T14:52:26Z</time></trkpt><trkpt lat="41.799854572094894" lon="12.681168960465651"><ele>380.0</ele><time>2026-05-02T14:52:27Z</time></trkpt><trkpt lat="41.79974821267575" lon="12.681256058835697"><ele>383.0</ele><time>2026-05-02T14:52:28Z</time></trkpt><trkpt lat="41.79964228313362" lon="12.68133858069912"><ele>386.0</ele><time>2026-05-02T14:52:29Z</time></trkpt><trkpt lat="41.799537912298014" lon="12.681416057676223"><ele>386.0</ele><time>2026-05-02T14:52:30Z</time></trkpt><trkpt lat="41.79943605386791" lon="12.681497334796228"><ele>386.0</ele><time>2026-05-02T14:52:31Z</time></trkpt><trkpt lat="41.79932646220096" lon="12.681573020629818"><ele>386.0</ele><time>2026-05-02T14:52:32Z</time></trkpt><trkpt lat="41.799220661454676" lon="12.681648187506397"><ele>386.0</ele><time>2026-05-02T14:52:33Z</time></trkpt><trkpt lat="41.79911092591365" lon="12.68172294916333"><ele>385.0</ele><time>2026-05-02T14:52:34Z</time></trkpt><trkpt lat="41.79900236233389" lon="12.681798256260127"><ele>384.0</ele><time>2026-05-02T14:52:35Z</time></trkpt><trkpt lat="41.79889545952954" lon="12.681872252362412"><ele>383.0</ele><time>2026-05-02T14:52:36Z</time></trkpt><trkpt lat="41.79878759085814" lon="12.681942787380354"><ele>382.0</ele><time>2026-05-02T14:52:37Z</time></trkpt><trkpt lat="41.79867922358389" lon="12.682019439049368"><ele>385.5</ele><time>2026-05-02T14:52:38Z</time></trkpt><trkpt lat="41.798569735283344" lon="12.682091721100196"><ele>389.0</ele><time>2026-05-02T14:52:39Z</time></trkpt><trkpt lat="41.79846072753611" lon="12.682159844533441"><ele>392.5</ele><time>2026-05-02T14:52:40Z</time></trkpt><trkpt lat="41.79834806241379" lon="12.682219889841386"><ele>396.0</ele><time>2026-05-02T14:52:41Z</time></trkpt><trkpt lat="41.79823699300051" lon="12.682279092452694"><ele>396.0</ele><time>2026-05-02T14:52:42Z</time></trkpt><trkpt lat="41.79812844325429" lon="12.68234330181019"><ele>396.0</ele><time>2026-05-02T14:52:43Z</time></trkpt><trkpt lat="41.79801686445023" lon="12.682410903063003"><ele>396.0</ele><time>2026-05-02T14:52:44Z</time></trkpt><trkpt lat="41.79790383387182" lon="12.682459346702645"><ele>396.0</ele><time>2026-05-02T14:52:45Z</time></trkpt><trkpt lat="41.797789445737926" lon="12.682510766745668"><ele>396.0</ele><time>2026-05-02T14:52:46Z</time></trkpt><trkpt lat="41.79767585417" lon="12.682566224476853"><ele>396.0</ele><time>2026-05-02T14:52:47Z</time></trkpt><trkpt lat="41.79755498394855" lon="12.682604602726995"><ele>396.0</ele><time>2026-05-02T14:52:48Z</time></trkpt><trkpt lat="41.797434858302566" lon="12.682637017266234"><ele>396.0</ele><time>2026-05-02T14:52:49Z</time></trkpt><trkpt lat="41.79731530839075" lon="12.682665258557979"><ele>395.75</ele><time>2026-05-02T14:52:50Z</time></trkpt><trkpt lat="41.7971974171693" lon="12.682681181664519"><ele>395.5</ele><time>2026-05-02T14:52:51Z</time></trkpt><trkpt lat="41.79707717599744" lon="12.682697963655306"><ele>395.25</ele><time>2026-05-02T14:52:52Z</time></trkpt><trkpt lat="41.796956224332206" lon="12.682705734069982"><ele>395.0</ele><time>2026-05-02T14:52:53Z</time></trkpt><trkpt lat="41.79683197753182" lon="12.682692202527132"><ele>397.75</ele><time>2026-05-02T14:52:54Z</time></trkpt><trkpt lat="41.79670946136069" lon="12.682697926843394"><ele>400.5</ele><time>2026-05-02T14:52:55Z</time></trkpt><trkpt lat="41.796582747325516" lon="12.682703991352298"><ele>403.25</ele><time>2026-05-02T14:52:56.002Z</time></trkpt><trkpt lat="41.79646749288522" lon="12.68269179610838"><ele>406.0</ele><time>2026-05-02T14:52:57.002Z</time></trkpt><trkpt lat="41.79634705698752" lon="12.682694201836108"><ele>406.0</ele><time>2026-05-02T14:52:58.002Z</time></trkpt><trkpt lat="41.796223653498465" lon="12.682696745127735"><ele>406.0</ele><time>2026-05-02T14:52:59.002Z</time></trkpt><trkpt lat="41.796101872757966" lon="12.682696779734805"><ele>406.0</ele><time>2026-05-02T14:53:00.002Z</time></trkpt><trkpt lat="41.79598362763335" lon="12.682703940174937"><ele>406.0</ele><time>2026-05-02T14:53:01.002Z</time></trkpt><trkpt lat="41.7958627194751" lon="12.682713356962726"><ele>407.75</ele><time>2026-05-02T14:53:02.002Z</time></trkpt><trkpt lat="41.795742044569565" lon="12.682712406988918"><ele>409.5</ele><time>2026-05-02T14:53:03.002Z</time></trkpt><trkpt lat="41.79561617996907" lon="12.682716682533934"><ele>411.25</ele><time>2026-05-02T14:53:04.002Z</time></trkpt><trkpt lat="41.7954799817898" lon="12.682712707445042"><ele>413.0</ele><time>2026-05-02T14:53:05.002Z</time></trkpt><trkpt lat="41.79535576419792" lon="12.682716970256232"><ele>413.0</ele><time>2026-05-02T14:53:06.001Z</time></trkpt><trkpt lat="41.79521833264135" lon="12.682708414232092"><ele>413.0</ele><time>2026-05-02T14:53:07.001Z</time></trkpt><trkpt lat="41.795071331102186" lon="12.68266147189982"><ele>413.0</ele><time>2026-05-02T14:53:08.001Z</time></trkpt><trkpt lat="41.794931372530506" lon="12.682679613629265"><ele>413.0</ele><time>2026-05-02T14:53:09.001Z</time></trkpt><trkpt lat="41.79479014600662" lon="12.682662460704103"><ele>412.79999999999995</ele><time>2026-05-02T14:53:10.001Z</time></trkpt><trkpt lat="41.79466103766718" lon="12.682680947669844"><ele>412.6</ele><time>2026-05-02T14:53:11.001Z</time></trkpt><trkpt lat="41.794549476859096" lon="12.682694034070893"><ele>412.4</ele><time>2026-05-02T14:53:12.001Z</time></trkpt><trkpt lat="41.79446797203259" lon="12.682697223397572"><ele>412.20000000000005</ele><time>2026-05-02T14:53:13.001Z</time></trkpt><trkpt lat="41.79438588046662" lon="12.682711313940844"><ele>412.0</ele><time>2026-05-02T14:53:14.001Z</time></trkpt><trkpt lat="41.79428857500842" lon="12.682735407798877"><ele>412.33333333333337</ele><time>2026-05-02T14:53:16.001Z</time></trkpt><trkpt lat="41.79417832289732" lon="12.682710335234221"><ele>412.6666666666667</ele><time>2026-05-02T14:53:18.001Z</time></trkpt><trkpt lat="41.79411375235507" lon="12.682708291635539"><ele>413.0</ele><time>2026-05-02T14:53:19.001Z</time></trkpt><trkpt lat="41.79404824258374" lon="12.682715770100478"><ele>413.33333333333337</ele><time>2026-05-02T14:53:20.001Z</time></trkpt><trkpt lat="41.793975654967824" lon="12.68273718164676"><ele>413.6666666666667</ele><time>2026-05-02T14:53:21.001Z</time></trkpt><trkpt lat="41.79390225575379" lon="12.682742046514727"><ele>414.0</ele><time>2026-05-02T14:53:22.001Z</time></trkpt><trkpt lat="41.793769959381564" lon="12.682751862318252"><ele>414.5</ele><time>2026-05-02T14:53:24.001Z</time></trkpt><trkpt lat="41.793703805424514" lon="12.682771039617792"><ele>415.0</ele><time>2026-05-02T14:53:25.001Z</time></trkpt><trkpt lat="41.793623032810004" lon="12.682786382506908"><ele>415.5</ele><time>2026-05-02T14:53:26.001Z</time></trkpt><trkpt lat="41.79354822486372" lon="12.682788043899512"><ele>416.0</ele><time>2026-05-02T14:53:27.001Z</time></trkpt><trkpt lat="41.79348432469968" lon="12.682793211359504"><ele>416.5</ele><time>2026-05-02T14:53:28.001Z</time></trkpt><trkpt lat="41.79340890717166" lon="12.682795470395773"><ele>417.0</ele><time>2026-05-02T14:53:29.001Z</time></trkpt><trkpt lat="41.793315572851874" lon="12.68280982096148"><ele>417.0</ele><time>2026-05-02T14:53:30.001Z</time></trkpt><trkpt lat="41.793228815348805" lon="12.682825392779572"><ele>417.0</ele><time>2026-05-02T14:53:31.001Z</time></trkpt><trkpt lat="41.79313732814288" lon="12.682839524195499"><ele>417.0</ele><time>2026-05-02T14:53:32.001Z</time></trkpt><trkpt lat="41.793049437257324" lon="12.68284581710271"><ele>417.0</ele><time>2026-05-02T14:53:33.001Z</time></trkpt><trkpt lat="41.7929605278851" lon="12.682847586264323"><ele>417.0</ele><time>2026-05-02T14:53:34.001Z</time></trkpt><trkpt lat="41.79286693864487" lon="12.682847343858759"><ele>417.0</ele><time>2026-05-02T14:53:35.001Z</time></trkpt><trkpt lat="41.79277281491625" lon="12.682847317518632"><ele>417.0</ele><time>2026-05-02T14:53:36.001Z</time></trkpt><trkpt lat="41.7926780220639" lon="12.682852471813595"><ele>417.0</ele><time>2026-05-02T14:53:37.001Z</time></trkpt><trkpt lat="41.792584955588445" lon="12.682861144357082"><ele>417.0</ele><time>2026-05-02T14:53:38.001Z</time></trkpt><trkpt lat="41.79249060703267" lon="12.682866459052738"><ele>417.0</ele><time>2026-05-02T14:53:39.001Z</time></trkpt><trkpt lat="41.79239888557338" lon="12.682856618506097"><ele>417.0</ele><time>2026-05-02T14:53:40.001Z</time></trkpt><trkpt lat="41.792309822566814" lon="12.682851127626602"><ele>417.0</ele><time>2026-05-02T14:53:41.001Z</time></trkpt><trkpt lat="41.792218944631216" lon="12.682844480827521"><ele>417.0</ele><time>2026-05-02T14:53:42.001Z</time></trkpt><trkpt lat="41.79213325521992" lon="12.682849624533985"><ele>417.0</ele><time>2026-05-02T14:53:43.001Z</time></trkpt><trkpt lat="41.7920128507523" lon="12.682842499987661"><ele>417.0</ele><time>2026-05-02T14:53:45.001Z</time></trkpt><trkpt lat="41.791924622066794" lon="12.682834335723772"><ele>417.0</ele><time>2026-05-02T14:53:47.001Z</time></trkpt><trkpt lat="41.7918517901514" lon="12.682835483053987"><ele>417.0</ele><time>2026-05-02T14:53:52.001Z</time></trkpt><trkpt lat="41.79177972184912" lon="12.682815542849621"><ele>417.0</ele><time>2026-05-02T14:53:55.001Z</time></trkpt><trkpt lat="41.79171034704591" lon="12.68278421421644"><ele>417.0</ele><time>2026-05-02T14:53:57.001Z</time></trkpt><trkpt lat="41.791600961703345" lon="12.682805066557245"><ele>417.0</ele><time>2026-05-02T14:53:59.001Z</time></trkpt><trkpt lat="41.791530305928276" lon="12.682782259662995"><ele>417.0</ele><time>2026-05-02T14:54:00.001Z</time></trkpt><trkpt lat="41.791464270309405" lon="12.682758880168933"><ele>415.5</ele><time>2026-05-02T14:54:01.001Z</time></trkpt><trkpt lat="41.79138250884108" lon="12.682737942951634"><ele>414.0</ele><time>2026-05-02T14:54:02.001Z</time></trkpt><trkpt lat="41.79129806782778" lon="12.682721343265646"><ele>412.5</ele><time>2026-05-02T14:54:03.001Z</time></trkpt><trkpt lat="41.79120880073429" lon="12.682711886607503"><ele>411.0</ele><time>2026-05-02T14:54:04.001Z</time></trkpt><trkpt lat="41.791119357516706" lon="12.682683340896139"><ele>409.5</ele><time>2026-05-02T14:54:05.001Z</time></trkpt><trkpt lat="41.79102665873395" lon="12.68265087496644"><ele>408.0</ele><time>2026-05-02T14:54:06.001Z</time></trkpt><trkpt lat="41.79092618986441" lon="12.682624812780306"><ele>407.4</ele><time>2026-05-02T14:54:07.001Z</time></trkpt><trkpt lat="41.790827299830795" lon="12.682598974415045"><ele>406.79999999999995</ele><time>2026-05-02T14:54:08.001Z</time></trkpt><trkpt lat="41.79073687203327" lon="12.682565107483308"><ele>406.2</ele><time>2026-05-02T14:54:09.001Z</time></trkpt><trkpt lat="41.79064250490811" lon="12.682537813194937"><ele>405.6</ele><time>2026-05-02T14:54:10.001Z</time></trkpt><trkpt lat="41.79054125217821" lon="12.682517187225598"><ele>405.0</ele><time>2026-05-02T14:54:11.001Z</time></trkpt><trkpt lat="41.79043904380226" lon="12.682492207918706"><ele>405.0</ele><time>2026-05-02T14:54:12.001Z</time></trkpt><trkpt lat="41.790333156794" lon="12.682466725083387"><ele>405.0</ele><time>2026-05-02T14:54:13.001Z</time></trkpt><trkpt lat="41.790224411869694" lon="12.682447077307788"><ele>405.0</ele><time>2026-05-02T14:54:14.001Z</time></trkpt><trkpt lat="41.79011334025271" lon="12.68242630727746"><ele>405.0</ele><time>2026-05-02T14:54:15.001Z</time></trkpt><trkpt lat="41.79000323890611" lon="12.682400630006143"><ele>405.0</ele><time>2026-05-02T14:54:16.001Z</time></trkpt><trkpt lat="41.789892473215524" lon="12.682369255919399"><ele>404.5</ele><time>2026-05-02T14:54:17.001Z</time></trkpt><trkpt lat="41.78978224495902" lon="12.682342235659606"><ele>404.0</ele><time>2026-05-02T14:54:18.001Z</time></trkpt><trkpt lat="41.789674034767316" lon="12.68231440248649"><ele>403.5</ele><time>2026-05-02T14:54:19.001Z</time></trkpt><trkpt lat="41.789560606263" lon="12.68228942945439"><ele>403.0</ele><time>2026-05-02T14:54:20.001Z</time></trkpt><trkpt lat="41.7894481153873" lon="12.682262017114523"><ele>402.79999999999995</ele><time>2026-05-02T14:54:21.001Z</time></trkpt><trkpt lat="41.789336294088535" lon="12.682235811703888"><ele>402.6</ele><time>2026-05-02T14:54:22.001Z</time></trkpt><trkpt lat="41.78922033046866" lon="12.68221237478394"><ele>402.4</ele><time>2026-05-02T14:54:23.001Z</time></trkpt><trkpt lat="41.789115886143776" lon="12.682182569637693"><ele>402.20000000000005</ele><time>2026-05-02T14:54:24.001Z</time></trkpt><trkpt lat="41.78901374395829" lon="12.682162450625453"><ele>402.0</ele><time>2026-05-02T14:54:25.001Z</time></trkpt><trkpt lat="41.788905152301204" lon="12.682137789006957"><ele>402.0</ele><time>2026-05-02T14:54:26.001Z</time></trkpt><trkpt lat="41.788808962765415" lon="12.682121891455516"><ele>402.0</ele><time>2026-05-02T14:54:27.001Z</time></trkpt><trkpt lat="41.78871340969627" lon="12.682105586974592"><ele>402.0</ele><time>2026-05-02T14:54:28.001Z</time></trkpt><trkpt lat="41.788622312147965" lon="12.68206449095833"><ele>402.0</ele><time>2026-05-02T14:54:29.001Z</time></trkpt><trkpt lat="41.78852149147942" lon="12.68203823176523"><ele>402.0</ele><time>2026-05-02T14:54:30.001Z</time></trkpt><trkpt lat="41.788423009418466" lon="12.682014478350577"><ele>401.8</ele><time>2026-05-02T14:54:31.001Z</time></trkpt><trkpt lat="41.788322639225306" lon="12.682011643199996"><ele>401.6</ele><time>2026-05-02T14:54:32.001Z</time></trkpt><trkpt lat="41.78821952416307" lon="12.681983799461808"><ele>401.40000000000003</ele><time>2026-05-02T14:54:33.001Z</time></trkpt><trkpt lat="41.788112640832516" lon="12.681956081316319"><ele>401.20000000000005</ele><time>2026-05-02T14:54:34.001Z</time></trkpt><trkpt lat="41.78800684134256" lon="12.68191004257912"><ele>401.0</ele><time>2026-05-02T14:54:35.001Z</time></trkpt><trkpt lat="41.787899638815176" lon="12.681883391880426"><ele>401.0</ele><time>2026-05-02T14:54:36.001Z</time></trkpt><trkpt lat="41.78779312797478" lon="12.681856913381521"><ele>401.0</ele><time>2026-05-02T14:54:37.001Z</time></trkpt><trkpt lat="41.787686344060695" lon="12.681830861585173"><ele>401.0</ele><time>2026-05-02T14:54:38.001Z</time></trkpt><trkpt lat="41.787577227464396" lon="12.681803312347188"><ele>401.0</ele><time>2026-05-02T14:54:39.001Z</time></trkpt><trkpt lat="41.787467054678785" lon="12.681775496445256"><ele>401.0</ele><time>2026-05-02T14:54:40.001Z</time></trkpt><trkpt lat="41.78735581501022" lon="12.681747411180655"><ele>400.5</ele><time>2026-05-02T14:54:41.001Z</time></trkpt><trkpt lat="41.78724450936016" lon="12.68171930939199"><ele>400.0</ele><time>2026-05-02T14:54:42.001Z</time></trkpt><trkpt lat="41.787132469666155" lon="12.681690852850345"><ele>399.5</ele><time>2026-05-02T14:54:43.001Z</time></trkpt><trkpt lat="41.787017965983395" lon="12.681661825131782"><ele>399.0</ele><time>2026-05-02T14:54:44.001Z</time></trkpt><trkpt lat="41.78690778078895" lon="12.68163373258068"><ele>398.6</ele><time>2026-05-02T14:54:45.001Z</time></trkpt><trkpt lat="41.78680116547613" lon="12.681606271222337"><ele>398.2</ele><time>2026-05-02T14:54:46.001Z</time></trkpt><trkpt lat="41.78670046880274" lon="12.681579802235518"><ele>397.8</ele><time>2026-05-02T14:54:47.001Z</time></trkpt><trkpt lat="41.78660324520676" lon="12.681554290171428"><ele>397.40000000000003</ele><time>2026-05-02T14:54:48.001Z</time></trkpt><trkpt lat="41.78650881183074" lon="12.681529572251986"><ele>397.0</ele><time>2026-05-02T14:54:49.001Z</time></trkpt><trkpt lat="41.786413175587995" lon="12.681505426470778"><ele>397.0</ele><time>2026-05-02T14:54:50.001Z</time></trkpt><trkpt lat="41.78631828523575" lon="12.681481265489197"><ele>397.0</ele><time>2026-05-02T14:54:51.001Z</time></trkpt><trkpt lat="41.7862248843927" lon="12.68145748559665"><ele>397.0</ele><time>2026-05-02T14:54:52.001Z</time></trkpt><trkpt lat="41.78613146277025" lon="12.681433837948115"><ele>397.0</ele><time>2026-05-02T14:54:53.001Z</time></trkpt><trkpt lat="41.78603894880994" lon="12.68141039033151"><ele>397.0</ele><time>2026-05-02T14:54:54.001Z</time></trkpt><trkpt lat="41.78594623452712" lon="12.68138689193943"><ele>396.40000000000003</ele><time>2026-05-02T14:54:55.001Z</time></trkpt><trkpt lat="41.78585302278435" lon="12.681363267466885"><ele>395.8</ele><time>2026-05-02T14:54:56.001Z</time></trkpt><trkpt lat="41.78576147297616" lon="12.681339964716543"><ele>395.2</ele><time>2026-05-02T14:54:57.001Z</time></trkpt><trkpt lat="41.785671172391545" lon="12.681316960537776"><ele>394.6</ele><time>2026-05-02T14:54:58.001Z</time></trkpt><trkpt lat="41.785579015374715" lon="12.681293579046722"><ele>394.0</ele><time>2026-05-02T14:54:59.001Z</time></trkpt><trkpt lat="41.78549307435575" lon="12.681271902344918"><ele>394.00000000000006</ele><time>2026-05-02T14:55:00.001Z</time></trkpt><trkpt lat="41.78540706772997" lon="12.681250209082247"><ele>394.0</ele><time>2026-05-02T14:55:01.001Z</time></trkpt><trkpt lat="41.785322260159994" lon="12.681234832146881"><ele>394.0</ele><time>2026-05-02T14:55:02.002Z</time></trkpt><trkpt lat="41.78523562513676" lon="12.681212605818756"><ele>394.0</ele><time>2026-05-02T14:55:03.002Z</time></trkpt><trkpt lat="41.785147289827876" lon="12.681202601883504"><ele>394.00000000000006</ele><time>2026-05-02T14:55:04.002Z</time></trkpt><trkpt lat="41.78506397087125" lon="12.681160316341606"><ele>394.0</ele><time>2026-05-02T14:55:05.002Z</time></trkpt><trkpt lat="41.78498151300237" lon="12.681138057107777"><ele>393.50000000000006</ele><time>2026-05-02T14:55:06.002Z</time></trkpt><trkpt lat="41.78490505670995" lon="12.681116589930138"><ele>393.0</ele><time>2026-05-02T14:55:07.002Z</time></trkpt><trkpt lat="41.78483136133851" lon="12.681094262282016"><ele>392.5</ele><time>2026-05-02T14:55:08.002Z</time></trkpt><trkpt lat="41.7847680563899" lon="12.681071523125777"><ele>392.0</ele><time>2026-05-02T14:55:09.002Z</time></trkpt><trkpt lat="41.78464853421501" lon="12.681010255615536"><ele>391.50000000000006</ele><time>2026-05-02T14:55:11.002Z</time></trkpt><trkpt lat="41.784583124296915" lon="12.680969420741105"><ele>391.0</ele><time>2026-05-02T14:55:12.002Z</time></trkpt><trkpt lat="41.7845092346532" lon="12.680921784545582"><ele>391.0</ele><time>2026-05-02T14:55:13.002Z</time></trkpt><trkpt lat="41.78442847938705" lon="12.680864819058975"><ele>391.0</ele><time>2026-05-02T14:55:14.002Z</time></trkpt><trkpt lat="41.784339710906096" lon="12.68080277553559"><ele>391.0</ele><time>2026-05-02T14:55:15.002Z</time></trkpt><trkpt lat="41.7842522105798" lon="12.680740265343049"><ele>391.0</ele><time>2026-05-02T14:55:16.002Z</time></trkpt><trkpt lat="41.784157771786326" lon="12.680672330768568"><ele>391.0</ele><time>2026-05-02T14:55:17.002Z</time></trkpt><trkpt lat="41.78405992257413" lon="12.680601511243028"><ele>390.20000000000005</ele><time>2026-05-02T14:55:18.002Z</time></trkpt><trkpt lat="41.783959959772346" lon="12.680531704561625"><ele>389.40000000000003</ele><time>2026-05-02T14:55:19.002Z</time></trkpt><trkpt lat="41.783858210966855" lon="12.68046598148718"><ele>388.6</ele><time>2026-05-02T14:55:20.002Z</time></trkpt><trkpt lat="41.78375665470195" lon="12.680405232990033"><ele>387.8</ele><time>2026-05-02T14:55:21.002Z</time></trkpt><trkpt lat="41.7836569415579" lon="12.680360798667836"><ele>387.0</ele><time>2026-05-02T14:55:22.002Z</time></trkpt><trkpt lat="41.78355280312151" lon="12.68033353142921"><ele>385.8</ele><time>2026-05-02T14:55:23.002Z</time></trkpt><trkpt lat="41.78344286284722" lon="12.680337043509914"><ele>384.6</ele><time>2026-05-02T14:55:24.002Z</time></trkpt><trkpt lat="41.78333576159826" lon="12.68037351150964"><ele>383.40000000000003</ele><time>2026-05-02T14:55:25.002Z</time></trkpt><trkpt lat="41.78323549495701" lon="12.680445270185047"><ele>382.20000000000005</ele><time>2026-05-02T14:55:26.002Z</time></trkpt><trkpt lat="41.783147751515045" lon="12.680541495521249"><ele>381.0</ele><time>2026-05-02T14:55:27.002Z</time></trkpt><trkpt lat="41.7830766666403" lon="12.680651974150402"><ele>381.0</ele><time>2026-05-02T14:55:28.002Z</time></trkpt><trkpt lat="41.78300985846967" lon="12.680780075969476"><ele>381.0</ele><time>2026-05-02T14:55:29.002Z</time></trkpt><trkpt lat="41.78296900038126" lon="12.680936054668237"><ele>381.0</ele><time>2026-05-02T14:55:30.001Z</time></trkpt><trkpt lat="41.78292689131329" lon="12.681076887163208"><ele>381.0</ele><time>2026-05-02T14:55:31.001Z</time></trkpt><trkpt lat="41.78289267023144" lon="12.681226906230796"><ele>380.6</ele><time>2026-05-02T14:55:32.001Z</time></trkpt><trkpt lat="41.78287076264346" lon="12.681380123145225"><ele>380.20000000000005</ele><time>2026-05-02T14:55:33.001Z</time></trkpt><trkpt lat="41.78286508735642" lon="12.68152954612764"><ele>379.79999999999995</ele><time>2026-05-02T14:55:34.001Z</time></trkpt><trkpt lat="41.78286201543509" lon="12.681679775178688"><ele>379.4</ele><time>2026-05-02T14:55:35.001Z</time></trkpt><trkpt lat="41.78286636792092" lon="12.681823746998637"><ele>379.0</ele><time>2026-05-02T14:55:36.001Z</time></trkpt><trkpt lat="41.78288674613348" lon="12.681958733067502"><ele>378.66666666666663</ele><time>2026-05-02T14:55:37.001Z</time></trkpt><trkpt lat="41.782910885104144" lon="12.68207821485735"><ele>378.3333333333333</ele><time>2026-05-02T14:55:38.001Z</time></trkpt><trkpt lat="41.78292918247182" lon="12.682199236026836"><ele>378.0</ele><time>2026-05-02T14:55:39.001Z</time></trkpt><trkpt lat="41.78292421920691" lon="12.682318533640778"><ele>377.6666666666667</ele><time>2026-05-02T14:55:40.001Z</time></trkpt><trkpt lat="41.782885758270766" lon="12.68240974992722"><ele>377.33333333333337</ele><time>2026-05-02T14:55:41.001Z</time></trkpt><trkpt lat="41.782832005502634" lon="12.682457591826454"><ele>377.0</ele><time>2026-05-02T14:55:42.001Z</time></trkpt><trkpt lat="41.78272118323425" lon="12.682520405915556"><ele>375.1666666666667</ele><time>2026-05-02T14:55:44.001Z</time></trkpt><trkpt lat="41.782625996258965" lon="12.68260528791737"><ele>373.33333333333337</ele><time>2026-05-02T14:55:46.001Z</time></trkpt><trkpt lat="41.782548354356" lon="12.682631294633218"><ele>371.5</ele><time>2026-05-02T14:55:49.001Z</time></trkpt><trkpt lat="41.7824800451028" lon="12.682686550011137"><ele>369.6666666666667</ele><time>2026-05-02T14:55:53.001Z</time></trkpt><trkpt lat="41.782424846989954" lon="12.682729827262534"><ele>367.8333333333333</ele><time>2026-05-02T14:55:56.001Z</time></trkpt><trkpt lat="41.78235731559379" lon="12.682749702918732"><ele>366.0</ele><time>2026-05-02T14:55:59.001Z</time></trkpt><trkpt lat="41.78225869384232" lon="12.682743161833226"><ele>366.0</ele><time>2026-05-02T14:56:01.001Z</time></trkpt><trkpt lat="41.782193159268374" lon="12.682715896399623"><ele>366.0</ele><time>2026-05-02T14:56:02.001Z</time></trkpt><trkpt lat="41.782098478203395" lon="12.682792221594813"><ele>366.0</ele><time>2026-05-02T14:56:04.001Z</time></trkpt><trkpt lat="41.782085278341356" lon="12.68296914704067"><ele>366.0</ele><time>2026-05-02T14:56:06.001Z</time></trkpt><trkpt lat="41.78210447003024" lon="12.683058551386909"><ele>366.0</ele><time>2026-05-02T14:56:07.001Z</time></trkpt><trkpt lat="41.78210156968196" lon="12.683150577823167"><ele>366.3333333333333</ele><time>2026-05-02T14:56:08.001Z</time></trkpt><trkpt lat="41.782092650830336" lon="12.683247881461476"><ele>366.6666666666667</ele><time>2026-05-02T14:56:09.001Z</time></trkpt><trkpt lat="41.78208233453348" lon="12.683351407709196"><ele>367.0</ele><time>2026-05-02T14:56:10.001Z</time></trkpt><trkpt lat="41.78205879922809" lon="12.683453048697418"><ele>367.33333333333337</ele><time>2026-05-02T14:56:11.001Z</time></trkpt><trkpt lat="41.78201871553591" lon="12.68355323722875"><ele>367.6666666666667</ele><time>2026-05-02T14:56:12.001Z</time></trkpt><trkpt lat="41.7819676346647" lon="12.683641237382759"><ele>368.0</ele><time>2026-05-02T14:56:13.001Z</time></trkpt><trkpt lat="41.781902329480815" lon="12.683700826911428"><ele>369.5</ele><time>2026-05-02T14:56:14.001Z</time></trkpt><trkpt lat="41.78182789941092" lon="12.683724539677241"><ele>371.0</ele><time>2026-05-02T14:56:15.001Z</time></trkpt><trkpt lat="41.78174863085652" lon="12.683719099765947"><ele>372.5</ele><time>2026-05-02T14:56:16.001Z</time></trkpt><trkpt lat="41.7816678016235" lon="12.683734583552571"><ele>374.0</ele><time>2026-05-02T14:56:17.001Z</time></trkpt><trkpt lat="41.781579021079054" lon="12.683754547920321"><ele>375.5</ele><time>2026-05-02T14:56:18.001Z</time></trkpt><trkpt lat="41.781503524986306" lon="12.683798912470415"><ele>377.0</ele><time>2026-05-02T14:56:19.001Z</time></trkpt><trkpt lat="41.78142395205837" lon="12.683859144231345"><ele>377.0</ele><time>2026-05-02T14:56:20.001Z</time></trkpt><trkpt lat="41.78134321962258" lon="12.68390238016561"><ele>377.0</ele><time>2026-05-02T14:56:21.001Z</time></trkpt><trkpt lat="41.7812694232953" lon="12.68397118344179"><ele>377.0</ele><time>2026-05-02T14:56:22.001Z</time></trkpt><trkpt lat="41.78121418142405" lon="12.684054578303984"><ele>377.0</ele><time>2026-05-02T14:56:23.001Z</time></trkpt><trkpt lat="41.78114789900808" lon="12.68412524061528"><ele>377.0</ele><time>2026-05-02T14:56:24.001Z</time></trkpt><trkpt lat="41.78108391807307" lon="12.684193511936487"><ele>377.0</ele><time>2026-05-02T14:56:25.001Z</time></trkpt><trkpt lat="41.78101847119833" lon="12.684265938503227"><ele>378.1666666666667</ele><time>2026-05-02T14:56:26.001Z</time></trkpt><trkpt lat="41.78095423647557" lon="12.684341703591322"><ele>379.33333333333337</ele><time>2026-05-02T14:56:27.001Z</time></trkpt><trkpt lat="41.78088749068589" lon="12.68441656605059"><ele>380.5</ele><time>2026-05-02T14:56:28.001Z</time></trkpt><trkpt lat="41.780811051903854" lon="12.684482743846383"><ele>381.6666666666667</ele><time>2026-05-02T14:56:29.001Z</time></trkpt><trkpt lat="41.78072532642663" lon="12.684538419211988"><ele>382.8333333333333</ele><time>2026-05-02T14:56:30.001Z</time></trkpt><trkpt lat="41.78064955963628" lon="12.684585103633804"><ele>384.0</ele><time>2026-05-02T14:56:31.001Z</time></trkpt><trkpt lat="41.7805711112192" lon="12.684628845705351"><ele>384.0</ele><time>2026-05-02T14:56:32.001Z</time></trkpt><trkpt lat="41.78048495880517" lon="12.68463011162168"><ele>384.0</ele><time>2026-05-02T14:56:33.001Z</time></trkpt><trkpt lat="41.78040134259866" lon="12.684653121286654"><ele>384.0</ele><time>2026-05-02T14:56:34.001Z</time></trkpt><trkpt lat="41.78031472440832" lon="12.684670293413578"><ele>384.0</ele><time>2026-05-02T14:56:35.001Z</time></trkpt><trkpt lat="41.780226919563866" lon="12.684707144523626"><ele>384.0</ele><time>2026-05-02T14:56:36.001Z</time></trkpt><trkpt lat="41.78014407152139" lon="12.684759258534111"><ele>384.0</ele><time>2026-05-02T14:56:37.001Z</time></trkpt><trkpt lat="41.78005500449054" lon="12.684799731101359"><ele>385.4</ele><time>2026-05-02T14:56:38.001Z</time></trkpt><trkpt lat="41.77998092668262" lon="12.684894692555782"><ele>386.79999999999995</ele><time>2026-05-02T14:56:39.001Z</time></trkpt><trkpt lat="41.77990646135339" lon="12.684970167893683"><ele>388.20000000000005</ele><time>2026-05-02T14:56:40.001Z</time></trkpt><trkpt lat="41.779831871476866" lon="12.685062554039751"><ele>389.6</ele><time>2026-05-02T14:56:41.001Z</time></trkpt><trkpt lat="41.779763212529815" lon="12.685152506001772"><ele>391.0</ele><time>2026-05-02T14:56:42.001Z</time></trkpt><trkpt lat="41.77970296099016" lon="12.68523353771534"><ele>390.50000000000006</ele><time>2026-05-02T14:56:43.001Z</time></trkpt><trkpt lat="41.77963827640534" lon="12.685303737952987"><ele>390.0</ele><time>2026-05-02T14:56:44.001Z</time></trkpt><trkpt lat="41.77956432680039" lon="12.685370438191528"><ele>389.5</ele><time>2026-05-02T14:56:45.001Z</time></trkpt><trkpt lat="41.77948954802778" lon="12.685438518679067"><ele>389.0</ele><time>2026-05-02T14:56:46.001Z</time></trkpt><trkpt lat="41.77943735768552" lon="12.685486388934322"><ele>388.50000000000006</ele><time>2026-05-02T14:56:47.001Z</time></trkpt><trkpt lat="41.77936897758821" lon="12.685519245190143"><ele>388.0</ele><time>2026-05-02T14:56:49.001Z</time></trkpt><trkpt lat="41.77929221614161" lon="12.685556968944148"><ele>389.50000000000006</ele><time>2026-05-02T14:58:23.001Z</time></trkpt><trkpt lat="41.77922004274742" lon="12.685597344469342"><ele>391.0</ele><time>2026-05-02T14:58:26.001Z</time></trkpt><trkpt lat="41.77914000926837" lon="12.685643172547652"><ele>392.5</ele><time>2026-05-02T14:58:28.001Z</time></trkpt><trkpt lat="41.77904967406382" lon="12.685695968599903"><ele>394.0</ele><time>2026-05-02T14:58:30.001Z</time></trkpt><trkpt lat="41.77899130261813" lon="12.685731019825718"><ele>395.50000000000006</ele><time>2026-05-02T14:58:31.001Z</time></trkpt><trkpt lat="41.77892309141341" lon="12.685773392523634"><ele>397.0</ele><time>2026-05-02T14:58:32.001Z</time></trkpt><trkpt lat="41.77885083665033" lon="12.685822786303332"><ele>397.0</ele><time>2026-05-02T14:58:33.001Z</time></trkpt><trkpt lat="41.778779681401815" lon="12.685874917928812"><ele>397.0</ele><time>2026-05-02T14:58:34.001Z</time></trkpt><trkpt lat="41.77870660283829" lon="12.685929322299817"><ele>397.0</ele><time>2026-05-02T14:58:35.001Z</time></trkpt><trkpt lat="41.778628001250354" lon="12.68599406162539"><ele>397.0</ele><time>2026-05-02T14:58:36.001Z</time></trkpt><trkpt lat="41.7785466187928" lon="12.68606627202602"><ele>397.0</ele><time>2026-05-02T14:58:37.001Z</time></trkpt><trkpt lat="41.77846295416219" lon="12.686145407012466"><ele>398.40000000000003</ele><time>2026-05-02T14:58:38.001Z</time></trkpt><trkpt lat="41.778381383505355" lon="12.686228813832107"><ele>399.8</ele><time>2026-05-02T14:58:39.001Z</time></trkpt><trkpt lat="41.77830167230335" lon="12.686314776046583"><ele>401.2</ele><time>2026-05-02T14:58:40.001Z</time></trkpt><trkpt lat="41.77822813463879" lon="12.686398822141264"><ele>402.6</ele><time>2026-05-02T14:58:41.001Z</time></trkpt><trkpt lat="41.77815936899535" lon="12.686478420730092"><ele>404.0</ele><time>2026-05-02T14:58:42.001Z</time></trkpt><trkpt lat="41.77809150980837" lon="12.686556492631686"><ele>404.0</ele><time>2026-05-02T14:58:43.001Z</time></trkpt><trkpt lat="41.778022427570015" lon="12.686635694451017"><ele>404.0</ele><time>2026-05-02T14:58:44.001Z</time></trkpt><trkpt lat="41.777951328430625" lon="12.68671803766132"><ele>404.0</ele><time>2026-05-02T14:58:45.001Z</time></trkpt><trkpt lat="41.7778760446791" lon="12.686805305360057"><ele>404.0</ele><time>2026-05-02T14:58:46.001Z</time></trkpt><trkpt lat="41.77780002962136" lon="12.686893071752188"><ele>404.0</ele><time>2026-05-02T14:58:47.001Z</time></trkpt><trkpt lat="41.77772264637824" lon="12.686978804830911"><ele>404.6</ele><time>2026-05-02T14:58:48.001Z</time></trkpt><trkpt lat="41.77764039600496" lon="12.687069814338768"><ele>405.2</ele><time>2026-05-02T14:58:49.001Z</time></trkpt><trkpt lat="41.77755383638362" lon="12.687160436249252"><ele>405.8</ele><time>2026-05-02T14:58:50.001Z</time></trkpt><trkpt lat="41.777464231810676" lon="12.68724802415853"><ele>406.40000000000003</ele><time>2026-05-02T14:58:51.001Z</time></trkpt><trkpt lat="41.77736895861711" lon="12.68734143611345"><ele>407.0</ele><time>2026-05-02T14:58:52.001Z</time></trkpt><trkpt lat="41.77727387223431" lon="12.687434066611"><ele>407.0</ele><time>2026-05-02T14:58:53.001Z</time></trkpt><trkpt lat="41.77717614553585" lon="12.687529269227337"><ele>407.0</ele><time>2026-05-02T14:58:54.001Z</time></trkpt><trkpt lat="41.777074925878146" lon="12.68762787458908"><ele>407.0</ele><time>2026-05-02T14:58:55.001Z</time></trkpt><trkpt lat="41.77697422432796" lon="12.687726768202076"><ele>407.0</ele><time>2026-05-02T14:58:56.001Z</time></trkpt><trkpt lat="41.776876886836604" lon="12.687828614671142"><ele>409.75</ele><time>2026-05-02T14:58:57.001Z</time></trkpt><trkpt lat="41.77678566869541" lon="12.687936712604301"><ele>412.5</ele><time>2026-05-02T14:58:58.001Z</time></trkpt><trkpt lat="41.77669996944427" lon="12.688057624849108"><ele>415.25</ele><time>2026-05-02T14:58:59.001Z</time></trkpt><trkpt lat="41.7766208140572" lon="12.688177181630723"><ele>418.0</ele><time>2026-05-02T14:59:00.001Z</time></trkpt><trkpt lat="41.776545969907325" lon="12.68830506285763"><ele>418.0</ele><time>2026-05-02T14:59:01.001Z</time></trkpt><trkpt lat="41.77647538776119" lon="12.688435621972435"><ele>418.0</ele><time>2026-05-02T14:59:02.001Z</time></trkpt><trkpt lat="41.77640171039526" lon="12.68857013434736"><ele>418.0</ele><time>2026-05-02T14:59:03.001Z</time></trkpt><trkpt lat="41.7763269000628" lon="12.688696825617892"><ele>418.0</ele><time>2026-05-02T14:59:04.001Z</time></trkpt><trkpt lat="41.77624334178045" lon="12.688819624479894"><ele>419.25</ele><time>2026-05-02T14:59:05.001Z</time></trkpt><trkpt lat="41.77615689013466" lon="12.688940657070223"><ele>420.5</ele><time>2026-05-02T14:59:06.001Z</time></trkpt><trkpt lat="41.776068970973036" lon="12.68906033918588"><ele>421.75</ele><time>2026-05-02T14:59:07.001Z</time></trkpt><trkpt lat="41.77599147813377" lon="12.689191823807967"><ele>423.0</ele><time>2026-05-02T14:59:08Z</time></trkpt><trkpt lat="41.77590467013136" lon="12.689314012997341"><ele>424.25</ele><time>2026-05-02T14:59:09Z</time></trkpt><trkpt lat="41.77582757272449" lon="12.689448975276132"><ele>425.5</ele><time>2026-05-02T14:59:10Z</time></trkpt><trkpt lat="41.77575065487783" lon="12.689580541550786"><ele>426.75</ele><time>2026-05-02T14:59:11Z</time></trkpt><trkpt lat="41.7756785800426" lon="12.68970284578926"><ele>428.0</ele><time>2026-05-02T14:59:12Z</time></trkpt><trkpt lat="41.77560547826075" lon="12.689808679646662"><ele>428.0</ele><time>2026-05-02T14:59:13Z</time></trkpt><trkpt lat="41.77553188724386" lon="12.689932056902224"><ele>428.0</ele><time>2026-05-02T14:59:14.001Z</time></trkpt><trkpt lat="41.7754674012722" lon="12.69007208324539"><ele>428.0</ele><time>2026-05-02T14:59:15.001Z</time></trkpt><trkpt lat="41.7753988356344" lon="12.690216228615776"><ele>428.0</ele><time>2026-05-02T14:59:16.001Z</time></trkpt><trkpt lat="41.7753049072024" lon="12.690342444957304"><ele>428.75</ele><time>2026-05-02T14:59:17.001Z</time></trkpt><trkpt lat="41.775243084376015" lon="12.69049173602292"><ele>429.5</ele><time>2026-05-02T14:59:18.001Z</time></trkpt><trkpt lat="41.77517065035068" lon="12.690627958501858"><ele>430.25</ele><time>2026-05-02T14:59:19.001Z</time></trkpt><trkpt lat="41.77508370862574" lon="12.69075400918034"><ele>431.0</ele><time>2026-05-02T14:59:20.001Z</time></trkpt><trkpt lat="41.77500735647948" lon="12.690902131900586"><ele>431.5</ele><time>2026-05-02T14:59:21.001Z</time></trkpt><trkpt lat="41.774932769156216" lon="12.691054752339467"><ele>432.0</ele><time>2026-05-02T14:59:22.001Z</time></trkpt><trkpt lat="41.7748632346424" lon="12.691208935591217"><ele>432.5</ele><time>2026-05-02T14:59:23.001Z</time></trkpt><trkpt lat="41.774807912266475" lon="12.69136271563861"><ele>433.0</ele><time>2026-05-02T14:59:24.001Z</time></trkpt><trkpt lat="41.77474427003437" lon="12.691511474632408"><ele>434.25</ele><time>2026-05-02T14:59:25.001Z</time></trkpt><trkpt lat="41.77468546439367" lon="12.691662400398176"><ele>435.5</ele><time>2026-05-02T14:59:26.001Z</time></trkpt><trkpt lat="41.77461181403249" lon="12.691803744779502"><ele>436.75</ele><time>2026-05-02T14:59:27.001Z</time></trkpt><trkpt lat="41.774560757066595" lon="12.691963521339503"><ele>438.0</ele><time>2026-05-02T14:59:28.001Z</time></trkpt><trkpt lat="41.774489658592906" lon="12.692113834282578"><ele>438.25</ele><time>2026-05-02T14:59:29.001Z</time></trkpt><trkpt lat="41.77441558900122" lon="12.692252568605374"><ele>438.5</ele><time>2026-05-02T14:59:30.001Z</time></trkpt><trkpt lat="41.774335582534206" lon="12.692396174304859"><ele>438.75</ele><time>2026-05-02T14:59:31.001Z</time></trkpt><trkpt lat="41.77425638357824" lon="12.692542768265161"><ele>439.0</ele><time>2026-05-02T14:59:32.001Z</time></trkpt><trkpt lat="41.77417650669193" lon="12.69268388673135"><ele>440.75</ele><time>2026-05-02T14:59:33.001Z</time></trkpt><trkpt lat="41.77407687983885" lon="12.692809685924878"><ele>442.5</ele><time>2026-05-02T14:59:34.001Z</time></trkpt><trkpt lat="41.774004485005506" lon="12.692954418744062"><ele>444.25</ele><time>2026-05-02T14:59:35.001Z</time></trkpt><trkpt lat="41.77395739716733" lon="12.693113129620825"><ele>446.0</ele><time>2026-05-02T14:59:36.001Z</time></trkpt><trkpt lat="41.77393663444741" lon="12.693280603706068"><ele>446.0</ele><time>2026-05-02T14:59:37.001Z</time></trkpt><trkpt lat="41.77392475703457" lon="12.69345083006512"><ele>446.0</ele><time>2026-05-02T14:59:38.001Z</time></trkpt><trkpt lat="41.77390092985427" lon="12.693616090668531"><ele>446.0</ele><time>2026-05-02T14:59:39.001Z</time></trkpt><trkpt lat="41.77387070389021" lon="12.693787075607794"><ele>446.0</ele><time>2026-05-02T14:59:40.001Z</time></trkpt><trkpt lat="41.77385324382467" lon="12.693965497966417"><ele>447.0</ele><time>2026-05-02T14:59:41.001Z</time></trkpt><trkpt lat="41.77385736634724" lon="12.694153690763784"><ele>448.0</ele><time>2026-05-02T14:59:42.001Z</time></trkpt><trkpt lat="41.77388260549635" lon="12.694336466198834"><ele>449.0</ele><time>2026-05-02T14:59:43.001Z</time></trkpt><trkpt lat="41.773907401698615" lon="12.694521695815123"><ele>450.0</ele><time>2026-05-02T14:59:44.001Z</time></trkpt><trkpt lat="41.77393846264041" lon="12.694704497180961"><ele>450.5</ele><time>2026-05-02T14:59:45.001Z</time></trkpt><trkpt lat="41.7740149190643" lon="12.694896725075326"><ele>451.0</ele><time>2026-05-02T14:59:46.001Z</time></trkpt><trkpt lat="41.77406708505085" lon="12.695074975120813"><ele>451.5</ele><time>2026-05-02T14:59:47.001Z</time></trkpt><trkpt lat="41.77411758190745" lon="12.695225340610696"><ele>452.0</ele><time>2026-05-02T14:59:48.001Z</time></trkpt><trkpt lat="41.774164127628936" lon="12.69537343394282"><ele>452.16666666666663</ele><time>2026-05-02T14:59:49.001Z</time></trkpt><trkpt lat="41.77420984093237" lon="12.695499097586861"><ele>452.3333333333333</ele><time>2026-05-02T14:59:50.001Z</time></trkpt><trkpt lat="41.77425303943348" lon="12.69560991845863"><ele>452.5</ele><time>2026-05-02T14:59:51.001Z</time></trkpt><trkpt lat="41.77428710965199" lon="12.695689295021952"><ele>452.66666666666663</ele><time>2026-05-02T14:59:52.001Z</time></trkpt><trkpt lat="41.77431740551685" lon="12.695766776776106"><ele>452.8333333333333</ele><time>2026-05-02T14:59:53.001Z</time></trkpt><trkpt lat="41.77435440495577" lon="12.695885830574657"><ele>453.0</ele><time>2026-05-02T14:59:55.001Z</time></trkpt><trkpt lat="41.77438704108767" lon="12.695977330404844"><ele>453.59999999999997</ele><time>2026-05-02T15:00:15Z</time></trkpt><trkpt lat="41.77442740628809" lon="12.696092549176024"><ele>454.19999999999993</ele><time>2026-05-02T15:00:19Z</time></trkpt><trkpt lat="41.774462080222705" lon="12.696169319654052"><ele>454.8</ele><time>2026-05-02T15:00:21Z</time></trkpt><trkpt lat="41.774499118694216" lon="12.696312694443453"><ele>455.4</ele><time>2026-05-02T15:00:23Z</time></trkpt><trkpt lat="41.774532390440676" lon="12.696446936399342"><ele>456.0</ele><time>2026-05-02T15:00:25Z</time></trkpt><trkpt lat="41.774557718408225" lon="12.696599113893189"><ele>456.0</ele><time>2026-05-02T15:00:27Z</time></trkpt><trkpt lat="41.77455070946503" lon="12.696683709635506"><ele>455.99999999999994</ele><time>2026-05-02T15:00:28Z</time></trkpt><trkpt lat="41.77453225245363" lon="12.696773672353922"><ele>456.0</ele><time>2026-05-02T15:00:29Z</time></trkpt><trkpt lat="41.77451648992226" lon="12.696870101984782"><ele>456.0</ele><time>2026-05-02T15:00:30Z</time></trkpt><trkpt lat="41.77449188548153" lon="12.696971806127785"><ele>455.99999999999994</ele><time>2026-05-02T15:00:31Z</time></trkpt><trkpt lat="41.77446099738156" lon="12.697067472458263"><ele>456.0</ele><time>2026-05-02T15:00:32Z</time></trkpt><trkpt lat="41.77442606933583" lon="12.69716911231351"><ele>456.0</ele><time>2026-05-02T15:00:33Z</time></trkpt><trkpt lat="41.77438574674445" lon="12.697277402548218"><ele>457.0</ele><time>2026-05-02T15:00:34Z</time></trkpt><trkpt lat="41.77435255011635" lon="12.697387676257817"><ele>458.0</ele><time>2026-05-02T15:00:35Z</time></trkpt><trkpt lat="41.77431124997228" lon="12.697484784705974"><ele>459.0</ele><time>2026-05-02T15:00:36Z</time></trkpt><trkpt lat="41.77427984331655" lon="12.697596954791504"><ele>460.0</ele><time>2026-05-02T15:00:37Z</time></trkpt><trkpt lat="41.77424131467698" lon="12.697695698214758"><ele>461.0</ele><time>2026-05-02T15:00:38Z</time></trkpt><trkpt lat="41.774213026105656" lon="12.697795297567035"><ele>462.0</ele><time>2026-05-02T15:00:39Z</time></trkpt><trkpt lat="41.77418716283712" lon="12.697888073904753"><ele>462.5</ele><time>2026-05-02T15:00:40Z</time></trkpt><trkpt lat="41.774178468796656" lon="12.697977919068846"><ele>463.0</ele><time>2026-05-02T15:00:41Z</time></trkpt><trkpt lat="41.7741494061133" lon="12.69807130157878"><ele>463.5</ele><time>2026-05-02T15:00:42Z</time></trkpt><trkpt lat="41.77411890492423" lon="12.698174045005127"><ele>464.0</ele><time>2026-05-02T15:00:43Z</time></trkpt><trkpt lat="41.77407300642318" lon="12.698279371377737"><ele>464.5</ele><time>2026-05-02T15:00:44Z</time></trkpt><trkpt lat="41.7740304895587" lon="12.69840210356048"><ele>465.0</ele><time>2026-05-02T15:00:45Z</time></trkpt><trkpt lat="41.773993088374624" lon="12.698536626574725"><ele>465.5</ele><time>2026-05-02T15:00:46Z</time></trkpt><trkpt lat="41.77394611110771" lon="12.69867477279777"><ele>466.0</ele><time>2026-05-02T15:00:47Z</time></trkpt><trkpt lat="41.77388544071177" lon="12.698812800730604"><ele>466.5</ele><time>2026-05-02T15:00:48Z</time></trkpt><trkpt lat="41.77381706313426" lon="12.698955188671246"><ele>467.0</ele><time>2026-05-02T15:00:49Z</time></trkpt><trkpt lat="41.77375953267811" lon="12.699086276288096"><ele>467.0</ele><time>2026-05-02T15:00:50Z</time></trkpt><trkpt lat="41.77369564717813" lon="12.699210006975182"><ele>467.0</ele><time>2026-05-02T15:00:51Z</time></trkpt><trkpt lat="41.77362112721858" lon="12.699321948463108"><ele>467.0</ele><time>2026-05-02T15:00:52Z</time></trkpt><trkpt lat="41.773533280394815" lon="12.699417507656545"><ele>467.0</ele><time>2026-05-02T15:00:53Z</time></trkpt><trkpt lat="41.773424362981416" lon="12.699494458466942"><ele>468.0</ele><time>2026-05-02T15:00:54Z</time></trkpt><trkpt lat="41.77330480779712" lon="12.69956143650892"><ele>469.0</ele><time>2026-05-02T15:00:55Z</time></trkpt><trkpt lat="41.77318267451039" lon="12.699640024726495"><ele>470.0</ele><time>2026-05-02T15:00:56Z</time></trkpt><trkpt lat="41.77305901883689" lon="12.69971700481602"><ele>471.0</ele><time>2026-05-02T15:00:57Z</time></trkpt><trkpt lat="41.772943220047466" lon="12.69979221860685"><ele>471.0</ele><time>2026-05-02T15:00:58Z</time></trkpt><trkpt lat="41.77282639741236" lon="12.699870957810989"><ele>471.0</ele><time>2026-05-02T15:00:59Z</time></trkpt><trkpt lat="41.772715570276276" lon="12.69994923890157"><ele>471.0</ele><time>2026-05-02T15:01:00Z</time></trkpt><trkpt lat="41.77260591747747" lon="12.700039654594198"><ele>471.0</ele><time>2026-05-02T15:01:01Z</time></trkpt><trkpt lat="41.77250387978636" lon="12.70013954275059"><ele>473.0</ele><time>2026-05-02T15:01:02Z</time></trkpt><trkpt lat="41.772409154062984" lon="12.70025301597958"><ele>475.0</ele><time>2026-05-02T15:01:03Z</time></trkpt><trkpt lat="41.77232748683289" lon="12.70039190096557"><ele>477.0</ele><time>2026-05-02T15:01:04Z</time></trkpt><trkpt lat="41.772258132707265" lon="12.700542174789412"><ele>479.0</ele><time>2026-05-02T15:01:05Z</time></trkpt><trkpt lat="41.772197482270634" lon="12.700696766468692"><ele>479.0</ele><time>2026-05-02T15:01:06Z</time></trkpt><trkpt lat="41.77214232898863" lon="12.700850841186096"><ele>479.0</ele><time>2026-05-02T15:01:07Z</time></trkpt><trkpt lat="41.77208959750109" lon="12.701008837855806"><ele>479.0</ele><time>2026-05-02T15:01:08Z</time></trkpt><trkpt lat="41.77204795766569" lon="12.70117104451597"><ele>479.0</ele><time>2026-05-02T15:01:09Z</time></trkpt><trkpt lat="41.77199979442107" lon="12.701326720535"><ele>479.5</ele><time>2026-05-02T15:01:10Z</time></trkpt><trkpt lat="41.771946668990125" lon="12.701477360380808"><ele>480.0</ele><time>2026-05-02T15:01:11Z</time></trkpt><trkpt lat="41.77188423687175" lon="12.701624654196202"><ele>480.5</ele><time>2026-05-02T15:01:12Z</time></trkpt><trkpt lat="41.771812597608225" lon="12.701766111149372"><ele>481.0</ele><time>2026-05-02T15:01:13Z</time></trkpt><trkpt lat="41.77173244167621" lon="12.701904734960197"><ele>484.0</ele><time>2026-05-02T15:01:14Z</time></trkpt><trkpt lat="41.77165186076736" lon="12.702040880638107"><ele>487.0</ele><time>2026-05-02T15:01:15Z</time></trkpt><trkpt lat="41.77157312944829" lon="12.702179707507497"><ele>490.0</ele><time>2026-05-02T15:01:16Z</time></trkpt><trkpt lat="41.77149128056608" lon="12.702321372775277"><ele>493.0</ele><time>2026-05-02T15:01:17Z</time></trkpt><trkpt lat="41.771409257735" lon="12.702463046487352"><ele>493.0</ele><time>2026-05-02T15:01:18Z</time></trkpt><trkpt lat="41.77132663311441" lon="12.702605346669"><ele>493.0</ele><time>2026-05-02T15:01:19Z</time></trkpt><trkpt lat="41.7712466496195" lon="12.702751318597134"><ele>493.0</ele><time>2026-05-02T15:01:20Z</time></trkpt><trkpt lat="41.771161135724974" lon="12.702895955309396"><ele>493.0</ele><time>2026-05-02T15:01:21Z</time></trkpt><trkpt lat="41.771080572155114" lon="12.703043181408493"><ele>495.25</ele><time>2026-05-02T15:01:22Z</time></trkpt><trkpt lat="41.771000649441795" lon="12.703197829071566"><ele>497.5</ele><time>2026-05-02T15:01:23Z</time></trkpt><trkpt lat="41.77092904143684" lon="12.70335187494781"><ele>499.75</ele><time>2026-05-02T15:01:24Z</time></trkpt><trkpt lat="41.77086170049575" lon="12.703513160456286"><ele>502.0</ele><time>2026-05-02T15:01:25Z</time></trkpt><trkpt lat="41.77079735111541" lon="12.70367675279603"><ele>502.25</ele><time>2026-05-02T15:01:26Z</time></trkpt><trkpt lat="41.77073106001928" lon="12.70383957853513"><ele>502.5</ele><time>2026-05-02T15:01:27Z</time></trkpt><trkpt lat="41.77066490241234" lon="12.704001205177338"><ele>502.75</ele><time>2026-05-02T15:01:28Z</time></trkpt><trkpt lat="41.77060655601582" lon="12.704167488072258"><ele>503.0</ele><time>2026-05-02T15:01:29Z</time></trkpt><trkpt lat="41.77056233732116" lon="12.704340892091585"><ele>504.25</ele><time>2026-05-02T15:01:30Z</time></trkpt><trkpt lat="41.77053623367208" lon="12.704523229123156"><ele>505.5</ele><time>2026-05-02T15:01:31Z</time></trkpt><trkpt lat="41.77053782967419" lon="12.704710594455285"><ele>506.75</ele><time>2026-05-02T15:01:32Z</time></trkpt><trkpt lat="41.77056197014685" lon="12.704894590559459"><ele>508.0</ele><time>2026-05-02T15:01:33Z</time></trkpt><trkpt lat="41.77060045820118" lon="12.705070955992227"><ele>508.0</ele><time>2026-05-02T15:01:34Z</time></trkpt><trkpt lat="41.770625839369195" lon="12.705245217498671"><ele>508.0</ele><time>2026-05-02T15:01:35Z</time></trkpt><trkpt lat="41.77067183250784" lon="12.70540479825515"><ele>508.0</ele><time>2026-05-02T15:01:36Z</time></trkpt><trkpt lat="41.77068545497224" lon="12.7055651937531"><ele>508.0</ele><time>2026-05-02T15:01:37Z</time></trkpt><trkpt lat="41.77065575058309" lon="12.705697095628793"><ele>508.79999999999995</ele><time>2026-05-02T15:01:38Z</time></trkpt><trkpt lat="41.77059943265302" lon="12.705765084426186"><ele>509.59999999999997</ele><time>2026-05-02T15:01:39Z</time></trkpt><trkpt lat="41.770510804005504" lon="12.705806596268568"><ele>510.40000000000003</ele><time>2026-05-02T15:01:40Z</time></trkpt><trkpt lat="41.770408796356016" lon="12.705832370433088"><ele>511.20000000000005</ele><time>2026-05-02T15:01:41Z</time></trkpt><trkpt lat="41.77030003314421" lon="12.705855445812567"><ele>512.0</ele><time>2026-05-02T15:01:42Z</time></trkpt><trkpt lat="41.77018728289031" lon="12.705891536530928"><ele>513.5</ele><time>2026-05-02T15:01:43Z</time></trkpt><trkpt lat="41.77006258780885" lon="12.705942918101968"><ele>515.0</ele><time>2026-05-02T15:01:44Z</time></trkpt><trkpt lat="41.76994532119254" lon="12.705968241413705"><ele>516.5</ele><time>2026-05-02T15:01:45Z</time></trkpt><trkpt lat="41.76985404912632" lon="12.706057468080354"><ele>518.0</ele><time>2026-05-02T15:01:46Z</time></trkpt><trkpt lat="41.769808758516504" lon="12.706178542624077"><ele>519.6</ele><time>2026-05-02T15:01:47Z</time></trkpt><trkpt lat="41.76983163040385" lon="12.706321791989593"><ele>521.1999999999999</ele><time>2026-05-02T15:01:48Z</time></trkpt><trkpt lat="41.76992224868649" lon="12.706403529207487"><ele>522.8</ele><time>2026-05-02T15:01:49Z</time></trkpt><trkpt lat="41.76996817190327" lon="12.706501372106564"><ele>524.4</ele><time>2026-05-02T15:01:50Z</time></trkpt><trkpt lat="41.770030083170454" lon="12.706572591982813"><ele>526.0</ele><time>2026-05-02T15:01:51Z</time></trkpt><trkpt lat="41.77010633164685" lon="12.706665687804731"><ele>526.0</ele><time>2026-05-02T15:01:52Z</time></trkpt><trkpt lat="41.770169057314206" lon="12.70680072173409"><ele>526.0</ele><time>2026-05-02T15:01:53Z</time></trkpt><trkpt lat="41.770161217665745" lon="12.706933611054698"><ele>526.0</ele><time>2026-05-02T15:01:54Z</time></trkpt><trkpt lat="41.77011022800903" lon="12.707049738408555"><ele>526.0</ele><time>2026-05-02T15:01:55Z</time></trkpt><trkpt lat="41.77003328305606" lon="12.707158192362192"><ele>526.0</ele><time>2026-05-02T15:01:56Z</time></trkpt><trkpt lat="41.769951808798936" lon="12.707272038252004"><ele>527.0</ele><time>2026-05-02T15:01:57Z</time></trkpt><trkpt lat="41.769871910782825" lon="12.707393270739848"><ele>528.0</ele><time>2026-05-02T15:01:58Z</time></trkpt><trkpt lat="41.76979149247961" lon="12.707518278664173"><ele>529.0</ele><time>2026-05-02T15:01:59Z</time></trkpt><trkpt lat="41.76970462811958" lon="12.707649187667094"><ele>530.0</ele><time>2026-05-02T15:02:00Z</time></trkpt><trkpt lat="41.76961104648097" lon="12.707781175574974"><ele>531.0</ele><time>2026-05-02T15:02:01Z</time></trkpt><trkpt lat="41.769520999111094" lon="12.707908710370445"><ele>532.0</ele><time>2026-05-02T15:02:02Z</time></trkpt><trkpt lat="41.76943099724607" lon="12.70803888749633"><ele>533.0</ele><time>2026-05-02T15:02:03Z</time></trkpt><trkpt lat="41.76934299376165" lon="12.708165371741346"><ele>534.0</ele><time>2026-05-02T15:02:04Z</time></trkpt><trkpt lat="41.769274458924976" lon="12.70831637987263"><ele>535.75</ele><time>2026-05-02T15:02:05Z</time></trkpt><trkpt lat="41.76928238601216" lon="12.708506337589203"><ele>537.5</ele><time>2026-05-02T15:02:06Z</time></trkpt><trkpt lat="41.769327104084326" lon="12.708670379422724"><ele>539.25</ele><time>2026-05-02T15:02:07Z</time></trkpt><trkpt lat="41.769380582704926" lon="12.70881337049124"><ele>541.0</ele><time>2026-05-02T15:02:08Z</time></trkpt><trkpt lat="41.76943753693037" lon="12.708960859411325"><ele>541.0</ele><time>2026-05-02T15:02:09Z</time></trkpt><trkpt lat="41.76950126087979" lon="12.709126065921925"><ele>541.0</ele><time>2026-05-02T15:02:10Z</time></trkpt><trkpt lat="41.76953865383885" lon="12.70929416900715"><ele>541.0</ele><time>2026-05-02T15:02:11Z</time></trkpt><trkpt lat="41.76954244508232" lon="12.709417629408865"><ele>541.0</ele><time>2026-05-02T15:02:12Z</time></trkpt><trkpt lat="41.76952726274313" lon="12.709499584264607"><ele>541.0</ele><time>2026-05-02T15:02:13Z</time></trkpt><trkpt lat="41.76944238930758" lon="12.709568056530069"><ele>543.5</ele><time>2026-05-02T15:02:14Z</time></trkpt><trkpt lat="41.769344414348716" lon="12.709610050085006"><ele>546.0</ele><time>2026-05-02T15:02:15Z</time></trkpt><trkpt lat="41.76924002924963" lon="12.70964181446462"><ele>548.5</ele><time>2026-05-02T15:02:16Z</time></trkpt><trkpt lat="41.76911536479705" lon="12.709679426221673"><ele>551.0</ele><time>2026-05-02T15:02:17Z</time></trkpt><trkpt lat="41.76898573676756" lon="12.70972237641112"><ele>551.0</ele><time>2026-05-02T15:02:18Z</time></trkpt><trkpt lat="41.76885753833752" lon="12.709743847003411"><ele>551.0</ele><time>2026-05-02T15:02:19Z</time></trkpt><trkpt lat="41.76872439605962" lon="12.709749972968147"><ele>551.0</ele><time>2026-05-02T15:02:20Z</time></trkpt><trkpt lat="41.76858929551987" lon="12.709735114273107"><ele>551.0</ele><time>2026-05-02T15:02:21Z</time></trkpt><trkpt lat="41.76845085795077" lon="12.709710683000717"><ele>554.25</ele><time>2026-05-02T15:02:22Z</time></trkpt><trkpt lat="41.76831912377803" lon="12.709682547835458"><ele>557.5</ele><time>2026-05-02T15:02:23Z</time></trkpt><trkpt lat="41.76817937639318" lon="12.709656287016054"><ele>560.75</ele><time>2026-05-02T15:02:24Z</time></trkpt><trkpt lat="41.76804135853571" lon="12.709640452195165"><ele>564.0</ele><time>2026-05-02T15:02:25Z</time></trkpt><trkpt lat="41.76790913473708" lon="12.709618340730596"><ele>564.0</ele><time>2026-05-02T15:02:26Z</time></trkpt><trkpt lat="41.76778597162012" lon="12.709605242893288"><ele>564.0</ele><time>2026-05-02T15:02:27Z</time></trkpt><trkpt lat="41.76765729041747" lon="12.709606667803977"><ele>564.0</ele><time>2026-05-02T15:02:28Z</time></trkpt><trkpt lat="41.76753224391962" lon="12.709628027839386"><ele>564.0</ele><time>2026-05-02T15:02:29Z</time></trkpt><trkpt lat="41.767414996033274" lon="12.709653498590246"><ele>565.25</ele><time>2026-05-02T15:02:30Z</time></trkpt><trkpt lat="41.76731693360894" lon="12.70972575684229"><ele>566.5</ele><time>2026-05-02T15:02:31Z</time></trkpt><trkpt lat="41.7672402506957" lon="12.709843105304321"><ele>567.75</ele><time>2026-05-02T15:02:32Z</time></trkpt><trkpt lat="41.767184538838116" lon="12.70997459108455"><ele>569.0</ele><time>2026-05-02T15:02:33Z</time></trkpt><trkpt lat="41.76718166250161" lon="12.710165145180758"><ele>570.75</ele><time>2026-05-02T15:02:34Z</time></trkpt><trkpt lat="41.76720147120589" lon="12.710327008375183"><ele>572.5</ele><time>2026-05-02T15:02:35Z</time></trkpt><trkpt lat="41.767237125766115" lon="12.710491177682169"><ele>574.25</ele><time>2026-05-02T15:02:36Z</time></trkpt><trkpt lat="41.76727871646621" lon="12.710647514269832"><ele>576.0</ele><time>2026-05-02T15:02:37Z</time></trkpt><trkpt lat="41.76731996081024" lon="12.710792573594306"><ele>576.0</ele><time>2026-05-02T15:02:38Z</time></trkpt><trkpt lat="41.76736017860641" lon="12.710932182291973"><ele>576.0</ele><time>2026-05-02T15:02:39Z</time></trkpt><trkpt lat="41.76740237125752" lon="12.711073216222665"><ele>576.0</ele><time>2026-05-02T15:02:40Z</time></trkpt><trkpt lat="41.7674392348264" lon="12.711194462887377"><ele>576.0</ele><time>2026-05-02T15:02:41Z</time></trkpt><trkpt lat="41.76746054978595" lon="12.711281268464802"><ele>576.0</ele><time>2026-05-02T15:02:42Z</time></trkpt><trkpt lat="41.767438825191064" lon="12.711364298899658"><ele>577.8</ele><time>2026-05-02T15:02:43Z</time></trkpt><trkpt lat="41.767312363735805" lon="12.711400274446833"><ele>579.6</ele><time>2026-05-02T15:02:45Z</time></trkpt><trkpt lat="41.767244798238906" lon="12.711339177927162"><ele>581.4</ele><time>2026-05-02T15:02:46Z</time></trkpt><trkpt lat="41.767178602710224" lon="12.711265374082341"><ele>583.2</ele><time>2026-05-02T15:02:47Z</time></trkpt><trkpt lat="41.767099662524245" lon="12.711215070276861"><ele>585.0</ele><time>2026-05-02T15:02:48Z</time></trkpt><trkpt lat="41.766989622406996" lon="12.711207252417069"><ele>588.0</ele><time>2026-05-02T15:02:50Z</time></trkpt><trkpt lat="41.76676420920321" lon="12.711233352433597"><ele>591.0</ele><time>2026-05-02T15:02:51Z</time></trkpt><trkpt lat="41.766643600857684" lon="12.711260667725618"><ele>594.0</ele><time>2026-05-02T15:02:52Z</time></trkpt><trkpt lat="41.76653266286547" lon="12.711290361769953"><ele>594.0</ele><time>2026-05-02T15:02:53Z</time></trkpt><trkpt lat="41.766416421436084" lon="12.711325283202648"><ele>594.0</ele><time>2026-05-02T15:02:54Z</time></trkpt><trkpt lat="41.76630342701356" lon="12.711354116583061"><ele>594.0</ele><time>2026-05-02T15:02:55Z</time></trkpt><trkpt lat="41.766195295903316" lon="12.711315874719963"><ele>594.0</ele><time>2026-05-02T15:02:56Z</time></trkpt><trkpt lat="41.76609366549038" lon="12.711251375823402"><ele>594.5</ele><time>2026-05-02T15:02:57Z</time></trkpt><trkpt lat="41.76601465171429" lon="12.711143236250974"><ele>595.0</ele><time>2026-05-02T15:02:58Z</time></trkpt><trkpt lat="41.76592114802199" lon="12.711047071318907"><ele>595.5</ele><time>2026-05-02T15:02:59Z</time></trkpt><trkpt lat="41.76582860487554" lon="12.710951180596949"><ele>596.0</ele><time>2026-05-02T15:03:00Z</time></trkpt><trkpt lat="41.76571933940763" lon="12.710877817286558"><ele>596.0</ele><time>2026-05-02T15:03:01Z</time></trkpt><trkpt lat="41.7656030395129" lon="12.710795271585987"><ele>596.0</ele><time>2026-05-02T15:03:02Z</time></trkpt><trkpt lat="41.76548518293721" lon="12.710731041208897"><ele>596.0</ele><time>2026-05-02T15:03:03Z</time></trkpt><trkpt lat="41.765364952018004" lon="12.710675139202394"><ele>596.0</ele><time>2026-05-02T15:03:04Z</time></trkpt><trkpt lat="41.76524438059257" lon="12.710628594137328"><ele>598.4</ele><time>2026-05-02T15:03:05Z</time></trkpt><trkpt lat="41.76512481825314" lon="12.7105890598264"><ele>600.8</ele><time>2026-05-02T15:03:06Z</time></trkpt><trkpt lat="41.765013397665705" lon="12.71055301025709"><ele>603.1999999999999</ele><time>2026-05-02T15:03:07Z</time></trkpt><trkpt lat="41.764908567184264" lon="12.710534280731316"><ele>605.6</ele><time>2026-05-02T15:03:08Z</time></trkpt><trkpt lat="41.76481460293631" lon="12.71051456595627"><ele>608.0</ele><time>2026-05-02T15:03:09Z</time></trkpt><trkpt lat="41.76470522236142" lon="12.710514223258098"><ele>608.0</ele><time>2026-05-02T15:03:10Z</time></trkpt><trkpt lat="41.76460770521744" lon="12.710478702264671"><ele>608.0</ele><time>2026-05-02T15:03:11Z</time></trkpt><trkpt lat="41.764500557585535" lon="12.71048441052348"><ele>608.0</ele><time>2026-05-02T15:03:12Z</time></trkpt><trkpt lat="41.76439208075234" lon="12.710503892080672"><ele>608.0</ele><time>2026-05-02T15:03:13Z</time></trkpt><trkpt lat="41.764280686414146" lon="12.710544774618485"><ele>608.0</ele><time>2026-05-02T15:03:14Z</time></trkpt><trkpt lat="41.76418054130116" lon="12.71060012507584"><ele>609.4</ele><time>2026-05-02T15:03:15Z</time></trkpt><trkpt lat="41.76408542570226" lon="12.710654777199718"><ele>610.8</ele><time>2026-05-02T15:03:16Z</time></trkpt><trkpt lat="41.7639850208099" lon="12.710717349804542"><ele>612.2</ele><time>2026-05-02T15:03:17Z</time></trkpt><trkpt lat="41.76388891161822" lon="12.710792360689075"><ele>613.6</ele><time>2026-05-02T15:03:18Z</time></trkpt><trkpt lat="41.76379919945827" lon="12.710871510662646"><ele>615.0</ele><time>2026-05-02T15:03:19Z</time></trkpt><trkpt lat="41.76371288183667" lon="12.710951181718631"><ele>615.0</ele><time>2026-05-02T15:03:20Z</time></trkpt><trkpt lat="41.76362656569451" lon="12.711029329588115"><ele>615.0</ele><time>2026-05-02T15:03:21Z</time></trkpt><trkpt lat="41.76354021685141" lon="12.711105535658291"><ele>615.0</ele><time>2026-05-02T15:03:22Z</time></trkpt><trkpt lat="41.76345641569199" lon="12.711178644660222"><ele>615.0</ele><time>2026-05-02T15:03:23Z</time></trkpt><trkpt lat="41.763368786527714" lon="12.711191489555924"><ele>615.0</ele><time>2026-05-02T15:03:24Z</time></trkpt><trkpt lat="41.76327759134728" lon="12.711170623953576"><ele>616.0</ele><time>2026-05-02T15:03:25Z</time></trkpt><trkpt lat="41.76319497240955" lon="12.711112007317897"><ele>617.0</ele><time>2026-05-02T15:03:26.001Z</time></trkpt><trkpt lat="41.763118826736786" lon="12.711048728609992"><ele>618.0</ele><time>2026-05-02T15:03:27.001Z</time></trkpt><trkpt lat="41.763076744137514" lon="12.710944993424176"><ele>619.0</ele><time>2026-05-02T15:03:28.001Z</time></trkpt><trkpt lat="41.763064538763324" lon="12.710832008863703"><ele>620.0</ele><time>2026-05-02T15:03:29.001Z</time></trkpt><trkpt lat="41.763079416571365" lon="12.710715509127798"><ele>621.0</ele><time>2026-05-02T15:03:30.001Z</time></trkpt><trkpt lat="41.763125784608924" lon="12.71060114777299"><ele>621.0</ele><time>2026-05-02T15:03:31.001Z</time></trkpt><trkpt lat="41.763195472953406" lon="12.7104916375568"><ele>621.0</ele><time>2026-05-02T15:03:32.001Z</time></trkpt><trkpt lat="41.763269452957054" lon="12.710377643809146"><ele>621.0</ele><time>2026-05-02T15:03:33.001Z</time></trkpt><trkpt lat="41.76333249154199" lon="12.710249382719013"><ele>621.0</ele><time>2026-05-02T15:03:34.001Z</time></trkpt><trkpt lat="41.763393121806125" lon="12.710111993616762"><ele>622.0</ele><time>2026-05-02T15:03:35.001Z</time></trkpt><trkpt lat="41.76345493279661" lon="12.709975640465935"><ele>623.0</ele><time>2026-05-02T15:03:36.001Z</time></trkpt><trkpt lat="41.76351911579159" lon="12.709844157258287"><ele>624.0</ele><time>2026-05-02T15:03:37.001Z</time></trkpt><trkpt lat="41.76357955498031" lon="12.709713000310394"><ele>625.0</ele><time>2026-05-02T15:03:38.001Z</time></trkpt><trkpt lat="41.76361410157962" lon="12.709570604212079"><ele>626.2</ele><time>2026-05-02T15:03:39.001Z</time></trkpt><trkpt lat="41.76361859851151" lon="12.709425592929428"><ele>627.4</ele><time>2026-05-02T15:03:40.001Z</time></trkpt><trkpt lat="41.763595650544104" lon="12.709279306118768"><ele>628.6</ele><time>2026-05-02T15:03:41Z</time></trkpt><trkpt lat="41.763546702328156" lon="12.709144980922783"><ele>629.8</ele><time>2026-05-02T15:03:42Z</time></trkpt><trkpt lat="41.76348347043491" lon="12.709017709365403"><ele>631.0</ele><time>2026-05-02T15:03:43Z</time></trkpt><trkpt lat="41.763419495218066" lon="12.70889195169679"><ele>631.0</ele><time>2026-05-02T15:03:44Z</time></trkpt><trkpt lat="41.76334482674385" lon="12.708775859969435"><ele>631.0</ele><time>2026-05-02T15:03:45Z</time></trkpt><trkpt lat="41.7632501299538" lon="12.708690010128333"><ele>631.0</ele><time>2026-05-02T15:03:46Z</time></trkpt><trkpt lat="41.76314756460449" lon="12.708629512619051"><ele>631.0</ele><time>2026-05-02T15:03:47Z</time></trkpt><trkpt lat="41.76303481542743" lon="12.708601643757632"><ele>628.4</ele><time>2026-05-02T15:03:48Z</time></trkpt><trkpt lat="41.76292831070777" lon="12.708571901694459"><ele>625.8</ele><time>2026-05-02T15:03:49Z</time></trkpt><trkpt lat="41.76284192125167" lon="12.708493282105389"><ele>623.1999999999999</ele><time>2026-05-02T15:03:50Z</time></trkpt><trkpt lat="41.762761014675135" lon="12.708418283092346"><ele>620.6</ele><time>2026-05-02T15:03:51Z</time></trkpt><trkpt lat="41.76272227036568" lon="12.708291435894822"><ele>618.0</ele><time>2026-05-02T15:03:52Z</time></trkpt><trkpt lat="41.76270500637043" lon="12.708149664602116"><ele>618.0</ele><time>2026-05-02T15:03:53Z</time></trkpt><trkpt lat="41.762709062217205" lon="12.708007231394747"><ele>618.0</ele><time>2026-05-02T15:03:54Z</time></trkpt><trkpt lat="41.762724128211445" lon="12.70786750105352"><ele>618.0</ele><time>2026-05-02T15:03:55Z</time></trkpt><trkpt lat="41.76272636905198" lon="12.707736982992552"><ele>618.0</ele><time>2026-05-02T15:03:56Z</time></trkpt><trkpt lat="41.762726451193075" lon="12.707606949512286"><ele>618.0</ele><time>2026-05-02T15:03:57Z</time></trkpt><trkpt lat="41.762722260574236" lon="12.707488697785067"><ele>616.6666666666666</ele><time>2026-05-02T15:03:58Z</time></trkpt><trkpt lat="41.76270316014986" lon="12.70738658683076"><ele>615.3333333333334</ele><time>2026-05-02T15:03:59Z</time></trkpt><trkpt lat="41.762684104808145" lon="12.707300273153189"><ele>614.0</ele><time>2026-05-02T15:04:00Z</time></trkpt><trkpt lat="41.762639840152666" lon="12.707212329284685"><ele>612.6666666666667</ele><time>2026-05-02T15:04:01Z</time></trkpt><trkpt lat="41.7626330511175" lon="12.707106982905177"><ele>611.3333333333334</ele><time>2026-05-02T15:04:02Z</time></trkpt><trkpt lat="41.76262346348255" lon="12.706986646852915"><ele>610.0</ele><time>2026-05-02T15:04:03Z</time></trkpt><trkpt lat="41.762613105917275" lon="12.706866765414652"><ele>615.0</ele><time>2026-05-02T15:04:04Z</time></trkpt><trkpt lat="41.76260304222557" lon="12.706750285432138"><ele>620.0</ele><time>2026-05-02T15:04:05Z</time></trkpt><trkpt lat="41.76259305522252" lon="12.706634692983544"><ele>625.0</ele><time>2026-05-02T15:04:06Z</time></trkpt><trkpt lat="41.762581615512545" lon="12.706523924618368"><ele>630.0</ele><time>2026-05-02T15:04:07Z</time></trkpt><trkpt lat="41.76256456368749" lon="12.706426952979818"><ele>635.0</ele><time>2026-05-02T15:04:08Z</time></trkpt><trkpt lat="41.762518975230435" lon="12.70630319433873"><ele>640.0</ele><time>2026-05-02T15:04:10Z</time></trkpt><trkpt lat="41.76245225590135" lon="12.706239709495303"><ele>640.0</ele><time>2026-05-02T15:04:12Z</time></trkpt><trkpt lat="41.76239512601321" lon="12.706174368846606"><ele>640.0</ele><time>2026-05-02T15:04:14Z</time></trkpt><trkpt lat="41.76232703935566" lon="12.706187080721595"><ele>640.0</ele><time>2026-05-02T15:04:16Z</time></trkpt><trkpt lat="41.7622582519849" lon="12.706195925631048"><ele>640.0</ele><time>2026-05-02T15:04:17Z</time></trkpt><trkpt lat="41.7622040209322" lon="12.706331569674289"><ele>640.0</ele><time>2026-05-02T15:04:19Z</time></trkpt><trkpt lat="41.76214622468121" lon="12.70645788663546"><ele>640.0</ele><time>2026-05-02T15:04:21Z</time></trkpt><trkpt lat="41.76208085388852" lon="12.706588382056074"><ele>640.0</ele><time>2026-05-02T15:04:23Z</time></trkpt><trkpt lat="41.762057817564944" lon="12.70667136149776"><ele>640.0</ele><time>2026-05-02T15:04:24Z</time></trkpt><trkpt lat="41.76201226922348" lon="12.706736346252784"><ele>640.0</ele><time>2026-05-02T15:04:25Z</time></trkpt><trkpt lat="41.76197939613354" lon="12.70681284031171"><ele>640.0</ele><time>2026-05-02T15:04:26Z</time></trkpt><trkpt lat="41.76194593204299" lon="12.706891093573892"><ele>640.0</ele><time>2026-05-02T15:04:27Z</time></trkpt><trkpt lat="41.76190307522971" lon="12.706966064713328"><ele>640.0</ele><time>2026-05-02T15:04:28Z</time></trkpt><trkpt lat="41.76185222909762" lon="12.707036348293402"><ele>640.0</ele><time>2026-05-02T15:04:29Z</time></trkpt><trkpt lat="41.761800855396764" lon="12.707112233038542"><ele>642.3333333333334</ele><time>2026-05-02T15:04:30Z</time></trkpt><trkpt lat="41.76175186308647" lon="12.707190790815995"><ele>644.6666666666667</ele><time>2026-05-02T15:04:31Z</time></trkpt><trkpt lat="41.7617006492813" lon="12.707268276012844"><ele>647.0</ele><time>2026-05-02T15:04:32Z</time></trkpt><trkpt lat="41.761640332053474" lon="12.70733684573348"><ele>649.3333333333334</ele><time>2026-05-02T15:04:33Z</time></trkpt><trkpt lat="41.761569792931006" lon="12.707386507779432"><ele>651.6666666666666</ele><time>2026-05-02T15:04:34Z</time></trkpt><trkpt lat="41.761493717880334" lon="12.707427105901116"><ele>654.0</ele><time>2026-05-02T15:04:35Z</time></trkpt><trkpt lat="41.76141460263927" lon="12.70745908115641"><ele>654.0</ele><time>2026-05-02T15:04:36Z</time></trkpt><trkpt lat="41.761327900599916" lon="12.707476992103292"><ele>654.0</ele><time>2026-05-02T15:04:37Z</time></trkpt><trkpt lat="41.76124059865293" lon="12.707487192866266"><ele>654.0</ele><time>2026-05-02T15:04:38Z</time></trkpt><trkpt lat="41.761157348603156" lon="12.70750984666471"><ele>654.0</ele><time>2026-05-02T15:04:39Z</time></trkpt><trkpt lat="41.7610787087863" lon="12.707540910041303"><ele>654.0</ele><time>2026-05-02T15:04:40Z</time></trkpt><trkpt lat="41.76100441235118" lon="12.70758060543436"><ele>654.0</ele><time>2026-05-02T15:04:41Z</time></trkpt><trkpt lat="41.760930865803196" lon="12.707631534948078"><ele>653.3333333333334</ele><time>2026-05-02T15:04:42Z</time></trkpt><trkpt lat="41.76085154913845" lon="12.707682107043338"><ele>652.6666666666666</ele><time>2026-05-02T15:04:43Z</time></trkpt><trkpt lat="41.76077516888912" lon="12.707727014654814"><ele>652.0</ele><time>2026-05-02T15:04:44Z</time></trkpt><trkpt lat="41.76068903793037" lon="12.707735251087577"><ele>651.3333333333333</ele><time>2026-05-02T15:04:45Z</time></trkpt><trkpt lat="41.760606707743875" lon="12.707753594408498"><ele>650.6666666666666</ele><time>2026-05-02T15:04:46Z</time></trkpt><trkpt lat="41.76052683906445" lon="12.707804586395916"><ele>650.0</ele><time>2026-05-02T15:04:47Z</time></trkpt><trkpt lat="41.760442313777496" lon="12.7078272731851"><ele>654.3333333333333</ele><time>2026-05-02T15:04:48Z</time></trkpt><trkpt lat="41.760360392050686" lon="12.707859248732849"><ele>658.6666666666666</ele><time>2026-05-02T15:04:49Z</time></trkpt><trkpt lat="41.76028179143892" lon="12.707889368336037"><ele>663.0</ele><time>2026-05-02T15:04:50Z</time></trkpt><trkpt lat="41.76020289506445" lon="12.707929964369603"><ele>667.3333333333334</ele><time>2026-05-02T15:04:51Z</time></trkpt><trkpt lat="41.76012210860672" lon="12.707961995881723"><ele>671.6666666666667</ele><time>2026-05-02T15:04:52Z</time></trkpt><trkpt lat="41.76004047193036" lon="12.707988501519411"><ele>676.0</ele><time>2026-05-02T15:04:53Z</time></trkpt><trkpt lat="41.75995849057569" lon="12.708015806876062"><ele>676.0</ele><time>2026-05-02T15:04:54Z</time></trkpt><trkpt lat="41.75987744135655" lon="12.708046106159504"><ele>676.0</ele><time>2026-05-02T15:04:55Z</time></trkpt><trkpt lat="41.75980183459798" lon="12.708079845704535"><ele>676.0</ele><time>2026-05-02T15:04:56Z</time></trkpt><trkpt lat="41.75972386774793" lon="12.708104056632786"><ele>676.0</ele><time>2026-05-02T15:04:57Z</time></trkpt><trkpt lat="41.75964484103019" lon="12.708104712873121"><ele>676.0</ele><time>2026-05-02T15:04:58Z</time></trkpt><trkpt lat="41.75956408751166" lon="12.708087252106267"><ele>676.0</ele><time>2026-05-02T15:04:59Z</time></trkpt><trkpt lat="41.75948768384489" lon="12.708063726846486"><ele>676.0</ele><time>2026-05-02T15:05:00Z</time></trkpt><trkpt lat="41.75942061740782" lon="12.708025458079362"><ele>676.0</ele><time>2026-05-02T15:05:01Z</time></trkpt><trkpt lat="41.759354267431384" lon="12.70799166850683"><ele>676.0</ele><time>2026-05-02T15:05:02Z</time></trkpt><trkpt lat="41.75928521410967" lon="12.707941961211624"><ele>676.0</ele><time>2026-05-02T15:05:03Z</time></trkpt><trkpt lat="41.759212353437704" lon="12.707897105803372"><ele>676.0</ele><time>2026-05-02T15:05:04Z</time></trkpt><trkpt lat="41.759141907403716" lon="12.707847934170497"><ele>676.0</ele><time>2026-05-02T15:05:05Z</time></trkpt><trkpt lat="41.75907223640863" lon="12.707798681513884"><ele>678.0</ele><time>2026-05-02T15:05:06Z</time></trkpt><trkpt lat="41.75900386219604" lon="12.70774594400063"><ele>680.0</ele><time>2026-05-02T15:05:07Z</time></trkpt><trkpt lat="41.75893268826434" lon="12.707700271985075"><ele>682.0</ele><time>2026-05-02T15:05:08Z</time></trkpt><trkpt lat="41.758864085193714" lon="12.707643132175928"><ele>684.0</ele><time>2026-05-02T15:05:09Z</time></trkpt><trkpt lat="41.758796599246516" lon="12.70758285783369"><ele>686.0</ele><time>2026-05-02T15:05:10Z</time></trkpt><trkpt lat="41.758728926946176" lon="12.707524216465094"><ele>688.0</ele><time>2026-05-02T15:05:11Z</time></trkpt><trkpt lat="41.758663792957805" lon="12.707462931918556"><ele>688.0</ele><time>2026-05-02T15:05:12Z</time></trkpt><trkpt lat="41.758595377628815" lon="12.707408621592466"><ele>688.0</ele><time>2026-05-02T15:05:13Z</time></trkpt><trkpt lat="41.75852245699349" lon="12.707357500419171"><ele>688.0</ele><time>2026-05-02T15:05:14Z</time></trkpt><trkpt lat="41.758447599079666" lon="12.70731611036054"><ele>688.0</ele><time>2026-05-02T15:05:15Z</time></trkpt><trkpt lat="41.7583724499537" lon="12.707276864577926"><ele>688.0</ele><time>2026-05-02T15:05:16Z</time></trkpt><trkpt lat="41.758294956145996" lon="12.707237589958162"><ele>688.0</ele><time>2026-05-02T15:05:17Z</time></trkpt><trkpt lat="41.7582176067943" lon="12.70719799014209"><ele>688.0</ele><time>2026-05-02T15:05:18Z</time></trkpt><trkpt lat="41.75814228849334" lon="12.707156547914472"><ele>688.0</ele><time>2026-05-02T15:05:19Z</time></trkpt><trkpt lat="41.75807360074557" lon="12.70712638430749"><ele>688.0</ele><time>2026-05-02T15:05:20Z</time></trkpt><trkpt lat="41.7580024842281" lon="12.707109197850063"><ele>688.0</ele><time>2026-05-02T15:05:21Z</time></trkpt><trkpt lat="41.75793648913685" lon="12.707115807024987"><ele>688.0</ele><time>2026-05-02T15:05:22Z</time></trkpt><trkpt lat="41.757825005536404" lon="12.707175627398822"><ele>688.0</ele><time>2026-05-02T15:05:24Z</time></trkpt><trkpt lat="41.75775768627144" lon="12.70720946428295"><ele>690.0000000000001</ele><time>2026-05-02T15:05:25Z</time></trkpt><trkpt lat="41.757688533243716" lon="12.707236526345197"><ele>692.0</ele><time>2026-05-02T15:05:26Z</time></trkpt><trkpt lat="41.75762249175894" lon="12.707256475834937"><ele>694.0</ele><time>2026-05-02T15:05:27Z</time></trkpt><trkpt lat="41.75754361339068" lon="12.707244302195884"><ele>696.0</ele><time>2026-05-02T15:05:28Z</time></trkpt><trkpt lat="41.757474941159956" lon="12.70724962396502"><ele>698.0</ele><time>2026-05-02T15:05:28.999Z</time></trkpt><trkpt lat="41.757409606010015" lon="12.707254985350902"><ele>700.0000000000001</ele><time>2026-05-02T15:05:29.999Z</time></trkpt><trkpt lat="41.7573433399618" lon="12.707284373587317"><ele>702.0</ele><time>2026-05-02T15:05:30.999Z</time></trkpt><trkpt lat="41.75727138458275" lon="12.707297573567493"><ele>702.0</ele><time>2026-05-02T15:05:31.999Z</time></trkpt><trkpt lat="41.757194606148246" lon="12.70731389256185"><ele>702.0</ele><time>2026-05-02T15:05:32.999Z</time></trkpt><trkpt lat="41.757113376725385" lon="12.707312189541678"><ele>702.0</ele><time>2026-05-02T15:05:33.999Z</time></trkpt><trkpt lat="41.75703627321803" lon="12.707299493060026"><ele>702.0</ele><time>2026-05-02T15:05:34.999Z</time></trkpt><trkpt lat="41.75695883254255" lon="12.707276979772312"><ele>702.0</ele><time>2026-05-02T15:05:35.999Z</time></trkpt><trkpt lat="41.75688422628774" lon="12.707239749547686"><ele>702.0</ele><time>2026-05-02T15:05:36.999Z</time></trkpt><trkpt lat="41.756828126465116" lon="12.707199495521087"><ele>703.6</ele><time>2026-05-02T15:05:37.999Z</time></trkpt><trkpt lat="41.75670627341601" lon="12.70713764808777"><ele>705.2</ele><time>2026-05-02T15:05:39.999Z</time></trkpt><trkpt lat="41.75663843014389" lon="12.70712948838909"><ele>706.8</ele><time>2026-05-02T15:05:40.999Z</time></trkpt><trkpt lat="41.756575314765186" lon="12.707112469942434"><ele>708.4</ele><time>2026-05-02T15:05:41.999Z</time></trkpt><trkpt lat="41.75647271828153" lon="12.707033829307601"><ele>710.0</ele><time>2026-05-02T15:05:43.999Z</time></trkpt><trkpt lat="41.75641191723412" lon="12.706894670057878"><ele>704.4</ele><time>2026-05-02T15:05:45.999Z</time></trkpt><trkpt lat="41.75637993210106" lon="12.706729309906004"><ele>698.8</ele><time>2026-05-02T15:05:47.999Z</time></trkpt><trkpt lat="41.756376848908374" lon="12.706644895060878"><ele>693.2</ele><time>2026-05-02T15:05:48.999Z</time></trkpt><trkpt lat="41.756316391322876" lon="12.706505083920584"><ele>687.6</ele><time>2026-05-02T15:05:50.999Z</time></trkpt><trkpt lat="41.75623592373783" lon="12.706401408408865"><ele>682.0</ele><time>2026-05-02T15:05:52.999Z</time></trkpt><trkpt lat="41.75615567449793" lon="12.706345421092774"><ele>682.0</ele><time>2026-05-02T15:05:54.999Z</time></trkpt><trkpt lat="41.75609578462136" lon="12.70630018548369"><ele>682.0</ele><time>2026-05-02T15:05:56.999Z</time></trkpt><trkpt lat="41.756014958982874" lon="12.706261724564083"><ele>682.0</ele><time>2026-05-02T15:05:59.999Z</time></trkpt><trkpt lat="41.75596520060332" lon="12.706371764593937"><ele>682.0</ele><time>2026-05-02T15:06:02.999Z</time></trkpt><trkpt lat="41.75603463846551" lon="12.70646565758115"><ele>682.0</ele><time>2026-05-02T15:06:04.999Z</time></trkpt><trkpt lat="41.75610484309489" lon="12.706488801755158"><ele>682.0</ele><time>2026-05-02T15:06:05.999Z</time></trkpt><trkpt lat="41.75620464840022" lon="12.706561959453612"><ele>682.0</ele><time>2026-05-02T15:06:07.999Z</time></trkpt><trkpt lat="41.75627626566321" lon="12.706674104402197"><ele>682.0</ele><time>2026-05-02T15:06:09.999Z</time></trkpt><trkpt lat="41.756304039401876" lon="12.706750410940879"><ele>682.0</ele><time>2026-05-02T15:06:10.999Z</time></trkpt><trkpt lat="41.75635512099921" lon="12.706897752126185"><ele>682.0</ele><time>2026-05-02T15:06:12.999Z</time></trkpt><trkpt lat="41.756393755724986" lon="12.7070351692862"><ele>682.0</ele><time>2026-05-02T15:06:14.999Z</time></trkpt><trkpt lat="41.756465090597715" lon="12.70717397555885"><ele>685.3333333333334</ele><time>2026-05-02T15:06:16.999Z</time></trkpt><trkpt lat="41.75652333101354" lon="12.707224135239347"><ele>688.6666666666667</ele><time>2026-05-02T15:06:17.999Z</time></trkpt><trkpt lat="41.75659402678361" lon="12.707260065597627"><ele>692.0</ele><time>2026-05-02T15:06:18.999Z</time></trkpt><trkpt lat="41.75667452771329" lon="12.707286779026346"><ele>695.3333333333334</ele><time>2026-05-02T15:06:19.999Z</time></trkpt><trkpt lat="41.75674603726167" lon="12.707312516201592"><ele>698.6666666666666</ele><time>2026-05-02T15:06:20.999Z</time></trkpt><trkpt lat="41.75680181810118" lon="12.707365112865595"><ele>702.0</ele><time>2026-05-02T15:06:21.999Z</time></trkpt><trkpt lat="41.75691209990835" lon="12.707422856028519"><ele>702.0</ele><time>2026-05-02T15:06:23.999Z</time></trkpt><trkpt lat="41.75702774373827" lon="12.70747395230196"><ele>702.0</ele><time>2026-05-02T15:06:25.999Z</time></trkpt><trkpt lat="41.757158504726235" lon="12.707460720228518"><ele>702.0</ele><time>2026-05-02T15:06:27.999Z</time></trkpt><trkpt lat="41.7572813048848" lon="12.707472850361123"><ele>702.0</ele><time>2026-05-02T15:06:29.999Z</time></trkpt><trkpt lat="41.757394290888485" lon="12.707462429744483"><ele>702.0</ele><time>2026-05-02T15:06:31.999Z</time></trkpt><trkpt lat="41.757492793485426" lon="12.707460799209247"><ele>702.0</ele><time>2026-05-02T15:06:33.999Z</time></trkpt><trkpt lat="41.75760183767762" lon="12.707463785544963"><ele>702.0</ele><time>2026-05-02T15:06:35.999Z</time></trkpt><trkpt lat="41.75771441554221" lon="12.707454705195943"><ele>702.0</ele><time>2026-05-02T15:06:37.999Z</time></trkpt><trkpt lat="41.75781350077165" lon="12.707449864419608"><ele>702.0</ele><time>2026-05-02T15:06:39.999Z</time></trkpt><trkpt lat="41.757912426965454" lon="12.707461564001983"><ele>699.2</ele><time>2026-05-02T15:06:41.999Z</time></trkpt><trkpt lat="41.758017069860685" lon="12.70750035328756"><ele>696.4000000000001</ele><time>2026-05-02T15:06:43.999Z</time></trkpt><trkpt lat="41.758124400659995" lon="12.707540976277574"><ele>693.5999999999999</ele><time>2026-05-02T15:06:45.999Z</time></trkpt><trkpt lat="41.758214387772696" lon="12.707641426160327"><ele>690.8</ele><time>2026-05-02T15:06:47.999Z</time></trkpt><trkpt lat="41.75830685678145" lon="12.707723228744003"><ele>688.0</ele><time>2026-05-02T15:06:49.999Z</time></trkpt><trkpt lat="41.7583920132371" lon="12.707798001281107"><ele>688.0</ele><time>2026-05-02T15:06:51.999Z</time></trkpt><trkpt lat="41.75847324047115" lon="12.707869545429373"><ele>688.0</ele><time>2026-05-02T15:06:53.999Z</time></trkpt><trkpt lat="41.758558606405515" lon="12.707926308255516"><ele>688.0</ele><time>2026-05-02T15:06:55.999Z</time></trkpt><trkpt lat="41.758636683778505" lon="12.708004195632615"><ele>688.0</ele><time>2026-05-02T15:06:57.999Z</time></trkpt><trkpt lat="41.75871840411303" lon="12.70807180543989"><ele>688.0</ele><time>2026-05-02T15:06:59.999Z</time></trkpt><trkpt lat="41.75879645804068" lon="12.708144214023132"><ele>688.0</ele><time>2026-05-02T15:07:01.999Z</time></trkpt><trkpt lat="41.75885989645853" lon="12.708220576213764"><ele>688.0</ele><time>2026-05-02T15:07:03.999Z</time></trkpt><trkpt lat="41.75893255813369" lon="12.7082869013294"><ele>688.0</ele><time>2026-05-02T15:07:05.999Z</time></trkpt><trkpt lat="41.75901493870271" lon="12.70836169153368"><ele>688.0</ele><time>2026-05-02T15:07:07.999Z</time></trkpt><trkpt lat="41.75908981142875" lon="12.708427985783214"><ele>688.0</ele><time>2026-05-02T15:07:09.999Z</time></trkpt><trkpt lat="41.759157138240084" lon="12.708484111650161"><ele>688.0</ele><time>2026-05-02T15:07:11.999Z</time></trkpt><trkpt lat="41.75922663585673" lon="12.708510882513345"><ele>688.0000000000001</ele><time>2026-05-02T15:07:13.999Z</time></trkpt><trkpt lat="41.75930145162847" lon="12.708567806033312"><ele>688.0</ele><time>2026-05-02T15:07:15.999Z</time></trkpt><trkpt lat="41.75937325627839" lon="12.708610018525208"><ele>688.0</ele><time>2026-05-02T15:07:17.999Z</time></trkpt><trkpt lat="41.759431487732215" lon="12.708662295953335"><ele>688.0</ele><time>2026-05-02T15:07:19.999Z</time></trkpt><trkpt lat="41.759501722109846" lon="12.708694367454559"><ele>688.0</ele><time>2026-05-02T15:07:21.999Z</time></trkpt><trkpt lat="41.75956425169516" lon="12.70872325977433"><ele>688.0000000000001</ele><time>2026-05-02T15:07:23.999Z</time></trkpt><trkpt lat="41.75963029921154" lon="12.708753875587423"><ele>688.0</ele><time>2026-05-02T15:07:25.999Z</time></trkpt><trkpt lat="41.75970974918342" lon="12.708786482052696"><ele>691.1666666666667</ele><time>2026-05-02T15:07:27.999Z</time></trkpt><trkpt lat="41.75978858532254" lon="12.70880980616294"><ele>694.3333333333334</ele><time>2026-05-02T15:07:29.999Z</time></trkpt><trkpt lat="41.75987189576884" lon="12.708813526532836"><ele>697.5</ele><time>2026-05-02T15:07:31.999Z</time></trkpt><trkpt lat="41.75992912809771" lon="12.708777298319738"><ele>700.6666666666666</ele><time>2026-05-02T15:07:33.999Z</time></trkpt><trkpt lat="41.76000327534319" lon="12.70876609364518"><ele>703.8333333333333</ele><time>2026-05-02T15:07:35.999Z</time></trkpt><trkpt lat="41.7600807072683" lon="12.708761654728052"><ele>707.0</ele><time>2026-05-02T15:07:37.998Z</time></trkpt><trkpt lat="41.760156132002315" lon="12.708771452316846"><ele>706.0</ele><time>2026-05-02T15:07:39.998Z</time></trkpt><trkpt lat="41.760217378911896" lon="12.708832201429155"><ele>705.0</ele><time>2026-05-02T15:07:41.998Z</time></trkpt><trkpt lat="41.7602820157674" lon="12.708842958125134"><ele>704.0</ele><time>2026-05-02T15:07:43.998Z</time></trkpt><trkpt lat="41.76035601615841" lon="12.708850786380122"><ele>703.0</ele><time>2026-05-02T15:07:45.998Z</time></trkpt><trkpt lat="41.76045332562287" lon="12.7088538432706"><ele>702.0</ele><time>2026-05-02T15:07:47.998Z</time></trkpt><trkpt lat="41.76054594231228" lon="12.708843520830243"><ele>701.0</ele><time>2026-05-02T15:07:49.998Z</time></trkpt><trkpt lat="41.76061927573065" lon="12.708847762112873"><ele>701.0</ele><time>2026-05-02T15:07:51.998Z</time></trkpt><trkpt lat="41.760696344225046" lon="12.708852329984438"><ele>701.0</ele><time>2026-05-02T15:07:53.998Z</time></trkpt><trkpt lat="41.76077968933312" lon="12.708826136430607"><ele>701.0</ele><time>2026-05-02T15:07:56.999Z</time></trkpt><trkpt lat="41.760837402425395" lon="12.708889808752671"><ele>701.0</ele><time>2026-05-02T15:08:00.999Z</time></trkpt><trkpt lat="41.760894137281795" lon="12.708927761901576"><ele>701.0</ele><time>2026-05-02T15:08:03.999Z</time></trkpt><trkpt lat="41.76097142410283" lon="12.708963001143296"><ele>701.0</ele><time>2026-05-02T15:08:06.999Z</time></trkpt><trkpt lat="41.761060963385326" lon="12.708946565707947"><ele>697.6666666666666</ele><time>2026-05-02T15:08:09.999Z</time></trkpt><trkpt lat="41.76113096350343" lon="12.708975327799783"><ele>694.3333333333333</ele><time>2026-05-02T15:08:11.999Z</time></trkpt><trkpt lat="41.76119316433141" lon="12.709022088850118"><ele>691.0</ele><time>2026-05-02T15:08:18.999Z</time></trkpt><trkpt lat="41.76122348391312" lon="12.709116857321487"><ele>687.6666666666666</ele><time>2026-05-02T15:08:21.999Z</time></trkpt><trkpt lat="41.761275496261845" lon="12.709188611951916"><ele>684.3333333333334</ele><time>2026-05-02T15:08:26.999Z</time></trkpt><trkpt lat="41.76131262905501" lon="12.709277527849913"><ele>681.0</ele><time>2026-05-02T15:08:28.999Z</time></trkpt><trkpt lat="41.76134893838282" lon="12.709370863586994"><ele>682.0</ele><time>2026-05-02T15:08:31.999Z</time></trkpt><trkpt lat="41.76138214227297" lon="12.709457298185095"><ele>683.0</ele><time>2026-05-02T15:08:34.999Z</time></trkpt><trkpt lat="41.761425909501455" lon="12.709537721917469"><ele>684.0</ele><time>2026-05-02T15:08:37.999Z</time></trkpt><trkpt lat="41.76148412616055" lon="12.709613277228408"><ele>685.0</ele><time>2026-05-02T15:08:41.999Z</time></trkpt><trkpt lat="41.76152863609683" lon="12.709711525297445"><ele>686.0</ele><time>2026-05-02T15:08:46.999Z</time></trkpt><trkpt lat="41.76159008270363" lon="12.709678212094264"><ele>687.0</ele><time>2026-05-02T15:08:47.999Z</time></trkpt><trkpt lat="41.76164955074763" lon="12.709745071464269"><ele>687.0</ele><time>2026-05-02T15:08:51.999Z</time></trkpt><trkpt lat="41.76166703709335" lon="12.709635311685195"><ele>687.0</ele><time>2026-05-02T15:08:53.999Z</time></trkpt><trkpt lat="41.76171821815293" lon="12.709541609215478"><ele>687.0</ele><time>2026-05-02T15:08:56.999Z</time></trkpt><trkpt lat="41.76176241494363" lon="12.709431806835541"><ele>687.0</ele><time>2026-05-02T15:08:59.999Z</time></trkpt><trkpt lat="41.761785296584065" lon="12.709326773245468"><ele>687.0</ele><time>2026-05-02T15:09:02.999Z</time></trkpt><trkpt lat="41.76180298537186" lon="12.709214004321057"><ele>687.0</ele><time>2026-05-02T15:09:05.999Z</time></trkpt><trkpt lat="41.7618212858688" lon="12.709101019589944"><ele>686.0</ele><time>2026-05-02T15:09:08.999Z</time></trkpt><trkpt lat="41.76186306135786" lon="12.70900283049652"><ele>685.0</ele><time>2026-05-02T15:09:11.999Z</time></trkpt><trkpt lat="41.76185290017323" lon="12.708906592818169"><ele>684.0</ele><time>2026-05-02T15:09:14.999Z</time></trkpt><trkpt lat="41.76187398091691" lon="12.708793337838241"><ele>683.0</ele><time>2026-05-02T15:09:17.999Z</time></trkpt><trkpt lat="41.76189780969566" lon="12.708676634910987"><ele>682.0</ele><time>2026-05-02T15:09:20.999Z</time></trkpt><trkpt lat="41.76191515368408" lon="12.708591649358029"><ele>681.0</ele><time>2026-05-02T15:09:22.999Z</time></trkpt><trkpt lat="41.76193326680395" lon="12.708505918487653"><ele>675.1666666666666</ele><time>2026-05-02T15:09:24.999Z</time></trkpt><trkpt lat="41.761959168152025" lon="12.70838481232745"><ele>669.3333333333334</ele><time>2026-05-02T15:09:27.999Z</time></trkpt><trkpt lat="41.76198399914458" lon="12.708265381289156"><ele>663.5</ele><time>2026-05-02T15:09:30.999Z</time></trkpt><trkpt lat="41.762014703634385" lon="12.708151733931027"><ele>657.6666666666667</ele><time>2026-05-02T15:09:33.999Z</time></trkpt><trkpt lat="41.762036855285004" lon="12.708058530541065"><ele>651.8333333333334</ele><time>2026-05-02T15:09:35.999Z</time></trkpt><trkpt lat="41.76205975258207" lon="12.707968644942222"><ele>646.0</ele><time>2026-05-02T15:09:37.999Z</time></trkpt><trkpt lat="41.76207134297378" lon="12.707875035933982"><ele>646.0000000000001</ele><time>2026-05-02T15:09:39.999Z</time></trkpt><trkpt lat="41.76209162477174" lon="12.707787085322051"><ele>646.0</ele><time>2026-05-02T15:09:41.999Z</time></trkpt><trkpt lat="41.762106008506265" lon="12.707688885884751"><ele>646.0</ele><time>2026-05-02T15:09:43.997Z</time></trkpt><trkpt lat="41.76213388201666" lon="12.707592627011246"><ele>646.0</ele><time>2026-05-02T15:09:45.996Z</time></trkpt><trkpt lat="41.762147779312684" lon="12.707489786469479"><ele>646.0</ele><time>2026-05-02T15:09:47.996Z</time></trkpt><trkpt lat="41.76214551540659" lon="12.70738695273776"><ele>646.0000000000001</ele><time>2026-05-02T15:09:49.996Z</time></trkpt><trkpt lat="41.76215483636655" lon="12.70729351914347"><ele>646.0</ele><time>2026-05-02T15:09:51.997Z</time></trkpt><trkpt lat="41.762164176425806" lon="12.707201239408532"><ele>645.3333333333334</ele><time>2026-05-02T15:09:53.997Z</time></trkpt><trkpt lat="41.76218658404908" lon="12.707104098366942"><ele>644.6666666666667</ele><time>2026-05-02T15:09:57.997Z</time></trkpt><trkpt lat="41.76218389976277" lon="12.706991849959646"><ele>644.0</ele><time>2026-05-02T15:10:02.997Z</time></trkpt><trkpt lat="41.76219339391665" lon="12.706896317088523"><ele>643.3333333333334</ele><time>2026-05-02T15:10:04.997Z</time></trkpt><trkpt lat="41.76222216518153" lon="12.706765968040813"><ele>642.6666666666666</ele><time>2026-05-02T15:10:06.997Z</time></trkpt><trkpt lat="41.762247508437646" lon="12.70666396909458"><ele>642.0</ele><time>2026-05-02T15:10:08.998Z</time></trkpt><trkpt lat="41.76229273170756" lon="12.706573591273456"><ele>641.6666666666666</ele><time>2026-05-02T15:10:11.998Z</time></trkpt><trkpt lat="41.76233081654307" lon="12.706489317949124"><ele>641.3333333333334</ele><time>2026-05-02T15:10:14.998Z</time></trkpt><trkpt lat="41.76237439793061" lon="12.706369667697482"><ele>641.0</ele><time>2026-05-02T15:16:46.001Z</time></trkpt><trkpt lat="41.76243030006114" lon="12.706270214397685"><ele>640.6666666666667</ele><time>2026-05-02T15:16:48.001Z</time></trkpt><trkpt lat="41.762436170064696" lon="12.706166004158979"><ele>640.3333333333334</ele><time>2026-05-02T15:16:51.001Z</time></trkpt><trkpt lat="41.76241516803958" lon="12.706083354366214"><ele>640.0</ele><time>2026-05-02T15:16:54.001Z</time></trkpt><trkpt lat="41.76247720228262" lon="12.70622904283358"><ele>640.0</ele><time>2026-05-02T15:17:05.001Z</time></trkpt><trkpt lat="41.76242631026507" lon="12.706126027673115"><ele>640.0</ele><time>2026-05-02T15:17:10.001Z</time></trkpt><trkpt lat="41.76235569594647" lon="12.706160501831361"><ele>640.0</ele><time>2026-05-02T15:17:38.001Z</time></trkpt><trkpt lat="41.76231142374733" lon="12.706289524133576"><ele>640.0</ele><time>2026-05-02T15:17:40.001Z</time></trkpt><trkpt lat="41.76226800146405" lon="12.706399368669171"><ele>640.0</ele><time>2026-05-02T15:17:42.001Z</time></trkpt><trkpt lat="41.762175729742644" lon="12.70639972354154"><ele>640.0</ele><time>2026-05-02T15:17:43.001Z</time></trkpt><trkpt lat="41.762113762851456" lon="12.706522859786133"><ele>640.0</ele><time>2026-05-02T15:17:45.001Z</time></trkpt><trkpt lat="41.76207854831344" lon="12.706592863835256"><ele>640.0</ele><time>2026-05-02T15:17:46.001Z</time></trkpt><trkpt lat="41.76203170732104" lon="12.706683929484496"><ele>640.0</ele><time>2026-05-02T15:17:48.001Z</time></trkpt><trkpt lat="41.76199068486205" lon="12.70674836509667"><ele>640.0</ele><time>2026-05-02T15:17:57.001Z</time></trkpt><trkpt lat="41.761949855259886" lon="12.706838577707197"><ele>640.0</ele><time>2026-05-02T15:18:02.001Z</time></trkpt><trkpt lat="41.76188259939721" lon="12.706977934057651"><ele>642.8</ele><time>2026-05-02T15:18:04.001Z</time></trkpt><trkpt lat="41.761814791907376" lon="12.70705581194736"><ele>645.6</ele><time>2026-05-02T15:18:06.001Z</time></trkpt><trkpt lat="41.76177704910267" lon="12.707136113477183"><ele>648.4000000000001</ele><time>2026-05-02T15:18:07.003Z</time></trkpt><trkpt lat="41.76169687988255" lon="12.707254235244882"><ele>651.2</ele><time>2026-05-02T15:18:09.003Z</time></trkpt><trkpt lat="41.76166031216517" lon="12.707323027966263"><ele>654.0</ele><time>2026-05-02T15:18:10.003Z</time></trkpt><trkpt lat="41.76155284149672" lon="12.707402186853235"><ele>654.0</ele><time>2026-05-02T15:18:12.003Z</time></trkpt><trkpt lat="41.761483513432616" lon="12.707414884539142"><ele>654.0</ele><time>2026-05-02T15:18:13.003Z</time></trkpt><trkpt lat="41.76136924816407" lon="12.707444241613485"><ele>654.0</ele><time>2026-05-02T15:18:15.003Z</time></trkpt><trkpt lat="41.7613011153941" lon="12.707455428854159"><ele>654.0</ele><time>2026-05-02T15:18:16.002Z</time></trkpt><trkpt lat="41.76123222315146" lon="12.7074663012934"><ele>654.0</ele><time>2026-05-02T15:18:17.002Z</time></trkpt><trkpt lat="41.76116180369827" lon="12.707486335363537"><ele>654.0</ele><time>2026-05-02T15:18:18.002Z</time></trkpt><trkpt lat="41.76109186600531" lon="12.707516038772122"><ele>653.3333333333334</ele><time>2026-05-02T15:18:19.002Z</time></trkpt><trkpt lat="41.76102598868866" lon="12.707557293277933"><ele>652.6666666666666</ele><time>2026-05-02T15:18:20.002Z</time></trkpt><trkpt lat="41.76095989880552" lon="12.707601297287871"><ele>652.0</ele><time>2026-05-02T15:18:21.002Z</time></trkpt><trkpt lat="41.76089135299291" lon="12.707642099256914"><ele>651.3333333333333</ele><time>2026-05-02T15:18:22.002Z</time></trkpt><trkpt lat="41.76082024660388" lon="12.70767900025324"><ele>650.6666666666666</ele><time>2026-05-02T15:18:23.002Z</time></trkpt><trkpt lat="41.760748304320835" lon="12.70771197155437"><ele>650.0</ele><time>2026-05-02T15:18:24.002Z</time></trkpt><trkpt lat="41.76067201849825" lon="12.707746228427283"><ele>654.5</ele><time>2026-05-02T15:18:25.002Z</time></trkpt><trkpt lat="41.760597978393804" lon="12.707777003026226"><ele>659.0</ele><time>2026-05-02T15:18:26.002Z</time></trkpt><trkpt lat="41.76052244767052" lon="12.707799051950387"><ele>663.5</ele><time>2026-05-02T15:18:27.002Z</time></trkpt><trkpt lat="41.7604492958964" lon="12.70782862574915"><ele>668.0</ele><time>2026-05-02T15:18:28.002Z</time></trkpt><trkpt lat="41.76036907457578" lon="12.70785555535037"><ele>672.5</ele><time>2026-05-02T15:18:29.002Z</time></trkpt><trkpt lat="41.76029744688119" lon="12.707879724131862"><ele>677.0</ele><time>2026-05-02T15:18:30.002Z</time></trkpt><trkpt lat="41.760227737140106" lon="12.70790573444524"><ele>676.8571428571428</ele><time>2026-05-02T15:18:31.002Z</time></trkpt><trkpt lat="41.76016036242708" lon="12.707935227016046"><ele>676.7142857142857</ele><time>2026-05-02T15:18:32.002Z</time></trkpt><trkpt lat="41.76009745701596" lon="12.707961341135302"><ele>676.5714285714286</ele><time>2026-05-02T15:18:33.002Z</time></trkpt><trkpt lat="41.76003232853334" lon="12.707985452337082"><ele>676.4285714285713</ele><time>2026-05-02T15:18:34.002Z</time></trkpt><trkpt lat="41.75996557857298" lon="12.708009643515457"><ele>676.2857142857142</ele><time>2026-05-02T15:18:35.002Z</time></trkpt><trkpt lat="41.75990009705038" lon="12.70803352810148"><ele>676.1428571428571</ele><time>2026-05-02T15:18:36.001Z</time></trkpt><trkpt lat="41.75983394739195" lon="12.708056745757224"><ele>676.0</ele><time>2026-05-02T15:18:37.001Z</time></trkpt><trkpt lat="41.759707603928845" lon="12.708076750452198"><ele>676.0</ele><time>2026-05-02T15:18:39.001Z</time></trkpt><trkpt lat="41.759644246047095" lon="12.708072177831163"><ele>676.0</ele><time>2026-05-02T15:18:40.001Z</time></trkpt><trkpt lat="41.759523685006144" lon="12.708060459334115"><ele>676.0</ele><time>2026-05-02T15:18:42.001Z</time></trkpt><trkpt lat="41.759416179309106" lon="12.708027268041882"><ele>676.0</ele><time>2026-05-02T15:18:44.001Z</time></trkpt><trkpt lat="41.759352878347045" lon="12.707993826612025"><ele>676.0</ele><time>2026-05-02T15:18:45.001Z</time></trkpt><trkpt lat="41.75929177410418" lon="12.707954833117151"><ele>676.0</ele><time>2026-05-02T15:18:46.001Z</time></trkpt><trkpt lat="41.75923307521571" lon="12.70791564738748"><ele>677.7142857142858</ele><time>2026-05-02T15:18:47.001Z</time></trkpt><trkpt lat="41.7591736782019" lon="12.707875863867402"><ele>679.4285714285714</ele><time>2026-05-02T15:18:48.001Z</time></trkpt><trkpt lat="41.75911267964198" lon="12.707834412668314"><ele>681.1428571428571</ele><time>2026-05-02T15:18:49.001Z</time></trkpt><trkpt lat="41.75905172145873" lon="12.707790112230633"><ele>682.8571428571429</ele><time>2026-05-02T15:18:50.001Z</time></trkpt><trkpt lat="41.758990504929855" lon="12.707744834276204"><ele>684.5714285714286</ele><time>2026-05-02T15:18:51.001Z</time></trkpt><trkpt lat="41.75892979646175" lon="12.707698603613192"><ele>686.2857142857143</ele><time>2026-05-02T15:18:52.001Z</time></trkpt><trkpt lat="41.75886685806987" lon="12.7076492552151"><ele>688.0</ele><time>2026-05-02T15:18:53.001Z</time></trkpt><trkpt lat="41.758805702134936" lon="12.707597204992476"><ele>688.0000000000001</ele><time>2026-05-02T15:18:54.001Z</time></trkpt><trkpt lat="41.75874450778895" lon="12.707545210477997"><ele>688.0</ele><time>2026-05-02T15:18:55.001Z</time></trkpt><trkpt lat="41.75868330927969" lon="12.707493404659067"><ele>688.0</ele><time>2026-05-02T15:18:56.001Z</time></trkpt><trkpt lat="41.75862408197777" lon="12.707443660570357"><ele>688.0</ele><time>2026-05-02T15:18:57.001Z</time></trkpt><trkpt lat="41.758564837494795" lon="12.70739707272616"><ele>688.0</ele><time>2026-05-02T15:18:58.001Z</time></trkpt><trkpt lat="41.75850688574695" lon="12.707337485414705"><ele>688.0000000000001</ele><time>2026-05-02T15:18:59.001Z</time></trkpt><trkpt lat="41.7584405881296" lon="12.707300334436162"><ele>688.0</ele><time>2026-05-02T15:19:00.001Z</time></trkpt><trkpt lat="41.758371954684485" lon="12.707265214903185"><ele>688.0</ele><time>2026-05-02T15:19:01.001Z</time></trkpt><trkpt lat="41.75830640570154" lon="12.707226857035888"><ele>688.0</ele><time>2026-05-02T15:19:02.001Z</time></trkpt><trkpt lat="41.758242446608335" lon="12.70719578703524"><ele>688.0</ele><time>2026-05-02T15:19:03.001Z</time></trkpt><trkpt lat="41.758182606370355" lon="12.707155547507401"><ele>688.0</ele><time>2026-05-02T15:19:04.001Z</time></trkpt><trkpt lat="41.758066806417055" lon="12.707107764097254"><ele>688.0</ele><time>2026-05-02T15:19:06.001Z</time></trkpt><trkpt lat="41.75794334603164" lon="12.707121577634068"><ele>688.0000000000001</ele><time>2026-05-02T15:19:08.001Z</time></trkpt><trkpt lat="41.75788173843914" lon="12.707150656069944"><ele>688.0</ele><time>2026-05-02T15:19:09.001Z</time></trkpt><trkpt lat="41.75781813927671" lon="12.707181890739182"><ele>688.0</ele><time>2026-05-02T15:19:10.001Z</time></trkpt><trkpt lat="41.757750840395715" lon="12.707204236470883"><ele>688.0</ele><time>2026-05-02T15:19:11.001Z</time></trkpt><trkpt lat="41.75768149370746" lon="12.707222818270258"><ele>688.0</ele><time>2026-05-02T15:19:12.001Z</time></trkpt><trkpt lat="41.75761235446979" lon="12.707238744355806"><ele>688.0000000000001</ele><time>2026-05-02T15:19:13.001Z</time></trkpt><trkpt lat="41.757540426750474" lon="12.707251394676158"><ele>688.0</ele><time>2026-05-02T15:19:14.001Z</time></trkpt><trkpt lat="41.75746917701689" lon="12.707255533174836"><ele>690.0000000000001</ele><time>2026-05-02T15:19:15.001Z</time></trkpt><trkpt lat="41.75739893978486" lon="12.707254820264694"><ele>692.0</ele><time>2026-05-02T15:19:16.001Z</time></trkpt><trkpt lat="41.757330870840185" lon="12.70726245381157"><ele>694.0</ele><time>2026-05-02T15:19:17.001Z</time></trkpt><trkpt lat="41.75726714138508" lon="12.707275671297545"><ele>696.0</ele><time>2026-05-02T15:19:18.001Z</time></trkpt><trkpt lat="41.757202119064424" lon="12.70728929778535"><ele>698.0</ele><time>2026-05-02T15:19:19.001Z</time></trkpt><trkpt lat="41.757135844307854" lon="12.7072929612216"><ele>700.0000000000001</ele><time>2026-05-02T15:19:20.001Z</time></trkpt><trkpt lat="41.7570678347086" lon="12.70728258378673"><ele>702.0</ele><time>2026-05-02T15:19:21.001Z</time></trkpt><trkpt lat="41.7569973584688" lon="12.707252761121378"><ele>702.0000000000001</ele><time>2026-05-02T15:19:22.001Z</time></trkpt><trkpt lat="41.75692898522712" lon="12.707216503439557"><ele>702.0</ele><time>2026-05-02T15:19:23.001Z</time></trkpt><trkpt lat="41.75686017981732" lon="12.707178804064696"><ele>702.0</ele><time>2026-05-02T15:19:24.001Z</time></trkpt><trkpt lat="41.756790311891294" lon="12.707145103637357"><ele>702.0</ele><time>2026-05-02T15:19:25.001Z</time></trkpt><trkpt lat="41.75672262880767" lon="12.707121238038479"><ele>702.0</ele><time>2026-05-02T15:19:26.001Z</time></trkpt><trkpt lat="41.75665988182613" lon="12.707103589405632"><ele>702.0000000000001</ele><time>2026-05-02T15:19:27.001Z</time></trkpt><trkpt lat="41.75659770286152" lon="12.70708323902452"><ele>702.0</ele><time>2026-05-02T15:19:28.001Z</time></trkpt><trkpt lat="41.756489613027895" lon="12.706999008370008"><ele>703.1428571428572</ele><time>2026-05-02T15:19:30.001Z</time></trkpt><trkpt lat="41.756446669019155" lon="12.706922575850003"><ele>704.2857142857143</ele><time>2026-05-02T15:19:31.001Z</time></trkpt><trkpt lat="41.756419082808065" lon="12.70683652942807"><ele>705.4285714285714</ele><time>2026-05-02T15:19:32.001Z</time></trkpt><trkpt lat="41.756394417361186" lon="12.706756086550223"><ele>706.5714285714287</ele><time>2026-05-02T15:19:33.001Z</time></trkpt><trkpt lat="41.75637033241385" lon="12.706674136706928"><ele>707.7142857142858</ele><time>2026-05-02T15:19:34.001Z</time></trkpt><trkpt lat="41.75635713993856" lon="12.706589486214414"><ele>708.8571428571429</ele><time>2026-05-02T15:19:35.001Z</time></trkpt><trkpt lat="41.75632694177955" lon="12.706513763722858"><ele>710.0</ele><time>2026-05-02T15:19:36.001Z</time></trkpt><trkpt lat="41.75624519010905" lon="12.70640519518912"><ele>709.0</ele><time>2026-05-02T15:19:38.001Z</time></trkpt><trkpt lat="41.7561550205494" lon="12.706334582208541"><ele>708.0</ele><time>2026-05-02T15:19:40.001Z</time></trkpt><trkpt lat="41.756084141565665" lon="12.706279521885229"><ele>707.0</ele><time>2026-05-02T15:19:42.001Z</time></trkpt><trkpt lat="41.756022798467264" lon="12.706241927824859"><ele>706.0</ele><time>2026-05-02T15:19:44.001Z</time></trkpt><trkpt lat="41.7559655497934" lon="12.706203463322407"><ele>705.0</ele><time>2026-05-02T15:19:47.001Z</time></trkpt><trkpt lat="41.7560264317269" lon="12.706282873686245"><ele>704.0</ele><time>2026-05-02T15:19:52.001Z</time></trkpt><trkpt lat="41.75603870983524" lon="12.706431654089455"><ele>699.6</ele><time>2026-05-02T15:19:53.001Z</time></trkpt><trkpt lat="41.75615296396782" lon="12.706501284820447"><ele>695.2</ele><time>2026-05-02T15:19:55.001Z</time></trkpt><trkpt lat="41.75620496168286" lon="12.706548944652495"><ele>690.8000000000001</ele><time>2026-05-02T15:19:56.001Z</time></trkpt><trkpt lat="41.7562436726664" lon="12.706616270639683"><ele>686.4000000000001</ele><time>2026-05-02T15:19:57.001Z</time></trkpt><trkpt lat="41.75629340277645" lon="12.70676855575584"><ele>682.0</ele><time>2026-05-02T15:19:59.001Z</time></trkpt><trkpt lat="41.75632078771053" lon="12.706867373259204"><ele>686.6666666666667</ele><time>2026-05-02T15:20:00.001Z</time></trkpt><trkpt lat="41.756347414686836" lon="12.706949368433884"><ele>691.3333333333334</ele><time>2026-05-02T15:20:01.001Z</time></trkpt><trkpt lat="41.75638008007904" lon="12.707035287165475"><ele>696.0</ele><time>2026-05-02T15:20:02.001Z</time></trkpt><trkpt lat="41.75642990126299" lon="12.707117333449773"><ele>700.6666666666666</ele><time>2026-05-02T15:20:03.001Z</time></trkpt><trkpt lat="41.75647735668624" lon="12.707183994251949"><ele>705.3333333333333</ele><time>2026-05-02T15:20:04.001Z</time></trkpt><trkpt lat="41.756562331126695" lon="12.707228919272133"><ele>710.0</ele><time>2026-05-02T15:20:05.001Z</time></trkpt><trkpt lat="41.756650136748895" lon="12.70726643514954"><ele>710.0</ele><time>2026-05-02T15:20:06.001Z</time></trkpt><trkpt lat="41.756739722862726" lon="12.707306800087968"><ele>710.0</ele><time>2026-05-02T15:20:07.001Z</time></trkpt><trkpt lat="41.756820059036535" lon="12.70735303873114"><ele>710.0</ele><time>2026-05-02T15:20:08.001Z</time></trkpt><trkpt lat="41.756900177396126" lon="12.707394412258667"><ele>710.0</ele><time>2026-05-02T15:20:09.001Z</time></trkpt><trkpt lat="41.756982491931296" lon="12.707427109378218"><ele>710.0</ele><time>2026-05-02T15:20:10.001Z</time></trkpt><trkpt lat="41.757065752473274" lon="12.707451409102669"><ele>710.0</ele><time>2026-05-02T15:20:11.001Z</time></trkpt><trkpt lat="41.757147401489924" lon="12.707465637080974"><ele>708.6666666666666</ele><time>2026-05-02T15:20:12.001Z</time></trkpt><trkpt lat="41.757227733560356" lon="12.707468321568513"><ele>707.3333333333333</ele><time>2026-05-02T15:20:13.002Z</time></trkpt><trkpt lat="41.757300986736915" lon="12.7074678353946"><ele>706.0</ele><time>2026-05-02T15:20:14.002Z</time></trkpt><trkpt lat="41.75737632178667" lon="12.707463033892262"><ele>704.6666666666666</ele><time>2026-05-02T15:20:15.002Z</time></trkpt><trkpt lat="41.75745099910641" lon="12.707449387358013"><ele>703.3333333333334</ele><time>2026-05-02T15:20:16.002Z</time></trkpt><trkpt lat="41.757527454781275" lon="12.70743192302119"><ele>702.0</ele><time>2026-05-02T15:20:17.002Z</time></trkpt><trkpt lat="41.757603384650984" lon="12.707424221431127"><ele>702.0</ele><time>2026-05-02T15:20:18.002Z</time></trkpt><trkpt lat="41.75767258517243" lon="12.707427551734526"><ele>702.0</ele><time>2026-05-02T15:20:19.002Z</time></trkpt><trkpt lat="41.757737212414575" lon="12.70743086789926"><ele>702.0</ele><time>2026-05-02T15:20:20.002Z</time></trkpt><trkpt lat="41.75780964562499" lon="12.707432111971487"><ele>702.0</ele><time>2026-05-02T15:20:21.002Z</time></trkpt><trkpt lat="41.757873731978144" lon="12.707435999169192"><ele>702.0</ele><time>2026-05-02T15:20:22.002Z</time></trkpt><trkpt lat="41.757932272309056" lon="12.707475596492875"><ele>702.0</ele><time>2026-05-02T15:20:23.002Z</time></trkpt><trkpt lat="41.75804524716899" lon="12.707509029285745"><ele>699.6666666666666</ele><time>2026-05-02T15:20:25.002Z</time></trkpt><trkpt lat="41.75816028082211" lon="12.707591659264564"><ele>697.3333333333334</ele><time>2026-05-02T15:20:27.002Z</time></trkpt><trkpt lat="41.75822024343198" lon="12.707646658342647"><ele>695.0</ele><time>2026-05-02T15:20:28.002Z</time></trkpt><trkpt lat="41.75828444703684" lon="12.707703551688317"><ele>692.6666666666667</ele><time>2026-05-02T15:20:29.002Z</time></trkpt><trkpt lat="41.75835063705329" lon="12.707761670512012"><ele>690.3333333333334</ele><time>2026-05-02T15:20:30.002Z</time></trkpt><trkpt lat="41.75841545955828" lon="12.707818588629646"><ele>688.0</ele><time>2026-05-02T15:20:31.002Z</time></trkpt><trkpt lat="41.75848631693111" lon="12.707881177392373"><ele>688.0</ele><time>2026-05-02T15:20:32.001Z</time></trkpt><trkpt lat="41.7585574695972" lon="12.707944469748728"><ele>688.0</ele><time>2026-05-02T15:20:33.001Z</time></trkpt><trkpt lat="41.75861927640269" lon="12.70800091126567"><ele>688.0</ele><time>2026-05-02T15:20:34.001Z</time></trkpt><trkpt lat="41.75868254190656" lon="12.70805868821444"><ele>688.0</ele><time>2026-05-02T15:20:35.001Z</time></trkpt><trkpt lat="41.75874798313906" lon="12.708118422603361"><ele>688.0</ele><time>2026-05-02T15:20:36.001Z</time></trkpt><trkpt lat="41.75881036527903" lon="12.708175364533604"><ele>688.0</ele><time>2026-05-02T15:20:37.001Z</time></trkpt><trkpt lat="41.7588706188746" lon="12.708230363574803"><ele>688.0000000000001</ele><time>2026-05-02T15:20:38.001Z</time></trkpt><trkpt lat="41.75892967515679" lon="12.708284269694223"><ele>688.0</ele><time>2026-05-02T15:20:39.001Z</time></trkpt><trkpt lat="41.758990002388046" lon="12.708325036968748"><ele>688.0</ele><time>2026-05-02T15:20:40.001Z</time></trkpt><trkpt lat="41.759045129823114" lon="12.708373081258573"><ele>688.0</ele><time>2026-05-02T15:20:41.001Z</time></trkpt><trkpt lat="41.75909932310684" lon="12.708425179576041"><ele>688.0</ele><time>2026-05-02T15:20:42.001Z</time></trkpt><trkpt lat="41.75915037295259" lon="12.708476508807385"><ele>688.0000000000001</ele><time>2026-05-02T15:20:43.001Z</time></trkpt><trkpt lat="41.759203608605524" lon="12.708523394428047"><ele>688.0</ele><time>2026-05-02T15:20:44.001Z</time></trkpt><trkpt lat="41.75930260820802" lon="12.708591047023654"><ele>691.8</ele><time>2026-05-02T15:20:46.001Z</time></trkpt><trkpt lat="41.75938985212165" lon="12.70866323470291"><ele>695.5999999999999</ele><time>2026-05-02T15:20:48.001Z</time></trkpt><trkpt lat="41.75948399255307" lon="12.708679865261827"><ele>699.4000000000001</ele><time>2026-05-02T15:20:50.001Z</time></trkpt><trkpt lat="41.75956373021363" lon="12.70872326758611"><ele>703.2</ele><time>2026-05-02T15:20:52.001Z</time></trkpt><trkpt lat="41.75964675985936" lon="12.708763580682987"><ele>707.0</ele><time>2026-05-02T15:20:54.001Z</time></trkpt><trkpt lat="41.75972905853473" lon="12.70879555865982"><ele>707.0</ele><time>2026-05-02T15:20:56.001Z</time></trkpt><trkpt lat="41.75981270975447" lon="12.708802621625408"><ele>707.0</ele><time>2026-05-02T15:20:58.001Z</time></trkpt><trkpt lat="41.759899042569515" lon="12.708787748227822"><ele>707.0</ele><time>2026-05-02T15:21:00.001Z</time></trkpt><trkpt lat="41.75999935063334" lon="12.70876668670658"><ele>707.0</ele><time>2026-05-02T15:21:02.001Z</time></trkpt><trkpt lat="41.760111450127155" lon="12.70876259038959"><ele>707.0</ele><time>2026-05-02T15:21:04.001Z</time></trkpt><trkpt lat="41.760211377098926" lon="12.708783374067668"><ele>706.0</ele><time>2026-05-02T15:21:06.001Z</time></trkpt><trkpt lat="41.76031870923658" lon="12.708804957324466"><ele>705.0</ele><time>2026-05-02T15:21:08.001Z</time></trkpt><trkpt lat="41.76041942968322" lon="12.708807281410666"><ele>704.0</ele><time>2026-05-02T15:21:10.001Z</time></trkpt><trkpt lat="41.760504958127555" lon="12.708819892964232"><ele>703.0</ele><time>2026-05-02T15:21:12.001Z</time></trkpt><trkpt lat="41.7605759075049" lon="12.708815262023297"><ele>702.0</ele><time>2026-05-02T15:21:14Z</time></trkpt><trkpt lat="41.76064300898308" lon="12.70880965570961"><ele>701.0</ele><time>2026-05-02T15:21:16Z</time></trkpt><trkpt lat="41.76070765195787" lon="12.70881051995748"><ele>701.0</ele><time>2026-05-02T15:21:18Z</time></trkpt><trkpt lat="41.76076990229528" lon="12.708824132284901"><ele>701.0</ele><time>2026-05-02T15:21:20Z</time></trkpt><trkpt lat="41.7608386506256" lon="12.70885455787852"><ele>701.0</ele><time>2026-05-02T15:21:23Z</time></trkpt><trkpt lat="41.760896420807065" lon="12.708896841683147"><ele>701.0</ele><time>2026-05-02T15:21:26Z</time></trkpt><trkpt lat="41.760966737802" lon="12.708948451555333"><ele>701.0</ele><time>2026-05-02T15:21:29Z</time></trkpt><trkpt lat="41.7610578008717" lon="12.708946194445657"><ele>701.0</ele><time>2026-05-02T15:21:31Z</time></trkpt><trkpt lat="41.761146940300435" lon="12.708955434684592"><ele>698.6666666666666</ele><time>2026-05-02T15:21:33Z</time></trkpt><trkpt lat="41.76121613511865" lon="12.709050003904068"><ele>696.3333333333333</ele><time>2026-05-02T15:21:36Z</time></trkpt><trkpt lat="41.76126031883244" lon="12.70914684898521"><ele>694.0</ele><time>2026-05-02T15:22:08Z</time></trkpt><trkpt lat="41.76129896123229" lon="12.709235715514138"><ele>691.6666666666666</ele><time>2026-05-02T15:22:10Z</time></trkpt><trkpt lat="41.76133781117933" lon="12.709355374601877"><ele>689.3333333333334</ele><time>2026-05-02T15:22:12Z</time></trkpt><trkpt lat="41.761360220850484" lon="12.7094532761341"><ele>687.0</ele><time>2026-05-02T15:22:14Z</time></trkpt><trkpt lat="41.76139303917702" lon="12.70959234687644"><ele>687.0</ele><time>2026-05-02T15:22:16Z</time></trkpt><trkpt lat="41.76147380197976" lon="12.709659578418579"><ele>687.0</ele><time>2026-05-02T15:22:20.002Z</time></trkpt><trkpt lat="41.76152143968362" lon="12.709720478764023"><ele>687.0</ele><time>2026-05-02T15:22:24.001Z</time></trkpt><trkpt lat="41.761585519344294" lon="12.709711904716341"><ele>687.0</ele><time>2026-05-02T15:22:29.001Z</time></trkpt><trkpt lat="41.76168868733567" lon="12.709594216523067"><ele>687.0</ele><time>2026-05-02T15:22:35.001Z</time></trkpt><trkpt lat="41.761730227680616" lon="12.709469773183631"><ele>685.8</ele><time>2026-05-02T15:22:37.001Z</time></trkpt><trkpt lat="41.76177117231405" lon="12.709380499156765"><ele>684.6</ele><time>2026-05-02T15:22:39.001Z</time></trkpt><trkpt lat="41.76177209822486" lon="12.709248104861029"><ele>683.4</ele><time>2026-05-02T15:22:41.001Z</time></trkpt><trkpt lat="41.76179721931405" lon="12.709142295254594"><ele>682.1999999999999</ele><time>2026-05-02T15:22:43.001Z</time></trkpt><trkpt lat="41.76174709632793" lon="12.709000601012683"><ele>681.0</ele><time>2026-05-02T15:22:45.001Z</time></trkpt><trkpt lat="41.76170714773246" lon="12.708867377472059"><ele>681.0</ele><time>2026-05-02T15:22:47.001Z</time></trkpt><trkpt lat="41.76178060977838" lon="12.708784223132284"><ele>681.0</ele><time>2026-05-02T15:22:48.001Z</time></trkpt><trkpt lat="41.76183262725314" lon="12.708645665927879"><ele>681.0</ele><time>2026-05-02T15:22:50.001Z</time></trkpt><trkpt lat="41.76191399994757" lon="12.708515018028315"><ele>681.0</ele><time>2026-05-02T15:22:52.001Z</time></trkpt><trkpt lat="41.76194784414608" lon="12.708356779827453"><ele>675.1666666666666</ele><time>2026-05-02T15:22:54Z</time></trkpt><trkpt lat="41.761954154679195" lon="12.70825033869667"><ele>669.3333333333334</ele><time>2026-05-02T15:22:55Z</time></trkpt><trkpt lat="41.761982554218534" lon="12.70811235148056"><ele>663.5</ele><time>2026-05-02T15:22:57Z</time></trkpt><trkpt lat="41.76202165987648" lon="12.707958408385045"><ele>657.6666666666667</ele><time>2026-05-02T15:22:59Z</time></trkpt><trkpt lat="41.762034515269356" lon="12.707872111055917"><ele>651.8333333333334</ele><time>2026-05-02T15:23:00Z</time></trkpt><trkpt lat="41.76205690918289" lon="12.707790784235714"><ele>646.0</ele><time>2026-05-02T15:23:01Z</time></trkpt><trkpt lat="41.762084047295296" lon="12.707701722935603"><ele>645.3333333333334</ele><time>2026-05-02T15:23:02Z</time></trkpt><trkpt lat="41.7620987904818" lon="12.707609133305501"><ele>644.6666666666667</ele><time>2026-05-02T15:23:03Z</time></trkpt><trkpt lat="41.7621144308638" lon="12.707522883854196"><ele>644.0</ele><time>2026-05-02T15:23:04Z</time></trkpt><trkpt lat="41.76212612819826" lon="12.707438559254332"><ele>643.3333333333334</ele><time>2026-05-02T15:23:05Z</time></trkpt><trkpt lat="41.76215252860603" lon="12.707296247812902"><ele>642.6666666666666</ele><time>2026-05-02T15:23:07Z</time></trkpt><trkpt lat="41.7621694663398" lon="12.707167103859891"><ele>642.0</ele><time>2026-05-02T15:23:09Z</time></trkpt><trkpt lat="41.7621910974205" lon="12.70707098897344"><ele>642.0</ele><time>2026-05-02T15:23:11Z</time></trkpt><trkpt lat="41.76218536376967" lon="12.70697711834311"><ele>642.0</ele><time>2026-05-02T15:23:13Z</time></trkpt><trkpt lat="41.76221771132863" lon="12.706807813225812"><ele>642.0</ele><time>2026-05-02T15:23:15Z</time></trkpt><trkpt lat="41.76223744281385" lon="12.70670466511663"><ele>642.0</ele><time>2026-05-02T15:23:16Z</time></trkpt><trkpt lat="41.76228092249982" lon="12.706582118877312"><ele>642.0</ele><time>2026-05-02T15:23:18Z</time></trkpt><trkpt lat="41.76231799561624" lon="12.706499657308152"><ele>641.6</ele><time>2026-05-02T15:23:20Z</time></trkpt><trkpt lat="41.7623474589872" lon="12.706395007051237"><ele>641.2</ele><time>2026-05-02T15:26:24.999Z</time></trkpt><trkpt lat="41.76235015663561" lon="12.706287373909346"><ele>640.8</ele><time>2026-05-02T15:26:27.999Z</time></trkpt><trkpt lat="41.76224189765266" lon="12.706504334948487"><ele>640.4</ele><time>2026-05-02T15:26:42.001Z</time></trkpt><trkpt lat="41.76220692874047" lon="12.706595924213293"><ele>640.0</ele><time>2026-05-02T15:26:43.001Z</time></trkpt><trkpt lat="41.76217650888919" lon="12.70669408009602"><ele>640.0</ele><time>2026-05-02T15:26:44.001Z</time></trkpt><trkpt lat="41.762027604733774" lon="12.706691905983227"><ele>640.0</ele><time>2026-05-02T15:26:45.001Z</time></trkpt><trkpt lat="41.76197747012972" lon="12.70678977818893"><ele>640.0</ele><time>2026-05-02T15:26:46Z</time></trkpt><trkpt lat="41.76192630996947" lon="12.706890504796391"><ele>640.0</ele><time>2026-05-02T15:26:47Z</time></trkpt><trkpt lat="41.761865893952255" lon="12.706997973230305"><ele>640.0</ele><time>2026-05-02T15:26:48Z</time></trkpt><trkpt lat="41.76179993387048" lon="12.707103299340195"><ele>642.3333333333334</ele><time>2026-05-02T15:26:49Z</time></trkpt><trkpt lat="41.76174145167345" lon="12.707192321444728"><ele>644.6666666666667</ele><time>2026-05-02T15:26:50Z</time></trkpt><trkpt lat="41.76168430326398" lon="12.707269748163036"><ele>647.0</ele><time>2026-05-02T15:26:51Z</time></trkpt><trkpt lat="41.761626196158375" lon="12.707332188302033"><ele>649.3333333333334</ele><time>2026-05-02T15:26:52Z</time></trkpt><trkpt lat="41.76156072028789" lon="12.707388074995299"><ele>651.6666666666666</ele><time>2026-05-02T15:26:53Z</time></trkpt><trkpt lat="41.761499797372714" lon="12.707423271392507"><ele>654.0</ele><time>2026-05-02T15:26:54Z</time></trkpt><trkpt lat="41.7614188255641" lon="12.707445079504739"><ele>654.0</ele><time>2026-05-02T15:26:55Z</time></trkpt><trkpt lat="41.761334838173696" lon="12.707465104040056"><ele>654.0</ele><time>2026-05-02T15:26:56Z</time></trkpt><trkpt lat="41.761248610142225" lon="12.707484882243659"><ele>654.0</ele><time>2026-05-02T15:26:57Z</time></trkpt><trkpt lat="41.76116713987949" lon="12.707503569173532"><ele>654.0</ele><time>2026-05-02T15:26:58Z</time></trkpt><trkpt lat="41.76107513656406" lon="12.707528246840063"><ele>654.0</ele><time>2026-05-02T15:26:59Z</time></trkpt><trkpt lat="41.76097842089213" lon="12.707577028703119"><ele>653.2</ele><time>2026-05-02T15:27:00Z</time></trkpt><trkpt lat="41.760898387279234" lon="12.707631203108228"><ele>652.4000000000001</ele><time>2026-05-02T15:27:01Z</time></trkpt><trkpt lat="41.760826518352815" lon="12.707677700810361"><ele>651.6</ele><time>2026-05-02T15:27:02Z</time></trkpt><trkpt lat="41.76075031965955" lon="12.707712813537059"><ele>650.8</ele><time>2026-05-02T15:27:03Z</time></trkpt><trkpt lat="41.76061624872171" lon="12.707767213734973"><ele>650.0</ele><time>2026-05-02T15:27:05Z</time></trkpt><trkpt lat="41.76053349421122" lon="12.707783954221997"><ele>654.3333333333333</ele><time>2026-05-02T15:27:06Z</time></trkpt><trkpt lat="41.76045726249193" lon="12.707814967985408"><ele>658.6666666666666</ele><time>2026-05-02T15:27:07Z</time></trkpt><trkpt lat="41.760379946485955" lon="12.707848338944157"><ele>663.0</ele><time>2026-05-02T15:27:08Z</time></trkpt><trkpt lat="41.76029941163099" lon="12.707868636816123"><ele>667.3333333333334</ele><time>2026-05-02T15:27:09Z</time></trkpt><trkpt lat="41.76021751356573" lon="12.707906107740147"><ele>671.6666666666667</ele><time>2026-05-02T15:27:10Z</time></trkpt><trkpt lat="41.76013129449113" lon="12.70794013674721"><ele>676.0</ele><time>2026-05-02T15:27:11Z</time></trkpt><trkpt lat="41.76005256624474" lon="12.707970659174935"><ele>676.0</ele><time>2026-05-02T15:27:12Z</time></trkpt><trkpt lat="41.75997578643099" lon="12.708004457885663"><ele>676.0</ele><time>2026-05-02T15:27:13Z</time></trkpt><trkpt lat="41.7598977968624" lon="12.708038300835886"><ele>676.0</ele><time>2026-05-02T15:27:14Z</time></trkpt><trkpt lat="41.75982234960621" lon="12.70807519719147"><ele>676.0</ele><time>2026-05-02T15:27:15Z</time></trkpt><trkpt lat="41.75974346581456" lon="12.70809252982787"><ele>676.0</ele><time>2026-05-02T15:27:16Z</time></trkpt><trkpt lat="41.759645916314604" lon="12.708103130070983"><ele>676.0</ele><time>2026-05-02T15:27:17Z</time></trkpt><trkpt lat="41.7595774229506" lon="12.708081451656275"><ele>676.0</ele><time>2026-05-02T15:27:18Z</time></trkpt><trkpt lat="41.75949877982523" lon="12.708058142182598"><ele>676.0</ele><time>2026-05-02T15:27:19Z</time></trkpt><trkpt lat="41.75942317661254" lon="12.708023828685791"><ele>676.0</ele><time>2026-05-02T15:27:20Z</time></trkpt><trkpt lat="41.75935395571542" lon="12.707988348540594"><ele>676.0</ele><time>2026-05-02T15:27:21Z</time></trkpt><trkpt lat="41.75928381005054" lon="12.707949341204369"><ele>676.0</ele><time>2026-05-02T15:27:22Z</time></trkpt><trkpt lat="41.759218643551876" lon="12.707908180493396"><ele>676.0</ele><time>2026-05-02T15:27:23Z</time></trkpt><trkpt lat="41.75914925665472" lon="12.707864519864268"><ele>677.7142857142858</ele><time>2026-05-02T15:27:24Z</time></trkpt><trkpt lat="41.75908821532756" lon="12.707816788164997"><ele>679.4285714285714</ele><time>2026-05-02T15:27:25Z</time></trkpt><trkpt lat="41.759020086533795" lon="12.707775823333426"><ele>681.1428571428571</ele><time>2026-05-02T15:27:26Z</time></trkpt><trkpt lat="41.75895502854585" lon="12.70772514862652"><ele>682.8571428571429</ele><time>2026-05-02T15:27:27Z</time></trkpt><trkpt lat="41.75888926611029" lon="12.707674345043161"><ele>684.5714285714286</ele><time>2026-05-02T15:27:28Z</time></trkpt><trkpt lat="41.75882724373932" lon="12.707617655278758"><ele>686.2857142857143</ele><time>2026-05-02T15:27:29Z</time></trkpt><trkpt lat="41.75876316487701" lon="12.707565430648872"><ele>688.0</ele><time>2026-05-02T15:27:30Z</time></trkpt><trkpt lat="41.75870073263525" lon="12.707513522588526"><ele>688.0</ele><time>2026-05-02T15:27:30.999Z</time></trkpt><trkpt lat="41.75863711166552" lon="12.707464904460984"><ele>688.0</ele><time>2026-05-02T15:27:31.999Z</time></trkpt><trkpt lat="41.758572205684075" lon="12.70741803786203"><ele>688.0</ele><time>2026-05-02T15:27:32.999Z</time></trkpt><trkpt lat="41.758503432976724" lon="12.707376290643273"><ele>688.0</ele><time>2026-05-02T15:27:33.999Z</time></trkpt><trkpt lat="41.75843142765541" lon="12.707329640543168"><ele>688.0</ele><time>2026-05-02T15:27:34.999Z</time></trkpt><trkpt lat="41.758359356942144" lon="12.707288382049414"><ele>688.0</ele><time>2026-05-02T15:27:35.999Z</time></trkpt><trkpt lat="41.758286111583885" lon="12.70724862030255"><ele>688.0</ele><time>2026-05-02T15:27:36.999Z</time></trkpt><trkpt lat="41.75821580916725" lon="12.707208478722993"><ele>688.0</ele><time>2026-05-02T15:27:37.999Z</time></trkpt><trkpt lat="41.758142192445575" lon="12.707168749865472"><ele>688.0</ele><time>2026-05-02T15:27:38.999Z</time></trkpt><trkpt lat="41.758062776883556" lon="12.707144596532636"><ele>688.0</ele><time>2026-05-02T15:27:39.999Z</time></trkpt><trkpt lat="41.757987687348056" lon="12.707117342451125"><ele>688.0</ele><time>2026-05-02T15:27:40.999Z</time></trkpt><trkpt lat="41.75782920276695" lon="12.707159711478257"><ele>688.0</ele><time>2026-05-02T15:27:42.999Z</time></trkpt><trkpt lat="41.75775427953303" lon="12.707193994267183"><ele>688.0</ele><time>2026-05-02T15:27:43.999Z</time></trkpt><trkpt lat="41.75768182746423" lon="12.707222634313572"><ele>688.0</ele><time>2026-05-02T15:27:44.999Z</time></trkpt><trkpt lat="41.7576052149033" lon="12.70723901595389"><ele>688.0</ele><time>2026-05-02T15:27:45.999Z</time></trkpt><trkpt lat="41.75752742628695" lon="12.707246370141137"><ele>688.0</ele><time>2026-05-02T15:27:46.999Z</time></trkpt><trkpt lat="41.75744270529341" lon="12.707251539451548"><ele>688.0</ele><time>2026-05-02T15:27:47.999Z</time></trkpt><trkpt lat="41.757359534974796" lon="12.707259589607476"><ele>690.3333333333334</ele><time>2026-05-02T15:27:48.999Z</time></trkpt><trkpt lat="41.757279101697904" lon="12.707277363236637"><ele>692.6666666666667</ele><time>2026-05-02T15:27:49.999Z</time></trkpt><trkpt lat="41.75720061817734" lon="12.707305862219465"><ele>695.0</ele><time>2026-05-02T15:27:50.999Z</time></trkpt><trkpt lat="41.757118345010014" lon="12.707299828829631"><ele>697.3333333333334</ele><time>2026-05-02T15:27:51.999Z</time></trkpt><trkpt lat="41.75704326503529" lon="12.707290119657271"><ele>699.6666666666666</ele><time>2026-05-02T15:27:52.999Z</time></trkpt><trkpt lat="41.75694065569369" lon="12.707268579259015"><ele>702.0</ele><time>2026-05-02T15:27:53.999Z</time></trkpt><trkpt lat="41.756885287764646" lon="12.707201075508497"><ele>703.1428571428572</ele><time>2026-05-02T15:27:54.999Z</time></trkpt><trkpt lat="41.7568166517558" lon="12.707162506837703"><ele>704.2857142857143</ele><time>2026-05-02T15:27:55.999Z</time></trkpt><trkpt lat="41.75674675441737" lon="12.707134403193596"><ele>705.4285714285714</ele><time>2026-05-02T15:27:56.999Z</time></trkpt><trkpt lat="41.75668016956077" lon="12.707111332011493"><ele>706.5714285714287</ele><time>2026-05-02T15:27:57.999Z</time></trkpt><trkpt lat="41.75661653571875" lon="12.707080219700748"><ele>707.7142857142858</ele><time>2026-05-02T15:27:58.999Z</time></trkpt><trkpt lat="41.75655311827491" lon="12.707035535652736"><ele>708.8571428571429</ele><time>2026-05-02T15:27:59.999Z</time></trkpt><trkpt lat="41.756484841468456" lon="12.706992872140141"><ele>710.0</ele><time>2026-05-02T15:28:00.999Z</time></trkpt><trkpt lat="41.75643847462526" lon="12.706897003360924"><ele>706.0</ele><time>2026-05-02T15:28:01.999Z</time></trkpt><trkpt lat="41.75641010252588" lon="12.706807241554158"><ele>702.0</ele><time>2026-05-02T15:28:02.999Z</time></trkpt><trkpt lat="41.75638537550208" lon="12.70672659782457"><ele>698.0</ele><time>2026-05-02T15:28:03.999Z</time></trkpt><trkpt lat="41.75637000317216" lon="12.706640543009756"><ele>694.0</ele><time>2026-05-02T15:28:04.999Z</time></trkpt><trkpt lat="41.75631749502952" lon="12.706548989205332"><ele>690.0</ele><time>2026-05-02T15:28:05.999Z</time></trkpt><trkpt lat="41.75628107403226" lon="12.706465076509959"><ele>686.0</ele><time>2026-05-02T15:28:06.999Z</time></trkpt><trkpt lat="41.75622156386183" lon="12.706406728971809"><ele>682.0</ele><time>2026-05-02T15:28:07.999Z</time></trkpt><trkpt lat="41.75615076792586" lon="12.70637003378496"><ele>682.0</ele><time>2026-05-02T15:28:08.999Z</time></trkpt><trkpt lat="41.75608660264844" lon="12.706320312363315"><ele>682.0</ele><time>2026-05-02T15:28:09.999Z</time></trkpt><trkpt lat="41.7560144188323" lon="12.70626920411848"><ele>682.0</ele><time>2026-05-02T15:28:10.999Z</time></trkpt><trkpt lat="41.7559395756132" lon="12.706227288427115"><ele>682.0</ele><time>2026-05-02T15:28:11.999Z</time></trkpt><trkpt lat="41.75585708856321" lon="12.706186061711982"><ele>682.0</ele><time>2026-05-02T15:28:12.999Z</time></trkpt><trkpt lat="41.75577509744691" lon="12.70611859556594"><ele>682.0</ele><time>2026-05-02T15:28:13.999Z</time></trkpt><trkpt lat="41.75568202830545" lon="12.70606341115656"><ele>681.4000000000001</ele><time>2026-05-02T15:28:14.999Z</time></trkpt><trkpt lat="41.755561082832436" lon="12.706101804402271"><ele>680.8000000000001</ele><time>2026-05-02T15:28:15.999Z</time></trkpt><trkpt lat="41.75545602631869" lon="12.706092690336044"><ele>680.2</ele><time>2026-05-02T15:28:16.999Z</time></trkpt><trkpt lat="41.7553433350191" lon="12.706090776386688"><ele>679.6</ele><time>2026-05-02T15:28:17.999Z</time></trkpt><trkpt lat="41.75523786606509" lon="12.706068853578453"><ele>679.0</ele><time>2026-05-02T15:28:18.999Z</time></trkpt><trkpt lat="41.755126135047675" lon="12.706017372792925"><ele>682.0</ele><time>2026-05-02T15:28:19.999Z</time></trkpt><trkpt lat="41.755024667058194" lon="12.705953247677082"><ele>685.0</ele><time>2026-05-02T15:28:20.999Z</time></trkpt><trkpt lat="41.754917375340526" lon="12.705888091712888"><ele>688.0</ele><time>2026-05-02T15:28:21.999Z</time></trkpt><trkpt lat="41.75482136738083" lon="12.70578725270715"><ele>691.0</ele><time>2026-05-02T15:28:22.999Z</time></trkpt><trkpt lat="41.75472681349629" lon="12.705679352465147"><ele>691.0</ele><time>2026-05-02T15:28:23.999Z</time></trkpt><trkpt lat="41.75464406093202" lon="12.705573776406391"><ele>691.0</ele><time>2026-05-02T15:28:24.999Z</time></trkpt><trkpt lat="41.7545519201224" lon="12.705479629844366"><ele>691.0</ele><time>2026-05-02T15:28:25.999Z</time></trkpt><trkpt lat="41.75446867897789" lon="12.70539385585207"><ele>691.0</ele><time>2026-05-02T15:28:26.999Z</time></trkpt><trkpt lat="41.754385957494925" lon="12.705285637692425"><ele>693.5</ele><time>2026-05-02T15:28:27.999Z</time></trkpt><trkpt lat="41.75436235920794" lon="12.705190312740116"><ele>696.0</ele><time>2026-05-02T15:28:28.999Z</time></trkpt><trkpt lat="41.75432135848405" lon="12.705108156040716"><ele>698.5</ele><time>2026-05-02T15:28:29.999Z</time></trkpt><trkpt lat="41.75427866814057" lon="12.70504543178988"><ele>701.0</ele><time>2026-05-02T15:28:30.999Z</time></trkpt><trkpt lat="41.75426999637699" lon="12.704896262090559"><ele>703.5</ele><time>2026-05-02T15:28:32.998Z</time></trkpt><trkpt lat="41.7542713067289" lon="12.704789929536728"><ele>706.0</ele><time>2026-05-02T15:28:34.998Z</time></trkpt><trkpt lat="41.75425684042855" lon="12.704684469837872"><ele>706.0</ele><time>2026-05-02T15:28:36Z</time></trkpt><trkpt lat="41.75427110710791" lon="12.704597515184648"><ele>706.0</ele><time>2026-05-02T15:28:37Z</time></trkpt><trkpt lat="41.7542926431497" lon="12.704437313353676"><ele>706.0</ele><time>2026-05-02T15:28:39Z</time></trkpt><trkpt lat="41.75437294346279" lon="12.70432392847437"><ele>706.0</ele><time>2026-05-02T15:28:41Z</time></trkpt><trkpt lat="41.75441447225715" lon="12.704160473535472"><ele>706.0</ele><time>2026-05-02T15:28:43Z</time></trkpt><trkpt lat="41.75445546899915" lon="12.704075342371732"><ele>697.25</ele><time>2026-05-02T15:28:44Z</time></trkpt><trkpt lat="41.7544801581223" lon="12.703927933325355"><ele>688.5</ele><time>2026-05-02T15:28:45Z</time></trkpt><trkpt lat="41.75448849650689" lon="12.703789028774942"><ele>679.75</ele><time>2026-05-02T15:28:46Z</time></trkpt><trkpt lat="41.7544772868359" lon="12.703638907759348"><ele>671.0</ele><time>2026-05-02T15:28:47Z</time></trkpt><trkpt lat="41.7544409624238" lon="12.703481093835801"><ele>678.5</ele><time>2026-05-02T15:28:48Z</time></trkpt><trkpt lat="41.754367049714155" lon="12.703342835754043"><ele>686.0</ele><time>2026-05-02T15:28:49Z</time></trkpt><trkpt lat="41.754304466973764" lon="12.703176755433583"><ele>693.5</ele><time>2026-05-02T15:28:50Z</time></trkpt><trkpt lat="41.75423466271752" lon="12.703024169615553"><ele>701.0</ele><time>2026-05-02T15:28:51Z</time></trkpt><trkpt lat="41.75416786910046" lon="12.702927054229338"><ele>701.0</ele><time>2026-05-02T15:28:52Z</time></trkpt><trkpt lat="41.754102356945126" lon="12.702802430912705"><ele>701.0</ele><time>2026-05-02T15:28:53Z</time></trkpt><trkpt lat="41.75407093538705" lon="12.70266159606645"><ele>701.0</ele><time>2026-05-02T15:28:54Z</time></trkpt><trkpt lat="41.75401980634326" lon="12.702487222694048"><ele>701.0</ele><time>2026-05-02T15:28:55Z</time></trkpt><trkpt lat="41.75395989245254" lon="12.702301609906252"><ele>699.0</ele><time>2026-05-02T15:28:56Z</time></trkpt><trkpt lat="41.75392413778924" lon="12.702090436608486"><ele>697.0</ele><time>2026-05-02T15:28:57Z</time></trkpt><trkpt lat="41.75388753992661" lon="12.70190435931921"><ele>695.0</ele><time>2026-05-02T15:28:58Z</time></trkpt><trkpt lat="41.75388229903475" lon="12.701783875977764"><ele>693.0</ele><time>2026-05-02T15:28:59Z</time></trkpt><trkpt lat="41.753966492622155" lon="12.701745390971421"><ele>695.2</ele><time>2026-05-02T15:29:00Z</time></trkpt><trkpt lat="41.75385985667873" lon="12.701657914938002"><ele>697.4</ele><time>2026-05-02T15:29:02Z</time></trkpt><trkpt lat="41.75379000146894" lon="12.701605670610562"><ele>699.6</ele><time>2026-05-02T15:29:03Z</time></trkpt><trkpt lat="41.753686454487344" lon="12.701534872522148"><ele>701.8000000000001</ele><time>2026-05-02T15:29:04Z</time></trkpt><trkpt lat="41.753583758326705" lon="12.701465243838399"><ele>704.0</ele><time>2026-05-02T15:29:05Z</time></trkpt><trkpt lat="41.753504581430626" lon="12.701404392476316"><ele>704.0</ele><time>2026-05-02T15:29:06Z</time></trkpt><trkpt lat="41.75342138605444" lon="12.701353645352599"><ele>704.0</ele><time>2026-05-02T15:29:07Z</time></trkpt><trkpt lat="41.75333640364224" lon="12.701293546535284"><ele>704.0</ele><time>2026-05-02T15:29:08Z</time></trkpt><trkpt lat="41.75327837716073" lon="12.701205522636979"><ele>704.0</ele><time>2026-05-02T15:29:09Z</time></trkpt><trkpt lat="41.75322236774061" lon="12.701077857067911"><ele>704.0</ele><time>2026-05-02T15:29:11Z</time></trkpt><trkpt lat="41.75317222850903" lon="12.701017211529516"><ele>699.0</ele><time>2026-05-02T15:29:12Z</time></trkpt><trkpt lat="41.75312241192966" lon="12.700955132685165"><ele>694.0</ele><time>2026-05-02T15:29:13Z</time></trkpt><trkpt lat="41.753077487895915" lon="12.700892004376499"><ele>689.0</ele><time>2026-05-02T15:29:14Z</time></trkpt><trkpt lat="41.75303219186943" lon="12.700827357546267"><ele>684.0</ele><time>2026-05-02T15:29:15Z</time></trkpt><trkpt lat="41.75295759363207" lon="12.700770455590733"><ele>679.0</ele><time>2026-05-02T15:29:16Z</time></trkpt><trkpt lat="41.75287811492331" lon="12.700719935972401"><ele>674.0</ele><time>2026-05-02T15:29:17Z</time></trkpt><trkpt lat="41.752794629144816" lon="12.70068093532656"><ele>677.6</ele><time>2026-05-02T15:29:18Z</time></trkpt><trkpt lat="41.75270441207282" lon="12.700625852098335"><ele>681.2</ele><time>2026-05-02T15:29:19Z</time></trkpt><trkpt lat="41.75260634570459" lon="12.700607368117023"><ele>684.8000000000001</ele><time>2026-05-02T15:29:20Z</time></trkpt><trkpt lat="41.752524576505046" lon="12.700600098641539"><ele>688.4000000000001</ele><time>2026-05-02T15:29:21Z</time></trkpt><trkpt lat="41.75243439232164" lon="12.70055873261054"><ele>692.0</ele><time>2026-05-02T15:29:22Z</time></trkpt><trkpt lat="41.75234854038983" lon="12.70050486269887"><ele>692.0</ele><time>2026-05-02T15:29:23Z</time></trkpt><trkpt lat="41.75225488612095" lon="12.70041277188103"><ele>692.0</ele><time>2026-05-02T15:29:24Z</time></trkpt><trkpt lat="41.752189162062415" lon="12.70032061437984"><ele>692.0</ele><time>2026-05-02T15:29:25Z</time></trkpt><trkpt lat="41.75214801938774" lon="12.700239287091303"><ele>692.0</ele><time>2026-05-02T15:29:25.999Z</time></trkpt><trkpt lat="41.752075008702796" lon="12.700130023056625"><ele>692.0</ele><time>2026-05-02T15:29:27.999Z</time></trkpt><trkpt lat="41.75201675802934" lon="12.700059163894482"><ele>688.6</ele><time>2026-05-02T15:29:28.999Z</time></trkpt><trkpt lat="41.751945569287685" lon="12.69998119473715"><ele>685.2</ele><time>2026-05-02T15:29:29.999Z</time></trkpt><trkpt lat="41.75185697723949" lon="12.69991561924948"><ele>681.8</ele><time>2026-05-02T15:29:30.999Z</time></trkpt><trkpt lat="41.75177149981564" lon="12.699887145733026"><ele>678.4</ele><time>2026-05-02T15:29:31.999Z</time></trkpt><trkpt lat="41.75168071182638" lon="12.69986554168496"><ele>675.0</ele><time>2026-05-02T15:29:32.999Z</time></trkpt><trkpt lat="41.75157207815873" lon="12.699858024333984"><ele>675.0</ele><time>2026-05-02T15:29:33.999Z</time></trkpt><trkpt lat="41.75146226139143" lon="12.699843726812144"><ele>675.0</ele><time>2026-05-02T15:29:34.999Z</time></trkpt><trkpt lat="41.75134508555483" lon="12.699826084383796"><ele>675.0</ele><time>2026-05-02T15:29:35.999Z</time></trkpt><trkpt lat="41.75124761260991" lon="12.699814699802308"><ele>675.0</ele><time>2026-05-02T15:29:36.999Z</time></trkpt><trkpt lat="41.75117345432257" lon="12.699768349925495"><ele>675.0</ele><time>2026-05-02T15:29:37.999Z</time></trkpt><trkpt lat="41.75108473455239" lon="12.69967818898692"><ele>673.1428571428571</ele><time>2026-05-02T15:29:39.999Z</time></trkpt><trkpt lat="41.75103048375057" lon="12.699628585858482"><ele>671.2857142857143</ele><time>2026-05-02T15:29:40.999Z</time></trkpt><trkpt lat="41.75097170972454" lon="12.699564677051656"><ele>669.4285714285714</ele><time>2026-05-02T15:29:41.999Z</time></trkpt><trkpt lat="41.750910043145815" lon="12.699501555369567"><ele>667.5714285714286</ele><time>2026-05-02T15:29:42.999Z</time></trkpt><trkpt lat="41.75084633970624" lon="12.699439487872056"><ele>665.7142857142857</ele><time>2026-05-02T15:29:43.999Z</time></trkpt><trkpt lat="41.75078601369881" lon="12.699377963189432"><ele>663.8571428571429</ele><time>2026-05-02T15:29:44.999Z</time></trkpt><trkpt lat="41.750732700529134" lon="12.69932506609225"><ele>662.0</ele><time>2026-05-02T15:29:45.999Z</time></trkpt><trkpt lat="41.750684912115275" lon="12.699268540921757"><ele>662.0</ele><time>2026-05-02T15:29:46.999Z</time></trkpt><trkpt lat="41.75060080761359" lon="12.69914868528159"><ele>662.0</ele><time>2026-05-02T15:29:48.999Z</time></trkpt><trkpt lat="41.75051936310208" lon="12.699028425214264"><ele>662.0</ele><time>2026-05-02T15:29:50.999Z</time></trkpt><trkpt lat="41.750435445565756" lon="12.69891042721387"><ele>662.0</ele><time>2026-05-02T15:29:52.999Z</time></trkpt><trkpt lat="41.75035813121048" lon="12.698783334416913"><ele>662.0</ele><time>2026-05-02T15:29:54.999Z</time></trkpt><trkpt lat="41.750320098400756" lon="12.698715519316817"><ele>662.0</ele><time>2026-05-02T15:29:55.999Z</time></trkpt><trkpt lat="41.750281827927154" lon="12.698646634664437"><ele>662.0</ele><time>2026-05-02T15:29:56.999Z</time></trkpt><trkpt lat="41.75023867712012" lon="12.698584090996267"><ele>662.0</ele><time>2026-05-02T15:29:57.999Z</time></trkpt><trkpt lat="41.75019171073436" lon="12.698525592597687"><ele>662.0</ele><time>2026-05-02T15:29:58.999Z</time></trkpt><trkpt lat="41.75014363181485" lon="12.698466195940588"><ele>662.0</ele><time>2026-05-02T15:29:59.999Z</time></trkpt><trkpt lat="41.750049063688884" lon="12.698355324265318"><ele>662.0</ele><time>2026-05-02T15:30:01.999Z</time></trkpt><trkpt lat="41.750007470570615" lon="12.698289897202988"><ele>662.5714285714286</ele><time>2026-05-02T15:30:02.999Z</time></trkpt><trkpt lat="41.749961923435954" lon="12.698230982958382"><ele>663.1428571428571</ele><time>2026-05-02T15:30:03.999Z</time></trkpt><trkpt lat="41.74991991654748" lon="12.698166439915903"><ele>663.7142857142858</ele><time>2026-05-02T15:30:04.999Z</time></trkpt><trkpt lat="41.74988120063237" lon="12.69809452234909"><ele>664.2857142857142</ele><time>2026-05-02T15:30:05.999Z</time></trkpt><trkpt lat="41.74985067014923" lon="12.698013355463974"><ele>664.8571428571428</ele><time>2026-05-02T15:30:06.999Z</time></trkpt><trkpt lat="41.749823721563644" lon="12.697933997669658"><ele>665.4285714285714</ele><time>2026-05-02T15:30:07.999Z</time></trkpt><trkpt lat="41.749800556639684" lon="12.69785365747187"><ele>666.0</ele><time>2026-05-02T15:30:08.999Z</time></trkpt><trkpt lat="41.7497766782829" lon="12.697689305726868"><ele>663.1666666666666</ele><time>2026-05-02T15:30:10.999Z</time></trkpt><trkpt lat="41.749747043656924" lon="12.697532155036297"><ele>660.3333333333334</ele><time>2026-05-02T15:30:12.999Z</time></trkpt><trkpt lat="41.749680805102564" lon="12.697393674611607"><ele>657.5</ele><time>2026-05-02T15:30:14.999Z</time></trkpt><trkpt lat="41.74963254662411" lon="12.697337517726636"><ele>654.6666666666667</ele><time>2026-05-02T15:30:15.999Z</time></trkpt><trkpt lat="41.74957451930778" lon="12.697303212167425"><ele>651.8333333333334</ele><time>2026-05-02T15:30:16.999Z</time></trkpt><trkpt lat="41.74951072319735" lon="12.697295074615992"><ele>649.0</ele><time>2026-05-02T15:30:17.999Z</time></trkpt><trkpt lat="41.74944811322007" lon="12.697311232567865"><ele>648.9999999999999</ele><time>2026-05-02T15:30:18.999Z</time></trkpt><trkpt lat="41.749386889824855" lon="12.697340469158872"><ele>649.0</ele><time>2026-05-02T15:30:19.999Z</time></trkpt><trkpt lat="41.74932496486744" lon="12.69737579380299"><ele>649.0</ele><time>2026-05-02T15:30:20.999Z</time></trkpt><trkpt lat="41.749262981438335" lon="12.6974236453838"><ele>649.0</ele><time>2026-05-02T15:30:21.999Z</time></trkpt><trkpt lat="41.74919936463224" lon="12.697476234897966"><ele>649.0</ele><time>2026-05-02T15:30:22.999Z</time></trkpt><trkpt lat="41.74913324664916" lon="12.697526651647395"><ele>648.9999999999999</ele><time>2026-05-02T15:30:23.999Z</time></trkpt><trkpt lat="41.74906210505335" lon="12.697572014197094"><ele>649.0</ele><time>2026-05-02T15:30:24.998Z</time></trkpt><trkpt lat="41.74898981095329" lon="12.697622990569949"><ele>649.6666666666667</ele><time>2026-05-02T15:30:25.998Z</time></trkpt><trkpt lat="41.748918699743456" lon="12.697679857469478"><ele>650.3333333333334</ele><time>2026-05-02T15:30:26.998Z</time></trkpt><trkpt lat="41.74884577625457" lon="12.697735678220512"><ele>651.0</ele><time>2026-05-02T15:30:27.998Z</time></trkpt><trkpt lat="41.7487698274426" lon="12.69779117957681"><ele>651.6666666666666</ele><time>2026-05-02T15:30:28.998Z</time></trkpt><trkpt lat="41.74869336286341" lon="12.697848552525887"><ele>652.3333333333333</ele><time>2026-05-02T15:30:29.998Z</time></trkpt><trkpt lat="41.74861340560544" lon="12.697908499584397"><ele>653.0</ele><time>2026-05-02T15:30:30.998Z</time></trkpt><trkpt lat="41.74853048162971" lon="12.697969900976737"><ele>653.0</ele><time>2026-05-02T15:30:31.998Z</time></trkpt><trkpt lat="41.74844759039257" lon="12.698026599478526"><ele>653.0</ele><time>2026-05-02T15:30:32.998Z</time></trkpt><trkpt lat="41.74836351790753" lon="12.698085902693455"><ele>653.0</ele><time>2026-05-02T15:30:33.998Z</time></trkpt><trkpt lat="41.74828240912317" lon="12.69814909416052"><ele>653.0</ele><time>2026-05-02T15:30:34.998Z</time></trkpt><trkpt lat="41.7482036311649" lon="12.69820952018464"><ele>653.0</ele><time>2026-05-02T15:30:35.998Z</time></trkpt><trkpt lat="41.74812713001659" lon="12.698272872747218"><ele>653.0</ele><time>2026-05-02T15:30:36.998Z</time></trkpt><trkpt lat="41.74805491002761" lon="12.698344345179708"><ele>653.0</ele><time>2026-05-02T15:30:37.998Z</time></trkpt><trkpt lat="41.74799204510563" lon="12.698430293425606"><ele>653.0</ele><time>2026-05-02T15:30:38.998Z</time></trkpt><trkpt lat="41.74793612186898" lon="12.698523621224446"><ele>653.0</ele><time>2026-05-02T15:30:39.998Z</time></trkpt><trkpt lat="41.7478779483288" lon="12.698619984571863"><ele>653.0</ele><time>2026-05-02T15:30:40.998Z</time></trkpt><trkpt lat="41.74781944908132" lon="12.698716437342986"><ele>652.4</ele><time>2026-05-02T15:30:42Z</time></trkpt><trkpt lat="41.747760356179256" lon="12.698811927880922"><ele>651.8</ele><time>2026-05-02T15:30:43Z</time></trkpt><trkpt lat="41.747701731199854" lon="12.698909531931596"><ele>651.2</ele><time>2026-05-02T15:30:44Z</time></trkpt><trkpt lat="41.74764213753222" lon="12.699004666498514"><ele>650.6</ele><time>2026-05-02T15:30:45Z</time></trkpt><trkpt lat="41.747579029385136" lon="12.69910048289932"><ele>650.0</ele><time>2026-05-02T15:30:46Z</time></trkpt><trkpt lat="41.74751689179165" lon="12.699189144721364"><ele>650.0</ele><time>2026-05-02T15:30:47Z</time></trkpt><trkpt lat="41.747442310813454" lon="12.699244731699977"><ele>650.0</ele><time>2026-05-02T15:30:48Z</time></trkpt><trkpt lat="41.747355268830795" lon="12.699250076994426"><ele>650.0</ele><time>2026-05-02T15:30:49Z</time></trkpt><trkpt lat="41.747268902558204" lon="12.699240677076206"><ele>650.0</ele><time>2026-05-02T15:30:50Z</time></trkpt><trkpt lat="41.747203924352384" lon="12.699251351246499"><ele>650.0</ele><time>2026-05-02T15:30:51Z</time></trkpt><trkpt lat="41.747137335576824" lon="12.699162638177016"><ele>650.0</ele><time>2026-05-02T15:30:52Z</time></trkpt><trkpt lat="41.747067262793706" lon="12.699056552061819"><ele>650.0</ele><time>2026-05-02T15:30:53Z</time></trkpt><trkpt lat="41.7469809117592" lon="12.698940271727308"><ele>650.0</ele><time>2026-05-02T15:30:54Z</time></trkpt><trkpt lat="41.74689565402671" lon="12.6988125546097"><ele>650.0</ele><time>2026-05-02T15:30:55Z</time></trkpt><trkpt lat="41.74681229250219" lon="12.698675141149494"><ele>650.0</ele><time>2026-05-02T15:30:56Z</time></trkpt><trkpt lat="41.746732714565" lon="12.698524179222357"><ele>647.5</ele><time>2026-05-02T15:30:57Z</time></trkpt><trkpt lat="41.74665527762748" lon="12.698370163847919"><ele>645.0</ele><time>2026-05-02T15:30:58Z</time></trkpt><trkpt lat="41.746582309740475" lon="12.69820763565966"><ele>642.5</ele><time>2026-05-02T15:30:59Z</time></trkpt><trkpt lat="41.746515840280246" lon="12.698034212205265"><ele>640.0</ele><time>2026-05-02T15:31:00Z</time></trkpt><trkpt lat="41.74645140782516" lon="12.6978600803256"><ele>636.0</ele><time>2026-05-02T15:31:01Z</time></trkpt><trkpt lat="41.746375827622764" lon="12.697692554745782"><ele>632.0</ele><time>2026-05-02T15:31:02Z</time></trkpt><trkpt lat="41.74628498700465" lon="12.697533573108554"><ele>628.0</ele><time>2026-05-02T15:31:03Z</time></trkpt><trkpt lat="41.74618385933949" lon="12.69738775971442"><ele>624.0</ele><time>2026-05-02T15:31:04Z</time></trkpt><trkpt lat="41.74607260764084" lon="12.697261991260804"><ele>626.0</ele><time>2026-05-02T15:31:05Z</time></trkpt><trkpt lat="41.7459457607084" lon="12.697171134680769"><ele>628.0</ele><time>2026-05-02T15:31:06Z</time></trkpt><trkpt lat="41.745819622593004" lon="12.697103788896884"><ele>630.0</ele><time>2026-05-02T15:31:07Z</time></trkpt><trkpt lat="41.74568675209846" lon="12.697072739536296"><ele>632.0</ele><time>2026-05-02T15:31:08Z</time></trkpt><trkpt lat="41.745543143246266" lon="12.697081522104225"><ele>632.0</ele><time>2026-05-02T15:31:09Z</time></trkpt><trkpt lat="41.745397828571924" lon="12.697123213576113"><ele>632.0</ele><time>2026-05-02T15:31:10Z</time></trkpt><trkpt lat="41.7452487030212" lon="12.697178573744246"><ele>632.0</ele><time>2026-05-02T15:31:10.999Z</time></trkpt><trkpt lat="41.745100552200384" lon="12.697222419924056"><ele>630.0</ele><time>2026-05-02T15:31:11.999Z</time></trkpt><trkpt lat="41.74494010951163" lon="12.697309357549857"><ele>628.0</ele><time>2026-05-02T15:31:12.999Z</time></trkpt><trkpt lat="41.744800174852685" lon="12.697375071897133"><ele>626.0</ele><time>2026-05-02T15:31:13.999Z</time></trkpt><trkpt lat="41.74467246522104" lon="12.697475561958337"><ele>626.0</ele><time>2026-05-02T15:31:14.999Z</time></trkpt><trkpt lat="41.74455635165008" lon="12.697608334935769"><ele>626.0</ele><time>2026-05-02T15:31:15.999Z</time></trkpt><trkpt lat="41.744437853961955" lon="12.6977411460234"><ele>626.0</ele><time>2026-05-02T15:31:16.999Z</time></trkpt><trkpt lat="41.74430864131341" lon="12.697863957279662"><ele>625.6666666666666</ele><time>2026-05-02T15:31:17.999Z</time></trkpt><trkpt lat="41.74417356756542" lon="12.697955839309483"><ele>625.3333333333334</ele><time>2026-05-02T15:31:18.999Z</time></trkpt><trkpt lat="41.74402915379263" lon="12.698041002480842"><ele>625.0</ele><time>2026-05-02T15:31:19.999Z</time></trkpt><trkpt lat="41.7439000363448" lon="12.698122451502895"><ele>625.0</ele><time>2026-05-02T15:31:20.999Z</time></trkpt><trkpt lat="41.74373589497552" lon="12.698181023962379"><ele>625.0</ele><time>2026-05-02T15:31:21.999Z</time></trkpt><trkpt lat="41.74358051643516" lon="12.698227274418956"><ele>625.0</ele><time>2026-05-02T15:31:22.999Z</time></trkpt><trkpt lat="41.74342954543649" lon="12.698279005530743"><ele>622.0</ele><time>2026-05-02T15:31:23.999Z</time></trkpt><trkpt lat="41.74329193949691" lon="12.698323249534182"><ele>619.0</ele><time>2026-05-02T15:31:24.999Z</time></trkpt><trkpt lat="41.74314809453347" lon="12.698348840725075"><ele>616.0</ele><time>2026-05-02T15:31:25.999Z</time></trkpt><trkpt lat="41.74302638746065" lon="12.698393576959523"><ele>613.0</ele><time>2026-05-02T15:31:26.999Z</time></trkpt><trkpt lat="41.74292307894862" lon="12.698417879424412"><ele>613.0</ele><time>2026-05-02T15:31:27.999Z</time></trkpt><trkpt lat="41.74283754231082" lon="12.698413804025888"><ele>613.0</ele><time>2026-05-02T15:31:28.999Z</time></trkpt><trkpt lat="41.74276265075871" lon="12.698412955114463"><ele>613.0</ele><time>2026-05-02T15:31:29.999Z</time></trkpt><trkpt lat="41.74268825185193" lon="12.698392130308662"><ele>613.0</ele><time>2026-05-02T15:31:30.999Z</time></trkpt><trkpt lat="41.742613902459304" lon="12.698354059571695"><ele>613.0</ele><time>2026-05-02T15:31:31.999Z</time></trkpt><trkpt lat="41.74254180396907" lon="12.698281720889176"><ele>613.0</ele><time>2026-05-02T15:31:32.999Z</time></trkpt><trkpt lat="41.74247997268166" lon="12.698193708727267"><ele>611.6666666666667</ele><time>2026-05-02T15:31:33.999Z</time></trkpt><trkpt lat="41.74241002204675" lon="12.698142477092182"><ele>610.3333333333334</ele><time>2026-05-02T15:31:34.999Z</time></trkpt><trkpt lat="41.7423295408731" lon="12.698146279128794"><ele>609.0</ele><time>2026-05-02T15:31:35.999Z</time></trkpt><trkpt lat="41.7422591848848" lon="12.698185781903977"><ele>607.6666666666666</ele><time>2026-05-02T15:31:36.999Z</time></trkpt><trkpt lat="41.74220969527354" lon="12.698270927746364"><ele>606.3333333333333</ele><time>2026-05-02T15:31:37.999Z</time></trkpt><trkpt lat="41.742197708251204" lon="12.698386428199543"><ele>605.0</ele><time>2026-05-02T15:31:38.999Z</time></trkpt><trkpt lat="41.7422153582608" lon="12.698499232790148"><ele>606.2</ele><time>2026-05-02T15:31:39.999Z</time></trkpt><trkpt lat="41.74224922187179" lon="12.69861510334392"><ele>607.4</ele><time>2026-05-02T15:31:40.999Z</time></trkpt><trkpt lat="41.74224720315064" lon="12.698744947579453"><ele>608.6</ele><time>2026-05-02T15:31:41.999Z</time></trkpt><trkpt lat="41.74221897076377" lon="12.698879184928169"><ele>609.8</ele><time>2026-05-02T15:31:42.999Z</time></trkpt><trkpt lat="41.74217423638679" lon="12.699016764035177"><ele>611.0</ele><time>2026-05-02T15:31:43.999Z</time></trkpt><trkpt lat="41.74212726150051" lon="12.699151218221408"><ele>611.0</ele><time>2026-05-02T15:31:44.999Z</time></trkpt><trkpt lat="41.74208259800327" lon="12.699278910855819"><ele>611.0</ele><time>2026-05-02T15:31:45.999Z</time></trkpt><trkpt lat="41.74203492380242" lon="12.699410576444434"><ele>611.0</ele><time>2026-05-02T15:31:46.999Z</time></trkpt><trkpt lat="41.74198548791939" lon="12.699545930047924"><ele>611.0</ele><time>2026-05-02T15:31:47.999Z</time></trkpt><trkpt lat="41.7419239500174" lon="12.699690691379777"><ele>611.25</ele><time>2026-05-02T15:31:48.999Z</time></trkpt><trkpt lat="41.74187754544052" lon="12.699833158090751"><ele>611.5</ele><time>2026-05-02T15:31:49.999Z</time></trkpt><trkpt lat="41.74182284918649" lon="12.699982431041027"><ele>611.75</ele><time>2026-05-02T15:31:50.999Z</time></trkpt><trkpt lat="41.74176454446802" lon="12.700133396978833"><ele>612.0</ele><time>2026-05-02T15:31:51.999Z</time></trkpt><trkpt lat="41.741706028207425" lon="12.700288147213575"><ele>612.5</ele><time>2026-05-02T15:31:52.999Z</time></trkpt><trkpt lat="41.74164906133033" lon="12.70045091269037"><ele>613.0</ele><time>2026-05-02T15:31:53.999Z</time></trkpt><trkpt lat="41.74158975679487" lon="12.70061383715205"><ele>613.5</ele><time>2026-05-02T15:31:54.999Z</time></trkpt><trkpt lat="41.74153144842106" lon="12.700778811708084"><ele>614.0</ele><time>2026-05-02T15:31:55.999Z</time></trkpt><trkpt lat="41.7414680898421" lon="12.700939918832972"><ele>615.25</ele><time>2026-05-02T15:31:56.999Z</time></trkpt><trkpt lat="41.7414019335675" lon="12.701092101927676"><ele>616.5</ele><time>2026-05-02T15:31:57.999Z</time></trkpt><trkpt lat="41.741334473261325" lon="12.701239815049203"><ele>617.75</ele><time>2026-05-02T15:31:58.999Z</time></trkpt><trkpt lat="41.74126580858767" lon="12.701385114775858"><ele>619.0</ele><time>2026-05-02T15:31:59.999Z</time></trkpt><trkpt lat="41.74119723306968" lon="12.701531554862548"><ele>619.0</ele><time>2026-05-02T15:32:00.999Z</time></trkpt><trkpt lat="41.741127167049505" lon="12.701679429586164"><ele>619.0</ele><time>2026-05-02T15:32:01.999Z</time></trkpt><trkpt lat="41.74105538980459" lon="12.701826262031428"><ele>619.0</ele><time>2026-05-02T15:32:02.999Z</time></trkpt><trkpt lat="41.740985612786965" lon="12.70197582782564"><ele>619.0</ele><time>2026-05-02T15:32:03.999Z</time></trkpt><trkpt lat="41.740891146502314" lon="12.70210308357324"><ele>618.25</ele><time>2026-05-02T15:32:04.999Z</time></trkpt><trkpt lat="41.740820525582514" lon="12.70224958774751"><ele>617.5</ele><time>2026-05-02T15:32:05.999Z</time></trkpt><trkpt lat="41.74075093534543" lon="12.702395722819858"><ele>616.75</ele><time>2026-05-02T15:32:06.999Z</time></trkpt><trkpt lat="41.74068162062405" lon="12.702539858582929"><ele>616.0</ele><time>2026-05-02T15:32:07.999Z</time></trkpt><trkpt lat="41.740612931837624" lon="12.702679980172064"><ele>617.25</ele><time>2026-05-02T15:32:08.999Z</time></trkpt><trkpt lat="41.740544563956135" lon="12.702820360162717"><ele>618.5</ele><time>2026-05-02T15:32:09.999Z</time></trkpt><trkpt lat="41.74048042345355" lon="12.702959122851667"><ele>619.75</ele><time>2026-05-02T15:32:10.998Z</time></trkpt><trkpt lat="41.74041479307465" lon="12.70309395088269"><ele>621.0</ele><time>2026-05-02T15:32:11.998Z</time></trkpt><trkpt lat="41.740351501995285" lon="12.70322397318397"><ele>621.0</ele><time>2026-05-02T15:32:12.998Z</time></trkpt><trkpt lat="41.74028938982815" lon="12.703352326591913"><ele>621.0</ele><time>2026-05-02T15:32:13.998Z</time></trkpt><trkpt lat="41.740226970866715" lon="12.70348177408284"><ele>621.0</ele><time>2026-05-02T15:32:14.998Z</time></trkpt><trkpt lat="41.74016253179462" lon="12.70361541097829"><ele>621.0</ele><time>2026-05-02T15:32:15.998Z</time></trkpt><trkpt lat="41.740098165596415" lon="12.703748902795457"><ele>621.25</ele><time>2026-05-02T15:32:16.998Z</time></trkpt><trkpt lat="41.740033142084926" lon="12.703877181947814"><ele>621.5</ele><time>2026-05-02T15:32:17.998Z</time></trkpt><trkpt lat="41.739962365280064" lon="12.703999204237348"><ele>621.75</ele><time>2026-05-02T15:32:18.998Z</time></trkpt><trkpt lat="41.73988619126397" lon="12.704104591542567"><ele>622.0</ele><time>2026-05-02T15:32:19.998Z</time></trkpt><trkpt lat="41.73979831201989" lon="12.704194150801646"><ele>622.0</ele><time>2026-05-02T15:32:20.998Z</time></trkpt><trkpt lat="41.73969936188115" lon="12.704270827022997"><ele>622.0</ele><time>2026-05-02T15:32:21.998Z</time></trkpt><trkpt lat="41.73959949486442" lon="12.704332724853032"><ele>622.0</ele><time>2026-05-02T15:32:22.998Z</time></trkpt><trkpt lat="41.739486535042225" lon="12.704396685024149"><ele>622.0</ele><time>2026-05-02T15:32:23.998Z</time></trkpt><trkpt lat="41.739374912339585" lon="12.704456156836878"><ele>622.75</ele><time>2026-05-02T15:32:24.998Z</time></trkpt><trkpt lat="41.73926541204148" lon="12.704514497862228"><ele>623.5</ele><time>2026-05-02T15:32:25.998Z</time></trkpt><trkpt lat="41.73915852069953" lon="12.704572169004635"><ele>624.25</ele><time>2026-05-02T15:32:26.998Z</time></trkpt><trkpt lat="41.73905517694624" lon="12.704628699722255"><ele>625.0</ele><time>2026-05-02T15:32:27.998Z</time></trkpt><trkpt lat="41.738955576603594" lon="12.704684636405446"><ele>625.0</ele><time>2026-05-02T15:32:28.998Z</time></trkpt><trkpt lat="41.73886185598624" lon="12.704737270976086"><ele>625.0</ele><time>2026-05-02T15:32:29.998Z</time></trkpt><trkpt lat="41.73876909432923" lon="12.704798717881003"><ele>625.0</ele><time>2026-05-02T15:32:30.998Z</time></trkpt><trkpt lat="41.73868593293749" lon="12.704866134047458"><ele>625.0</ele><time>2026-05-02T15:32:31.998Z</time></trkpt><trkpt lat="41.73860430008888" lon="12.70495217840232"><ele>625.0</ele><time>2026-05-02T15:32:32.998Z</time></trkpt><trkpt lat="41.73852993404327" lon="12.705062147789093"><ele>624.6</ele><time>2026-05-02T15:32:33.998Z</time></trkpt><trkpt lat="41.738465302483704" lon="12.705182797885675"><ele>624.2</ele><time>2026-05-02T15:32:34.998Z</time></trkpt><trkpt lat="41.7384069843526" lon="12.705308925763909"><ele>623.8</ele><time>2026-05-02T15:32:35.998Z</time></trkpt><trkpt lat="41.73835898747828" lon="12.705446545698123"><ele>623.4</ele><time>2026-05-02T15:32:36.998Z</time></trkpt><trkpt lat="41.738317187522455" lon="12.705580778715081"><ele>623.0</ele><time>2026-05-02T15:32:37.998Z</time></trkpt><trkpt lat="41.73828079943966" lon="12.705718409252118"><ele>624.0</ele><time>2026-05-02T15:32:38.998Z</time></trkpt><trkpt lat="41.73824830540235" lon="12.705854518813604"><ele>625.0</ele><time>2026-05-02T15:32:39.998Z</time></trkpt><trkpt lat="41.73821585648428" lon="12.705990256844235"><ele>626.0</ele><time>2026-05-02T15:32:40.998Z</time></trkpt><trkpt lat="41.73818307050773" lon="12.706125130483755"><ele>627.0</ele><time>2026-05-02T15:32:41.998Z</time></trkpt><trkpt lat="41.738148198324524" lon="12.70626146614027"><ele>628.0</ele><time>2026-05-02T15:32:42.998Z</time></trkpt><trkpt lat="41.73811298955178" lon="12.706398277157463"><ele>628.0</ele><time>2026-05-02T15:32:43.998Z</time></trkpt><trkpt lat="41.73807301579539" lon="12.706534742620303"><ele>628.0</ele><time>2026-05-02T15:32:44.998Z</time></trkpt><trkpt lat="41.73802461168346" lon="12.706673834517057"><ele>628.0</ele><time>2026-05-02T15:32:45.998Z</time></trkpt><trkpt lat="41.73796948917844" lon="12.706803898092964"><ele>628.0</ele><time>2026-05-02T15:32:46.998Z</time></trkpt><trkpt lat="41.737902007597405" lon="12.706927034877555"><ele>629.5</ele><time>2026-05-02T15:32:47.999Z</time></trkpt><trkpt lat="41.737822703344484" lon="12.707051416447136"><ele>631.0</ele><time>2026-05-02T15:32:48.999Z</time></trkpt><trkpt lat="41.737739085142316" lon="12.7071707101786"><ele>632.5</ele><time>2026-05-02T15:32:49.999Z</time></trkpt><trkpt lat="41.73765476410993" lon="12.707281677686746"><ele>634.0</ele><time>2026-05-02T15:32:50.999Z</time></trkpt><trkpt lat="41.73757152847264" lon="12.70738746953898"><ele>634.0</ele><time>2026-05-02T15:32:51.999Z</time></trkpt><trkpt lat="41.73748806463585" lon="12.70748878396036"><ele>634.0</ele><time>2026-05-02T15:32:52.999Z</time></trkpt><trkpt lat="41.737398505194" lon="12.707594445670118"><ele>634.0</ele><time>2026-05-02T15:32:53.999Z</time></trkpt><trkpt lat="41.73730686555588" lon="12.707702561564215"><ele>634.0</ele><time>2026-05-02T15:32:54.999Z</time></trkpt><trkpt lat="41.73721807215804" lon="12.707807319481683"><ele>635.25</ele><time>2026-05-02T15:32:55.999Z</time></trkpt><trkpt lat="41.73712483589889" lon="12.707916727602873"><ele>636.5</ele><time>2026-05-02T15:32:56.999Z</time></trkpt><trkpt lat="41.73702916087968" lon="12.708028602220711"><ele>637.75</ele><time>2026-05-02T15:32:57.999Z</time></trkpt><trkpt lat="41.73693482839629" lon="12.708139228041796"><ele>639.0</ele><time>2026-05-02T15:32:58.999Z</time></trkpt><trkpt lat="41.73684284311804" lon="12.708246467663209"><ele>639.0</ele><time>2026-05-02T15:32:59.999Z</time></trkpt><trkpt lat="41.73675087765758" lon="12.708354405177706"><ele>639.0</ele><time>2026-05-02T15:33:00.999Z</time></trkpt><trkpt lat="41.73665893694744" lon="12.708463455751815"><ele>639.0</ele><time>2026-05-02T15:33:01.999Z</time></trkpt><trkpt lat="41.736566360189364" lon="12.708573259515486"><ele>639.0</ele><time>2026-05-02T15:33:02.999Z</time></trkpt><trkpt lat="41.736476155126596" lon="12.708680250299363"><ele>641.0</ele><time>2026-05-02T15:33:03.999Z</time></trkpt><trkpt lat="41.7363840119277" lon="12.70879463199345"><ele>643.0</ele><time>2026-05-02T15:33:04.999Z</time></trkpt><trkpt lat="41.736293787776376" lon="12.708906612987292"><ele>645.0</ele><time>2026-05-02T15:33:05.999Z</time></trkpt><trkpt lat="41.736201512845206" lon="12.709018182794933"><ele>647.0</ele><time>2026-05-02T15:33:06.999Z</time></trkpt><trkpt lat="41.736111192974356" lon="12.709133302136486"><ele>647.5</ele><time>2026-05-02T15:33:07.999Z</time></trkpt><trkpt lat="41.736020904491376" lon="12.709252215281253"><ele>648.0</ele><time>2026-05-02T15:33:08.999Z</time></trkpt><trkpt lat="41.735936176765584" lon="12.709372439010806"><ele>648.5</ele><time>2026-05-02T15:33:09.999Z</time></trkpt><trkpt lat="41.7358535691886" lon="12.70950092190083"><ele>649.0</ele><time>2026-05-02T15:33:10.999Z</time></trkpt><trkpt lat="41.73577736999843" lon="12.709627842249455"><ele>650.0</ele><time>2026-05-02T15:33:11.999Z</time></trkpt><trkpt lat="41.73570033876303" lon="12.709757829632979"><ele>651.0</ele><time>2026-05-02T15:33:12.999Z</time></trkpt><trkpt lat="41.73562504333696" lon="12.709887001735236"><ele>652.0</ele><time>2026-05-02T15:33:13.999Z</time></trkpt><trkpt lat="41.73555030022565" lon="12.710015224195683"><ele>653.0</ele><time>2026-05-02T15:33:14.999Z</time></trkpt><trkpt lat="41.735474467638916" lon="12.710144969669082"><ele>653.2</ele><time>2026-05-02T15:33:15.999Z</time></trkpt><trkpt lat="41.73539889594304" lon="12.710267669390257"><ele>653.4</ele><time>2026-05-02T15:33:16.999Z</time></trkpt><trkpt lat="41.73532187481703" lon="12.710368822428306"><ele>653.6</ele><time>2026-05-02T15:33:17.999Z</time></trkpt><trkpt lat="41.73523376599947" lon="12.710461563128382"><ele>653.8000000000001</ele><time>2026-05-02T15:33:18.999Z</time></trkpt><trkpt lat="41.73513993938923" lon="12.710536289373401"><ele>654.0</ele><time>2026-05-02T15:33:19.999Z</time></trkpt><trkpt lat="41.735036435518026" lon="12.710596046270755"><ele>651.5</ele><time>2026-05-02T15:33:20.999Z</time></trkpt><trkpt lat="41.73492591554168" lon="12.710652151544945"><ele>649.0</ele><time>2026-05-02T15:33:21.999Z</time></trkpt><trkpt lat="41.73481185659874" lon="12.710709870136807"><ele>646.5</ele><time>2026-05-02T15:33:22.999Z</time></trkpt><trkpt lat="41.73469909672397" lon="12.710770646093536"><ele>644.0</ele><time>2026-05-02T15:33:23.999Z</time></trkpt><trkpt lat="41.73458949008404" lon="12.710836874492163"><ele>644.0</ele><time>2026-05-02T15:33:24.999Z</time></trkpt><trkpt lat="41.73448022296701" lon="12.710924218210586"><ele>644.0</ele><time>2026-05-02T15:33:25.999Z</time></trkpt><trkpt lat="41.73438348154053" lon="12.711023225633737"><ele>644.0</ele><time>2026-05-02T15:33:26.999Z</time></trkpt><trkpt lat="41.73429469143096" lon="12.711147934982687"><ele>644.0</ele><time>2026-05-02T15:33:27.999Z</time></trkpt><trkpt lat="41.73421415936248" lon="12.711283509893546"><ele>642.5</ele><time>2026-05-02T15:33:28.999Z</time></trkpt><trkpt lat="41.7341420226539" lon="12.711434402801562"><ele>641.0</ele><time>2026-05-02T15:33:29.999Z</time></trkpt><trkpt lat="41.73407655130418" lon="12.711586032782517"><ele>639.5</ele><time>2026-05-02T15:33:30.999Z</time></trkpt><trkpt lat="41.734019282642116" lon="12.711726564672475"><ele>638.0</ele><time>2026-05-02T15:33:31.999Z</time></trkpt><trkpt lat="41.733964105822146" lon="12.71186196337338"><ele>637.5</ele><time>2026-05-02T15:33:32.999Z</time></trkpt><trkpt lat="41.7339087038691" lon="12.711997185978527"><ele>637.0</ele><time>2026-05-02T15:33:33.999Z</time></trkpt><trkpt lat="41.733853070711234" lon="12.712132174355288"><ele>636.5</ele><time>2026-05-02T15:33:34.999Z</time></trkpt><trkpt lat="41.73379627527801" lon="12.712271095642208"><ele>636.0</ele><time>2026-05-02T15:33:35.999Z</time></trkpt><trkpt lat="41.73373736261769" lon="12.71241470446736"><ele>636.0</ele><time>2026-05-02T15:33:36.999Z</time></trkpt><trkpt lat="41.73367862551093" lon="12.712557738387295"><ele>636.0</ele><time>2026-05-02T15:33:37.999Z</time></trkpt><trkpt lat="41.73361981325448" lon="12.712701380556624"><ele>636.0</ele><time>2026-05-02T15:33:38.999Z</time></trkpt><trkpt lat="41.73356087308376" lon="12.71284533519752"><ele>636.0</ele><time>2026-05-02T15:33:39.999Z</time></trkpt><trkpt lat="41.73350083160487" lon="12.71298450495079"><ele>634.25</ele><time>2026-05-02T15:33:40.999Z</time></trkpt><trkpt lat="41.73343643358662" lon="12.713117212441544"><ele>632.5</ele><time>2026-05-02T15:33:41.999Z</time></trkpt><trkpt lat="41.7333631925221" lon="12.71323540550242"><ele>630.75</ele><time>2026-05-02T15:33:42.999Z</time></trkpt><trkpt lat="41.73327885303557" lon="12.713348121043554"><ele>629.0</ele><time>2026-05-02T15:33:43.999Z</time></trkpt><trkpt lat="41.73318939526732" lon="12.71344622016607"><ele>629.0</ele><time>2026-05-02T15:33:44.999Z</time></trkpt><trkpt lat="41.73309572775092" lon="12.713547719584868"><ele>629.0</ele><time>2026-05-02T15:33:45.999Z</time></trkpt><trkpt lat="41.73300387694664" lon="12.713646994941932"><ele>629.0</ele><time>2026-05-02T15:33:46.999Z</time></trkpt><trkpt lat="41.73291214614567" lon="12.71374614065066"><ele>629.0</ele><time>2026-05-02T15:33:47.999Z</time></trkpt><trkpt lat="41.732823003205574" lon="12.713842489306401"><ele>630.2</ele><time>2026-05-02T15:33:48.999Z</time></trkpt><trkpt lat="41.732735345144114" lon="12.71393708215205"><ele>631.4</ele><time>2026-05-02T15:33:49.998Z</time></trkpt><trkpt lat="41.7326504536693" lon="12.714028064233085"><ele>632.6</ele><time>2026-05-02T15:33:50.998Z</time></trkpt><trkpt lat="41.73256064014151" lon="12.714125995210653"><ele>633.8</ele><time>2026-05-02T15:33:51.998Z</time></trkpt><trkpt lat="41.732477335060956" lon="12.714217275597656"><ele>635.0</ele><time>2026-05-02T15:33:52.998Z</time></trkpt><trkpt lat="41.732374873120165" lon="12.714327787660649"><ele>635.75</ele><time>2026-05-02T15:33:53.998Z</time></trkpt><trkpt lat="41.7322707154544" lon="12.714440265693113"><ele>636.5</ele><time>2026-05-02T15:33:54.998Z</time></trkpt><trkpt lat="41.73215714375658" lon="12.714562986515316"><ele>637.25</ele><time>2026-05-02T15:33:55.998Z</time></trkpt><trkpt lat="41.732036840908656" lon="12.714692955678782"><ele>638.0</ele><time>2026-05-02T15:33:56.998Z</time></trkpt><trkpt lat="41.73192785388916" lon="12.714810688564215"><ele>638.25</ele><time>2026-05-02T15:33:57.998Z</time></trkpt><trkpt lat="41.73180550315033" lon="12.714942857588541"><ele>638.5</ele><time>2026-05-02T15:33:58.998Z</time></trkpt><trkpt lat="41.731688440479836" lon="12.715075918523633"><ele>638.75</ele><time>2026-05-02T15:33:59.998Z</time></trkpt><trkpt lat="41.731612115625815" lon="12.715188542336989"><ele>639.0</ele><time>2026-05-02T15:34:00.998Z</time></trkpt><trkpt lat="41.73152179094498" lon="12.715268937124014"><ele>640.75</ele><time>2026-05-02T15:34:01.998Z</time></trkpt><trkpt lat="41.73145667676493" lon="12.715379500311188"><ele>642.5</ele><time>2026-05-02T15:34:02.998Z</time></trkpt><trkpt lat="41.73134540836547" lon="12.715514586936662"><ele>644.25</ele><time>2026-05-02T15:34:03.998Z</time></trkpt><trkpt lat="41.73126507967077" lon="12.715634011575911"><ele>646.0</ele><time>2026-05-02T15:34:04.998Z</time></trkpt><trkpt lat="41.73117360804761" lon="12.71576379663391"><ele>646.0</ele><time>2026-05-02T15:34:05.998Z</time></trkpt><trkpt lat="41.7310910173623" lon="12.715929587418671"><ele>646.0</ele><time>2026-05-02T15:34:06.998Z</time></trkpt><trkpt lat="41.731029944629235" lon="12.716080769572875"><ele>646.0</ele><time>2026-05-02T15:34:07.998Z</time></trkpt><trkpt lat="41.73095610859242" lon="12.71621498638602"><ele>646.0</ele><time>2026-05-02T15:34:08.998Z</time></trkpt><trkpt lat="41.73089149109559" lon="12.716357737647108"><ele>646.0</ele><time>2026-05-02T15:34:09.998Z</time></trkpt><trkpt lat="41.73082876015301" lon="12.716505926061151"><ele>646.0</ele><time>2026-05-02T15:34:10.998Z</time></trkpt><trkpt lat="41.73075329328615" lon="12.716657690042993"><ele>646.0</ele><time>2026-05-02T15:34:11.998Z</time></trkpt><trkpt lat="41.7306586601091" lon="12.716793574382185"><ele>646.0</ele><time>2026-05-02T15:34:12.998Z</time></trkpt><trkpt lat="41.73058042392254" lon="12.7169326269164"><ele>647.5</ele><time>2026-05-02T15:34:13.998Z</time></trkpt><trkpt lat="41.730538219284654" lon="12.717090206092546"><ele>649.0</ele><time>2026-05-02T15:34:14.998Z</time></trkpt><trkpt lat="41.73044096315441" lon="12.717246935913758"><ele>650.5</ele><time>2026-05-02T15:34:15.998Z</time></trkpt><trkpt lat="41.730374819421286" lon="12.7173684212087"><ele>652.0</ele><time>2026-05-02T15:34:16.998Z</time></trkpt><trkpt lat="41.73030254009857" lon="12.717501871713477"><ele>652.0</ele><time>2026-05-02T15:34:17.998Z</time></trkpt><trkpt lat="41.730234510730604" lon="12.717633546002281"><ele>652.0</ele><time>2026-05-02T15:34:18.998Z</time></trkpt><trkpt lat="41.730148690476774" lon="12.71780305872703"><ele>652.0</ele><time>2026-05-02T15:34:19.998Z</time></trkpt><trkpt lat="41.73008252619564" lon="12.717946323903021"><ele>652.0</ele><time>2026-05-02T15:34:20.998Z</time></trkpt><trkpt lat="41.73002100241118" lon="12.718089604487476"><ele>651.2</ele><time>2026-05-02T15:34:21.998Z</time></trkpt><trkpt lat="41.72995938234146" lon="12.718228124358275"><ele>650.4000000000001</ele><time>2026-05-02T15:34:22.998Z</time></trkpt><trkpt lat="41.729914800213066" lon="12.71832284247768"><ele>649.5999999999999</ele><time>2026-05-02T15:34:23.998Z</time></trkpt><trkpt lat="41.72985051934145" lon="12.71846283520908"><ele>648.8</ele><time>2026-05-02T15:34:24.998Z</time></trkpt><trkpt lat="41.72978221543543" lon="12.718595489506512"><ele>648.0</ele><time>2026-05-02T15:34:25.998Z</time></trkpt><trkpt lat="41.729737886893744" lon="12.71876413178675"><ele>648.0</ele><time>2026-05-02T15:34:26.998Z</time></trkpt><trkpt lat="41.72965325742425" lon="12.718878754966925"><ele>648.0</ele><time>2026-05-02T15:34:27.998Z</time></trkpt><trkpt lat="41.72959974440948" lon="12.718991661384559"><ele>648.0</ele><time>2026-05-02T15:34:28.998Z</time></trkpt><trkpt lat="41.72955827047739" lon="12.719124697575795"><ele>648.0</ele><time>2026-05-02T15:34:29.998Z</time></trkpt><trkpt lat="41.72949984194808" lon="12.719255056219538"><ele>648.0</ele><time>2026-05-02T15:34:30.998Z</time></trkpt><trkpt lat="41.72943318479531" lon="12.719387021238013"><ele>647.75</ele><time>2026-05-02T15:34:31.998Z</time></trkpt><trkpt lat="41.72934759579745" lon="12.719525129265076"><ele>647.5</ele><time>2026-05-02T15:34:32.998Z</time></trkpt><trkpt lat="41.72924778991761" lon="12.719648827943676"><ele>647.25</ele><time>2026-05-02T15:34:33.998Z</time></trkpt><trkpt lat="41.72913294214345" lon="12.71977572059045"><ele>647.0</ele><time>2026-05-02T15:34:34.998Z</time></trkpt><trkpt lat="41.72903906175078" lon="12.719905649633715"><ele>647.0</ele><time>2026-05-02T15:34:35.998Z</time></trkpt><trkpt lat="41.72892558261271" lon="12.719987485219775"><ele>647.0</ele><time>2026-05-02T15:34:36.998Z</time></trkpt><trkpt lat="41.72879372398714" lon="12.7200827854961"><ele>647.0</ele><time>2026-05-02T15:34:37.998Z</time></trkpt><trkpt lat="41.72867247179506" lon="12.720184358151018"><ele>647.0</ele><time>2026-05-02T15:34:38.998Z</time></trkpt><trkpt lat="41.72857579633046" lon="12.720281094448046"><ele>646.0</ele><time>2026-05-02T15:34:39.998Z</time></trkpt><trkpt lat="41.72850296140352" lon="12.720397495131474"><ele>645.0</ele><time>2026-05-02T15:34:40.998Z</time></trkpt><trkpt lat="41.72841303153293" lon="12.720496634260744"><ele>644.0</ele><time>2026-05-02T15:34:41.998Z</time></trkpt><trkpt lat="41.728316784494126" lon="12.720591252788706"><ele>643.0</ele><time>2026-05-02T15:34:42.998Z</time></trkpt><trkpt lat="41.728221096111284" lon="12.720684936934054"><ele>643.0</ele><time>2026-05-02T15:34:43.998Z</time></trkpt><trkpt lat="41.72812143098176" lon="12.72077814836335"><ele>643.0</ele><time>2026-05-02T15:34:44.998Z</time></trkpt><trkpt lat="41.728017566716524" lon="12.720875050382917"><ele>643.0</ele><time>2026-05-02T15:34:45.998Z</time></trkpt><trkpt lat="41.72791425453511" lon="12.720969025052842"><ele>643.0</ele><time>2026-05-02T15:34:46.998Z</time></trkpt><trkpt lat="41.727813392995664" lon="12.721058674599389"><ele>642.25</ele><time>2026-05-02T15:34:47.998Z</time></trkpt><trkpt lat="41.72771837147044" lon="12.721144954574141"><ele>641.5</ele><time>2026-05-02T15:34:48.998Z</time></trkpt><trkpt lat="41.727622361121135" lon="12.721232315562927"><ele>640.75</ele><time>2026-05-02T15:34:49.998Z</time></trkpt><trkpt lat="41.727544300098046" lon="12.7213202583113"><ele>640.0</ele><time>2026-05-02T15:34:50.998Z</time></trkpt><trkpt lat="41.727443219960286" lon="12.721405610455356"><ele>640.0</ele><time>2026-05-02T15:34:51.998Z</time></trkpt><trkpt lat="41.72738306258832" lon="12.721519694922764"><ele>640.0</ele><time>2026-05-02T15:34:52.998Z</time></trkpt><trkpt lat="41.727290873317095" lon="12.721611880153475"><ele>640.0</ele><time>2026-05-02T15:34:53.999Z</time></trkpt><trkpt lat="41.72720828014665" lon="12.721689206248778"><ele>640.0</ele><time>2026-05-02T15:34:54.999Z</time></trkpt><trkpt lat="41.727134661005636" lon="12.721754821587375"><ele>640.0</ele><time>2026-05-02T15:34:55.999Z</time></trkpt><trkpt lat="41.72704200191145" lon="12.721835807200572"><ele>639.25</ele><time>2026-05-02T15:34:56.999Z</time></trkpt><trkpt lat="41.726943331737566" lon="12.721933221597101"><ele>638.5</ele><time>2026-05-02T15:34:57.999Z</time></trkpt><trkpt lat="41.726852154621476" lon="12.722064308044583"><ele>637.75</ele><time>2026-05-02T15:34:58.999Z</time></trkpt><trkpt lat="41.7267514918863" lon="12.722150235133922"><ele>637.0</ele><time>2026-05-02T15:34:59.999Z</time></trkpt><trkpt lat="41.72666030697534" lon="12.722228969160055"><ele>636.3333333333334</ele><time>2026-05-02T15:35:00.999Z</time></trkpt><trkpt lat="41.72658710332137" lon="12.722285947625616"><ele>635.6666666666667</ele><time>2026-05-02T15:35:01.999Z</time></trkpt><trkpt lat="41.72649630825911" lon="12.722381996548886"><ele>635.0</ele><time>2026-05-02T15:35:03.999Z</time></trkpt><trkpt lat="41.72643178407282" lon="12.722434652324065"><ele>634.3333333333334</ele><time>2026-05-02T15:35:04.999Z</time></trkpt><trkpt lat="41.72637196357555" lon="12.7224966878079"><ele>633.6666666666666</ele><time>2026-05-02T15:35:05.999Z</time></trkpt><trkpt lat="41.72631935189424" lon="12.722564450547457"><ele>633.0</ele><time>2026-05-02T15:35:06.999Z</time></trkpt><trkpt lat="41.726261014644855" lon="12.722631065776518"><ele>633.0</ele><time>2026-05-02T15:35:07.999Z</time></trkpt><trkpt lat="41.726196781072446" lon="12.722656604578754"><ele>633.0</ele><time>2026-05-02T15:35:08.999Z</time></trkpt><trkpt lat="41.726020742969595" lon="12.722652026412923"><ele>633.0</ele><time>2026-05-02T15:35:09.999Z</time></trkpt><trkpt lat="41.72609535884702" lon="12.722686300869327"><ele>633.0</ele><time>2026-05-02T15:35:14.999Z</time></trkpt><trkpt lat="41.726174250363016" lon="12.72271732948889"><ele>633.0</ele><time>2026-05-02T15:35:16.999Z</time></trkpt><trkpt lat="41.726110125995014" lon="12.722713535172575"><ele>631.6666666666666</ele><time>2026-05-02T15:35:22.999Z</time></trkpt><trkpt lat="41.72604368936444" lon="12.72268827230201"><ele>630.3333333333334</ele><time>2026-05-02T15:35:25.999Z</time></trkpt><trkpt lat="41.72598031707288" lon="12.722523496881383"><ele>629.0</ele><time>2026-05-02T15:35:27.999Z</time></trkpt><trkpt lat="41.72594942622044" lon="12.722443768524839"><ele>627.6666666666667</ele><time>2026-05-02T15:35:28.999Z</time></trkpt><trkpt lat="41.7259134124952" lon="12.72235955370049"><ele>626.3333333333334</ele><time>2026-05-02T15:35:29.999Z</time></trkpt><trkpt lat="41.72587761490088" lon="12.722270134750568"><ele>625.0</ele><time>2026-05-02T15:35:30.999Z</time></trkpt><trkpt lat="41.72583552815827" lon="12.722143328056003"><ele>625.0</ele><time>2026-05-02T15:35:32.999Z</time></trkpt><trkpt lat="41.72581044609406" lon="12.722054454648596"><ele>625.0</ele><time>2026-05-02T15:35:34.999Z</time></trkpt><trkpt lat="41.725758349101575" lon="12.72192539500722"><ele>625.0</ele><time>2026-05-02T15:35:36.999Z</time></trkpt><trkpt lat="41.725704124616506" lon="12.721864252004323"><ele>625.0</ele><time>2026-05-02T15:35:37.999Z</time></trkpt><trkpt lat="41.725641912831485" lon="12.721824158445052"><ele>625.0</ele><time>2026-05-02T15:35:38.999Z</time></trkpt><trkpt lat="41.72559134255847" lon="12.721771441432654"><ele>625.0</ele><time>2026-05-02T15:35:39.999Z</time></trkpt><trkpt lat="41.725487657028836" lon="12.721705315059385"><ele>624.6666666666667</ele><time>2026-05-02T15:35:41.999Z</time></trkpt><trkpt lat="41.72542163839177" lon="12.721665360900168"><ele>624.3333333333334</ele><time>2026-05-02T15:35:43.999Z</time></trkpt><trkpt lat="41.72534750943438" lon="12.721664249157039"><ele>624.0</ele><time>2026-05-02T15:35:46.999Z</time></trkpt><trkpt lat="41.72527716174057" lon="12.72165360734"><ele>623.6666666666666</ele><time>2026-05-02T15:35:49.999Z</time></trkpt><trkpt lat="41.725205166480784" lon="12.721642716282153"><ele>623.3333333333333</ele><time>2026-05-02T15:35:51.999Z</time></trkpt><trkpt lat="41.72509097768063" lon="12.721622165929528"><ele>623.0</ele><time>2026-05-02T15:35:53.999Z</time></trkpt><trkpt lat="41.72496380829893" lon="12.721598857112602"><ele>622.5</ele><time>2026-05-02T15:35:55.999Z</time></trkpt><trkpt lat="41.724896436907244" lon="12.72159534415108"><ele>622.0</ele><time>2026-05-02T15:35:56.999Z</time></trkpt><trkpt lat="41.72482417621074" lon="12.72159723664891"><ele>621.5</ele><time>2026-05-02T15:35:57.999Z</time></trkpt><trkpt lat="41.72475458293458" lon="12.721594937926485"><ele>621.0</ele><time>2026-05-02T15:35:58.999Z</time></trkpt><trkpt lat="41.72468868248035" lon="12.721598142268054"><ele>620.5</ele><time>2026-05-02T15:35:59.999Z</time></trkpt><trkpt lat="41.72457217389644" lon="12.72159836572029"><ele>620.0</ele><time>2026-05-02T15:36:01.999Z</time></trkpt><trkpt lat="41.72446548442783" lon="12.72159965209328"><ele>619.0</ele><time>2026-05-02T15:36:03.999Z</time></trkpt><trkpt lat="41.72435542480594" lon="12.721619168252898"><ele>618.0</ele><time>2026-05-02T15:36:05.999Z</time></trkpt><trkpt lat="41.724249384610786" lon="12.721633056368862"><ele>617.0</ele><time>2026-05-02T15:36:07.999Z</time></trkpt><trkpt lat="41.7241720096662" lon="12.721657459939642"><ele>616.0</ele><time>2026-05-02T15:36:09.999Z</time></trkpt><trkpt lat="41.72410959966483" lon="12.721679612978543"><ele>615.0</ele><time>2026-05-02T15:36:10.999Z</time></trkpt><trkpt lat="41.724039750782026" lon="12.721704135925822"><ele>614.0</ele><time>2026-05-02T15:36:11.999Z</time></trkpt><trkpt lat="41.72396335924217" lon="12.721726980334541"><ele>614.0</ele><time>2026-05-02T15:36:12.999Z</time></trkpt><trkpt lat="41.72388267980249" lon="12.72176182097649"><ele>614.0</ele><time>2026-05-02T15:36:13.998Z</time></trkpt><trkpt lat="41.72379968016216" lon="12.721797043144992"><ele>614.0</ele><time>2026-05-02T15:36:14.998Z</time></trkpt><trkpt lat="41.72371158351237" lon="12.721822468846549"><ele>614.0</ele><time>2026-05-02T15:36:15.998Z</time></trkpt><trkpt lat="41.72362208789286" lon="12.72183604584188"><ele>614.0</ele><time>2026-05-02T15:36:16.998Z</time></trkpt><trkpt lat="41.72353437219038" lon="12.721840482312462"><ele>614.0</ele><time>2026-05-02T15:36:17.998Z</time></trkpt><trkpt lat="41.72344582396321" lon="12.721839748237192"><ele>613.3333333333333</ele><time>2026-05-02T15:36:18.998Z</time></trkpt><trkpt lat="41.723360177520256" lon="12.721815767692426"><ele>612.6666666666666</ele><time>2026-05-02T15:36:19.998Z</time></trkpt><trkpt lat="41.72327936731738" lon="12.721828394019983"><ele>612.0</ele><time>2026-05-02T15:36:20.998Z</time></trkpt><trkpt lat="41.7232005140844" lon="12.721811051546627"><ele>611.3333333333334</ele><time>2026-05-02T15:36:21.998Z</time></trkpt><trkpt lat="41.72310903519349" lon="12.721796863990447"><ele>610.6666666666667</ele><time>2026-05-02T15:36:22.998Z</time></trkpt><trkpt lat="41.723008977395544" lon="12.721784017572505"><ele>610.0</ele><time>2026-05-02T15:36:23.998Z</time></trkpt><trkpt lat="41.72290838139779" lon="12.72177201541626"><ele>610.0</ele><time>2026-05-02T15:36:24.998Z</time></trkpt><trkpt lat="41.722812333262894" lon="12.721761021226857"><ele>610.0</ele><time>2026-05-02T15:36:25.998Z</time></trkpt><trkpt lat="41.72272846627647" lon="12.72171103267036"><ele>610.0</ele><time>2026-05-02T15:36:26.998Z</time></trkpt><trkpt lat="41.72264191112279" lon="12.72168080988541"><ele>610.0</ele><time>2026-05-02T15:36:27.998Z</time></trkpt><trkpt lat="41.72255780968684" lon="12.721630509849591"><ele>610.0</ele><time>2026-05-02T15:36:28.998Z</time></trkpt><trkpt lat="41.722474162054795" lon="12.721572130724573"><ele>609.0</ele><time>2026-05-02T15:36:29.998Z</time></trkpt><trkpt lat="41.72239334645477" lon="12.721502940158786"><ele>608.0</ele><time>2026-05-02T15:36:30.998Z</time></trkpt><trkpt lat="41.72230082790595" lon="12.721428168298337"><ele>607.0</ele><time>2026-05-02T15:36:31.998Z</time></trkpt><trkpt lat="41.7222127501387" lon="12.72135754081983"><ele>606.0</ele><time>2026-05-02T15:36:32.998Z</time></trkpt><trkpt lat="41.72212446143914" lon="12.72128692245071"><ele>605.0</ele><time>2026-05-02T15:36:33.998Z</time></trkpt><trkpt lat="41.722042332132176" lon="12.72122211725988"><ele>605.0</ele><time>2026-05-02T15:36:34.998Z</time></trkpt><trkpt lat="41.72195968668174" lon="12.721160042150041"><ele>605.0</ele><time>2026-05-02T15:36:35.998Z</time></trkpt><trkpt lat="41.72187524683568" lon="12.721099882467525"><ele>605.0</ele><time>2026-05-02T15:36:36.998Z</time></trkpt><trkpt lat="41.7217883473103" lon="12.72104367171868"><ele>605.0</ele><time>2026-05-02T15:36:37.998Z</time></trkpt><trkpt lat="41.72169224216725" lon="12.721007485008943"><ele>605.0</ele><time>2026-05-02T15:36:38.998Z</time></trkpt><trkpt lat="41.72160674112591" lon="12.720952623550557"><ele>604.2</ele><time>2026-05-02T15:36:39.998Z</time></trkpt><trkpt lat="41.72151929471631" lon="12.720906908609269"><ele>603.4</ele><time>2026-05-02T15:36:40.998Z</time></trkpt><trkpt lat="41.72143342336456" lon="12.720854972021629"><ele>602.6</ele><time>2026-05-02T15:36:41.998Z</time></trkpt><trkpt lat="41.721348661526086" lon="12.720805084497707"><ele>601.8</ele><time>2026-05-02T15:36:42.998Z</time></trkpt><trkpt lat="41.72126054812641" lon="12.720752123857935"><ele>601.0</ele><time>2026-05-02T15:36:43.998Z</time></trkpt><trkpt lat="41.72118147566636" lon="12.720710953788142"><ele>601.0</ele><time>2026-05-02T15:36:44.998Z</time></trkpt><trkpt lat="41.721101613012095" lon="12.720674778177552"><ele>601.0</ele><time>2026-05-02T15:36:45.998Z</time></trkpt><trkpt lat="41.72101037976951" lon="12.720635736767454"><ele>601.0</ele><time>2026-05-02T15:36:46.998Z</time></trkpt><trkpt lat="41.72091929243097" lon="12.720600026878586"><ele>601.0</ele><time>2026-05-02T15:36:47.998Z</time></trkpt><trkpt lat="41.720835314420924" lon="12.720559365554827"><ele>601.0</ele><time>2026-05-02T15:36:48.998Z</time></trkpt><trkpt lat="41.72074977025728" lon="12.720521342469697"><ele>600.1666666666667</ele><time>2026-05-02T15:36:49.998Z</time></trkpt><trkpt lat="41.72067833050828" lon="12.72046486744743"><ele>599.3333333333334</ele><time>2026-05-02T15:36:50.998Z</time></trkpt><trkpt lat="41.720626793528815" lon="12.720394079046233"><ele>598.5</ele><time>2026-05-02T15:36:51.998Z</time></trkpt><trkpt lat="41.7205761037378" lon="12.72030564735691"><ele>597.6666666666666</ele><time>2026-05-02T15:36:52.998Z</time></trkpt><trkpt lat="41.72052609533705" lon="12.720212707679492"><ele>596.8333333333333</ele><time>2026-05-02T15:36:53.998Z</time></trkpt><trkpt lat="41.720474980452465" lon="12.720107409090504"><ele>596.0</ele><time>2026-05-02T15:36:54.998Z</time></trkpt><trkpt lat="41.72040800698562" lon="12.720019048838818"><ele>596.0</ele><time>2026-05-02T15:36:55.998Z</time></trkpt><trkpt lat="41.72033560698814" lon="12.719954949879442"><ele>596.0</ele><time>2026-05-02T15:36:56.998Z</time></trkpt><trkpt lat="41.72026791534049" lon="12.719884864813187"><ele>596.0</ele><time>2026-05-02T15:36:57.998Z</time></trkpt><trkpt lat="41.72018073709649" lon="12.719826929311488"><ele>596.0</ele><time>2026-05-02T15:36:59Z</time></trkpt><trkpt lat="41.72010195752991" lon="12.719764823130882"><ele>596.0</ele><time>2026-05-02T15:37:00Z</time></trkpt><trkpt lat="41.72001526272609" lon="12.719732590832145"><ele>594.1666666666666</ele><time>2026-05-02T15:37:01Z</time></trkpt><trkpt lat="41.71993283423901" lon="12.719731330826718"><ele>592.3333333333333</ele><time>2026-05-02T15:37:02Z</time></trkpt><trkpt lat="41.71987292533904" lon="12.719684788931064"><ele>590.5</ele><time>2026-05-02T15:37:03Z</time></trkpt><trkpt lat="41.71977707987567" lon="12.71960721108205"><ele>588.6666666666666</ele><time>2026-05-02T15:37:05Z</time></trkpt><trkpt lat="41.71975590855594" lon="12.719525097772584"><ele>586.8333333333334</ele><time>2026-05-02T15:37:06Z</time></trkpt><trkpt lat="41.71974919013989" lon="12.719439678240906"><ele>585.0</ele><time>2026-05-02T15:37:07Z</time></trkpt><trkpt lat="41.71973880628547" lon="12.71934349301604"><ele>584.6666666666666</ele><time>2026-05-02T15:37:08Z</time></trkpt><trkpt lat="41.719726521322514" lon="12.719234355666911"><ele>584.3333333333334</ele><time>2026-05-02T15:37:09Z</time></trkpt><trkpt lat="41.71970249676053" lon="12.719123449662797"><ele>584.0</ele><time>2026-05-02T15:37:10Z</time></trkpt><trkpt lat="41.71965734504331" lon="12.719005834076505"><ele>583.6666666666667</ele><time>2026-05-02T15:37:11Z</time></trkpt><trkpt lat="41.71960903323182" lon="12.718913038689674"><ele>583.3333333333334</ele><time>2026-05-02T15:37:12Z</time></trkpt><trkpt lat="41.7195667419517" lon="12.718842531214209"><ele>583.0</ele><time>2026-05-02T15:37:13Z</time></trkpt><trkpt lat="41.71951520189344" lon="12.718718502119629"><ele>584.1666666666667</ele><time>2026-05-02T15:37:15Z</time></trkpt><trkpt lat="41.71952258521597" lon="12.71855887954734"><ele>585.3333333333334</ele><time>2026-05-02T15:37:17Z</time></trkpt><trkpt lat="41.71954066375679" lon="12.71847017390886"><ele>586.5</ele><time>2026-05-02T15:37:18Z</time></trkpt><trkpt lat="41.71955769009236" lon="12.718377928356523"><ele>587.6666666666666</ele><time>2026-05-02T15:37:19Z</time></trkpt><trkpt lat="41.71958460847209" lon="12.718290058897336"><ele>588.8333333333333</ele><time>2026-05-02T15:37:20Z</time></trkpt><trkpt lat="41.719580717184364" lon="12.718160953092275"><ele>590.0</ele><time>2026-05-02T15:37:21Z</time></trkpt><trkpt lat="41.71953645488553" lon="12.718050820443494"><ele>590.0</ele><time>2026-05-02T15:37:22Z</time></trkpt><trkpt lat="41.71950118330252" lon="12.717960584045585"><ele>590.0</ele><time>2026-05-02T15:37:23Z</time></trkpt><trkpt lat="41.71947115703103" lon="12.717868310941924"><ele>590.0</ele><time>2026-05-02T15:37:24Z</time></trkpt><trkpt lat="41.71945015726007" lon="12.717776967428392"><ele>590.0</ele><time>2026-05-02T15:37:25Z</time></trkpt><trkpt lat="41.71943934086598" lon="12.717677684764434"><ele>590.0</ele><time>2026-05-02T15:37:26Z</time></trkpt><trkpt lat="41.71943475392711" lon="12.717572402730738"><ele>590.0</ele><time>2026-05-02T15:37:27Z</time></trkpt><trkpt lat="41.719451145917475" lon="12.717464790653409"><ele>589.0</ele><time>2026-05-02T15:37:28Z</time></trkpt><trkpt lat="41.71947724846813" lon="12.717364234410748"><ele>588.0</ele><time>2026-05-02T15:37:29Z</time></trkpt><trkpt lat="41.71950600210058" lon="12.717259302569932"><ele>587.0</ele><time>2026-05-02T15:37:30Z</time></trkpt><trkpt lat="41.71952485458044" lon="12.717154837607733"><ele>586.0</ele><time>2026-05-02T15:37:31Z</time></trkpt><trkpt lat="41.719535477782514" lon="12.717045637791848"><ele>585.0</ele><time>2026-05-02T15:37:32Z</time></trkpt><trkpt lat="41.71955135506552" lon="12.716938468928364"><ele>584.0</ele><time>2026-05-02T15:37:33Z</time></trkpt><trkpt lat="41.71954062918551" lon="12.716821564382242"><ele>582.8333333333333</ele><time>2026-05-02T15:37:34Z</time></trkpt><trkpt lat="41.71950527812607" lon="12.716709287116418"><ele>581.6666666666666</ele><time>2026-05-02T15:37:35Z</time></trkpt><trkpt lat="41.719452097004" lon="12.716621578604189"><ele>580.5</ele><time>2026-05-02T15:37:36Z</time></trkpt><trkpt lat="41.71940186116484" lon="12.71654555857566"><ele>579.3333333333334</ele><time>2026-05-02T15:37:37Z</time></trkpt><trkpt lat="41.71935812624744" lon="12.716482303112771"><ele>578.1666666666667</ele><time>2026-05-02T15:37:38Z</time></trkpt><trkpt lat="41.719273989147155" lon="12.716365848633364"><ele>577.0</ele><time>2026-05-02T15:37:40Z</time></trkpt><trkpt lat="41.71920809123693" lon="12.716267499943397"><ele>573.6666666666667</ele><time>2026-05-02T15:37:42Z</time></trkpt><trkpt lat="41.71915427080856" lon="12.716168193234667"><ele>570.3333333333334</ele><time>2026-05-02T15:37:44Z</time></trkpt><trkpt lat="41.71911320659262" lon="12.716087995028326"><ele>567.0</ele><time>2026-05-02T15:37:46Z</time></trkpt><trkpt lat="41.71907782433086" lon="12.716015407449435"><ele>563.6666666666666</ele><time>2026-05-02T15:37:48Z</time></trkpt><trkpt lat="41.71904245202626" lon="12.715938913769627"><ele>560.3333333333333</ele><time>2026-05-02T15:37:50.999Z</time></trkpt><trkpt lat="41.71903160938389" lon="12.71584413197376"><ele>557.0</ele><time>2026-05-02T15:37:53.999Z</time></trkpt><trkpt lat="41.71897476974952" lon="12.715757531946359"><ele>554.8333333333333</ele><time>2026-05-02T15:37:56.999Z</time></trkpt><trkpt lat="41.718909442487764" lon="12.71568580760124"><ele>552.6666666666666</ele><time>2026-05-02T15:37:59.999Z</time></trkpt><trkpt lat="41.718853176373415" lon="12.715579949405745"><ele>550.5</ele><time>2026-05-02T15:38:02.999Z</time></trkpt><trkpt lat="41.71880897032827" lon="12.71549601934243"><ele>548.3333333333334</ele><time>2026-05-02T15:38:04.999Z</time></trkpt><trkpt lat="41.7187610129576" lon="12.715405858245292"><ele>546.1666666666667</ele><time>2026-05-02T15:38:06.999Z</time></trkpt><trkpt lat="41.71871543165194" lon="12.71531717499282"><ele>544.0</ele><time>2026-05-02T15:38:08.999Z</time></trkpt><trkpt lat="41.71866957481611" lon="12.715232871129666"><ele>542.1666666666667</ele><time>2026-05-02T15:38:10.999Z</time></trkpt><trkpt lat="41.718597333052095" lon="12.715211978377008"><ele>540.3333333333334</ele><time>2026-05-02T15:38:12.999Z</time></trkpt><trkpt lat="41.71851242009812" lon="12.715173202299455"><ele>538.5</ele><time>2026-05-02T15:38:14.999Z</time></trkpt><trkpt lat="41.71849403393919" lon="12.715059823691623"><ele>536.6666666666666</ele><time>2026-05-02T15:38:15.999Z</time></trkpt><trkpt lat="41.71841740765565" lon="12.715027993809942"><ele>534.8333333333333</ele><time>2026-05-02T15:38:17.999Z</time></trkpt><trkpt lat="41.71835725734673" lon="12.715080903975984"><ele>533.0</ele><time>2026-05-02T15:38:18.999Z</time></trkpt><trkpt lat="41.71826922840423" lon="12.715112585339037"><ele>532.5</ele><time>2026-05-02T15:38:21.999Z</time></trkpt><trkpt lat="41.71818618752229" lon="12.715163547858857"><ele>532.0</ele><time>2026-05-02T15:38:23.999Z</time></trkpt><trkpt lat="41.71812841555313" lon="12.715205478613136"><ele>531.5</ele><time>2026-05-02T15:38:25.999Z</time></trkpt><trkpt lat="41.71808280490171" lon="12.715263972153693"><ele>531.0</ele><time>2026-05-02T15:38:29.999Z</time></trkpt><trkpt lat="41.71816953119364" lon="12.715261280118698"><ele>530.5</ele><time>2026-05-02T15:39:38.999Z</time></trkpt><trkpt lat="41.71823507007896" lon="12.715363351713536"><ele>530.0</ele><time>2026-05-02T15:40:03.999Z</time></trkpt><trkpt lat="41.718198801511534" lon="12.715287613667376"><ele>529.9999999999999</ele><time>2026-05-02T15:43:24.999Z</time></trkpt><trkpt lat="41.71826479355793" lon="12.715274427097237"><ele>530.0</ele><time>2026-05-02T15:44:36.999Z</time></trkpt><trkpt lat="41.718319929045066" lon="12.715215015560476"><ele>530.0</ele><time>2026-05-02T15:44:54.999Z</time></trkpt><trkpt lat="41.71833098318784" lon="12.715128796091646"><ele>530.0</ele><time>2026-05-02T15:45:05.999Z</time></trkpt><trkpt lat="41.71841021208943" lon="12.715114531300177"><ele>530.0</ele><time>2026-05-02T15:45:14.999Z</time></trkpt><trkpt lat="41.718425592020346" lon="12.715028603503114"><ele>529.9999999999999</ele><time>2026-05-02T15:45:19.999Z</time></trkpt><trkpt lat="41.718490063655075" lon="12.715036719401395"><ele>530.0</ele><time>2026-05-02T15:45:29Z</time></trkpt><trkpt lat="41.71857984152891" lon="12.71507691564799"><ele>530.4285714285713</ele><time>2026-05-02T15:47:44.001Z</time></trkpt><trkpt lat="41.718647012339154" lon="12.715083666518085"><ele>530.8571428571429</ele><time>2026-05-02T15:47:55.001Z</time></trkpt><trkpt lat="41.71869501724785" lon="12.715148023429043"><ele>531.2857142857142</ele><time>2026-05-02T15:48:04.001Z</time></trkpt><trkpt lat="41.71873495255205" lon="12.715213618163109"><ele>531.7142857142857</ele><time>2026-05-02T15:48:12.001Z</time></trkpt><trkpt lat="41.71875941760011" lon="12.715304553475168"><ele>532.1428571428571</ele><time>2026-05-02T15:48:20Z</time></trkpt><trkpt lat="41.718795180523436" lon="12.715384150741219"><ele>532.5714285714286</ele><time>2026-05-02T15:48:28Z</time></trkpt><trkpt lat="41.71885830508401" lon="12.715394015882168"><ele>533.0</ele><time>2026-05-02T15:49:58.001Z</time></trkpt><trkpt lat="41.7189240274751" lon="12.715363099143445"><ele>533.0</ele><time>2026-05-02T15:50:07.001Z</time></trkpt><trkpt lat="41.718990241942336" lon="12.715337338656909"><ele>533.0</ele><time>2026-05-02T15:50:15.001Z</time></trkpt><trkpt lat="41.719059989395895" lon="12.715325419572114"><ele>533.0</ele><time>2026-05-02T15:50:26.001Z</time></trkpt><trkpt lat="41.71912227762579" lon="12.715303414837484"><ele>533.0</ele><time>2026-05-02T15:50:34.001Z</time></trkpt><trkpt lat="41.71920781176734" lon="12.715330892743493"><ele>533.0</ele><time>2026-05-02T15:51:04Z</time></trkpt><trkpt lat="41.719220918604556" lon="12.71522072487421"><ele>533.0</ele><time>2026-05-02T15:51:18Z</time></trkpt><trkpt lat="41.719231282039814" lon="12.715137390091595"><ele>533.0</ele><time>2026-05-02T15:51:31Z</time></trkpt><trkpt lat="41.719214726557" lon="12.715047435978143"><ele>533.0</ele><time>2026-05-02T15:51:58.001Z</time></trkpt><trkpt lat="41.71923195804942" lon="12.71496128340409"><ele>533.0</ele><time>2026-05-02T15:53:05Z</time></trkpt><trkpt lat="41.7192240585656" lon="12.714870482723965"><ele>533.0</ele><time>2026-05-02T15:53:14Z</time></trkpt><trkpt lat="41.719223713909656" lon="12.71478206468666"><ele>533.0</ele><time>2026-05-02T15:54:02.001Z</time></trkpt><trkpt lat="41.71927627832767" lon="12.714714752160507"><ele>533.0</ele><time>2026-05-02T15:54:18Z</time></trkpt><trkpt lat="41.719363579832034" lon="12.714662945028795"><ele>533.0</ele><time>2026-05-02T15:54:46Z</time></trkpt><trkpt lat="41.71938738534718" lon="12.71457203495655"><ele>533.0</ele><time>2026-05-02T15:55:20.999Z</time></trkpt><trkpt lat="41.71944945219109" lon="12.714542781483356"><ele>534.4285714285714</ele><time>2026-05-02T16:03:24Z</time></trkpt><trkpt lat="41.71951837450499" lon="12.714520126309061"><ele>535.8571428571428</ele><time>2026-05-02T16:03:31Z</time></trkpt><trkpt lat="41.71957501823984" lon="12.714474916328607"><ele>537.2857142857142</ele><time>2026-05-02T16:03:39Z</time></trkpt><trkpt lat="41.71961957722065" lon="12.714403057033364"><ele>538.7142857142857</ele><time>2026-05-02T16:03:48.999Z</time></trkpt><trkpt lat="41.71964932654096" lon="12.7143227074152"><ele>540.1428571428571</ele><time>2026-05-02T16:03:59.999Z</time></trkpt><trkpt lat="41.719701905061754" lon="12.714271636906659"><ele>541.5714285714286</ele><time>2026-05-02T16:04:11.999Z</time></trkpt><trkpt lat="41.71974839388545" lon="12.714208022963916"><ele>543.0</ele><time>2026-05-02T16:04:23.001Z</time></trkpt><trkpt lat="41.71981160482936" lon="12.714150525494624"><ele>543.0</ele><time>2026-05-02T16:04:36.001Z</time></trkpt><trkpt lat="41.71986290952143" lon="12.714095507272628"><ele>543.0</ele><time>2026-05-02T16:04:46.001Z</time></trkpt><trkpt lat="41.71992665156231" lon="12.71406378948105"><ele>543.0</ele><time>2026-05-02T16:04:58Z</time></trkpt><trkpt lat="41.71995594687024" lon="12.713977888085298"><ele>543.0</ele><time>2026-05-02T16:05:08Z</time></trkpt><trkpt lat="41.719897792355" lon="12.713937310006042"><ele>543.0</ele><time>2026-05-02T16:05:26Z</time></trkpt><trkpt lat="41.71994563561859" lon="12.713880691453776"><ele>543.0</ele><time>2026-05-02T16:07:33Z</time></trkpt><trkpt lat="41.71997288501689" lon="12.713796296822556"><ele>543.0</ele><time>2026-05-02T16:07:43.999Z</time></trkpt><trkpt lat="41.72000462483926" lon="12.713713917318227"><ele>543.0</ele><time>2026-05-02T16:08:01.999Z</time></trkpt><trkpt lat="41.72000131098022" lon="12.713625877848056"><ele>543.0</ele><time>2026-05-02T16:08:11.999Z</time></trkpt><trkpt lat="41.71997732158023" lon="12.713547159159692"><ele>543.0</ele><time>2026-05-02T16:08:19.999Z</time></trkpt><trkpt lat="41.71991520302592" lon="12.713510543367974"><ele>543.0</ele><time>2026-05-02T16:08:29Z</time></trkpt><trkpt lat="41.71988155510534" lon="12.713428200369778"><ele>543.0</ele><time>2026-05-02T16:08:36Z</time></trkpt><trkpt lat="41.719909939441" lon="12.713350990881809"><ele>543.0</ele><time>2026-05-02T16:09:55.999Z</time></trkpt><trkpt lat="41.719876427499216" lon="12.713267798173954"><ele>543.0</ele><time>2026-05-02T16:10:14.999Z</time></trkpt><trkpt lat="41.71992892410818" lon="12.713317235576088"><ele>542.7142857142858</ele><time>2026-05-02T16:11:29.998Z</time></trkpt><trkpt lat="41.71995707506985" lon="12.713399811346692"><ele>542.4285714285714</ele><time>2026-05-02T16:11:39.998Z</time></trkpt><trkpt lat="41.72000486963413" lon="12.713456212016375"><ele>542.1428571428571</ele><time>2026-05-02T16:11:55.998Z</time></trkpt><trkpt lat="41.720070654250165" lon="12.713445890909611"><ele>541.8571428571429</ele><time>2026-05-02T16:12:24.998Z</time></trkpt><trkpt lat="41.72012623903858" lon="12.713388817746628"><ele>541.5714285714286</ele><time>2026-05-02T16:12:39.998Z</time></trkpt><trkpt lat="41.720179799998874" lon="12.713333052046634"><ele>541.2857142857143</ele><time>2026-05-02T16:12:52.998Z</time></trkpt><trkpt lat="41.72023918774604" lon="12.713291915298527"><ele>541.0</ele><time>2026-05-02T16:13:05.998Z</time></trkpt><trkpt lat="41.72028992656644" lon="12.7132209186991"><ele>541.0000000000001</ele><time>2026-05-02T16:13:19.998Z</time></trkpt><trkpt lat="41.72033477180158" lon="12.713153593682467"><ele>541.0</ele><time>2026-05-02T16:13:28.998Z</time></trkpt><trkpt lat="41.720403675024286" lon="12.713070433960949"><ele>541.0</ele><time>2026-05-02T16:13:44.998Z</time></trkpt><trkpt lat="41.72046318927786" lon="12.713007697412117"><ele>541.0</ele><time>2026-05-02T16:13:58.998Z</time></trkpt><trkpt lat="41.720489710422584" lon="12.712922753882573"><ele>541.0</ele><time>2026-05-02T16:14:04.998Z</time></trkpt><trkpt lat="41.72053382510704" lon="12.71284883384566"><ele>541.0000000000001</ele><time>2026-05-02T16:14:13.998Z</time></trkpt><trkpt lat="41.72058773041926" lon="12.71279903313712"><ele>541.0</ele><time>2026-05-02T16:14:19.998Z</time></trkpt><trkpt lat="41.720541013175485" lon="12.712736127026968"><ele>536.7142857142858</ele><time>2026-05-02T16:19:27Z</time></trkpt><trkpt lat="41.72051790203421" lon="12.712650683409834"><ele>532.4285714285714</ele><time>2026-05-02T16:19:39Z</time></trkpt><trkpt lat="41.72048042165401" lon="12.712580641137865"><ele>528.1428571428571</ele><time>2026-05-02T16:19:51Z</time></trkpt><trkpt lat="41.72042238296136" lon="12.712533774117482"><ele>523.8571428571429</ele><time>2026-05-02T16:20:03Z</time></trkpt><trkpt lat="41.72037483025055" lon="12.712473269572847"><ele>519.5714285714286</ele><time>2026-05-02T16:20:15Z</time></trkpt><trkpt lat="41.72031893163644" lon="12.712428626824583"><ele>515.2857142857143</ele><time>2026-05-02T16:20:26Z</time></trkpt><trkpt lat="41.72026537134934" lon="12.712380863130125"><ele>511.0</ele><time>2026-05-02T16:20:35Z</time></trkpt><trkpt lat="41.720193526755246" lon="12.712361252970883"><ele>511.00000000000006</ele><time>2026-05-02T16:20:45Z</time></trkpt><trkpt lat="41.72013046241393" lon="12.712358776005168"><ele>511.0</ele><time>2026-05-02T16:20:54Z</time></trkpt><trkpt lat="41.720060773502944" lon="12.712319816982719"><ele>511.0</ele><time>2026-05-02T16:21:13.001Z</time></trkpt><trkpt lat="41.71995867902448" lon="12.712270049597727"><ele>511.0</ele><time>2026-05-02T16:22:27Z</time></trkpt><trkpt lat="41.719889188069395" lon="12.712262313921567"><ele>511.00000000000006</ele><time>2026-05-02T16:22:34Z</time></trkpt><trkpt lat="41.71981982743581" lon="12.712268327949712"><ele>511.0</ele><time>2026-05-02T16:22:42Z</time></trkpt><trkpt lat="41.719752089017376" lon="12.712267252018792"><ele>511.0</ele><time>2026-05-02T16:22:49Z</time></trkpt><trkpt lat="41.719686650816755" lon="12.712256731496248"><ele>511.0</ele><time>2026-05-02T16:22:57Z</time></trkpt><trkpt lat="41.71961607364586" lon="12.712263535295685"><ele>511.0</ele><time>2026-05-02T16:23:05Z</time></trkpt><trkpt lat="41.719558669738944" lon="12.712220492294033"><ele>511.0</ele><time>2026-05-02T16:23:19Z</time></trkpt><trkpt lat="41.71949379364185" lon="12.712207692147453"><ele>511.0</ele><time>2026-05-02T16:23:31Z</time></trkpt><trkpt lat="41.71943078312221" lon="12.712197199192737"><ele>511.0</ele><time>2026-05-02T16:23:42Z</time></trkpt><trkpt lat="41.719487010451324" lon="12.712140698536901"><ele>511.0</ele><time>2026-05-02T16:25:06.999Z</time></trkpt><trkpt lat="41.71954332114814" lon="12.71208549618668"><ele>511.0</ele><time>2026-05-02T16:25:16.998Z</time></trkpt><trkpt lat="41.719607623891825" lon="12.71205879784119"><ele>511.0</ele><time>2026-05-02T16:25:50.999Z</time></trkpt><trkpt lat="41.71967784103607" lon="12.712061611403655"><ele>511.0</ele><time>2026-05-02T16:25:59.999Z</time></trkpt><trkpt lat="41.71974599100205" lon="12.712085316417944"><ele>511.0</ele><time>2026-05-02T16:26:10.999Z</time></trkpt><trkpt lat="41.71980817434003" lon="12.712070904668648"><ele>511.0</ele><time>2026-05-02T16:26:17.999Z</time></trkpt><trkpt lat="41.71974942619676" lon="12.712115243430214"><ele>511.0</ele><time>2026-05-02T16:26:36.999Z</time></trkpt><trkpt lat="41.71968268588194" lon="12.712118606137711"><ele>511.0</ele><time>2026-05-02T16:26:45.999Z</time></trkpt><trkpt lat="41.71961422300371" lon="12.712072662668241"><ele>511.0</ele><time>2026-05-02T16:26:53.999Z</time></trkpt><trkpt lat="41.719551234142365" lon="12.712110666812858"><ele>511.0</ele><time>2026-05-02T16:27:08.999Z</time></trkpt><trkpt lat="41.71950205724854" lon="12.712171815815754"><ele>511.0</ele><time>2026-05-02T16:27:26.998Z</time></trkpt><trkpt lat="41.71947566300861" lon="12.712265608090659"><ele>511.0</ele><time>2026-05-02T16:27:47.999Z</time></trkpt><trkpt lat="41.71945380878008" lon="12.712348505319786"><ele>511.0</ele><time>2026-05-02T16:28:01.999Z</time></trkpt><trkpt lat="41.719392529937956" lon="12.71232025329232"><ele>511.0</ele><time>2026-05-02T17:33:45.998Z</time></trkpt><trkpt lat="41.71942963980066" lon="12.712404680544706"><ele>511.0</ele><time>2026-05-02T17:35:12.999Z</time></trkpt><trkpt lat="41.719430102841855" lon="12.712519818348555"><ele>511.0</ele><time>2026-05-02T17:35:50.998Z</time></trkpt><trkpt lat="41.7194166966313" lon="12.712603370443823"><ele>511.0</ele><time>2026-05-02T17:36:01.998Z</time></trkpt><trkpt lat="41.71940595939289" lon="12.712691127735475"><ele>511.0</ele><time>2026-05-02T17:36:12.998Z</time></trkpt><trkpt lat="41.71941079862034" lon="12.712783045642809"><ele>511.0</ele><time>2026-05-02T17:36:19.998Z</time></trkpt><trkpt lat="41.7194134629695" lon="12.71286948924403"><ele>511.0</ele><time>2026-05-02T17:36:32Z</time></trkpt><trkpt lat="41.71943424612616" lon="12.712950655261574"><ele>511.0</ele><time>2026-05-02T17:36:41Z</time></trkpt><trkpt lat="41.71948431103181" lon="12.71300259676292"><ele>511.0</ele><time>2026-05-02T17:36:51Z</time></trkpt><trkpt lat="41.71952424920251" lon="12.713081167086097"><ele>513.8571428571429</ele><time>2026-05-02T17:37:00Z</time></trkpt><trkpt lat="41.719565997273996" lon="12.713144694505921"><ele>516.7142857142858</ele><time>2026-05-02T17:37:08.999Z</time></trkpt><trkpt lat="41.719610030041046" lon="12.713214915790076"><ele>519.5714285714286</ele><time>2026-05-02T17:37:14.999Z</time></trkpt><trkpt lat="41.7196639890386" lon="12.713268830069264"><ele>522.4285714285714</ele><time>2026-05-02T17:37:22.999Z</time></trkpt><trkpt lat="41.719702461971934" lon="12.713346308986925"><ele>525.2857142857143</ele><time>2026-05-02T17:37:32.999Z</time></trkpt><trkpt lat="41.71973205424697" lon="12.713427496599454"><ele>528.1428571428571</ele><time>2026-05-02T17:37:43.999Z</time></trkpt><trkpt lat="41.71973829063628" lon="12.713515613421476"><ele>531.0</ele><time>2026-05-02T17:37:52.999Z</time></trkpt><trkpt lat="41.71977122195209" lon="12.713598386765625"><ele>532.7142857142858</ele><time>2026-05-02T17:38:00.998Z</time></trkpt><trkpt lat="41.71978690475002" lon="12.713687063260853"><ele>534.4285714285714</ele><time>2026-05-02T17:38:15.998Z</time></trkpt><trkpt lat="41.71976438514534" lon="12.713773616922394"><ele>536.1428571428571</ele><time>2026-05-02T17:38:30.998Z</time></trkpt><trkpt lat="41.719741113811786" lon="12.713863370798196"><ele>537.8571428571429</ele><time>2026-05-02T17:38:37Z</time></trkpt><trkpt lat="41.71969130140543" lon="12.713931614660194"><ele>539.5714285714286</ele><time>2026-05-02T17:38:46Z</time></trkpt><trkpt lat="41.71964693070037" lon="12.713999843448558"><ele>541.2857142857143</ele><time>2026-05-02T17:38:56Z</time></trkpt><trkpt lat="41.71959951647477" lon="12.714056210099477"><ele>543.0</ele><time>2026-05-02T17:39:07Z</time></trkpt><trkpt lat="41.71956193673938" lon="12.714131972620992"><ele>543.0</ele><time>2026-05-02T17:39:14.999Z</time></trkpt><trkpt lat="41.71950550997047" lon="12.714187445022649"><ele>543.0</ele><time>2026-05-02T17:39:25.999Z</time></trkpt><trkpt lat="41.71943353614733" lon="12.71427532378152"><ele>543.0</ele><time>2026-05-02T17:39:50.999Z</time></trkpt><trkpt lat="41.719367971724274" lon="12.714267863347311"><ele>543.0</ele><time>2026-05-02T17:40:13.998Z</time></trkpt><trkpt lat="41.719333292487114" lon="12.714358105153506"><ele>543.0</ele><time>2026-05-02T17:40:24.998Z</time></trkpt><trkpt lat="41.7192718278357" lon="12.714379386425511"><ele>543.0</ele><time>2026-05-02T17:40:33.998Z</time></trkpt><trkpt lat="41.719191913283176" lon="12.714381155788645"><ele>541.5714285714286</ele><time>2026-05-02T17:40:42Z</time></trkpt><trkpt lat="41.719123957917645" lon="12.714403528405041"><ele>540.1428571428571</ele><time>2026-05-02T17:40:53Z</time></trkpt><trkpt lat="41.71909012970809" lon="12.71447977217492"><ele>538.7142857142857</ele><time>2026-05-02T17:41:01Z</time></trkpt><trkpt lat="41.7190744256056" lon="12.714568072096633"><ele>537.2857142857142</ele><time>2026-05-02T17:41:09Z</time></trkpt><trkpt lat="41.71904858121758" lon="12.714646749916305"><ele>535.8571428571428</ele><time>2026-05-02T17:41:15Z</time></trkpt><trkpt lat="41.718987599222785" lon="12.714677152688177"><ele>534.4285714285714</ele><time>2026-05-02T17:41:23.999Z</time></trkpt><trkpt lat="41.719054272394644" lon="12.714696731877366"><ele>533.0</ele><time>2026-05-02T17:41:42.999Z</time></trkpt><trkpt lat="41.71912939207677" lon="12.714756671997362"><ele>533.0</ele><time>2026-05-02T17:41:55.999Z</time></trkpt><trkpt lat="41.71915355721469" lon="12.714845793723544"><ele>533.0</ele><time>2026-05-02T17:42:10.999Z</time></trkpt><trkpt lat="41.71916320015863" lon="12.71493555292022"><ele>533.0</ele><time>2026-05-02T17:42:24.998Z</time></trkpt><trkpt lat="41.719168472424094" lon="12.715020699142594"><ele>533.0</ele><time>2026-05-02T17:43:08Z</time></trkpt><trkpt lat="41.71918625941373" lon="12.715108204501947"><ele>533.0</ele><time>2026-05-02T17:43:19Z</time></trkpt><trkpt lat="41.71917733250035" lon="12.715018477820616"><ele>533.0</ele><time>2026-05-02T17:43:58.999Z</time></trkpt><trkpt lat="41.719214497054026" lon="12.714940801797727"><ele>533.0</ele><time>2026-05-02T17:44:04.999Z</time></trkpt><trkpt lat="41.71922538186683" lon="12.714853161368298"><ele>533.0</ele><time>2026-05-02T17:44:13.999Z</time></trkpt><trkpt lat="41.71925707129181" lon="12.714777924890182"><ele>533.0</ele><time>2026-05-02T17:44:23.998Z</time></trkpt><trkpt lat="41.71929263177738" lon="12.71469560849469"><ele>533.0</ele><time>2026-05-02T17:44:30.998Z</time></trkpt><trkpt lat="41.71920903039005" lon="12.714785943242449"><ele>533.0</ele><time>2026-05-02T17:45:56.064Z</time></trkpt><trkpt lat="41.71932133507426" lon="12.714729921310113"><ele>533.0</ele><time>2026-05-02T17:48:24.996Z</time></trkpt><trkpt lat="41.71928109370219" lon="12.714821926953762"><ele>533.0</ele><time>2026-05-02T17:48:29Z</time></trkpt><trkpt lat="41.719279738699356" lon="12.714914420541458"><ele>533.0</ele><time>2026-05-02T17:48:34Z</time></trkpt><trkpt lat="41.71918856424525" lon="12.71465334283173"><ele>533.0</ele><time>2026-05-02T17:48:47Z</time></trkpt><trkpt lat="41.7192313110235" lon="12.714736285877644"><ele>533.0</ele><time>2026-05-02T17:52:10.998Z</time></trkpt><trkpt lat="41.71914353579713" lon="12.714716106883257"><ele>533.0</ele><time>2026-05-02T17:53:47.999Z</time></trkpt><trkpt lat="41.719182616889675" lon="12.714645229921587"><ele>533.0</ele><time>2026-05-02T17:54:10.999Z</time></trkpt><trkpt lat="41.71920759020927" lon="12.714726077142702"><ele>533.0</ele><time>2026-05-02T17:55:16Z</time></trkpt><trkpt lat="41.719307535776146" lon="12.714751245468452"><ele>533.0</ele><time>2026-05-02T17:55:27.999Z</time></trkpt><trkpt lat="41.71937463495375" lon="12.714806119349667"><ele>533.0</ele><time>2026-05-02T17:55:29.999Z</time></trkpt><trkpt lat="41.719430702174506" lon="12.714865737287981"><ele>533.0</ele><time>2026-05-02T17:55:32.999Z</time></trkpt><trkpt lat="41.719360324017636" lon="12.714712421085501"><ele>533.0</ele><time>2026-05-02T17:55:47.999Z</time></trkpt><trkpt lat="41.719346901481714" lon="12.714624909493647"><ele>533.0</ele><time>2026-05-02T17:56:21.998Z</time></trkpt><trkpt lat="41.71927327873391" lon="12.714623452125554"><ele>533.0</ele><time>2026-05-02T17:59:31Z</time></trkpt><trkpt lat="41.71922635799523" lon="12.71478485807153"><ele>533.0</ele><time>2026-05-02T17:59:50.999Z</time></trkpt><trkpt lat="41.71919917344343" lon="12.714877709489212"><ele>533.0</ele><time>2026-05-02T17:59:56.999Z</time></trkpt><trkpt lat="41.719196431293824" lon="12.71497707767775"><ele>533.0</ele><time>2026-05-02T18:00:05.999Z</time></trkpt><trkpt lat="41.719200929102385" lon="12.715072895098576"><ele>533.0</ele><time>2026-05-02T18:00:13.999Z</time></trkpt><trkpt lat="41.71919163363989" lon="12.715160146148826"><ele>534.5714285714286</ele><time>2026-05-02T18:00:22.999Z</time></trkpt><trkpt lat="41.71919301654602" lon="12.715256428482045"><ele>536.1428571428571</ele><time>2026-05-02T18:00:38.998Z</time></trkpt><trkpt lat="41.71915317974134" lon="12.715327411334677"><ele>537.7142857142857</ele><time>2026-05-02T18:00:46.998Z</time></trkpt><trkpt lat="41.71908848330543" lon="12.715343939702636"><ele>539.2857142857142</ele><time>2026-05-02T18:01:01Z</time></trkpt><trkpt lat="41.71904886220562" lon="12.71542044874663"><ele>540.8571428571429</ele><time>2026-05-02T18:01:26Z</time></trkpt><trkpt lat="41.718976482734384" lon="12.715415639823243"><ele>542.4285714285713</ele><time>2026-05-02T18:01:30Z</time></trkpt><trkpt lat="41.71890788553923" lon="12.715344966325755"><ele>544.0</ele><time>2026-05-02T18:01:34Z</time></trkpt><trkpt lat="41.718865910770674" lon="12.715270431173135"><ele>542.4285714285713</ele><time>2026-05-02T18:01:41Z</time></trkpt><trkpt lat="41.718834736041586" lon="12.71518831713276"><ele>540.8571428571429</ele><time>2026-05-02T18:01:49.999Z</time></trkpt><trkpt lat="41.71880979033562" lon="12.715105404863788"><ele>539.2857142857142</ele><time>2026-05-02T18:01:55.999Z</time></trkpt><trkpt lat="41.718774631277775" lon="12.715020844327226"><ele>537.7142857142857</ele><time>2026-05-02T18:02:03.999Z</time></trkpt><trkpt lat="41.71874167028411" lon="12.714939888490257"><ele>536.1428571428571</ele><time>2026-05-02T18:02:11.999Z</time></trkpt><trkpt lat="41.718710734541716" lon="12.714864492602208"><ele>534.5714285714286</ele><time>2026-05-02T18:02:17.999Z</time></trkpt><trkpt lat="41.7186628644873" lon="12.714788511488672"><ele>533.0</ele><time>2026-05-02T18:02:24.999Z</time></trkpt><trkpt lat="41.71862937385131" lon="12.71470133711312"><ele>532.5714285714286</ele><time>2026-05-02T18:02:31.999Z</time></trkpt><trkpt lat="41.718567169679815" lon="12.714676322078247"><ele>532.1428571428571</ele><time>2026-05-02T18:03:30Z</time></trkpt><trkpt lat="41.71850570060906" lon="12.714718030011882"><ele>531.7142857142857</ele><time>2026-05-02T18:03:39Z</time></trkpt><trkpt lat="41.71844509132738" lon="12.714757106509154"><ele>531.2857142857142</ele><time>2026-05-02T18:03:46Z</time></trkpt><trkpt lat="41.71843216632221" lon="12.7148418926611"><ele>530.8571428571429</ele><time>2026-05-02T18:05:07.998Z</time></trkpt><trkpt lat="41.718442312330204" lon="12.714929304826644"><ele>530.4285714285713</ele><time>2026-05-02T18:05:16Z</time></trkpt><trkpt lat="41.71840736346828" lon="12.715034780334573"><ele>530.0</ele><time>2026-05-02T18:05:44Z</time></trkpt><trkpt lat="41.71834676201759" lon="12.715070607507014"><ele>529.9999999999999</ele><time>2026-05-02T18:05:52Z</time></trkpt><trkpt lat="41.718287672689456" lon="12.715107209380013"><ele>530.0</ele><time>2026-05-02T18:05:57.999Z</time></trkpt><trkpt lat="41.71822774773761" lon="12.715143439930067"><ele>530.0</ele><time>2026-05-02T18:06:06.999Z</time></trkpt><trkpt lat="41.71817760157403" lon="12.715212166103756"><ele>530.0</ele><time>2026-05-02T18:06:16.999Z</time></trkpt><trkpt lat="41.71814615234027" lon="12.715290388041584"><ele>530.0</ele><time>2026-05-02T18:06:24.999Z</time></trkpt><trkpt lat="41.718086793042715" lon="12.715343380717002"><ele>529.9999999999999</ele><time>2026-05-02T18:12:24.999Z</time></trkpt><trkpt lat="41.71802654649066" lon="12.71536825886432"><ele>530.0</ele><time>2026-05-02T18:12:25.999Z</time></trkpt><trkpt lat="41.717933317677094" lon="12.715418976083537"><ele>532.0</ele><time>2026-05-02T18:12:27.999Z</time></trkpt><trkpt lat="41.7178421061749" lon="12.715485873429893"><ele>534.0</ele><time>2026-05-02T18:12:29.999Z</time></trkpt><trkpt lat="41.717750182612676" lon="12.715526741966602"><ele>536.0</ele><time>2026-05-02T18:12:31.999Z</time></trkpt><trkpt lat="41.717642605107216" lon="12.71556179936394"><ele>538.0</ele><time>2026-05-02T18:12:33.999Z</time></trkpt><trkpt lat="41.717545276634546" lon="12.715640307258235"><ele>540.0</ele><time>2026-05-02T18:12:35.999Z</time></trkpt><trkpt lat="41.717455618648046" lon="12.715728740205575"><ele>540.0</ele><time>2026-05-02T18:12:37.999Z</time></trkpt><trkpt lat="41.71739747510113" lon="12.715793999592183"><ele>540.0</ele><time>2026-05-02T18:12:39.999Z</time></trkpt><trkpt lat="41.717347183998015" lon="12.715846483435394"><ele>540.0</ele><time>2026-05-02T18:12:42.999Z</time></trkpt><trkpt lat="41.71746893758604" lon="12.71581265787189"><ele>540.0</ele><time>2026-05-02T18:12:48.999Z</time></trkpt><trkpt lat="41.717546140722945" lon="12.715739786949259"><ele>540.0</ele><time>2026-05-02T18:12:50.999Z</time></trkpt><trkpt lat="41.717641953845565" lon="12.715650294180891"><ele>543.0</ele><time>2026-05-02T18:12:52.999Z</time></trkpt><trkpt lat="41.717746502480374" lon="12.715581378210183"><ele>546.0</ele><time>2026-05-02T18:12:54.999Z</time></trkpt><trkpt lat="41.717853630080015" lon="12.715510934623277"><ele>549.0</ele><time>2026-05-02T18:12:56.999Z</time></trkpt><trkpt lat="41.71796648791213" lon="12.715440218736008"><ele>552.0</ele><time>2026-05-02T18:12:58.999Z</time></trkpt><trkpt lat="41.71802407145289" lon="12.71540065328184"><ele>555.0</ele><time>2026-05-02T18:12:59.999Z</time></trkpt><trkpt lat="41.718082303154986" lon="12.715360098169084"><ele>555.0000000000001</ele><time>2026-05-02T18:13:00.999Z</time></trkpt><trkpt lat="41.71814423759374" lon="12.715313037641092"><ele>555.0</ele><time>2026-05-02T18:13:01.999Z</time></trkpt><trkpt lat="41.718202600996584" lon="12.715267532400558"><ele>555.0</ele><time>2026-05-02T18:13:02.999Z</time></trkpt><trkpt lat="41.718261128737694" lon="12.715228530260859"><ele>555.0</ele><time>2026-05-02T18:13:03.999Z</time></trkpt><trkpt lat="41.718324869580655" lon="12.715206617238179"><ele>555.0</ele><time>2026-05-02T18:13:04.999Z</time></trkpt><trkpt lat="41.7183895669176" lon="12.71521075013277"><ele>555.0000000000001</ele><time>2026-05-02T18:13:05.999Z</time></trkpt><trkpt lat="41.718456333635324" lon="12.715209262470719"><ele>555.0</ele><time>2026-05-02T18:13:06.999Z</time></trkpt><trkpt lat="41.718522917280204" lon="12.715219684181475"><ele>552.8</ele><time>2026-05-02T18:13:07.999Z</time></trkpt><trkpt lat="41.71862232974232" lon="12.715215256820716"><ele>550.6</ele><time>2026-05-02T18:13:09.999Z</time></trkpt><trkpt lat="41.718671664415446" lon="12.715282068485562"><ele>548.4</ele><time>2026-05-02T18:13:10.999Z</time></trkpt><trkpt lat="41.7187247980206" lon="12.71540738850609"><ele>546.2</ele><time>2026-05-02T18:13:12.999Z</time></trkpt><trkpt lat="41.71879262248453" lon="12.715530019589007"><ele>544.0</ele><time>2026-05-02T18:13:14.999Z</time></trkpt><trkpt lat="41.71882596342969" lon="12.715605491161629"><ele>543.9999999999999</ele><time>2026-05-02T18:13:15.999Z</time></trkpt><trkpt lat="41.718862451990255" lon="12.715691745366687"><ele>544.0</ele><time>2026-05-02T18:13:16.999Z</time></trkpt><trkpt lat="41.71890464641536" lon="12.715779124327613"><ele>544.0</ele><time>2026-05-02T18:13:17.999Z</time></trkpt><trkpt lat="41.718947558011415" lon="12.715860747782578"><ele>544.0</ele><time>2026-05-02T18:13:18.998Z</time></trkpt><trkpt lat="41.718987474463646" lon="12.715937490270136"><ele>544.0</ele><time>2026-05-02T18:13:19.998Z</time></trkpt><trkpt lat="41.71902612700043" lon="12.716011913058141"><ele>543.9999999999999</ele><time>2026-05-02T18:13:20.998Z</time></trkpt><trkpt lat="41.719067281500905" lon="12.716093808292607"><ele>544.0</ele><time>2026-05-02T18:13:21.998Z</time></trkpt><trkpt lat="41.71910689708354" lon="12.716182099797791"><ele>546.1666666666667</ele><time>2026-05-02T18:13:22.998Z</time></trkpt><trkpt lat="41.71914533561406" lon="12.71626683908342"><ele>548.3333333333334</ele><time>2026-05-02T18:13:23.998Z</time></trkpt><trkpt lat="41.71918735529388" lon="12.71634966964714"><ele>550.5</ele><time>2026-05-02T18:13:24.998Z</time></trkpt><trkpt lat="41.71923446455051" lon="12.716433538157208"><ele>552.6666666666666</ele><time>2026-05-02T18:13:25.998Z</time></trkpt><trkpt lat="41.71929045571477" lon="12.716508768565234"><ele>554.8333333333333</ele><time>2026-05-02T18:13:26.998Z</time></trkpt><trkpt lat="41.71934219061041" lon="12.716596158038554"><ele>557.0</ele><time>2026-05-02T18:13:27.998Z</time></trkpt><trkpt lat="41.71938243379323" lon="12.71668890688257"><ele>560.3333333333333</ele><time>2026-05-02T18:13:28.998Z</time></trkpt><trkpt lat="41.719434984064506" lon="12.716770424405023"><ele>563.6666666666666</ele><time>2026-05-02T18:13:29.998Z</time></trkpt><trkpt lat="41.71948002273577" lon="12.716866900261756"><ele>567.0</ele><time>2026-05-02T18:13:30.998Z</time></trkpt><trkpt lat="41.71950079687451" lon="12.716965344046669"><ele>570.3333333333334</ele><time>2026-05-02T18:13:31.998Z</time></trkpt><trkpt lat="41.71948874215491" lon="12.717074045545447"><ele>573.6666666666667</ele><time>2026-05-02T18:13:32.998Z</time></trkpt><trkpt lat="41.71947152440545" lon="12.717182069624815"><ele>577.0</ele><time>2026-05-02T18:13:33.998Z</time></trkpt><trkpt lat="41.719446916118024" lon="12.717282159564098"><ele>577.5</ele><time>2026-05-02T18:13:34.998Z</time></trkpt><trkpt lat="41.71941864860358" lon="12.717380076945826"><ele>578.0</ele><time>2026-05-02T18:13:36Z</time></trkpt><trkpt lat="41.71939814432945" lon="12.717484254500652"><ele>578.5</ele><time>2026-05-02T18:13:37Z</time></trkpt><trkpt lat="41.71938341966356" lon="12.717592234684492"><ele>579.0</ele><time>2026-05-02T18:13:38Z</time></trkpt><trkpt lat="41.71938439929905" lon="12.717704843197135"><ele>579.5</ele><time>2026-05-02T18:13:39Z</time></trkpt><trkpt lat="41.71939747784907" lon="12.71781676330863"><ele>580.0</ele><time>2026-05-02T18:13:40Z</time></trkpt><trkpt lat="41.71943010488643" lon="12.717929540700306"><ele>580.5</ele><time>2026-05-02T18:13:41Z</time></trkpt><trkpt lat="41.719473605050226" lon="12.71802947453346"><ele>581.0</ele><time>2026-05-02T18:13:42Z</time></trkpt><trkpt lat="41.719514675723474" lon="12.718112534365591"><ele>581.5</ele><time>2026-05-02T18:13:43Z</time></trkpt><trkpt lat="41.71953734939675" lon="12.718214113745862"><ele>582.0</ele><time>2026-05-02T18:13:44Z</time></trkpt><trkpt lat="41.7195467424927" lon="12.718319052925143"><ele>582.5</ele><time>2026-05-02T18:13:45Z</time></trkpt><trkpt lat="41.719533982600936" lon="12.718413775346772"><ele>583.0</ele><time>2026-05-02T18:13:46Z</time></trkpt><trkpt lat="41.719473620273504" lon="12.718581568752604"><ele>583.0</ele><time>2026-05-02T18:13:48Z</time></trkpt><trkpt lat="41.719457913889485" lon="12.718676830526505"><ele>583.0</ele><time>2026-05-02T18:13:49Z</time></trkpt><trkpt lat="41.71948895071799" lon="12.718789944280243"><ele>583.0</ele><time>2026-05-02T18:13:50Z</time></trkpt><trkpt lat="41.71953573563839" lon="12.718881985618433"><ele>583.0</ele><time>2026-05-02T18:13:51Z</time></trkpt><trkpt lat="41.71958458390538" lon="12.718969269139013"><ele>583.0</ele><time>2026-05-02T18:13:52Z</time></trkpt><trkpt lat="41.719628967409726" lon="12.719041905357159"><ele>583.0</ele><time>2026-05-02T18:13:53Z</time></trkpt><trkpt lat="41.71967377603816" lon="12.719131347837914"><ele>583.0</ele><time>2026-05-02T18:13:54Z</time></trkpt><trkpt lat="41.71969570078542" lon="12.719222371115057"><ele>583.0</ele><time>2026-05-02T18:13:55Z</time></trkpt><trkpt lat="41.719699987592" lon="12.71934527733598"><ele>583.0</ele><time>2026-05-02T18:13:56Z</time></trkpt><trkpt lat="41.71971216160326" lon="12.719445982332596"><ele>583.0</ele><time>2026-05-02T18:13:57Z</time></trkpt><trkpt lat="41.719728462223095" lon="12.719537084534517"><ele>583.0</ele><time>2026-05-02T18:13:58Z</time></trkpt><trkpt lat="41.71972847444189" lon="12.719636650486501"><ele>583.0</ele><time>2026-05-02T18:13:59Z</time></trkpt><trkpt lat="41.719779136103675" lon="12.719732763131653"><ele>583.3333333333334</ele><time>2026-05-02T18:14:00Z</time></trkpt><trkpt lat="41.719838742654204" lon="12.719801461538625"><ele>583.6666666666667</ele><time>2026-05-02T18:14:01Z</time></trkpt><trkpt lat="41.71993078094944" lon="12.719808676777951"><ele>584.0</ele><time>2026-05-02T18:14:02Z</time></trkpt><trkpt lat="41.720005150048884" lon="12.719822423787548"><ele>584.3333333333334</ele><time>2026-05-02T18:14:03Z</time></trkpt><trkpt lat="41.72008775095284" lon="12.71984340244287"><ele>584.6666666666666</ele><time>2026-05-02T18:14:04Z</time></trkpt><trkpt lat="41.7201567121127" lon="12.719896485027249"><ele>585.0</ele><time>2026-05-02T18:14:05Z</time></trkpt><trkpt lat="41.7202253257306" lon="12.719950228087617"><ele>586.6666666666666</ele><time>2026-05-02T18:14:06Z</time></trkpt><trkpt lat="41.72028826140233" lon="12.720011982909446"><ele>588.3333333333334</ele><time>2026-05-02T18:14:07Z</time></trkpt><trkpt lat="41.720349476600845" lon="12.720081832113975"><ele>590.0</ele><time>2026-05-02T18:14:08Z</time></trkpt><trkpt lat="41.720404921659906" lon="12.720140552140473"><ele>591.6666666666667</ele><time>2026-05-02T18:14:09Z</time></trkpt><trkpt lat="41.72046593193387" lon="12.72022607875432"><ele>593.3333333333334</ele><time>2026-05-02T18:14:10Z</time></trkpt><trkpt lat="41.72050972487345" lon="12.720324762003449"><ele>595.0</ele><time>2026-05-02T18:14:11Z</time></trkpt><trkpt lat="41.72055627769476" lon="12.72041760435854"><ele>595.0</ele><time>2026-05-02T18:14:12Z</time></trkpt><trkpt lat="41.72061072423237" lon="12.72051018924467"><ele>595.0</ele><time>2026-05-02T18:14:13Z</time></trkpt><trkpt lat="41.720671890494955" lon="12.72059011262518"><ele>595.0</ele><time>2026-05-02T18:14:14Z</time></trkpt><trkpt lat="41.7207608169974" lon="12.720612050623991"><ele>595.0</ele><time>2026-05-02T18:14:15Z</time></trkpt><trkpt lat="41.720847302381706" lon="12.720656327609586"><ele>595.0</ele><time>2026-05-02T18:14:16Z</time></trkpt><trkpt lat="41.720927565424596" lon="12.720720691488799"><ele>595.0</ele><time>2026-05-02T18:14:17Z</time></trkpt><trkpt lat="41.721013171190336" lon="12.720762277057073"><ele>595.0</ele><time>2026-05-02T18:14:18Z</time></trkpt><trkpt lat="41.721107786063364" lon="12.72079580524641"><ele>595.0</ele><time>2026-05-02T18:14:19Z</time></trkpt><trkpt lat="41.721197488395525" lon="12.72084457377878"><ele>595.0</ele><time>2026-05-02T18:14:20Z</time></trkpt><trkpt lat="41.72128344985188" lon="12.720893523410004"><ele>595.0</ele><time>2026-05-02T18:14:21Z</time></trkpt><trkpt lat="41.721370097678935" lon="12.72094364623421"><ele>596.2</ele><time>2026-05-02T18:14:22Z</time></trkpt><trkpt lat="41.72146303214993" lon="12.720982854755741"><ele>597.4</ele><time>2026-05-02T18:14:23Z</time></trkpt><trkpt lat="41.72155309041444" lon="12.721029272270039"><ele>598.6</ele><time>2026-05-02T18:14:24Z</time></trkpt><trkpt lat="41.72164016311538" lon="12.721084366661016"><ele>599.8</ele><time>2026-05-02T18:14:25Z</time></trkpt><trkpt lat="41.7217273907603" lon="12.721136392757314"><ele>601.0</ele><time>2026-05-02T18:14:26Z</time></trkpt><trkpt lat="41.72181507234319" lon="12.721188023913795"><ele>601.8</ele><time>2026-05-02T18:14:27Z</time></trkpt><trkpt lat="41.721907131515124" lon="12.721242784048314"><ele>602.6</ele><time>2026-05-02T18:14:28Z</time></trkpt><trkpt lat="41.72199473010568" lon="12.721300693205446"><ele>603.4</ele><time>2026-05-02T18:14:28.999Z</time></trkpt><trkpt lat="41.72208010205865" lon="12.721363938728556"><ele>604.2</ele><time>2026-05-02T18:14:29.999Z</time></trkpt><trkpt lat="41.722163729291196" lon="12.72143166111662"><ele>605.0</ele><time>2026-05-02T18:14:30.999Z</time></trkpt><trkpt lat="41.722244220931046" lon="12.721502299995823"><ele>605.0</ele><time>2026-05-02T18:14:31.999Z</time></trkpt><trkpt lat="41.722325996046656" lon="12.721568725020044"><ele>605.0</ele><time>2026-05-02T18:14:32.999Z</time></trkpt><trkpt lat="41.72240560816389" lon="12.721639057320226"><ele>605.0</ele><time>2026-05-02T18:14:33.999Z</time></trkpt><trkpt lat="41.72248801027762" lon="12.721702154352936"><ele>605.0</ele><time>2026-05-02T18:14:34.999Z</time></trkpt><trkpt lat="41.72257524972777" lon="12.721755701816038"><ele>605.0</ele><time>2026-05-02T18:14:35.999Z</time></trkpt><trkpt lat="41.722675237343566" lon="12.721778046267438"><ele>606.0</ele><time>2026-05-02T18:14:36.999Z</time></trkpt><trkpt lat="41.72276948690565" lon="12.721819029134862"><ele>607.0</ele><time>2026-05-02T18:14:37.999Z</time></trkpt><trkpt lat="41.72286113537706" lon="12.721841065662387"><ele>608.0</ele><time>2026-05-02T18:14:38.999Z</time></trkpt><trkpt lat="41.72295400815477" lon="12.721859501219589"><ele>609.0</ele><time>2026-05-02T18:14:39.999Z</time></trkpt><trkpt lat="41.723044771650805" lon="12.721877497844375"><ele>610.0</ele><time>2026-05-02T18:14:40.999Z</time></trkpt><trkpt lat="41.72313480569221" lon="12.721893895164513"><ele>610.2</ele><time>2026-05-02T18:14:41.999Z</time></trkpt><trkpt lat="41.723218614631364" lon="12.721906589292544"><ele>610.4</ele><time>2026-05-02T18:14:42.999Z</time></trkpt><trkpt lat="41.72329462978525" lon="12.721919033235212"><ele>610.6</ele><time>2026-05-02T18:14:43.999Z</time></trkpt><trkpt lat="41.72336615508903" lon="12.72191603074188"><ele>610.8</ele><time>2026-05-02T18:14:44.999Z</time></trkpt><trkpt lat="41.72343244023957" lon="12.721921099685927"><ele>611.0</ele><time>2026-05-02T18:14:45.999Z</time></trkpt><trkpt lat="41.72354891182574" lon="12.722065058649743"><ele>610.8</ele><time>2026-05-02T18:14:47.999Z</time></trkpt><trkpt lat="41.72363746499569" lon="12.722162915048013"><ele>610.6</ele><time>2026-05-02T18:14:49.999Z</time></trkpt><trkpt lat="41.723706802477295" lon="12.722239537615856"><ele>610.4</ele><time>2026-05-02T18:14:51.999Z</time></trkpt><trkpt lat="41.72380075698028" lon="12.722280407601767"><ele>610.2</ele><time>2026-05-02T18:14:53.999Z</time></trkpt><trkpt lat="41.723873992379545" lon="12.72232909575262"><ele>610.0</ele><time>2026-05-02T18:14:55.999Z</time></trkpt><trkpt lat="41.72394303325233" lon="12.722385547629182"><ele>610.0</ele><time>2026-05-02T18:14:57.999Z</time></trkpt><trkpt lat="41.723997452776125" lon="12.722465564965356"><ele>610.0</ele><time>2026-05-02T18:14:59.999Z</time></trkpt><trkpt lat="41.724065639547625" lon="12.722533942969335"><ele>610.0</ele><time>2026-05-02T18:15:01.999Z</time></trkpt><trkpt lat="41.724118043888154" lon="12.722626544910867"><ele>610.0</ele><time>2026-05-02T18:15:03.999Z</time></trkpt><trkpt lat="41.72420236644994" lon="12.722712412568734"><ele>610.0</ele><time>2026-05-02T18:15:05.999Z</time></trkpt><trkpt lat="41.72429246219823" lon="12.722796308118602"><ele>612.0</ele><time>2026-05-02T18:15:07.999Z</time></trkpt><trkpt lat="41.72439875473754" lon="12.722873439562184"><ele>614.0</ele><time>2026-05-02T18:15:09.999Z</time></trkpt><trkpt lat="41.72450058710002" lon="12.722968715741434"><ele>616.0</ele><time>2026-05-02T18:15:11.999Z</time></trkpt><trkpt lat="41.72455062896598" lon="12.723020398868137"><ele>618.0</ele><time>2026-05-02T18:15:12.999Z</time></trkpt><trkpt lat="41.72467412251425" lon="12.723026862535745"><ele>620.0</ele><time>2026-05-02T18:15:14.999Z</time></trkpt><trkpt lat="41.72473278969825" lon="12.722979727139554"><ele>620.0</ele><time>2026-05-02T18:15:15.999Z</time></trkpt><trkpt lat="41.72479596577718" lon="12.72291269791443"><ele>620.0</ele><time>2026-05-02T18:15:16.999Z</time></trkpt><trkpt lat="41.72490081608182" lon="12.722840023882107"><ele>620.0</ele><time>2026-05-02T18:15:18.999Z</time></trkpt><trkpt lat="41.72502987484707" lon="12.72281204452004"><ele>620.0</ele><time>2026-05-02T18:15:20.999Z</time></trkpt><trkpt lat="41.72509769789258" lon="12.722840996218386"><ele>620.0</ele><time>2026-05-02T18:15:21.999Z</time></trkpt><trkpt lat="41.72515801594076" lon="12.722868167930143"><ele>620.0</ele><time>2026-05-02T18:15:22.998Z</time></trkpt><trkpt lat="41.725222438131354" lon="12.72290096401234"><ele>620.0</ele><time>2026-05-02T18:15:23.998Z</time></trkpt><trkpt lat="41.72528870362833" lon="12.722937722997672"><ele>620.0</ele><time>2026-05-02T18:15:24.998Z</time></trkpt><trkpt lat="41.72534742572452" lon="12.72297094764211"><ele>620.0</ele><time>2026-05-02T18:15:25.998Z</time></trkpt><trkpt lat="41.72540727360411" lon="12.723004809764026"><ele>620.0</ele><time>2026-05-02T18:15:26.998Z</time></trkpt><trkpt lat="41.7254672518911" lon="12.723036200311817"><ele>620.0</ele><time>2026-05-02T18:15:27.998Z</time></trkpt><trkpt lat="41.725572348801315" lon="12.723092446227303"><ele>620.0</ele><time>2026-05-02T18:15:29.998Z</time></trkpt><trkpt lat="41.72564023470023" lon="12.723149288240212"><ele>621.0</ele><time>2026-05-02T18:15:31.998Z</time></trkpt><trkpt lat="41.72569490061093" lon="12.723198943504247"><ele>622.0</ele><time>2026-05-02T18:15:34.998Z</time></trkpt><trkpt lat="41.72555894766711" lon="12.72337022691354"><ele>623.0</ele><time>2026-05-02T18:15:37.998Z</time></trkpt><trkpt lat="41.725503058811114" lon="12.72342888832784"><ele>624.0</ele><time>2026-05-02T18:15:38.998Z</time></trkpt><trkpt lat="41.72543632707045" lon="12.723473681551274"><ele>625.0</ele><time>2026-05-02T18:15:39.998Z</time></trkpt><trkpt lat="41.725376988522044" lon="12.72352653512301"><ele>625.6666666666667</ele><time>2026-05-02T18:15:40.998Z</time></trkpt><trkpt lat="41.72532555010495" lon="12.723577504006052"><ele>626.3333333333334</ele><time>2026-05-02T18:15:42Z</time></trkpt><trkpt lat="41.725276512800974" lon="12.723632765442256"><ele>627.0</ele><time>2026-05-02T18:15:43Z</time></trkpt><trkpt lat="41.72519797698368" lon="12.723717419542043"><ele>627.6666666666666</ele><time>2026-05-02T18:15:45Z</time></trkpt><trkpt lat="41.7251212985903" lon="12.723738131857012"><ele>628.3333333333333</ele><time>2026-05-02T18:15:48Z</time></trkpt><trkpt lat="41.72499701035605" lon="12.723679276480619"><ele>629.0</ele><time>2026-05-02T18:15:51Z</time></trkpt><trkpt lat="41.724901577555435" lon="12.723715757513562"><ele>629.0</ele><time>2026-05-02T18:15:53Z</time></trkpt><trkpt lat="41.72481377062357" lon="12.723710897646049"><ele>629.0</ele><time>2026-05-02T18:15:55Z</time></trkpt><trkpt lat="41.724738587768414" lon="12.723725729637891"><ele>629.0</ele><time>2026-05-02T18:15:57Z</time></trkpt><trkpt lat="41.724664771933774" lon="12.723742411719336"><ele>629.0</ele><time>2026-05-02T18:15:59Z</time></trkpt><trkpt lat="41.72460384675039" lon="12.723782637817239"><ele>629.0</ele><time>2026-05-02T18:16:01Z</time></trkpt><trkpt lat="41.72453307958974" lon="12.723785788040994"><ele>629.0</ele><time>2026-05-02T18:17:06.999Z</time></trkpt><trkpt lat="41.724858062367794" lon="12.723881450628461"><ele>629.0</ele><time>2026-05-02T18:22:46.848Z</time></trkpt><trkpt lat="41.72467860678608" lon="12.723868228703916"><ele>629.0</ele><time>2026-05-02T18:23:42.515Z</time></trkpt><trkpt lat="41.724858062367794" lon="12.723881450628461"><ele>629.0</ele><time>2026-05-02T18:23:53.514Z</time></trkpt><trkpt lat="41.72465260272862" lon="12.723930875770886"><ele>629.0</ele><time>2026-05-02T18:28:01.513Z</time></trkpt></trkseg></trk></gpx>